<?xml version="1.0" encoding="UTF-8" standalone="no" ?>
<gpx xmlns="http://www.topografix.com/GPX/1/1" xmlns:xsi="http://www.w3.org/2001/XMLSchema-instance" xsi:schemaLocation="http://www.topografix.com/GPX/1/1 http://www.topografix.com/GPX/1/1/gpx.xsd" version="1.1" creator="VisuGPX - https://www.visugpx.com">
  <metadata>
    <name>Pic des redouneilles en boucle</name>
    <desc><![CDATA[Pic des redouneilles en boucle]]></desc>
  </metadata>
  <trk>
    <name><![CDATA[Randocourse]]></name>
    <cmt><![CDATA[pic des Redouneilles avec Manu]]></cmt>
    <trkseg>
      <trkpt lat="42.73052" lon="1.54961">
        <ele>943.67138671875</ele>
        <time>2011-05-28T07:15:33Z</time>
      </trkpt>
      <trkpt lat="42.73045" lon="1.54964">
        <ele>940.78735351562</ele>
        <time>2011-05-28T07:15:48Z</time>
      </trkpt>
      <trkpt lat="42.73042" lon="1.54964">
        <ele>941.74877929688</ele>
        <time>2011-05-28T07:15:56Z</time>
      </trkpt>
      <trkpt lat="42.73043" lon="1.54964">
        <ele>941.74877929688</ele>
        <time>2011-05-28T07:16:09Z</time>
      </trkpt>
      <trkpt lat="42.73043" lon="1.54964">
        <ele>942.71020507812</ele>
        <time>2011-05-28T07:16:16Z</time>
      </trkpt>
      <trkpt lat="42.73038" lon="1.54961">
        <ele>943.19067382812</ele>
        <time>2011-05-28T07:16:23Z</time>
      </trkpt>
      <trkpt lat="42.73034" lon="1.54967">
        <ele>943.67138671875</ele>
        <time>2011-05-28T07:16:29Z</time>
      </trkpt>
      <trkpt lat="42.73033" lon="1.54968">
        <ele>944.15209960938</ele>
        <time>2011-05-28T07:16:30Z</time>
      </trkpt>
      <trkpt lat="42.73025" lon="1.54975">
        <ele>945.11328125</ele>
        <time>2011-05-28T07:16:37Z</time>
      </trkpt>
      <trkpt lat="42.73022" lon="1.54976">
        <ele>946.07470703125</ele>
        <time>2011-05-28T07:16:41Z</time>
      </trkpt>
      <trkpt lat="42.73017" lon="1.5497">
        <ele>945.59399414062</ele>
        <time>2011-05-28T07:16:47Z</time>
      </trkpt>
      <trkpt lat="42.73013" lon="1.54968">
        <ele>945.11328125</ele>
        <time>2011-05-28T07:16:52Z</time>
      </trkpt>
      <trkpt lat="42.73008" lon="1.54967">
        <ele>946.07470703125</ele>
        <time>2011-05-28T07:16:59Z</time>
      </trkpt>
      <trkpt lat="42.73008" lon="1.54968">
        <ele>947.99731445312</ele>
        <time>2011-05-28T07:17:02Z</time>
      </trkpt>
      <trkpt lat="42.73004" lon="1.54972">
        <ele>950.88110351562</ele>
        <time>2011-05-28T07:17:08Z</time>
      </trkpt>
      <trkpt lat="42.73003" lon="1.54972">
        <ele>952.32299804688</ele>
        <time>2011-05-28T07:17:12Z</time>
      </trkpt>
      <trkpt lat="42.73006" lon="1.54976">
        <ele>958.09130859375</ele>
        <time>2011-05-28T07:17:17Z</time>
      </trkpt>
      <trkpt lat="42.73007" lon="1.54981">
        <ele>958.57177734375</ele>
        <time>2011-05-28T07:17:22Z</time>
      </trkpt>
      <trkpt lat="42.73005" lon="1.54986">
        <ele>959.05249023438</ele>
        <time>2011-05-28T07:17:28Z</time>
      </trkpt>
      <trkpt lat="42.73" lon="1.54991">
        <ele>959.533203125</ele>
        <time>2011-05-28T07:17:35Z</time>
      </trkpt>
      <trkpt lat="42.72996" lon="1.5499">
        <ele>959.533203125</ele>
        <time>2011-05-28T07:17:38Z</time>
      </trkpt>
      <trkpt lat="42.72987" lon="1.54985">
        <ele>959.533203125</ele>
        <time>2011-05-28T07:17:45Z</time>
      </trkpt>
      <trkpt lat="42.72987" lon="1.54983">
        <ele>960.013671875</ele>
        <time>2011-05-28T07:17:47Z</time>
      </trkpt>
      <trkpt lat="42.72983" lon="1.54975">
        <ele>960.97509765625</ele>
        <time>2011-05-28T07:17:53Z</time>
      </trkpt>
      <trkpt lat="42.72983" lon="1.54974">
        <ele>961.9365234375</ele>
        <time>2011-05-28T07:17:54Z</time>
      </trkpt>
      <trkpt lat="42.72979" lon="1.54963">
        <ele>967.2236328125</ele>
        <time>2011-05-28T07:18:03Z</time>
      </trkpt>
      <trkpt lat="42.72974" lon="1.5496">
        <ele>964.8203125</ele>
        <time>2011-05-28T07:18:07Z</time>
      </trkpt>
      <trkpt lat="42.72969" lon="1.54958">
        <ele>968.66552734375</ele>
        <time>2011-05-28T07:18:15Z</time>
      </trkpt>
      <trkpt lat="42.72964" lon="1.54957">
        <ele>967.7041015625</ele>
        <time>2011-05-28T07:18:20Z</time>
      </trkpt>
      <trkpt lat="42.72963" lon="1.54952">
        <ele>967.7041015625</ele>
        <time>2011-05-28T07:18:24Z</time>
      </trkpt>
      <trkpt lat="42.72958" lon="1.54941">
        <ele>970.107421875</ele>
        <time>2011-05-28T07:18:31Z</time>
      </trkpt>
      <trkpt lat="42.72952" lon="1.54933">
        <ele>971.54931640625</ele>
        <time>2011-05-28T07:18:38Z</time>
      </trkpt>
      <trkpt lat="42.72945" lon="1.54929">
        <ele>970.58813476562</ele>
        <time>2011-05-28T07:18:44Z</time>
      </trkpt>
      <trkpt lat="42.72939" lon="1.54922">
        <ele>970.58813476562</ele>
        <time>2011-05-28T07:18:51Z</time>
      </trkpt>
      <trkpt lat="42.72937" lon="1.54921">
        <ele>970.58813476562</ele>
        <time>2011-05-28T07:18:52Z</time>
      </trkpt>
      <trkpt lat="42.72932" lon="1.54917">
        <ele>969.626953125</ele>
        <time>2011-05-28T07:18:57Z</time>
      </trkpt>
      <trkpt lat="42.72931" lon="1.5491">
        <ele>970.107421875</ele>
        <time>2011-05-28T07:19:02Z</time>
      </trkpt>
      <trkpt lat="42.72924" lon="1.54903">
        <ele>973.47241210938</ele>
        <time>2011-05-28T07:19:09Z</time>
      </trkpt>
      <trkpt lat="42.72921" lon="1.54901">
        <ele>973.95288085938</ele>
        <time>2011-05-28T07:19:12Z</time>
      </trkpt>
      <trkpt lat="42.72913" lon="1.54899">
        <ele>972.51098632812</ele>
        <time>2011-05-28T07:19:18Z</time>
      </trkpt>
      <trkpt lat="42.72909" lon="1.549">
        <ele>972.51098632812</ele>
        <time>2011-05-28T07:19:22Z</time>
      </trkpt>
      <trkpt lat="42.72902" lon="1.549">
        <ele>973.47241210938</ele>
        <time>2011-05-28T07:19:28Z</time>
      </trkpt>
      <trkpt lat="42.72893" lon="1.549">
        <ele>976.8369140625</ele>
        <time>2011-05-28T07:19:35Z</time>
      </trkpt>
      <trkpt lat="42.72885" lon="1.54905">
        <ele>976.8369140625</ele>
        <time>2011-05-28T07:19:43Z</time>
      </trkpt>
      <trkpt lat="42.72878" lon="1.54912">
        <ele>978.75952148438</ele>
        <time>2011-05-28T07:19:51Z</time>
      </trkpt>
      <trkpt lat="42.72877" lon="1.54912">
        <ele>978.75952148438</ele>
        <time>2011-05-28T07:19:52Z</time>
      </trkpt>
      <trkpt lat="42.72869" lon="1.54913">
        <ele>981.16284179688</ele>
        <time>2011-05-28T07:20:00Z</time>
      </trkpt>
      <trkpt lat="42.72865" lon="1.54916">
        <ele>982.60473632812</ele>
        <time>2011-05-28T07:20:04Z</time>
      </trkpt>
      <trkpt lat="42.72857" lon="1.54916">
        <ele>985.00805664062</ele>
        <time>2011-05-28T07:20:10Z</time>
      </trkpt>
      <trkpt lat="42.72852" lon="1.54917">
        <ele>985.48852539062</ele>
        <time>2011-05-28T07:20:15Z</time>
      </trkpt>
      <trkpt lat="42.7285" lon="1.54918">
        <ele>985.48852539062</ele>
        <time>2011-05-28T07:20:18Z</time>
      </trkpt>
      <trkpt lat="42.72845" lon="1.54927">
        <ele>986.93041992188</ele>
        <time>2011-05-28T07:20:26Z</time>
      </trkpt>
      <trkpt lat="42.72844" lon="1.54927">
        <ele>986.93041992188</ele>
        <time>2011-05-28T07:20:27Z</time>
      </trkpt>
      <trkpt lat="42.72838" lon="1.5493">
        <ele>987.4111328125</ele>
        <time>2011-05-28T07:20:34Z</time>
      </trkpt>
      <trkpt lat="42.72834" lon="1.54931">
        <ele>988.37280273438</ele>
        <time>2011-05-28T07:20:39Z</time>
      </trkpt>
      <trkpt lat="42.72829" lon="1.54936">
        <ele>989.333984375</ele>
        <time>2011-05-28T07:20:45Z</time>
      </trkpt>
      <trkpt lat="42.72827" lon="1.54936">
        <ele>989.81469726562</ele>
        <time>2011-05-28T07:20:46Z</time>
      </trkpt>
      <trkpt lat="42.7282" lon="1.54938">
        <ele>991.25659179688</ele>
        <time>2011-05-28T07:20:51Z</time>
      </trkpt>
      <trkpt lat="42.72817" lon="1.5494">
        <ele>990.77587890625</ele>
        <time>2011-05-28T07:20:53Z</time>
      </trkpt>
      <trkpt lat="42.72814" lon="1.54942">
        <ele>990.29541015625</ele>
        <time>2011-05-28T07:20:56Z</time>
      </trkpt>
      <trkpt lat="42.72808" lon="1.54946">
        <ele>991.25659179688</ele>
        <time>2011-05-28T07:21:01Z</time>
      </trkpt>
      <trkpt lat="42.72806" lon="1.54945">
        <ele>991.25659179688</ele>
        <time>2011-05-28T07:21:03Z</time>
      </trkpt>
      <trkpt lat="42.72799" lon="1.54945">
        <ele>992.21801757812</ele>
        <time>2011-05-28T07:21:08Z</time>
      </trkpt>
      <trkpt lat="42.72797" lon="1.54945">
        <ele>992.69873046875</ele>
        <time>2011-05-28T07:21:10Z</time>
      </trkpt>
      <trkpt lat="42.72792" lon="1.54943">
        <ele>994.62109375</ele>
        <time>2011-05-28T07:21:15Z</time>
      </trkpt>
      <trkpt lat="42.72788" lon="1.54941">
        <ele>994.62109375</ele>
        <time>2011-05-28T07:21:19Z</time>
      </trkpt>
      <trkpt lat="42.72779" lon="1.54942">
        <ele>995.58251953125</ele>
        <time>2011-05-28T07:21:24Z</time>
      </trkpt>
      <trkpt lat="42.72772" lon="1.54944">
        <ele>994.140625</ele>
        <time>2011-05-28T07:21:30Z</time>
      </trkpt>
      <trkpt lat="42.72766" lon="1.54942">
        <ele>995.58251953125</ele>
        <time>2011-05-28T07:21:35Z</time>
      </trkpt>
      <trkpt lat="42.72759" lon="1.54938">
        <ele>997.0244140625</ele>
        <time>2011-05-28T07:21:41Z</time>
      </trkpt>
      <trkpt lat="42.72748" lon="1.54939">
        <ele>998.46630859375</ele>
        <time>2011-05-28T07:21:48Z</time>
      </trkpt>
      <trkpt lat="42.72747" lon="1.5494">
        <ele>998.94702148438</ele>
        <time>2011-05-28T07:21:49Z</time>
      </trkpt>
      <trkpt lat="42.72741" lon="1.5494">
        <ele>999.90844726562</ele>
        <time>2011-05-28T07:21:54Z</time>
      </trkpt>
      <trkpt lat="42.72735" lon="1.54937">
        <ele>1002.3115234375</ele>
        <time>2011-05-28T07:22:00Z</time>
      </trkpt>
      <trkpt lat="42.72731" lon="1.54937">
        <ele>1001.8310546875</ele>
        <time>2011-05-28T07:22:04Z</time>
      </trkpt>
      <trkpt lat="42.72727" lon="1.54938">
        <ele>1003.7536621094</ele>
        <time>2011-05-28T07:22:06Z</time>
      </trkpt>
      <trkpt lat="42.72721" lon="1.54936">
        <ele>1004.2346191406</ele>
        <time>2011-05-28T07:22:12Z</time>
      </trkpt>
      <trkpt lat="42.72714" lon="1.54938">
        <ele>1007.1184082031</ele>
        <time>2011-05-28T07:22:18Z</time>
      </trkpt>
      <trkpt lat="42.7271" lon="1.54939">
        <ele>1009.041015625</ele>
        <time>2011-05-28T07:22:22Z</time>
      </trkpt>
      <trkpt lat="42.72703" lon="1.5494">
        <ele>1012.4055175781</ele>
        <time>2011-05-28T07:22:28Z</time>
      </trkpt>
      <trkpt lat="42.72699" lon="1.54941">
        <ele>1015.2895507812</ele>
        <time>2011-05-28T07:22:32Z</time>
      </trkpt>
      <trkpt lat="42.72696" lon="1.54942">
        <ele>1015.2895507812</ele>
        <time>2011-05-28T07:22:36Z</time>
      </trkpt>
      <trkpt lat="42.72687" lon="1.54943">
        <ele>1015.7702636719</ele>
        <time>2011-05-28T07:22:44Z</time>
      </trkpt>
      <trkpt lat="42.72678" lon="1.54949">
        <ele>1016.7314453125</ele>
        <time>2011-05-28T07:22:52Z</time>
      </trkpt>
      <trkpt lat="42.72675" lon="1.54949">
        <ele>1018.1733398438</ele>
        <time>2011-05-28T07:22:56Z</time>
      </trkpt>
      <trkpt lat="42.72669" lon="1.54948">
        <ele>1021.0576171875</ele>
        <time>2011-05-28T07:23:01Z</time>
      </trkpt>
      <trkpt lat="42.72662" lon="1.54949">
        <ele>1020.5769042969</ele>
        <time>2011-05-28T07:23:07Z</time>
      </trkpt>
      <trkpt lat="42.7266" lon="1.54948">
        <ele>1021.0576171875</ele>
        <time>2011-05-28T07:23:11Z</time>
      </trkpt>
      <trkpt lat="42.72654" lon="1.54949">
        <ele>1022.9802246094</ele>
        <time>2011-05-28T07:23:17Z</time>
      </trkpt>
      <trkpt lat="42.72651" lon="1.5495">
        <ele>1024.4221191406</ele>
        <time>2011-05-28T07:23:20Z</time>
      </trkpt>
      <trkpt lat="42.72646" lon="1.54951">
        <ele>1025.3833007812</ele>
        <time>2011-05-28T07:23:25Z</time>
      </trkpt>
      <trkpt lat="42.72639" lon="1.54949">
        <ele>1027.7866210938</ele>
        <time>2011-05-28T07:23:30Z</time>
      </trkpt>
      <trkpt lat="42.72637" lon="1.54949">
        <ele>1029.7092285156</ele>
        <time>2011-05-28T07:23:33Z</time>
      </trkpt>
      <trkpt lat="42.7263" lon="1.54951">
        <ele>1030.1899414062</ele>
        <time>2011-05-28T07:23:40Z</time>
      </trkpt>
      <trkpt lat="42.72627" lon="1.54952">
        <ele>1028.748046875</ele>
        <time>2011-05-28T07:23:45Z</time>
      </trkpt>
      <trkpt lat="42.72621" lon="1.54951">
        <ele>1026.8254394531</ele>
        <time>2011-05-28T07:23:51Z</time>
      </trkpt>
      <trkpt lat="42.7262" lon="1.5495">
        <ele>1026.3447265625</ele>
        <time>2011-05-28T07:23:52Z</time>
      </trkpt>
      <trkpt lat="42.72615" lon="1.54951">
        <ele>1026.3447265625</ele>
        <time>2011-05-28T07:23:56Z</time>
      </trkpt>
      <trkpt lat="42.72606" lon="1.54952">
        <ele>1027.7866210938</ele>
        <time>2011-05-28T07:24:04Z</time>
      </trkpt>
      <trkpt lat="42.72602" lon="1.54951">
        <ele>1028.748046875</ele>
        <time>2011-05-28T07:24:10Z</time>
      </trkpt>
      <trkpt lat="42.72596" lon="1.54951">
        <ele>1030.6706542969</ele>
        <time>2011-05-28T07:24:16Z</time>
      </trkpt>
      <trkpt lat="42.72591" lon="1.54952">
        <ele>1034.03515625</ele>
        <time>2011-05-28T07:24:22Z</time>
      </trkpt>
      <trkpt lat="42.72586" lon="1.54955">
        <ele>1038.361328125</ele>
        <time>2011-05-28T07:24:29Z</time>
      </trkpt>
      <trkpt lat="42.72579" lon="1.54953">
        <ele>1037.8806152344</ele>
        <time>2011-05-28T07:24:37Z</time>
      </trkpt>
      <trkpt lat="42.72577" lon="1.54954">
        <ele>1037.3999023438</ele>
        <time>2011-05-28T07:24:38Z</time>
      </trkpt>
      <trkpt lat="42.72569" lon="1.54957">
        <ele>1038.8420410156</ele>
        <time>2011-05-28T07:24:45Z</time>
      </trkpt>
      <trkpt lat="42.72565" lon="1.54958">
        <ele>1040.2839355469</ele>
        <time>2011-05-28T07:24:49Z</time>
      </trkpt>
      <trkpt lat="42.72564" lon="1.54957">
        <ele>1039.8032226562</ele>
        <time>2011-05-28T07:24:51Z</time>
      </trkpt>
      <trkpt lat="42.72561" lon="1.54958">
        <ele>1041.2451171875</ele>
        <time>2011-05-28T07:24:53Z</time>
      </trkpt>
      <trkpt lat="42.72558" lon="1.54959">
        <ele>1041.7258300781</ele>
        <time>2011-05-28T07:24:56Z</time>
      </trkpt>
      <trkpt lat="42.7255" lon="1.54958">
        <ele>1044.6096191406</ele>
        <time>2011-05-28T07:25:04Z</time>
      </trkpt>
      <trkpt lat="42.72546" lon="1.54958">
        <ele>1048.935546875</ele>
        <time>2011-05-28T07:25:10Z</time>
      </trkpt>
      <trkpt lat="42.72543" lon="1.54958">
        <ele>1049.8969726562</ele>
        <time>2011-05-28T07:25:14Z</time>
      </trkpt>
      <trkpt lat="42.7254" lon="1.54955">
        <ele>1053.26171875</ele>
        <time>2011-05-28T07:25:20Z</time>
      </trkpt>
      <trkpt lat="42.72538" lon="1.54957">
        <ele>1054.7036132812</ele>
        <time>2011-05-28T07:25:22Z</time>
      </trkpt>
      <trkpt lat="42.72534" lon="1.54956">
        <ele>1059.0295410156</ele>
        <time>2011-05-28T07:25:28Z</time>
      </trkpt>
      <trkpt lat="42.72529" lon="1.54956">
        <ele>1059.5102539062</ele>
        <time>2011-05-28T07:25:33Z</time>
      </trkpt>
      <trkpt lat="42.7253" lon="1.54954">
        <ele>1065.2780761719</ele>
        <time>2011-05-28T07:25:38Z</time>
      </trkpt>
      <trkpt lat="42.72528" lon="1.54952">
        <ele>1070.0847167969</ele>
        <time>2011-05-28T07:25:43Z</time>
      </trkpt>
      <trkpt lat="42.72521" lon="1.54947">
        <ele>1070.5654296875</ele>
        <time>2011-05-28T07:25:49Z</time>
      </trkpt>
      <trkpt lat="42.72518" lon="1.54942">
        <ele>1070.5654296875</ele>
        <time>2011-05-28T07:25:55Z</time>
      </trkpt>
      <trkpt lat="42.72512" lon="1.54943">
        <ele>1072.0073242188</ele>
        <time>2011-05-28T07:26:00Z</time>
      </trkpt>
      <trkpt lat="42.72502" lon="1.54946">
        <ele>1072.4880371094</ele>
        <time>2011-05-28T07:26:07Z</time>
      </trkpt>
      <trkpt lat="42.72496" lon="1.54945">
        <ele>1070.0847167969</ele>
        <time>2011-05-28T07:26:11Z</time>
      </trkpt>
      <trkpt lat="42.72492" lon="1.54945">
        <ele>1070.5654296875</ele>
        <time>2011-05-28T07:26:15Z</time>
      </trkpt>
      <trkpt lat="42.72484" lon="1.54947">
        <ele>1065.2780761719</ele>
        <time>2011-05-28T07:26:20Z</time>
      </trkpt>
      <trkpt lat="42.72484" lon="1.54947">
        <ele>1064.3166503906</ele>
        <time>2011-05-28T07:26:21Z</time>
      </trkpt>
      <trkpt lat="42.72477" lon="1.5495">
        <ele>1068.6428222656</ele>
        <time>2011-05-28T07:26:28Z</time>
      </trkpt>
      <trkpt lat="42.72474" lon="1.54952">
        <ele>1072.4880371094</ele>
        <time>2011-05-28T07:26:31Z</time>
      </trkpt>
      <trkpt lat="42.72469" lon="1.54953">
        <ele>1070.5654296875</ele>
        <time>2011-05-28T07:26:37Z</time>
      </trkpt>
      <trkpt lat="42.72468" lon="1.54953">
        <ele>1072.96875</ele>
        <time>2011-05-28T07:26:41Z</time>
      </trkpt>
      <trkpt lat="42.72469" lon="1.5495">
        <ele>1072.96875</ele>
        <time>2011-05-28T07:26:45Z</time>
      </trkpt>
      <trkpt lat="42.72465" lon="1.54952">
        <ele>1076.3332519531</ele>
        <time>2011-05-28T07:26:52Z</time>
      </trkpt>
      <trkpt lat="42.72462" lon="1.54954">
        <ele>1078.255859375</ele>
        <time>2011-05-28T07:26:58Z</time>
      </trkpt>
      <trkpt lat="42.7246" lon="1.54955">
        <ele>1079.2170410156</ele>
        <time>2011-05-28T07:27:03Z</time>
      </trkpt>
      <trkpt lat="42.72459" lon="1.54956">
        <ele>1082.5817871094</ele>
        <time>2011-05-28T07:27:08Z</time>
      </trkpt>
      <trkpt lat="42.72454" lon="1.54959">
        <ele>1082.5817871094</ele>
        <time>2011-05-28T07:27:15Z</time>
      </trkpt>
      <trkpt lat="42.72446" lon="1.54963">
        <ele>1077.2946777344</ele>
        <time>2011-05-28T07:27:22Z</time>
      </trkpt>
      <trkpt lat="42.72438" lon="1.54967">
        <ele>1073.9299316406</ele>
        <time>2011-05-28T07:27:28Z</time>
      </trkpt>
      <trkpt lat="42.72437" lon="1.54969">
        <ele>1078.255859375</ele>
        <time>2011-05-28T07:27:35Z</time>
      </trkpt>
      <trkpt lat="42.72433" lon="1.54971">
        <ele>1079.6977539062</ele>
        <time>2011-05-28T07:27:39Z</time>
      </trkpt>
      <trkpt lat="42.72425" lon="1.54974">
        <ele>1084.0239257812</ele>
        <time>2011-05-28T07:27:47Z</time>
      </trkpt>
      <trkpt lat="42.72419" lon="1.54977">
        <ele>1086.4272460938</ele>
        <time>2011-05-28T07:27:53Z</time>
      </trkpt>
      <trkpt lat="42.72414" lon="1.54978">
        <ele>1091.2336425781</ele>
        <time>2011-05-28T07:27:59Z</time>
      </trkpt>
      <trkpt lat="42.7241" lon="1.54979">
        <ele>1103.7309570312</ele>
        <time>2011-05-28T07:28:08Z</time>
      </trkpt>
      <trkpt lat="42.72406" lon="1.54981">
        <ele>1109.0180664062</ele>
        <time>2011-05-28T07:28:13Z</time>
      </trkpt>
      <trkpt lat="42.72404" lon="1.54986">
        <ele>1109.9792480469</ele>
        <time>2011-05-28T07:28:18Z</time>
      </trkpt>
      <trkpt lat="42.72403" lon="1.54995">
        <ele>1113.3439941406</ele>
        <time>2011-05-28T07:28:25Z</time>
      </trkpt>
      <trkpt lat="42.72402" lon="1.55004">
        <ele>1112.86328125</ele>
        <time>2011-05-28T07:28:31Z</time>
      </trkpt>
      <trkpt lat="42.72403" lon="1.55017">
        <ele>1110.9406738281</ele>
        <time>2011-05-28T07:28:37Z</time>
      </trkpt>
      <trkpt lat="42.72403" lon="1.55026">
        <ele>1121.5151367188</ele>
        <time>2011-05-28T07:28:48Z</time>
      </trkpt>
      <trkpt lat="42.72401" lon="1.55031">
        <ele>1123.4379882812</ele>
        <time>2011-05-28T07:28:53Z</time>
      </trkpt>
      <trkpt lat="42.72396" lon="1.55037">
        <ele>1121.9958496094</ele>
        <time>2011-05-28T07:28:58Z</time>
      </trkpt>
      <trkpt lat="42.72388" lon="1.55046">
        <ele>1115.7473144531</ele>
        <time>2011-05-28T07:29:05Z</time>
      </trkpt>
      <trkpt lat="42.72384" lon="1.55052">
        <ele>1118.1506347656</ele>
        <time>2011-05-28T07:29:13Z</time>
      </trkpt>
      <trkpt lat="42.72381" lon="1.55054">
        <ele>1121.9958496094</ele>
        <time>2011-05-28T07:29:18Z</time>
      </trkpt>
      <trkpt lat="42.72382" lon="1.55053">
        <ele>1131.1284179688</ele>
        <time>2011-05-28T07:29:22Z</time>
      </trkpt>
      <trkpt lat="42.72382" lon="1.55056">
        <ele>1141.7028808594</ele>
        <time>2011-05-28T07:29:28Z</time>
      </trkpt>
      <trkpt lat="42.72385" lon="1.55057">
        <ele>1143.6254882812</ele>
        <time>2011-05-28T07:29:32Z</time>
      </trkpt>
      <trkpt lat="42.72389" lon="1.55053">
        <ele>1142.6643066406</ele>
        <time>2011-05-28T07:29:36Z</time>
      </trkpt>
      <trkpt lat="42.72393" lon="1.55049">
        <ele>1140.7414550781</ele>
        <time>2011-05-28T07:29:43Z</time>
      </trkpt>
      <trkpt lat="42.72395" lon="1.55046">
        <ele>1139.2995605469</ele>
        <time>2011-05-28T07:29:47Z</time>
      </trkpt>
      <trkpt lat="42.72397" lon="1.55044">
        <ele>1136.8962402344</ele>
        <time>2011-05-28T07:29:51Z</time>
      </trkpt>
      <trkpt lat="42.72401" lon="1.55044">
        <ele>1139.2995605469</ele>
        <time>2011-05-28T07:29:55Z</time>
      </trkpt>
      <trkpt lat="42.724" lon="1.55047">
        <ele>1136.8962402344</ele>
        <time>2011-05-28T07:29:57Z</time>
      </trkpt>
      <trkpt lat="42.72389" lon="1.55064">
        <ele>1120.5539550781</ele>
        <time>2011-05-28T07:30:04Z</time>
      </trkpt>
      <trkpt lat="42.72383" lon="1.55072">
        <ele>1115.2666015625</ele>
        <time>2011-05-28T07:30:09Z</time>
      </trkpt>
      <trkpt lat="42.72381" lon="1.55079">
        <ele>1113.3439941406</ele>
        <time>2011-05-28T07:30:14Z</time>
      </trkpt>
      <trkpt lat="42.72379" lon="1.55084">
        <ele>1113.3439941406</ele>
        <time>2011-05-28T07:30:18Z</time>
      </trkpt>
      <trkpt lat="42.72379" lon="1.55085">
        <ele>1112.3825683594</ele>
        <time>2011-05-28T07:30:19Z</time>
      </trkpt>
      <trkpt lat="42.72375" lon="1.55094">
        <ele>1112.3825683594</ele>
        <time>2011-05-28T07:30:26Z</time>
      </trkpt>
      <trkpt lat="42.72372" lon="1.55101">
        <ele>1109.0180664062</ele>
        <time>2011-05-28T07:30:32Z</time>
      </trkpt>
      <trkpt lat="42.72369" lon="1.55109">
        <ele>1107.0954589844</ele>
        <time>2011-05-28T07:30:38Z</time>
      </trkpt>
      <trkpt lat="42.72366" lon="1.55116">
        <ele>1108.5373535156</ele>
        <time>2011-05-28T07:30:43Z</time>
      </trkpt>
      <trkpt lat="42.72364" lon="1.55123">
        <ele>1109.0180664062</ele>
        <time>2011-05-28T07:30:49Z</time>
      </trkpt>
      <trkpt lat="42.72364" lon="1.55127">
        <ele>1109.9792480469</ele>
        <time>2011-05-28T07:30:53Z</time>
      </trkpt>
      <trkpt lat="42.72362" lon="1.55132">
        <ele>1109.9792480469</ele>
        <time>2011-05-28T07:30:58Z</time>
      </trkpt>
      <trkpt lat="42.72359" lon="1.55137">
        <ele>1109.0180664062</ele>
        <time>2011-05-28T07:31:04Z</time>
      </trkpt>
      <trkpt lat="42.72357" lon="1.55141">
        <ele>1110.4599609375</ele>
        <time>2011-05-28T07:31:09Z</time>
      </trkpt>
      <trkpt lat="42.72355" lon="1.55146">
        <ele>1111.9020996094</ele>
        <time>2011-05-28T07:31:14Z</time>
      </trkpt>
      <trkpt lat="42.72352" lon="1.55154">
        <ele>1112.86328125</ele>
        <time>2011-05-28T07:31:22Z</time>
      </trkpt>
      <trkpt lat="42.7235" lon="1.5516">
        <ele>1114.3051757812</ele>
        <time>2011-05-28T07:31:27Z</time>
      </trkpt>
      <trkpt lat="42.72347" lon="1.55164">
        <ele>1116.2280273438</ele>
        <time>2011-05-28T07:31:32Z</time>
      </trkpt>
      <trkpt lat="42.72344" lon="1.55167">
        <ele>1116.7087402344</ele>
        <time>2011-05-28T07:31:37Z</time>
      </trkpt>
      <trkpt lat="42.7234" lon="1.55169">
        <ele>1117.669921875</ele>
        <time>2011-05-28T07:31:42Z</time>
      </trkpt>
      <trkpt lat="42.72335" lon="1.55173">
        <ele>1118.1506347656</ele>
        <time>2011-05-28T07:31:47Z</time>
      </trkpt>
      <trkpt lat="42.72331" lon="1.55177">
        <ele>1118.6313476562</ele>
        <time>2011-05-28T07:31:53Z</time>
      </trkpt>
      <trkpt lat="42.72328" lon="1.55189">
        <ele>1121.5151367188</ele>
        <time>2011-05-28T07:32:01Z</time>
      </trkpt>
      <trkpt lat="42.72327" lon="1.5519">
        <ele>1121.5151367188</ele>
        <time>2011-05-28T07:32:02Z</time>
      </trkpt>
      <trkpt lat="42.72324" lon="1.55197">
        <ele>1122.9572753906</ele>
        <time>2011-05-28T07:32:08Z</time>
      </trkpt>
      <trkpt lat="42.72317" lon="1.55203">
        <ele>1124.3991699219</ele>
        <time>2011-05-28T07:32:15Z</time>
      </trkpt>
      <trkpt lat="42.72312" lon="1.55207">
        <ele>1125.3603515625</ele>
        <time>2011-05-28T07:32:20Z</time>
      </trkpt>
      <trkpt lat="42.72305" lon="1.55215">
        <ele>1125.3603515625</ele>
        <time>2011-05-28T07:32:28Z</time>
      </trkpt>
      <trkpt lat="42.72298" lon="1.55219">
        <ele>1127.283203125</ele>
        <time>2011-05-28T07:32:35Z</time>
      </trkpt>
      <trkpt lat="42.72292" lon="1.55222">
        <ele>1128.7250976562</ele>
        <time>2011-05-28T07:32:41Z</time>
      </trkpt>
      <trkpt lat="42.72289" lon="1.55224">
        <ele>1130.6477050781</ele>
        <time>2011-05-28T07:32:45Z</time>
      </trkpt>
      <trkpt lat="42.72284" lon="1.55227">
        <ele>1131.6088867188</ele>
        <time>2011-05-28T07:32:50Z</time>
      </trkpt>
      <trkpt lat="42.72281" lon="1.5523">
        <ele>1132.08984375</ele>
        <time>2011-05-28T07:32:55Z</time>
      </trkpt>
      <trkpt lat="42.72278" lon="1.55234">
        <ele>1132.5705566406</ele>
        <time>2011-05-28T07:33:01Z</time>
      </trkpt>
      <trkpt lat="42.72275" lon="1.55237">
        <ele>1133.0510253906</ele>
        <time>2011-05-28T07:33:05Z</time>
      </trkpt>
      <trkpt lat="42.72271" lon="1.5524">
        <ele>1134.0124511719</ele>
        <time>2011-05-28T07:33:10Z</time>
      </trkpt>
      <trkpt lat="42.72267" lon="1.55243">
        <ele>1133.5317382812</ele>
        <time>2011-05-28T07:33:15Z</time>
      </trkpt>
      <trkpt lat="42.72263" lon="1.55246">
        <ele>1134.9738769531</ele>
        <time>2011-05-28T07:33:20Z</time>
      </trkpt>
      <trkpt lat="42.72258" lon="1.55251">
        <ele>1137.376953125</ele>
        <time>2011-05-28T07:33:26Z</time>
      </trkpt>
      <trkpt lat="42.72253" lon="1.55256">
        <ele>1139.7802734375</ele>
        <time>2011-05-28T07:33:33Z</time>
      </trkpt>
      <trkpt lat="42.72247" lon="1.55261">
        <ele>1143.6254882812</ele>
        <time>2011-05-28T07:33:41Z</time>
      </trkpt>
      <trkpt lat="42.7224" lon="1.55266">
        <ele>1145.0673828125</ele>
        <time>2011-05-28T07:33:48Z</time>
      </trkpt>
      <trkpt lat="42.72238" lon="1.55269">
        <ele>1146.0288085938</ele>
        <time>2011-05-28T07:33:52Z</time>
      </trkpt>
      <trkpt lat="42.72234" lon="1.55273">
        <ele>1147.470703125</ele>
        <time>2011-05-28T07:33:57Z</time>
      </trkpt>
      <trkpt lat="42.72231" lon="1.55275">
        <ele>1147.9514160156</ele>
        <time>2011-05-28T07:34:01Z</time>
      </trkpt>
      <trkpt lat="42.72229" lon="1.55277">
        <ele>1148.4321289062</ele>
        <time>2011-05-28T07:34:06Z</time>
      </trkpt>
      <trkpt lat="42.72225" lon="1.55281">
        <ele>1149.3935546875</ele>
        <time>2011-05-28T07:34:12Z</time>
      </trkpt>
      <trkpt lat="42.72221" lon="1.55288">
        <ele>1151.3161621094</ele>
        <time>2011-05-28T07:34:19Z</time>
      </trkpt>
      <trkpt lat="42.72217" lon="1.55294">
        <ele>1153.2387695312</ele>
        <time>2011-05-28T07:34:25Z</time>
      </trkpt>
      <trkpt lat="42.72214" lon="1.55299">
        <ele>1155.1613769531</ele>
        <time>2011-05-28T07:34:31Z</time>
      </trkpt>
      <trkpt lat="42.7221" lon="1.55307">
        <ele>1154.6806640625</ele>
        <time>2011-05-28T07:34:38Z</time>
      </trkpt>
      <trkpt lat="42.72205" lon="1.55313">
        <ele>1154.6806640625</ele>
        <time>2011-05-28T07:34:45Z</time>
      </trkpt>
      <trkpt lat="42.72202" lon="1.55316">
        <ele>1156.1225585938</ele>
        <time>2011-05-28T07:34:49Z</time>
      </trkpt>
      <trkpt lat="42.72198" lon="1.55319">
        <ele>1158.5258789062</ele>
        <time>2011-05-28T07:34:54Z</time>
      </trkpt>
      <trkpt lat="42.72194" lon="1.55323">
        <ele>1158.5258789062</ele>
        <time>2011-05-28T07:35:02Z</time>
      </trkpt>
      <trkpt lat="42.72188" lon="1.55324">
        <ele>1160.9291992188</ele>
        <time>2011-05-28T07:35:08Z</time>
      </trkpt>
      <trkpt lat="42.72184" lon="1.55323">
        <ele>1165.2553710938</ele>
        <time>2011-05-28T07:35:12Z</time>
      </trkpt>
      <trkpt lat="42.72183" lon="1.55323">
        <ele>1169.1005859375</ele>
        <time>2011-05-28T07:35:15Z</time>
      </trkpt>
      <trkpt lat="42.72184" lon="1.55325">
        <ele>1170.0617675781</ele>
        <time>2011-05-28T07:35:17Z</time>
      </trkpt>
      <trkpt lat="42.72187" lon="1.5533">
        <ele>1172.4650878906</ele>
        <time>2011-05-28T07:35:24Z</time>
      </trkpt>
      <trkpt lat="42.72186" lon="1.55336">
        <ele>1171.984375</ele>
        <time>2011-05-28T07:35:30Z</time>
      </trkpt>
      <trkpt lat="42.72177" lon="1.55338">
        <ele>1172.9458007812</ele>
        <time>2011-05-28T07:35:40Z</time>
      </trkpt>
      <trkpt lat="42.72175" lon="1.55341">
        <ele>1174.3876953125</ele>
        <time>2011-05-28T07:35:42Z</time>
      </trkpt>
      <trkpt lat="42.72172" lon="1.55347">
        <ele>1174.8684082031</ele>
        <time>2011-05-28T07:35:49Z</time>
      </trkpt>
      <trkpt lat="42.72171" lon="1.55351">
        <ele>1174.8684082031</ele>
        <time>2011-05-28T07:35:54Z</time>
      </trkpt>
      <trkpt lat="42.72171" lon="1.55355">
        <ele>1174.8684082031</ele>
        <time>2011-05-28T07:35:59Z</time>
      </trkpt>
      <trkpt lat="42.72174" lon="1.55358">
        <ele>1174.3876953125</ele>
        <time>2011-05-28T07:36:04Z</time>
      </trkpt>
      <trkpt lat="42.72172" lon="1.55361">
        <ele>1173.9069824219</ele>
        <time>2011-05-28T07:36:09Z</time>
      </trkpt>
      <trkpt lat="42.72169" lon="1.55364">
        <ele>1175.3488769531</ele>
        <time>2011-05-28T07:36:14Z</time>
      </trkpt>
      <trkpt lat="42.72166" lon="1.5537">
        <ele>1176.791015625</ele>
        <time>2011-05-28T07:36:20Z</time>
      </trkpt>
      <trkpt lat="42.72163" lon="1.55371">
        <ele>1177.7521972656</ele>
        <time>2011-05-28T07:36:24Z</time>
      </trkpt>
      <trkpt lat="42.72159" lon="1.5537">
        <ele>1180.1557617188</ele>
        <time>2011-05-28T07:36:29Z</time>
      </trkpt>
      <trkpt lat="42.72156" lon="1.55373">
        <ele>1181.1171875</ele>
        <time>2011-05-28T07:36:34Z</time>
      </trkpt>
      <trkpt lat="42.72154" lon="1.55384">
        <ele>1181.1171875</ele>
        <time>2011-05-28T07:36:41Z</time>
      </trkpt>
      <trkpt lat="42.72152" lon="1.55391">
        <ele>1181.1171875</ele>
        <time>2011-05-28T07:36:46Z</time>
      </trkpt>
      <trkpt lat="42.72149" lon="1.55395">
        <ele>1180.6364746094</ele>
        <time>2011-05-28T07:36:51Z</time>
      </trkpt>
      <trkpt lat="42.72145" lon="1.554">
        <ele>1182.0783691406</ele>
        <time>2011-05-28T07:36:58Z</time>
      </trkpt>
      <trkpt lat="42.72142" lon="1.55402">
        <ele>1182.0783691406</ele>
        <time>2011-05-28T07:37:03Z</time>
      </trkpt>
      <trkpt lat="42.72139" lon="1.55404">
        <ele>1183.0395507812</ele>
        <time>2011-05-28T07:37:07Z</time>
      </trkpt>
      <trkpt lat="42.72134" lon="1.55408">
        <ele>1183.5202636719</ele>
        <time>2011-05-28T07:37:12Z</time>
      </trkpt>
      <trkpt lat="42.72131" lon="1.55408">
        <ele>1183.5202636719</ele>
        <time>2011-05-28T07:37:15Z</time>
      </trkpt>
      <trkpt lat="42.72126" lon="1.55411">
        <ele>1187.3654785156</ele>
        <time>2011-05-28T07:37:21Z</time>
      </trkpt>
      <trkpt lat="42.72122" lon="1.55412">
        <ele>1188.3269042969</ele>
        <time>2011-05-28T07:37:25Z</time>
      </trkpt>
      <trkpt lat="42.72118" lon="1.55415">
        <ele>1186.404296875</ele>
        <time>2011-05-28T07:37:31Z</time>
      </trkpt>
      <trkpt lat="42.72111" lon="1.55418">
        <ele>1187.3654785156</ele>
        <time>2011-05-28T07:37:41Z</time>
      </trkpt>
      <trkpt lat="42.72105" lon="1.5542">
        <ele>1189.7687988281</ele>
        <time>2011-05-28T07:37:47Z</time>
      </trkpt>
      <trkpt lat="42.72099" lon="1.55422">
        <ele>1192.1721191406</ele>
        <time>2011-05-28T07:37:54Z</time>
      </trkpt>
      <trkpt lat="42.72095" lon="1.55424">
        <ele>1193.1333007812</ele>
        <time>2011-05-28T07:37:59Z</time>
      </trkpt>
      <trkpt lat="42.72091" lon="1.55425">
        <ele>1193.1333007812</ele>
        <time>2011-05-28T07:38:05Z</time>
      </trkpt>
      <trkpt lat="42.72087" lon="1.55425">
        <ele>1194.5751953125</ele>
        <time>2011-05-28T07:38:09Z</time>
      </trkpt>
      <trkpt lat="42.72083" lon="1.55426">
        <ele>1194.5751953125</ele>
        <time>2011-05-28T07:38:13Z</time>
      </trkpt>
      <trkpt lat="42.7208" lon="1.55427">
        <ele>1194.5751953125</ele>
        <time>2011-05-28T07:38:17Z</time>
      </trkpt>
      <trkpt lat="42.72075" lon="1.55429">
        <ele>1196.017578125</ele>
        <time>2011-05-28T07:38:24Z</time>
      </trkpt>
      <trkpt lat="42.7207" lon="1.55429">
        <ele>1199.3820800781</ele>
        <time>2011-05-28T07:38:29Z</time>
      </trkpt>
      <trkpt lat="42.72063" lon="1.55431">
        <ele>1202.2658691406</ele>
        <time>2011-05-28T07:38:38Z</time>
      </trkpt>
      <trkpt lat="42.72059" lon="1.55432">
        <ele>1204.1887207031</ele>
        <time>2011-05-28T07:38:43Z</time>
      </trkpt>
      <trkpt lat="42.72055" lon="1.55434">
        <ele>1205.6306152344</ele>
        <time>2011-05-28T07:38:48Z</time>
      </trkpt>
      <trkpt lat="42.72052" lon="1.55435">
        <ele>1206.1110839844</ele>
        <time>2011-05-28T07:38:52Z</time>
      </trkpt>
      <trkpt lat="42.72048" lon="1.55436">
        <ele>1207.0725097656</ele>
        <time>2011-05-28T07:38:57Z</time>
      </trkpt>
      <trkpt lat="42.72045" lon="1.55438">
        <ele>1207.0725097656</ele>
        <time>2011-05-28T07:39:01Z</time>
      </trkpt>
      <trkpt lat="42.72041" lon="1.55445">
        <ele>1206.591796875</ele>
        <time>2011-05-28T07:39:07Z</time>
      </trkpt>
      <trkpt lat="42.7204" lon="1.55446">
        <ele>1207.0725097656</ele>
        <time>2011-05-28T07:39:08Z</time>
      </trkpt>
      <trkpt lat="42.72035" lon="1.55449">
        <ele>1208.0339355469</ele>
        <time>2011-05-28T07:39:14Z</time>
      </trkpt>
      <trkpt lat="42.72031" lon="1.55451">
        <ele>1209.4758300781</ele>
        <time>2011-05-28T07:39:18Z</time>
      </trkpt>
      <trkpt lat="42.72027" lon="1.55453">
        <ele>1211.3984375</ele>
        <time>2011-05-28T07:39:23Z</time>
      </trkpt>
      <trkpt lat="42.72023" lon="1.55454">
        <ele>1214.7631835938</ele>
        <time>2011-05-28T07:39:27Z</time>
      </trkpt>
      <trkpt lat="42.72014" lon="1.55454">
        <ele>1218.1276855469</ele>
        <time>2011-05-28T07:39:38Z</time>
      </trkpt>
      <trkpt lat="42.72009" lon="1.55454">
        <ele>1220.0502929688</ele>
        <time>2011-05-28T07:39:44Z</time>
      </trkpt>
      <trkpt lat="42.72004" lon="1.55455">
        <ele>1221.4921875</ele>
        <time>2011-05-28T07:39:49Z</time>
      </trkpt>
      <trkpt lat="42.72001" lon="1.55456">
        <ele>1221.4921875</ele>
        <time>2011-05-28T07:39:53Z</time>
      </trkpt>
      <trkpt lat="42.71993" lon="1.55461">
        <ele>1221.4921875</ele>
        <time>2011-05-28T07:40:01Z</time>
      </trkpt>
      <trkpt lat="42.71988" lon="1.55463">
        <ele>1222.9343261719</ele>
        <time>2011-05-28T07:40:06Z</time>
      </trkpt>
      <trkpt lat="42.71984" lon="1.55465">
        <ele>1225.3374023438</ele>
        <time>2011-05-28T07:40:10Z</time>
      </trkpt>
      <trkpt lat="42.71977" lon="1.55471">
        <ele>1225.3374023438</ele>
        <time>2011-05-28T07:40:17Z</time>
      </trkpt>
      <trkpt lat="42.71973" lon="1.55472">
        <ele>1224.8569335938</ele>
        <time>2011-05-28T07:40:22Z</time>
      </trkpt>
      <trkpt lat="42.71967" lon="1.55475">
        <ele>1225.3374023438</ele>
        <time>2011-05-28T07:40:29Z</time>
      </trkpt>
      <trkpt lat="42.71963" lon="1.55475">
        <ele>1227.2602539062</ele>
        <time>2011-05-28T07:40:33Z</time>
      </trkpt>
      <trkpt lat="42.71961" lon="1.55475">
        <ele>1227.2602539062</ele>
        <time>2011-05-28T07:40:35Z</time>
      </trkpt>
      <trkpt lat="42.71954" lon="1.55476">
        <ele>1228.2216796875</ele>
        <time>2011-05-28T07:40:42Z</time>
      </trkpt>
      <trkpt lat="42.71949" lon="1.55475">
        <ele>1229.1828613281</ele>
        <time>2011-05-28T07:40:47Z</time>
      </trkpt>
      <trkpt lat="42.71944" lon="1.55475">
        <ele>1231.5861816406</ele>
        <time>2011-05-28T07:40:52Z</time>
      </trkpt>
      <trkpt lat="42.71941" lon="1.55474">
        <ele>1233.9895019531</ele>
        <time>2011-05-28T07:40:56Z</time>
      </trkpt>
      <trkpt lat="42.71933" lon="1.55474">
        <ele>1236.3928222656</ele>
        <time>2011-05-28T07:41:03Z</time>
      </trkpt>
      <trkpt lat="42.71926" lon="1.55474">
        <ele>1237.3540039062</ele>
        <time>2011-05-28T07:41:10Z</time>
      </trkpt>
      <trkpt lat="42.71922" lon="1.55473">
        <ele>1239.2766113281</ele>
        <time>2011-05-28T07:41:14Z</time>
      </trkpt>
      <trkpt lat="42.71918" lon="1.55475">
        <ele>1239.2766113281</ele>
        <time>2011-05-28T07:41:20Z</time>
      </trkpt>
      <trkpt lat="42.71914" lon="1.55475">
        <ele>1238.7961425781</ele>
        <time>2011-05-28T07:41:24Z</time>
      </trkpt>
      <trkpt lat="42.71909" lon="1.55475">
        <ele>1239.2766113281</ele>
        <time>2011-05-28T07:41:29Z</time>
      </trkpt>
      <trkpt lat="42.71902" lon="1.55473">
        <ele>1242.1606445312</ele>
        <time>2011-05-28T07:41:37Z</time>
      </trkpt>
      <trkpt lat="42.71896" lon="1.55472">
        <ele>1244.5639648438</ele>
        <time>2011-05-28T07:41:45Z</time>
      </trkpt>
      <trkpt lat="42.71894" lon="1.55477">
        <ele>1244.0834960938</ele>
        <time>2011-05-28T07:41:51Z</time>
      </trkpt>
      <trkpt lat="42.719" lon="1.55484">
        <ele>1244.0834960938</ele>
        <time>2011-05-28T07:41:59Z</time>
      </trkpt>
      <trkpt lat="42.71903" lon="1.55487">
        <ele>1244.0834960938</ele>
        <time>2011-05-28T07:42:03Z</time>
      </trkpt>
      <trkpt lat="42.7191" lon="1.55491">
        <ele>1246.0061035156</ele>
        <time>2011-05-28T07:42:11Z</time>
      </trkpt>
      <trkpt lat="42.71915" lon="1.55493">
        <ele>1249.3706054688</ele>
        <time>2011-05-28T07:42:16Z</time>
      </trkpt>
      <trkpt lat="42.71919" lon="1.55494">
        <ele>1249.8513183594</ele>
        <time>2011-05-28T07:42:20Z</time>
      </trkpt>
      <trkpt lat="42.71918" lon="1.55498">
        <ele>1249.8513183594</ele>
        <time>2011-05-28T07:42:24Z</time>
      </trkpt>
      <trkpt lat="42.71914" lon="1.55499">
        <ele>1251.2932128906</ele>
        <time>2011-05-28T07:42:30Z</time>
      </trkpt>
      <trkpt lat="42.71909" lon="1.55498">
        <ele>1253.2158203125</ele>
        <time>2011-05-28T07:42:36Z</time>
      </trkpt>
      <trkpt lat="42.71903" lon="1.55501">
        <ele>1254.1772460938</ele>
        <time>2011-05-28T07:42:42Z</time>
      </trkpt>
      <trkpt lat="42.71899" lon="1.55503">
        <ele>1253.6965332031</ele>
        <time>2011-05-28T07:42:47Z</time>
      </trkpt>
      <trkpt lat="42.71894" lon="1.55504">
        <ele>1253.6965332031</ele>
        <time>2011-05-28T07:42:53Z</time>
      </trkpt>
      <trkpt lat="42.71889" lon="1.55505">
        <ele>1254.6577148438</ele>
        <time>2011-05-28T07:42:59Z</time>
      </trkpt>
      <trkpt lat="42.71884" lon="1.55507">
        <ele>1257.5417480469</ele>
        <time>2011-05-28T07:43:05Z</time>
      </trkpt>
      <trkpt lat="42.71881" lon="1.55507">
        <ele>1258.5029296875</ele>
        <time>2011-05-28T07:43:08Z</time>
      </trkpt>
      <trkpt lat="42.71873" lon="1.55506">
        <ele>1262.8291015625</ele>
        <time>2011-05-28T07:43:15Z</time>
      </trkpt>
      <trkpt lat="42.71868" lon="1.55507">
        <ele>1264.2709960938</ele>
        <time>2011-05-28T07:43:20Z</time>
      </trkpt>
      <trkpt lat="42.71864" lon="1.55507">
        <ele>1265.7131347656</ele>
        <time>2011-05-28T07:43:24Z</time>
      </trkpt>
      <trkpt lat="42.71858" lon="1.55507">
        <ele>1269.0776367188</ele>
        <time>2011-05-28T07:43:29Z</time>
      </trkpt>
      <trkpt lat="42.71854" lon="1.55504">
        <ele>1272.4421386719</ele>
        <time>2011-05-28T07:43:34Z</time>
      </trkpt>
      <trkpt lat="42.71852" lon="1.55502">
        <ele>1274.3647460938</ele>
        <time>2011-05-28T07:43:38Z</time>
      </trkpt>
      <trkpt lat="42.71848" lon="1.55503">
        <ele>1273.8840332031</ele>
        <time>2011-05-28T07:43:42Z</time>
      </trkpt>
      <trkpt lat="42.71843" lon="1.55504">
        <ele>1271.9614257812</ele>
        <time>2011-05-28T07:43:46Z</time>
      </trkpt>
      <trkpt lat="42.71838" lon="1.55505">
        <ele>1270.51953125</ele>
        <time>2011-05-28T07:43:50Z</time>
      </trkpt>
      <trkpt lat="42.71833" lon="1.55506">
        <ele>1270.0388183594</ele>
        <time>2011-05-28T07:43:54Z</time>
      </trkpt>
      <trkpt lat="42.71826" lon="1.55505">
        <ele>1273.4035644531</ele>
        <time>2011-05-28T07:43:59Z</time>
      </trkpt>
      <trkpt lat="42.71823" lon="1.55502">
        <ele>1274.8454589844</ele>
        <time>2011-05-28T07:44:03Z</time>
      </trkpt>
      <trkpt lat="42.71822" lon="1.55501">
        <ele>1275.806640625</ele>
        <time>2011-05-28T07:44:05Z</time>
      </trkpt>
      <trkpt lat="42.71819" lon="1.55497">
        <ele>1280.6135253906</ele>
        <time>2011-05-28T07:44:10Z</time>
      </trkpt>
      <trkpt lat="42.71815" lon="1.55491">
        <ele>1291.1877441406</ele>
        <time>2011-05-28T07:44:16Z</time>
      </trkpt>
      <trkpt lat="42.71813" lon="1.55485">
        <ele>1305.126953125</ele>
        <time>2011-05-28T07:44:25Z</time>
      </trkpt>
      <trkpt lat="42.71814" lon="1.55476">
        <ele>1323.8725585938</ele>
        <time>2011-05-28T07:44:30Z</time>
      </trkpt>
      <trkpt lat="42.71815" lon="1.5546">
        <ele>1351.2702636719</ele>
        <time>2011-05-28T07:44:36Z</time>
      </trkpt>
      <trkpt lat="42.71816" lon="1.55449">
        <ele>1370.4965820312</ele>
        <time>2011-05-28T07:44:41Z</time>
      </trkpt>
      <trkpt lat="42.71814" lon="1.5544">
        <ele>1383.955078125</ele>
        <time>2011-05-28T07:44:47Z</time>
      </trkpt>
      <trkpt lat="42.7181" lon="1.55434">
        <ele>1388.7619628906</ele>
        <time>2011-05-28T07:44:53Z</time>
      </trkpt>
      <trkpt lat="42.71807" lon="1.55434">
        <ele>1383.955078125</ele>
        <time>2011-05-28T07:44:55Z</time>
      </trkpt>
      <trkpt lat="42.71802" lon="1.55434">
        <ele>1379.1484375</ele>
        <time>2011-05-28T07:44:58Z</time>
      </trkpt>
      <trkpt lat="42.71793" lon="1.55432">
        <ele>1367.6125488281</ele>
        <time>2011-05-28T07:45:04Z</time>
      </trkpt>
      <trkpt lat="42.71785" lon="1.55432">
        <ele>1355.1154785156</ele>
        <time>2011-05-28T07:45:11Z</time>
      </trkpt>
      <trkpt lat="42.71783" lon="1.55432">
        <ele>1354.154296875</ele>
        <time>2011-05-28T07:45:12Z</time>
      </trkpt>
      <trkpt lat="42.7177" lon="1.55431">
        <ele>1341.1765136719</ele>
        <time>2011-05-28T07:45:20Z</time>
      </trkpt>
      <trkpt lat="42.71768" lon="1.55431">
        <ele>1338.7731933594</ele>
        <time>2011-05-28T07:45:21Z</time>
      </trkpt>
      <trkpt lat="42.71754" lon="1.55433">
        <ele>1314.740234375</ele>
        <time>2011-05-28T07:45:29Z</time>
      </trkpt>
      <trkpt lat="42.71749" lon="1.55435">
        <ele>1304.1657714844</ele>
        <time>2011-05-28T07:45:34Z</time>
      </trkpt>
      <trkpt lat="42.7174" lon="1.55433">
        <ele>1295.9946289062</ele>
        <time>2011-05-28T07:45:44Z</time>
      </trkpt>
      <trkpt lat="42.71734" lon="1.55432">
        <ele>1293.1105957031</ele>
        <time>2011-05-28T07:45:51Z</time>
      </trkpt>
      <trkpt lat="42.71726" lon="1.55427">
        <ele>1293.1105957031</ele>
        <time>2011-05-28T07:45:59Z</time>
      </trkpt>
      <trkpt lat="42.71724" lon="1.55427">
        <ele>1293.5913085938</ele>
        <time>2011-05-28T07:46:01Z</time>
      </trkpt>
      <trkpt lat="42.7172" lon="1.55424">
        <ele>1294.5524902344</ele>
        <time>2011-05-28T07:46:07Z</time>
      </trkpt>
      <trkpt lat="42.71715" lon="1.55421">
        <ele>1295.5139160156</ele>
        <time>2011-05-28T07:46:13Z</time>
      </trkpt>
      <trkpt lat="42.71714" lon="1.55415">
        <ele>1297.4365234375</ele>
        <time>2011-05-28T07:46:19Z</time>
      </trkpt>
      <trkpt lat="42.71712" lon="1.55405">
        <ele>1297.9172363281</ele>
        <time>2011-05-28T07:46:26Z</time>
      </trkpt>
      <trkpt lat="42.71712" lon="1.55403">
        <ele>1297.9172363281</ele>
        <time>2011-05-28T07:46:27Z</time>
      </trkpt>
      <trkpt lat="42.71705" lon="1.554">
        <ele>1297.9172363281</ele>
        <time>2011-05-28T07:46:34Z</time>
      </trkpt>
      <trkpt lat="42.71704" lon="1.55401">
        <ele>1297.9172363281</ele>
        <time>2011-05-28T07:46:35Z</time>
      </trkpt>
      <trkpt lat="42.71697" lon="1.55406">
        <ele>1302.7236328125</ele>
        <time>2011-05-28T07:46:42Z</time>
      </trkpt>
      <trkpt lat="42.71693" lon="1.55409">
        <ele>1305.6076660156</ele>
        <time>2011-05-28T07:46:49Z</time>
      </trkpt>
      <trkpt lat="42.71691" lon="1.55411">
        <ele>1309.453125</ele>
        <time>2011-05-28T07:46:55Z</time>
      </trkpt>
      <trkpt lat="42.71694" lon="1.5542">
        <ele>1320.02734375</ele>
        <time>2011-05-28T07:47:05Z</time>
      </trkpt>
      <trkpt lat="42.7169" lon="1.55422">
        <ele>1320.5080566406</ele>
        <time>2011-05-28T07:47:07Z</time>
      </trkpt>
      <trkpt lat="42.71689" lon="1.55429">
        <ele>1324.8342285156</ele>
        <time>2011-05-28T07:47:13Z</time>
      </trkpt>
      <trkpt lat="42.7169" lon="1.55431">
        <ele>1326.7568359375</ele>
        <time>2011-05-28T07:47:15Z</time>
      </trkpt>
      <trkpt lat="42.71689" lon="1.55436">
        <ele>1330.6020507812</ele>
        <time>2011-05-28T07:47:23Z</time>
      </trkpt>
      <trkpt lat="42.71687" lon="1.55442">
        <ele>1333.4858398438</ele>
        <time>2011-05-28T07:47:29Z</time>
      </trkpt>
      <trkpt lat="42.71683" lon="1.55444">
        <ele>1334.9279785156</ele>
        <time>2011-05-28T07:47:33Z</time>
      </trkpt>
      <trkpt lat="42.71679" lon="1.55447">
        <ele>1335.4084472656</ele>
        <time>2011-05-28T07:47:36Z</time>
      </trkpt>
      <trkpt lat="42.71679" lon="1.5545">
        <ele>1339.2536621094</ele>
        <time>2011-05-28T07:47:40Z</time>
      </trkpt>
      <trkpt lat="42.71679" lon="1.55453">
        <ele>1348.3862304688</ele>
        <time>2011-05-28T07:47:47Z</time>
      </trkpt>
      <trkpt lat="42.71676" lon="1.55457">
        <ele>1356.0769042969</ele>
        <time>2011-05-28T07:47:53Z</time>
      </trkpt>
      <trkpt lat="42.71676" lon="1.55461">
        <ele>1361.8449707031</ele>
        <time>2011-05-28T07:47:58Z</time>
      </trkpt>
      <trkpt lat="42.71675" lon="1.55465">
        <ele>1365.6901855469</ele>
        <time>2011-05-28T07:48:04Z</time>
      </trkpt>
      <trkpt lat="42.71671" lon="1.55471">
        <ele>1365.2094726562</ele>
        <time>2011-05-28T07:48:10Z</time>
      </trkpt>
      <trkpt lat="42.71669" lon="1.55475">
        <ele>1365.6901855469</ele>
        <time>2011-05-28T07:48:15Z</time>
      </trkpt>
      <trkpt lat="42.71667" lon="1.55482">
        <ele>1364.7287597656</ele>
        <time>2011-05-28T07:48:21Z</time>
      </trkpt>
      <trkpt lat="42.71667" lon="1.55488">
        <ele>1364.248046875</ele>
        <time>2011-05-28T07:48:26Z</time>
      </trkpt>
      <trkpt lat="42.71666" lon="1.55493">
        <ele>1365.2094726562</ele>
        <time>2011-05-28T07:48:31Z</time>
      </trkpt>
      <trkpt lat="42.71667" lon="1.55498">
        <ele>1365.2094726562</ele>
        <time>2011-05-28T07:48:35Z</time>
      </trkpt>
      <trkpt lat="42.71666" lon="1.55502">
        <ele>1363.7673339844</ele>
        <time>2011-05-28T07:48:38Z</time>
      </trkpt>
      <trkpt lat="42.71666" lon="1.55508">
        <ele>1363.7673339844</ele>
        <time>2011-05-28T07:48:44Z</time>
      </trkpt>
      <trkpt lat="42.71664" lon="1.55515">
        <ele>1361.8449707031</ele>
        <time>2011-05-28T07:48:50Z</time>
      </trkpt>
      <trkpt lat="42.71662" lon="1.55519">
        <ele>1357.5190429688</ele>
        <time>2011-05-28T07:48:58Z</time>
      </trkpt>
      <trkpt lat="42.71661" lon="1.55515">
        <ele>1364.7287597656</ele>
        <time>2011-05-28T07:49:06Z</time>
      </trkpt>
      <trkpt lat="42.71661" lon="1.55508">
        <ele>1375.3032226562</ele>
        <time>2011-05-28T07:49:12Z</time>
      </trkpt>
      <trkpt lat="42.71661" lon="1.55496">
        <ele>1392.6071777344</ele>
        <time>2011-05-28T07:49:28Z</time>
      </trkpt>
      <trkpt lat="42.71658" lon="1.55495">
        <ele>1388.28125</ele>
        <time>2011-05-28T07:49:31Z</time>
      </trkpt>
      <trkpt lat="42.71651" lon="1.5549">
        <ele>1375.7839355469</ele>
        <time>2011-05-28T07:49:40Z</time>
      </trkpt>
      <trkpt lat="42.71651" lon="1.55479">
        <ele>1386.8388671875</ele>
        <time>2011-05-28T07:49:47Z</time>
      </trkpt>
      <trkpt lat="42.71651" lon="1.55478">
        <ele>1387.3195800781</ele>
        <time>2011-05-28T07:49:48Z</time>
      </trkpt>
      <trkpt lat="42.71647" lon="1.55469">
        <ele>1385.3969726562</ele>
        <time>2011-05-28T07:49:57Z</time>
      </trkpt>
      <trkpt lat="42.71646" lon="1.55468">
        <ele>1368.0932617188</ele>
        <time>2011-05-28T07:50:07Z</time>
      </trkpt>
      <trkpt lat="42.71644" lon="1.55463">
        <ele>1363.7673339844</ele>
        <time>2011-05-28T07:50:13Z</time>
      </trkpt>
      <trkpt lat="42.7164" lon="1.55461">
        <ele>1358.9609375</ele>
        <time>2011-05-28T07:50:21Z</time>
      </trkpt>
      <trkpt lat="42.71638" lon="1.55463">
        <ele>1358.4802246094</ele>
        <time>2011-05-28T07:50:24Z</time>
      </trkpt>
      <trkpt lat="42.71634" lon="1.55468">
        <ele>1357.5190429688</ele>
        <time>2011-05-28T07:50:28Z</time>
      </trkpt>
      <trkpt lat="42.71629" lon="1.55477">
        <ele>1355.1154785156</ele>
        <time>2011-05-28T07:50:36Z</time>
      </trkpt>
      <trkpt lat="42.71626" lon="1.5549">
        <ele>1351.7509765625</ele>
        <time>2011-05-28T07:50:45Z</time>
      </trkpt>
      <trkpt lat="42.71624" lon="1.55501">
        <ele>1349.34765625</ele>
        <time>2011-05-28T07:50:53Z</time>
      </trkpt>
      <trkpt lat="42.71626" lon="1.5551">
        <ele>1350.7895507812</ele>
        <time>2011-05-28T07:51:01Z</time>
      </trkpt>
      <trkpt lat="42.71629" lon="1.55517">
        <ele>1364.248046875</ele>
        <time>2011-05-28T07:51:09Z</time>
      </trkpt>
      <trkpt lat="42.71634" lon="1.55522">
        <ele>1374.3420410156</ele>
        <time>2011-05-28T07:51:14Z</time>
      </trkpt>
      <trkpt lat="42.71638" lon="1.5553">
        <ele>1376.7453613281</ele>
        <time>2011-05-28T07:51:21Z</time>
      </trkpt>
      <trkpt lat="42.71636" lon="1.55535">
        <ele>1375.3032226562</ele>
        <time>2011-05-28T07:51:25Z</time>
      </trkpt>
      <trkpt lat="42.71635" lon="1.5553">
        <ele>1377.7065429688</ele>
        <time>2011-05-28T07:51:32Z</time>
      </trkpt>
      <trkpt lat="42.71633" lon="1.55525">
        <ele>1379.1484375</ele>
        <time>2011-05-28T07:51:37Z</time>
      </trkpt>
      <trkpt lat="42.71627" lon="1.55521">
        <ele>1370.0158691406</ele>
        <time>2011-05-28T07:51:45Z</time>
      </trkpt>
      <trkpt lat="42.71626" lon="1.55519">
        <ele>1367.1320800781</ele>
        <time>2011-05-28T07:51:49Z</time>
      </trkpt>
      <trkpt lat="42.71623" lon="1.55514">
        <ele>1366.1706542969</ele>
        <time>2011-05-28T07:51:55Z</time>
      </trkpt>
      <trkpt lat="42.71621" lon="1.55509">
        <ele>1366.1706542969</ele>
        <time>2011-05-28T07:52:01Z</time>
      </trkpt>
      <trkpt lat="42.71618" lon="1.55507">
        <ele>1366.1706542969</ele>
        <time>2011-05-28T07:52:07Z</time>
      </trkpt>
      <trkpt lat="42.71617" lon="1.55512">
        <ele>1364.248046875</ele>
        <time>2011-05-28T07:52:12Z</time>
      </trkpt>
      <trkpt lat="42.71616" lon="1.55519">
        <ele>1363.7673339844</ele>
        <time>2011-05-28T07:52:19Z</time>
      </trkpt>
      <trkpt lat="42.71614" lon="1.55525">
        <ele>1363.7673339844</ele>
        <time>2011-05-28T07:52:26Z</time>
      </trkpt>
      <trkpt lat="42.71613" lon="1.5553">
        <ele>1364.7287597656</ele>
        <time>2011-05-28T07:52:32Z</time>
      </trkpt>
      <trkpt lat="42.71611" lon="1.55537">
        <ele>1365.6901855469</ele>
        <time>2011-05-28T07:52:39Z</time>
      </trkpt>
      <trkpt lat="42.71608" lon="1.55544">
        <ele>1366.6513671875</ele>
        <time>2011-05-28T07:52:47Z</time>
      </trkpt>
      <trkpt lat="42.71606" lon="1.55549">
        <ele>1368.0932617188</ele>
        <time>2011-05-28T07:52:54Z</time>
      </trkpt>
      <trkpt lat="42.71603" lon="1.55553">
        <ele>1369.0546875</ele>
        <time>2011-05-28T07:53:00Z</time>
      </trkpt>
      <trkpt lat="42.716" lon="1.55555">
        <ele>1370.0158691406</ele>
        <time>2011-05-28T07:53:05Z</time>
      </trkpt>
      <trkpt lat="42.71597" lon="1.55557">
        <ele>1371.4577636719</ele>
        <time>2011-05-28T07:53:10Z</time>
      </trkpt>
      <trkpt lat="42.71592" lon="1.5556">
        <ele>1373.861328125</ele>
        <time>2011-05-28T07:53:17Z</time>
      </trkpt>
      <trkpt lat="42.71583" lon="1.55564">
        <ele>1377.7065429688</ele>
        <time>2011-05-28T07:53:24Z</time>
      </trkpt>
      <trkpt lat="42.71574" lon="1.55569">
        <ele>1380.1098632812</ele>
        <time>2011-05-28T07:53:32Z</time>
      </trkpt>
      <trkpt lat="42.71573" lon="1.55569">
        <ele>1380.1098632812</ele>
        <time>2011-05-28T07:53:33Z</time>
      </trkpt>
      <trkpt lat="42.71565" lon="1.55578">
        <ele>1378.66796875</ele>
        <time>2011-05-28T07:53:42Z</time>
      </trkpt>
      <trkpt lat="42.71563" lon="1.55581">
        <ele>1379.6291503906</ele>
        <time>2011-05-28T07:53:48Z</time>
      </trkpt>
      <trkpt lat="42.7156" lon="1.55587">
        <ele>1380.1098632812</ele>
        <time>2011-05-28T07:53:54Z</time>
      </trkpt>
      <trkpt lat="42.71557" lon="1.55588">
        <ele>1389.7231445312</ele>
        <time>2011-05-28T07:54:00Z</time>
      </trkpt>
      <trkpt lat="42.71555" lon="1.55591">
        <ele>1397.8942871094</ele>
        <time>2011-05-28T07:54:06Z</time>
      </trkpt>
      <trkpt lat="42.7155" lon="1.55598">
        <ele>1402.2199707031</ele>
        <time>2011-05-28T07:54:11Z</time>
      </trkpt>
      <trkpt lat="42.71546" lon="1.55606">
        <ele>1396.9328613281</ele>
        <time>2011-05-28T07:54:18Z</time>
      </trkpt>
      <trkpt lat="42.71544" lon="1.55615">
        <ele>1382.5131835938</ele>
        <time>2011-05-28T07:54:24Z</time>
      </trkpt>
      <trkpt lat="42.7154" lon="1.55623">
        <ele>1374.8227539062</ele>
        <time>2011-05-28T07:54:32Z</time>
      </trkpt>
      <trkpt lat="42.71537" lon="1.55628">
        <ele>1378.1872558594</ele>
        <time>2011-05-28T07:54:38Z</time>
      </trkpt>
      <trkpt lat="42.71532" lon="1.55628">
        <ele>1376.2646484375</ele>
        <time>2011-05-28T07:54:44Z</time>
      </trkpt>
      <trkpt lat="42.71529" lon="1.55625">
        <ele>1379.1484375</ele>
        <time>2011-05-28T07:54:47Z</time>
      </trkpt>
      <trkpt lat="42.71527" lon="1.55623">
        <ele>1381.5517578125</ele>
        <time>2011-05-28T07:54:49Z</time>
      </trkpt>
      <trkpt lat="42.71518" lon="1.55619">
        <ele>1396.4523925781</ele>
        <time>2011-05-28T07:54:57Z</time>
      </trkpt>
      <trkpt lat="42.71515" lon="1.55619">
        <ele>1403.1813964844</ele>
        <time>2011-05-28T07:54:59Z</time>
      </trkpt>
      <trkpt lat="42.71508" lon="1.55615">
        <ele>1405.5849609375</ele>
        <time>2011-05-28T07:55:07Z</time>
      </trkpt>
      <trkpt lat="42.715" lon="1.55611">
        <ele>1407.5075683594</ele>
        <time>2011-05-28T07:55:15Z</time>
      </trkpt>
      <trkpt lat="42.71495" lon="1.55611">
        <ele>1408.46875</ele>
        <time>2011-05-28T07:55:21Z</time>
      </trkpt>
      <trkpt lat="42.7149" lon="1.55612">
        <ele>1407.98828125</ele>
        <time>2011-05-28T07:55:27Z</time>
      </trkpt>
      <trkpt lat="42.71485" lon="1.55609">
        <ele>1404.1430664062</ele>
        <time>2011-05-28T07:55:34Z</time>
      </trkpt>
      <trkpt lat="42.7148" lon="1.55603">
        <ele>1404.6235351562</ele>
        <time>2011-05-28T07:55:41Z</time>
      </trkpt>
      <trkpt lat="42.71473" lon="1.55599">
        <ele>1403.1813964844</ele>
        <time>2011-05-28T07:55:49Z</time>
      </trkpt>
      <trkpt lat="42.71472" lon="1.556">
        <ele>1402.7006835938</ele>
        <time>2011-05-28T07:55:50Z</time>
      </trkpt>
      <trkpt lat="42.71467" lon="1.55602">
        <ele>1403.662109375</ele>
        <time>2011-05-28T07:55:54Z</time>
      </trkpt>
      <trkpt lat="42.71461" lon="1.55613">
        <ele>1407.5075683594</ele>
        <time>2011-05-28T07:56:05Z</time>
      </trkpt>
      <trkpt lat="42.71456" lon="1.55621">
        <ele>1408.9494628906</ele>
        <time>2011-05-28T07:56:12Z</time>
      </trkpt>
      <trkpt lat="42.71453" lon="1.55626">
        <ele>1408.9494628906</ele>
        <time>2011-05-28T07:56:17Z</time>
      </trkpt>
      <trkpt lat="42.7145" lon="1.55633">
        <ele>1410.8720703125</ele>
        <time>2011-05-28T07:56:24Z</time>
      </trkpt>
      <trkpt lat="42.71449" lon="1.55634">
        <ele>1411.3527832031</ele>
        <time>2011-05-28T07:56:25Z</time>
      </trkpt>
      <trkpt lat="42.71445" lon="1.55637">
        <ele>1412.7946777344</ele>
        <time>2011-05-28T07:56:29Z</time>
      </trkpt>
      <trkpt lat="42.71441" lon="1.55647">
        <ele>1414.7172851562</ele>
        <time>2011-05-28T07:56:37Z</time>
      </trkpt>
      <trkpt lat="42.71437" lon="1.55655">
        <ele>1414.7172851562</ele>
        <time>2011-05-28T07:56:44Z</time>
      </trkpt>
      <trkpt lat="42.71434" lon="1.5566">
        <ele>1413.275390625</ele>
        <time>2011-05-28T07:56:50Z</time>
      </trkpt>
      <trkpt lat="42.71431" lon="1.55666">
        <ele>1415.6787109375</ele>
        <time>2011-05-28T07:56:57Z</time>
      </trkpt>
      <trkpt lat="42.71427" lon="1.55673">
        <ele>1417.6010742188</ele>
        <time>2011-05-28T07:57:05Z</time>
      </trkpt>
      <trkpt lat="42.71423" lon="1.5568">
        <ele>1419.0432128906</ele>
        <time>2011-05-28T07:57:12Z</time>
      </trkpt>
      <trkpt lat="42.71418" lon="1.55689">
        <ele>1420.4853515625</ele>
        <time>2011-05-28T07:57:19Z</time>
      </trkpt>
      <trkpt lat="42.71413" lon="1.55691">
        <ele>1422.888671875</ele>
        <time>2011-05-28T07:57:25Z</time>
      </trkpt>
      <trkpt lat="42.71408" lon="1.55691">
        <ele>1422.888671875</ele>
        <time>2011-05-28T07:57:31Z</time>
      </trkpt>
      <trkpt lat="42.71403" lon="1.55697">
        <ele>1423.8498535156</ele>
        <time>2011-05-28T07:57:38Z</time>
      </trkpt>
      <trkpt lat="42.71399" lon="1.55699">
        <ele>1425.2917480469</ele>
        <time>2011-05-28T07:57:43Z</time>
      </trkpt>
      <trkpt lat="42.71396" lon="1.557">
        <ele>1426.2531738281</ele>
        <time>2011-05-28T07:57:49Z</time>
      </trkpt>
      <trkpt lat="42.71392" lon="1.55697">
        <ele>1429.6176757812</ele>
        <time>2011-05-28T07:57:56Z</time>
      </trkpt>
      <trkpt lat="42.71387" lon="1.55697">
        <ele>1430.5791015625</ele>
        <time>2011-05-28T07:58:02Z</time>
      </trkpt>
      <trkpt lat="42.71383" lon="1.55697">
        <ele>1431.5402832031</ele>
        <time>2011-05-28T07:58:07Z</time>
      </trkpt>
      <trkpt lat="42.71378" lon="1.55699">
        <ele>1434.9050292969</ele>
        <time>2011-05-28T07:58:13Z</time>
      </trkpt>
      <trkpt lat="42.71373" lon="1.55703">
        <ele>1435.8662109375</ele>
        <time>2011-05-28T07:58:20Z</time>
      </trkpt>
      <trkpt lat="42.71368" lon="1.55705">
        <ele>1434.4243164062</ele>
        <time>2011-05-28T07:58:26Z</time>
      </trkpt>
      <trkpt lat="42.71365" lon="1.55706">
        <ele>1434.9050292969</ele>
        <time>2011-05-28T07:58:30Z</time>
      </trkpt>
      <trkpt lat="42.7136" lon="1.55708">
        <ele>1434.9050292969</ele>
        <time>2011-05-28T07:58:37Z</time>
      </trkpt>
      <trkpt lat="42.71357" lon="1.55711">
        <ele>1434.4243164062</ele>
        <time>2011-05-28T07:58:43Z</time>
      </trkpt>
      <trkpt lat="42.7135" lon="1.55716">
        <ele>1433.9436035156</ele>
        <time>2011-05-28T07:58:51Z</time>
      </trkpt>
      <trkpt lat="42.71347" lon="1.55717">
        <ele>1434.4243164062</ele>
        <time>2011-05-28T07:58:54Z</time>
      </trkpt>
      <trkpt lat="42.71337" lon="1.55717">
        <ele>1436.3471679688</ele>
        <time>2011-05-28T07:59:03Z</time>
      </trkpt>
      <trkpt lat="42.71329" lon="1.55718">
        <ele>1437.7890625</ele>
        <time>2011-05-28T07:59:10Z</time>
      </trkpt>
      <trkpt lat="42.71325" lon="1.5572">
        <ele>1439.2309570312</ele>
        <time>2011-05-28T07:59:14Z</time>
      </trkpt>
      <trkpt lat="42.7132" lon="1.55723">
        <ele>1440.1923828125</ele>
        <time>2011-05-28T07:59:20Z</time>
      </trkpt>
      <trkpt lat="42.71318" lon="1.55722">
        <ele>1442.1149902344</ele>
        <time>2011-05-28T07:59:25Z</time>
      </trkpt>
      <trkpt lat="42.71314" lon="1.55722">
        <ele>1443.5568847656</ele>
        <time>2011-05-28T07:59:31Z</time>
      </trkpt>
      <trkpt lat="42.71308" lon="1.55721">
        <ele>1446.9213867188</ele>
        <time>2011-05-28T07:59:38Z</time>
      </trkpt>
      <trkpt lat="42.71304" lon="1.55723">
        <ele>1453.1701660156</ele>
        <time>2011-05-28T07:59:43Z</time>
      </trkpt>
      <trkpt lat="42.71298" lon="1.55725">
        <ele>1446.9213867188</ele>
        <time>2011-05-28T07:59:54Z</time>
      </trkpt>
      <trkpt lat="42.71291" lon="1.55729">
        <ele>1445.4794921875</ele>
        <time>2011-05-28T08:00:02Z</time>
      </trkpt>
      <trkpt lat="42.71281" lon="1.55733">
        <ele>1444.0375976562</ele>
        <time>2011-05-28T08:00:10Z</time>
      </trkpt>
      <trkpt lat="42.71273" lon="1.5574">
        <ele>1444.0375976562</ele>
        <time>2011-05-28T08:00:18Z</time>
      </trkpt>
      <trkpt lat="42.7127" lon="1.55742">
        <ele>1444.0375976562</ele>
        <time>2011-05-28T08:00:21Z</time>
      </trkpt>
      <trkpt lat="42.71265" lon="1.55743">
        <ele>1444.0375976562</ele>
        <time>2011-05-28T08:00:26Z</time>
      </trkpt>
      <trkpt lat="42.7126" lon="1.55747">
        <ele>1444.0375976562</ele>
        <time>2011-05-28T08:00:32Z</time>
      </trkpt>
      <trkpt lat="42.71256" lon="1.55751">
        <ele>1445.4794921875</ele>
        <time>2011-05-28T08:00:37Z</time>
      </trkpt>
      <trkpt lat="42.71249" lon="1.55755">
        <ele>1447.4020996094</ele>
        <time>2011-05-28T08:00:45Z</time>
      </trkpt>
      <trkpt lat="42.71244" lon="1.55758">
        <ele>1448.36328125</ele>
        <time>2011-05-28T08:00:51Z</time>
      </trkpt>
      <trkpt lat="42.71238" lon="1.55765">
        <ele>1448.36328125</ele>
        <time>2011-05-28T08:01:00Z</time>
      </trkpt>
      <trkpt lat="42.71231" lon="1.55769">
        <ele>1449.8054199219</ele>
        <time>2011-05-28T08:01:08Z</time>
      </trkpt>
      <trkpt lat="42.71225" lon="1.55773">
        <ele>1450.7666015625</ele>
        <time>2011-05-28T08:01:14Z</time>
      </trkpt>
      <trkpt lat="42.71223" lon="1.55776">
        <ele>1450.7666015625</ele>
        <time>2011-05-28T08:01:17Z</time>
      </trkpt>
      <trkpt lat="42.71216" lon="1.55783">
        <ele>1450.2861328125</ele>
        <time>2011-05-28T08:01:26Z</time>
      </trkpt>
      <trkpt lat="42.71214" lon="1.55786">
        <ele>1449.8054199219</ele>
        <time>2011-05-28T08:01:29Z</time>
      </trkpt>
      <trkpt lat="42.7121" lon="1.55786">
        <ele>1449.8054199219</ele>
        <time>2011-05-28T08:01:34Z</time>
      </trkpt>
      <trkpt lat="42.71206" lon="1.55785">
        <ele>1447.8828125</ele>
        <time>2011-05-28T08:01:39Z</time>
      </trkpt>
      <trkpt lat="42.71204" lon="1.5579">
        <ele>1445.4794921875</ele>
        <time>2011-05-28T08:01:45Z</time>
      </trkpt>
      <trkpt lat="42.71198" lon="1.55796">
        <ele>1444.5180664062</ele>
        <time>2011-05-28T08:01:52Z</time>
      </trkpt>
      <trkpt lat="42.71196" lon="1.55796">
        <ele>1444.9987792969</ele>
        <time>2011-05-28T08:01:53Z</time>
      </trkpt>
      <trkpt lat="42.71191" lon="1.55798">
        <ele>1446.9213867188</ele>
        <time>2011-05-28T08:01:57Z</time>
      </trkpt>
      <trkpt lat="42.71185" lon="1.55806">
        <ele>1447.8828125</ele>
        <time>2011-05-28T08:02:04Z</time>
      </trkpt>
      <trkpt lat="42.71178" lon="1.55809">
        <ele>1451.2473144531</ele>
        <time>2011-05-28T08:02:11Z</time>
      </trkpt>
      <trkpt lat="42.71176" lon="1.55811">
        <ele>1451.7280273438</ele>
        <time>2011-05-28T08:02:14Z</time>
      </trkpt>
      <trkpt lat="42.71172" lon="1.55821">
        <ele>1451.7280273438</ele>
        <time>2011-05-28T08:02:23Z</time>
      </trkpt>
      <trkpt lat="42.71169" lon="1.55818">
        <ele>1453.6508789062</ele>
        <time>2011-05-28T08:02:28Z</time>
      </trkpt>
      <trkpt lat="42.71162" lon="1.55819">
        <ele>1459.8991699219</ele>
        <time>2011-05-28T08:02:36Z</time>
      </trkpt>
      <trkpt lat="42.71159" lon="1.55821">
        <ele>1461.3413085938</ele>
        <time>2011-05-28T08:02:41Z</time>
      </trkpt>
      <trkpt lat="42.71151" lon="1.55827">
        <ele>1460.8605957031</ele>
        <time>2011-05-28T08:02:50Z</time>
      </trkpt>
      <trkpt lat="42.7115" lon="1.55828">
        <ele>1461.3413085938</ele>
        <time>2011-05-28T08:02:51Z</time>
      </trkpt>
      <trkpt lat="42.71144" lon="1.55835">
        <ele>1461.8220214844</ele>
        <time>2011-05-28T08:02:59Z</time>
      </trkpt>
      <trkpt lat="42.7114" lon="1.55839">
        <ele>1462.3024902344</ele>
        <time>2011-05-28T08:03:05Z</time>
      </trkpt>
      <trkpt lat="42.71134" lon="1.55843">
        <ele>1462.783203125</ele>
        <time>2011-05-28T08:03:12Z</time>
      </trkpt>
      <trkpt lat="42.71129" lon="1.55849">
        <ele>1463.2639160156</ele>
        <time>2011-05-28T08:03:19Z</time>
      </trkpt>
      <trkpt lat="42.71124" lon="1.55856">
        <ele>1464.2250976562</ele>
        <time>2011-05-28T08:03:26Z</time>
      </trkpt>
      <trkpt lat="42.71117" lon="1.55861">
        <ele>1466.1477050781</ele>
        <time>2011-05-28T08:03:33Z</time>
      </trkpt>
      <trkpt lat="42.71113" lon="1.55864">
        <ele>1467.5895996094</ele>
        <time>2011-05-28T08:03:38Z</time>
      </trkpt>
      <trkpt lat="42.7111" lon="1.55867">
        <ele>1467.1091308594</ele>
        <time>2011-05-28T08:03:42Z</time>
      </trkpt>
      <trkpt lat="42.71104" lon="1.55877">
        <ele>1465.6672363281</ele>
        <time>2011-05-28T08:03:50Z</time>
      </trkpt>
      <trkpt lat="42.71096" lon="1.55878">
        <ele>1467.5895996094</ele>
        <time>2011-05-28T08:03:57Z</time>
      </trkpt>
      <trkpt lat="42.7109" lon="1.5588">
        <ele>1469.5126953125</ele>
        <time>2011-05-28T08:04:02Z</time>
      </trkpt>
      <trkpt lat="42.71083" lon="1.55885">
        <ele>1471.4350585938</ele>
        <time>2011-05-28T08:04:09Z</time>
      </trkpt>
      <trkpt lat="42.71081" lon="1.55886">
        <ele>1470.9545898438</ele>
        <time>2011-05-28T08:04:11Z</time>
      </trkpt>
      <trkpt lat="42.71077" lon="1.55888">
        <ele>1470.4738769531</ele>
        <time>2011-05-28T08:04:16Z</time>
      </trkpt>
      <trkpt lat="42.71073" lon="1.55894">
        <ele>1470.4738769531</ele>
        <time>2011-05-28T08:04:24Z</time>
      </trkpt>
      <trkpt lat="42.71067" lon="1.55897">
        <ele>1470.4738769531</ele>
        <time>2011-05-28T08:04:31Z</time>
      </trkpt>
      <trkpt lat="42.71062" lon="1.55902">
        <ele>1471.4350585938</ele>
        <time>2011-05-28T08:04:37Z</time>
      </trkpt>
      <trkpt lat="42.71059" lon="1.55907">
        <ele>1471.9157714844</ele>
        <time>2011-05-28T08:04:43Z</time>
      </trkpt>
      <trkpt lat="42.71053" lon="1.5591">
        <ele>1472.8771972656</ele>
        <time>2011-05-28T08:04:49Z</time>
      </trkpt>
      <trkpt lat="42.71041" lon="1.55914">
        <ele>1474.7998046875</ele>
        <time>2011-05-28T08:04:59Z</time>
      </trkpt>
      <trkpt lat="42.71039" lon="1.55915">
        <ele>1475.2802734375</ele>
        <time>2011-05-28T08:05:01Z</time>
      </trkpt>
      <trkpt lat="42.71034" lon="1.55915">
        <ele>1475.7609863281</ele>
        <time>2011-05-28T08:05:06Z</time>
      </trkpt>
      <trkpt lat="42.71027" lon="1.55914">
        <ele>1473.8383789062</ele>
        <time>2011-05-28T08:05:13Z</time>
      </trkpt>
      <trkpt lat="42.71023" lon="1.55914">
        <ele>1472.396484375</ele>
        <time>2011-05-28T08:05:16Z</time>
      </trkpt>
      <trkpt lat="42.71018" lon="1.55919">
        <ele>1472.396484375</ele>
        <time>2011-05-28T08:05:23Z</time>
      </trkpt>
      <trkpt lat="42.71014" lon="1.55923">
        <ele>1474.3190917969</ele>
        <time>2011-05-28T08:05:29Z</time>
      </trkpt>
      <trkpt lat="42.71011" lon="1.55932">
        <ele>1473.8383789062</ele>
        <time>2011-05-28T08:05:37Z</time>
      </trkpt>
      <trkpt lat="42.71012" lon="1.5594">
        <ele>1474.3190917969</ele>
        <time>2011-05-28T08:05:44Z</time>
      </trkpt>
      <trkpt lat="42.71009" lon="1.55944">
        <ele>1474.3190917969</ele>
        <time>2011-05-28T08:05:49Z</time>
      </trkpt>
      <trkpt lat="42.71006" lon="1.55951">
        <ele>1474.3190917969</ele>
        <time>2011-05-28T08:05:55Z</time>
      </trkpt>
      <trkpt lat="42.71002" lon="1.55955">
        <ele>1474.7998046875</ele>
        <time>2011-05-28T08:06:00Z</time>
      </trkpt>
      <trkpt lat="42.70995" lon="1.55962">
        <ele>1476.2416992188</ele>
        <time>2011-05-28T08:06:07Z</time>
      </trkpt>
      <trkpt lat="42.70989" lon="1.55966">
        <ele>1479.1254882812</ele>
        <time>2011-05-28T08:06:12Z</time>
      </trkpt>
      <trkpt lat="42.7098" lon="1.55977">
        <ele>1479.6062011719</ele>
        <time>2011-05-28T08:06:21Z</time>
      </trkpt>
      <trkpt lat="42.70974" lon="1.55986">
        <ele>1481.0483398438</ele>
        <time>2011-05-28T08:06:28Z</time>
      </trkpt>
      <trkpt lat="42.70967" lon="1.55991">
        <ele>1482.490234375</ele>
        <time>2011-05-28T08:06:34Z</time>
      </trkpt>
      <trkpt lat="42.70963" lon="1.55996">
        <ele>1483.4514160156</ele>
        <time>2011-05-28T08:06:39Z</time>
      </trkpt>
      <trkpt lat="42.70957" lon="1.56004">
        <ele>1484.4130859375</ele>
        <time>2011-05-28T08:06:46Z</time>
      </trkpt>
      <trkpt lat="42.70951" lon="1.56014">
        <ele>1484.8937988281</ele>
        <time>2011-05-28T08:06:54Z</time>
      </trkpt>
      <trkpt lat="42.70945" lon="1.56023">
        <ele>1485.3742675781</ele>
        <time>2011-05-28T08:07:01Z</time>
      </trkpt>
      <trkpt lat="42.70937" lon="1.56034">
        <ele>1485.8549804688</ele>
        <time>2011-05-28T08:07:10Z</time>
      </trkpt>
      <trkpt lat="42.70931" lon="1.56044">
        <ele>1485.3742675781</ele>
        <time>2011-05-28T08:07:17Z</time>
      </trkpt>
      <trkpt lat="42.70927" lon="1.56058">
        <ele>1486.3356933594</ele>
        <time>2011-05-28T08:07:25Z</time>
      </trkpt>
      <trkpt lat="42.70921" lon="1.5607">
        <ele>1487.296875</ele>
        <time>2011-05-28T08:07:33Z</time>
      </trkpt>
      <trkpt lat="42.70917" lon="1.56076">
        <ele>1488.2583007812</ele>
        <time>2011-05-28T08:07:38Z</time>
      </trkpt>
      <trkpt lat="42.70912" lon="1.56077">
        <ele>1489.7001953125</ele>
        <time>2011-05-28T08:07:42Z</time>
      </trkpt>
      <trkpt lat="42.70906" lon="1.56083">
        <ele>1490.1809082031</ele>
        <time>2011-05-28T08:07:49Z</time>
      </trkpt>
      <trkpt lat="42.70903" lon="1.56089">
        <ele>1488.7390136719</ele>
        <time>2011-05-28T08:07:55Z</time>
      </trkpt>
      <trkpt lat="42.70898" lon="1.56098">
        <ele>1488.2583007812</ele>
        <time>2011-05-28T08:08:02Z</time>
      </trkpt>
      <trkpt lat="42.70894" lon="1.561">
        <ele>1487.7775878906</ele>
        <time>2011-05-28T08:08:07Z</time>
      </trkpt>
      <trkpt lat="42.70887" lon="1.56097">
        <ele>1487.296875</ele>
        <time>2011-05-28T08:08:15Z</time>
      </trkpt>
      <trkpt lat="42.70885" lon="1.56097">
        <ele>1486.8161621094</ele>
        <time>2011-05-28T08:08:16Z</time>
      </trkpt>
      <trkpt lat="42.70881" lon="1.56099">
        <ele>1487.296875</ele>
        <time>2011-05-28T08:08:20Z</time>
      </trkpt>
      <trkpt lat="42.70871" lon="1.56103">
        <ele>1489.7001953125</ele>
        <time>2011-05-28T08:08:29Z</time>
      </trkpt>
      <trkpt lat="42.70866" lon="1.56107">
        <ele>1487.296875</ele>
        <time>2011-05-28T08:08:34Z</time>
      </trkpt>
      <trkpt lat="42.7086" lon="1.56109">
        <ele>1485.8549804688</ele>
        <time>2011-05-28T08:08:38Z</time>
      </trkpt>
      <trkpt lat="42.70854" lon="1.56114">
        <ele>1484.8937988281</ele>
        <time>2011-05-28T08:08:43Z</time>
      </trkpt>
      <trkpt lat="42.70848" lon="1.56124">
        <ele>1485.8549804688</ele>
        <time>2011-05-28T08:08:51Z</time>
      </trkpt>
      <trkpt lat="42.70842" lon="1.56135">
        <ele>1488.2583007812</ele>
        <time>2011-05-28T08:08:59Z</time>
      </trkpt>
      <trkpt lat="42.70833" lon="1.56146">
        <ele>1487.7775878906</ele>
        <time>2011-05-28T08:09:08Z</time>
      </trkpt>
      <trkpt lat="42.70826" lon="1.56153">
        <ele>1488.2583007812</ele>
        <time>2011-05-28T08:09:16Z</time>
      </trkpt>
      <trkpt lat="42.70825" lon="1.56152">
        <ele>1482.970703125</ele>
        <time>2011-05-28T08:09:28Z</time>
      </trkpt>
      <trkpt lat="42.70819" lon="1.56151">
        <ele>1485.3742675781</ele>
        <time>2011-05-28T08:09:32Z</time>
      </trkpt>
      <trkpt lat="42.70812" lon="1.56152">
        <ele>1490.1809082031</ele>
        <time>2011-05-28T08:09:37Z</time>
      </trkpt>
      <trkpt lat="42.70804" lon="1.5616">
        <ele>1492.5842285156</ele>
        <time>2011-05-28T08:09:45Z</time>
      </trkpt>
      <trkpt lat="42.70802" lon="1.56163">
        <ele>1493.5454101562</ele>
        <time>2011-05-28T08:09:48Z</time>
      </trkpt>
      <trkpt lat="42.70795" lon="1.56165">
        <ele>1495.4680175781</ele>
        <time>2011-05-28T08:09:53Z</time>
      </trkpt>
      <trkpt lat="42.70784" lon="1.56165">
        <ele>1496.9099121094</ele>
        <time>2011-05-28T08:10:01Z</time>
      </trkpt>
      <trkpt lat="42.70777" lon="1.56166">
        <ele>1497.8713378906</ele>
        <time>2011-05-28T08:10:07Z</time>
      </trkpt>
      <trkpt lat="42.70776" lon="1.56166">
        <ele>1497.8713378906</ele>
        <time>2011-05-28T08:10:08Z</time>
      </trkpt>
      <trkpt lat="42.70772" lon="1.56165">
        <ele>1498.3518066406</ele>
        <time>2011-05-28T08:10:11Z</time>
      </trkpt>
      <trkpt lat="42.70763" lon="1.56168">
        <ele>1502.6779785156</ele>
        <time>2011-05-28T08:10:20Z</time>
      </trkpt>
      <trkpt lat="42.70755" lon="1.5617">
        <ele>1504.6005859375</ele>
        <time>2011-05-28T08:10:28Z</time>
      </trkpt>
      <trkpt lat="42.70749" lon="1.56171">
        <ele>1505.0812988281</ele>
        <time>2011-05-28T08:10:34Z</time>
      </trkpt>
      <trkpt lat="42.70745" lon="1.56172">
        <ele>1507.9653320312</ele>
        <time>2011-05-28T08:10:37Z</time>
      </trkpt>
      <trkpt lat="42.70734" lon="1.56176">
        <ele>1507.9653320312</ele>
        <time>2011-05-28T08:10:45Z</time>
      </trkpt>
      <trkpt lat="42.70725" lon="1.56176">
        <ele>1510.8491210938</ele>
        <time>2011-05-28T08:10:51Z</time>
      </trkpt>
      <trkpt lat="42.70719" lon="1.5618">
        <ele>1510.8491210938</ele>
        <time>2011-05-28T08:10:58Z</time>
      </trkpt>
      <trkpt lat="42.70715" lon="1.56188">
        <ele>1510.3684082031</ele>
        <time>2011-05-28T08:11:06Z</time>
      </trkpt>
      <trkpt lat="42.70713" lon="1.56192">
        <ele>1509.8876953125</ele>
        <time>2011-05-28T08:11:12Z</time>
      </trkpt>
      <trkpt lat="42.70712" lon="1.56196">
        <ele>1509.4072265625</ele>
        <time>2011-05-28T08:11:15Z</time>
      </trkpt>
      <trkpt lat="42.70708" lon="1.56209">
        <ele>1508.4458007812</ele>
        <time>2011-05-28T08:11:23Z</time>
      </trkpt>
      <trkpt lat="42.70707" lon="1.56212">
        <ele>1508.4458007812</ele>
        <time>2011-05-28T08:11:29Z</time>
      </trkpt>
      <trkpt lat="42.70705" lon="1.56214">
        <ele>1509.4072265625</ele>
        <time>2011-05-28T08:11:35Z</time>
      </trkpt>
      <trkpt lat="42.707" lon="1.56223">
        <ele>1509.8876953125</ele>
        <time>2011-05-28T08:11:42Z</time>
      </trkpt>
      <trkpt lat="42.70698" lon="1.56231">
        <ele>1509.4072265625</ele>
        <time>2011-05-28T08:11:48Z</time>
      </trkpt>
      <trkpt lat="42.70696" lon="1.56236">
        <ele>1508.9265136719</ele>
        <time>2011-05-28T08:11:52Z</time>
      </trkpt>
      <trkpt lat="42.70692" lon="1.56242">
        <ele>1509.4072265625</ele>
        <time>2011-05-28T08:11:58Z</time>
      </trkpt>
      <trkpt lat="42.70689" lon="1.56249">
        <ele>1509.4072265625</ele>
        <time>2011-05-28T08:12:05Z</time>
      </trkpt>
      <trkpt lat="42.70686" lon="1.56258">
        <ele>1510.3684082031</ele>
        <time>2011-05-28T08:12:12Z</time>
      </trkpt>
      <trkpt lat="42.70682" lon="1.56262">
        <ele>1511.3298339844</ele>
        <time>2011-05-28T08:12:18Z</time>
      </trkpt>
      <trkpt lat="42.70676" lon="1.56268">
        <ele>1512.291015625</ele>
        <time>2011-05-28T08:12:26Z</time>
      </trkpt>
      <trkpt lat="42.70671" lon="1.56271">
        <ele>1513.7329101562</ele>
        <time>2011-05-28T08:12:33Z</time>
      </trkpt>
      <trkpt lat="42.70668" lon="1.56273">
        <ele>1516.6171875</ele>
        <time>2011-05-28T08:12:39Z</time>
      </trkpt>
      <trkpt lat="42.70668" lon="1.56279">
        <ele>1519.5012207031</ele>
        <time>2011-05-28T08:12:45Z</time>
      </trkpt>
      <trkpt lat="42.70667" lon="1.56283">
        <ele>1521.4235839844</ele>
        <time>2011-05-28T08:12:51Z</time>
      </trkpt>
      <trkpt lat="42.70663" lon="1.5629">
        <ele>1523.3464355469</ele>
        <time>2011-05-28T08:12:57Z</time>
      </trkpt>
      <trkpt lat="42.70654" lon="1.56304">
        <ele>1524.7883300781</ele>
        <time>2011-05-28T08:13:06Z</time>
      </trkpt>
      <trkpt lat="42.70648" lon="1.56309">
        <ele>1525.2687988281</ele>
        <time>2011-05-28T08:13:11Z</time>
      </trkpt>
      <trkpt lat="42.70645" lon="1.56312">
        <ele>1525.7495117188</ele>
        <time>2011-05-28T08:13:14Z</time>
      </trkpt>
      <trkpt lat="42.70639" lon="1.5632">
        <ele>1526.7109375</ele>
        <time>2011-05-28T08:13:21Z</time>
      </trkpt>
      <trkpt lat="42.70632" lon="1.56328">
        <ele>1527.6721191406</ele>
        <time>2011-05-28T08:13:28Z</time>
      </trkpt>
      <trkpt lat="42.70625" lon="1.56335">
        <ele>1528.6335449219</ele>
        <time>2011-05-28T08:13:35Z</time>
      </trkpt>
      <trkpt lat="42.70619" lon="1.56341">
        <ele>1529.1140136719</ele>
        <time>2011-05-28T08:13:42Z</time>
      </trkpt>
      <trkpt lat="42.70612" lon="1.56345">
        <ele>1528.6335449219</ele>
        <time>2011-05-28T08:13:48Z</time>
      </trkpt>
      <trkpt lat="42.70604" lon="1.56352">
        <ele>1528.1528320312</ele>
        <time>2011-05-28T08:13:56Z</time>
      </trkpt>
      <trkpt lat="42.70602" lon="1.56353">
        <ele>1527.6721191406</ele>
        <time>2011-05-28T08:13:58Z</time>
      </trkpt>
      <trkpt lat="42.70597" lon="1.56356">
        <ele>1527.1916503906</ele>
        <time>2011-05-28T08:14:02Z</time>
      </trkpt>
      <trkpt lat="42.70592" lon="1.5636">
        <ele>1527.6721191406</ele>
        <time>2011-05-28T08:14:08Z</time>
      </trkpt>
      <trkpt lat="42.70586" lon="1.56367">
        <ele>1528.1528320312</ele>
        <time>2011-05-28T08:14:15Z</time>
      </trkpt>
      <trkpt lat="42.70582" lon="1.56374">
        <ele>1528.6335449219</ele>
        <time>2011-05-28T08:14:23Z</time>
      </trkpt>
      <trkpt lat="42.70576" lon="1.56382">
        <ele>1528.6335449219</ele>
        <time>2011-05-28T08:14:30Z</time>
      </trkpt>
      <trkpt lat="42.70575" lon="1.56384">
        <ele>1528.6335449219</ele>
        <time>2011-05-28T08:14:33Z</time>
      </trkpt>
      <trkpt lat="42.70571" lon="1.56389">
        <ele>1528.1528320312</ele>
        <time>2011-05-28T08:14:38Z</time>
      </trkpt>
      <trkpt lat="42.70569" lon="1.56393">
        <ele>1528.1528320312</ele>
        <time>2011-05-28T08:14:41Z</time>
      </trkpt>
      <trkpt lat="42.70562" lon="1.564">
        <ele>1528.6335449219</ele>
        <time>2011-05-28T08:14:48Z</time>
      </trkpt>
      <trkpt lat="42.70559" lon="1.56404">
        <ele>1529.5947265625</ele>
        <time>2011-05-28T08:14:51Z</time>
      </trkpt>
      <trkpt lat="42.70555" lon="1.56409">
        <ele>1530.0754394531</ele>
        <time>2011-05-28T08:14:56Z</time>
      </trkpt>
      <trkpt lat="42.7055" lon="1.56416">
        <ele>1531.0368652344</ele>
        <time>2011-05-28T08:15:04Z</time>
      </trkpt>
      <trkpt lat="42.70549" lon="1.56417">
        <ele>1531.5173339844</ele>
        <time>2011-05-28T08:15:05Z</time>
      </trkpt>
      <trkpt lat="42.70543" lon="1.56427">
        <ele>1532.4790039062</ele>
        <time>2011-05-28T08:15:15Z</time>
      </trkpt>
      <trkpt lat="42.70539" lon="1.56431">
        <ele>1533.4401855469</ele>
        <time>2011-05-28T08:15:21Z</time>
      </trkpt>
      <trkpt lat="42.70533" lon="1.56443">
        <ele>1533.9208984375</ele>
        <time>2011-05-28T08:15:31Z</time>
      </trkpt>
      <trkpt lat="42.7053" lon="1.5645">
        <ele>1534.8823242188</ele>
        <time>2011-05-28T08:15:38Z</time>
      </trkpt>
      <trkpt lat="42.70526" lon="1.5646">
        <ele>1535.3627929688</ele>
        <time>2011-05-28T08:15:46Z</time>
      </trkpt>
      <trkpt lat="42.70523" lon="1.56469">
        <ele>1534.8823242188</ele>
        <time>2011-05-28T08:15:53Z</time>
      </trkpt>
      <trkpt lat="42.70523" lon="1.56476">
        <ele>1536.32421875</ele>
        <time>2011-05-28T08:15:59Z</time>
      </trkpt>
      <trkpt lat="42.70522" lon="1.56485">
        <ele>1537.2854003906</ele>
        <time>2011-05-28T08:16:07Z</time>
      </trkpt>
      <trkpt lat="42.7052" lon="1.56492">
        <ele>1538.2468261719</ele>
        <time>2011-05-28T08:16:15Z</time>
      </trkpt>
      <trkpt lat="42.70519" lon="1.56499">
        <ele>1539.6887207031</ele>
        <time>2011-05-28T08:16:22Z</time>
      </trkpt>
      <trkpt lat="42.70518" lon="1.56506">
        <ele>1540.6499023438</ele>
        <time>2011-05-28T08:16:28Z</time>
      </trkpt>
      <trkpt lat="42.70515" lon="1.56514">
        <ele>1542.0920410156</ele>
        <time>2011-05-28T08:16:36Z</time>
      </trkpt>
      <trkpt lat="42.70511" lon="1.56522">
        <ele>1543.0532226562</ele>
        <time>2011-05-28T08:16:43Z</time>
      </trkpt>
      <trkpt lat="42.70509" lon="1.56525">
        <ele>1543.5339355469</ele>
        <time>2011-05-28T08:16:47Z</time>
      </trkpt>
      <trkpt lat="42.70506" lon="1.56531">
        <ele>1544.0146484375</ele>
        <time>2011-05-28T08:16:51Z</time>
      </trkpt>
      <trkpt lat="42.70504" lon="1.56535">
        <ele>1544.0146484375</ele>
        <time>2011-05-28T08:16:54Z</time>
      </trkpt>
      <trkpt lat="42.70499" lon="1.56542">
        <ele>1544.9758300781</ele>
        <time>2011-05-28T08:17:01Z</time>
      </trkpt>
      <trkpt lat="42.70497" lon="1.56546">
        <ele>1544.9758300781</ele>
        <time>2011-05-28T08:17:04Z</time>
      </trkpt>
      <trkpt lat="42.7049" lon="1.56551">
        <ele>1545.9372558594</ele>
        <time>2011-05-28T08:17:11Z</time>
      </trkpt>
      <trkpt lat="42.70484" lon="1.56556">
        <ele>1545.9372558594</ele>
        <time>2011-05-28T08:17:18Z</time>
      </trkpt>
      <trkpt lat="42.70481" lon="1.5656">
        <ele>1545.9372558594</ele>
        <time>2011-05-28T08:17:21Z</time>
      </trkpt>
      <trkpt lat="42.70477" lon="1.56563">
        <ele>1545.9372558594</ele>
        <time>2011-05-28T08:17:25Z</time>
      </trkpt>
      <trkpt lat="42.70474" lon="1.56568">
        <ele>1546.41796875</ele>
        <time>2011-05-28T08:17:29Z</time>
      </trkpt>
      <trkpt lat="42.7047" lon="1.5658">
        <ele>1546.41796875</ele>
        <time>2011-05-28T08:17:38Z</time>
      </trkpt>
      <trkpt lat="42.70465" lon="1.56592">
        <ele>1546.8984375</ele>
        <time>2011-05-28T08:17:46Z</time>
      </trkpt>
      <trkpt lat="42.70461" lon="1.56604">
        <ele>1547.3791503906</ele>
        <time>2011-05-28T08:17:54Z</time>
      </trkpt>
      <trkpt lat="42.70457" lon="1.56615">
        <ele>1547.8598632812</ele>
        <time>2011-05-28T08:18:02Z</time>
      </trkpt>
      <trkpt lat="42.70457" lon="1.56616">
        <ele>1547.8598632812</ele>
        <time>2011-05-28T08:18:03Z</time>
      </trkpt>
      <trkpt lat="42.70454" lon="1.56622">
        <ele>1547.8598632812</ele>
        <time>2011-05-28T08:18:10Z</time>
      </trkpt>
      <trkpt lat="42.70451" lon="1.56626">
        <ele>1547.8598632812</ele>
        <time>2011-05-28T08:18:15Z</time>
      </trkpt>
      <trkpt lat="42.70445" lon="1.56637">
        <ele>1548.3405761719</ele>
        <time>2011-05-28T08:18:24Z</time>
      </trkpt>
      <trkpt lat="42.7044" lon="1.56646">
        <ele>1549.3020019531</ele>
        <time>2011-05-28T08:18:32Z</time>
      </trkpt>
      <trkpt lat="42.70437" lon="1.5665">
        <ele>1549.3020019531</ele>
        <time>2011-05-28T08:18:36Z</time>
      </trkpt>
      <trkpt lat="42.7043" lon="1.56657">
        <ele>1550.2634277344</ele>
        <time>2011-05-28T08:18:43Z</time>
      </trkpt>
      <trkpt lat="42.7043" lon="1.56658">
        <ele>1550.2634277344</ele>
        <time>2011-05-28T08:18:44Z</time>
      </trkpt>
      <trkpt lat="42.70422" lon="1.56664">
        <ele>1551.224609375</ele>
        <time>2011-05-28T08:18:52Z</time>
      </trkpt>
      <trkpt lat="42.70415" lon="1.56672">
        <ele>1551.7053222656</ele>
        <time>2011-05-28T08:18:59Z</time>
      </trkpt>
      <trkpt lat="42.70412" lon="1.56676">
        <ele>1552.1857910156</ele>
        <time>2011-05-28T08:19:03Z</time>
      </trkpt>
      <trkpt lat="42.70405" lon="1.56684">
        <ele>1553.1472167969</ele>
        <time>2011-05-28T08:19:11Z</time>
      </trkpt>
      <trkpt lat="42.70403" lon="1.56685">
        <ele>1553.1472167969</ele>
        <time>2011-05-28T08:19:13Z</time>
      </trkpt>
      <trkpt lat="42.704" lon="1.56693">
        <ele>1552.6665039062</ele>
        <time>2011-05-28T08:19:19Z</time>
      </trkpt>
      <trkpt lat="42.70397" lon="1.56702">
        <ele>1553.1472167969</ele>
        <time>2011-05-28T08:19:27Z</time>
      </trkpt>
      <trkpt lat="42.70395" lon="1.5671">
        <ele>1553.6279296875</ele>
        <time>2011-05-28T08:19:34Z</time>
      </trkpt>
      <trkpt lat="42.7039" lon="1.56718">
        <ele>1554.1086425781</ele>
        <time>2011-05-28T08:19:41Z</time>
      </trkpt>
      <trkpt lat="42.70385" lon="1.56727">
        <ele>1555.0698242188</ele>
        <time>2011-05-28T08:19:49Z</time>
      </trkpt>
      <trkpt lat="42.70383" lon="1.56733">
        <ele>1556.0310058594</ele>
        <time>2011-05-28T08:19:55Z</time>
      </trkpt>
      <trkpt lat="42.70381" lon="1.5674">
        <ele>1556.51171875</ele>
        <time>2011-05-28T08:20:01Z</time>
      </trkpt>
      <trkpt lat="42.7038" lon="1.56745">
        <ele>1557.4731445312</ele>
        <time>2011-05-28T08:20:06Z</time>
      </trkpt>
      <trkpt lat="42.70382" lon="1.56751">
        <ele>1558.4343261719</ele>
        <time>2011-05-28T08:20:13Z</time>
      </trkpt>
      <trkpt lat="42.70382" lon="1.5675">
        <ele>1559.8762207031</ele>
        <time>2011-05-28T08:20:28Z</time>
      </trkpt>
      <trkpt lat="42.70383" lon="1.56756">
        <ele>1561.318359375</ele>
        <time>2011-05-28T08:20:40Z</time>
      </trkpt>
      <trkpt lat="42.70385" lon="1.56766">
        <ele>1563.2409667969</ele>
        <time>2011-05-28T08:20:48Z</time>
      </trkpt>
      <trkpt lat="42.70385" lon="1.56774">
        <ele>1565.1638183594</ele>
        <time>2011-05-28T08:20:56Z</time>
      </trkpt>
      <trkpt lat="42.70384" lon="1.5678">
        <ele>1566.125</ele>
        <time>2011-05-28T08:21:01Z</time>
      </trkpt>
      <trkpt lat="42.70382" lon="1.56788">
        <ele>1566.6057128906</ele>
        <time>2011-05-28T08:21:09Z</time>
      </trkpt>
      <trkpt lat="42.70378" lon="1.56793">
        <ele>1567.5668945312</ele>
        <time>2011-05-28T08:21:15Z</time>
      </trkpt>
      <trkpt lat="42.70374" lon="1.56796">
        <ele>1568.0476074219</ele>
        <time>2011-05-28T08:21:22Z</time>
      </trkpt>
      <trkpt lat="42.7037" lon="1.568">
        <ele>1568.0476074219</ele>
        <time>2011-05-28T08:21:28Z</time>
      </trkpt>
      <trkpt lat="42.70362" lon="1.56808">
        <ele>1568.5283203125</ele>
        <time>2011-05-28T08:21:37Z</time>
      </trkpt>
      <trkpt lat="42.70358" lon="1.56818">
        <ele>1568.0476074219</ele>
        <time>2011-05-28T08:21:44Z</time>
      </trkpt>
      <trkpt lat="42.70354" lon="1.56828">
        <ele>1567.5668945312</ele>
        <time>2011-05-28T08:21:51Z</time>
      </trkpt>
      <trkpt lat="42.70353" lon="1.56832">
        <ele>1567.0864257812</ele>
        <time>2011-05-28T08:21:54Z</time>
      </trkpt>
      <trkpt lat="42.70352" lon="1.5684">
        <ele>1566.125</ele>
        <time>2011-05-28T08:22:00Z</time>
      </trkpt>
      <trkpt lat="42.70354" lon="1.56855">
        <ele>1565.64453125</ele>
        <time>2011-05-28T08:22:07Z</time>
      </trkpt>
      <trkpt lat="42.70355" lon="1.56863">
        <ele>1566.125</ele>
        <time>2011-05-28T08:22:12Z</time>
      </trkpt>
      <trkpt lat="42.70354" lon="1.56874">
        <ele>1566.6057128906</ele>
        <time>2011-05-28T08:22:18Z</time>
      </trkpt>
      <trkpt lat="42.70352" lon="1.56883">
        <ele>1567.0864257812</ele>
        <time>2011-05-28T08:22:22Z</time>
      </trkpt>
      <trkpt lat="42.7035" lon="1.56897">
        <ele>1566.6057128906</ele>
        <time>2011-05-28T08:22:31Z</time>
      </trkpt>
      <trkpt lat="42.70347" lon="1.56903">
        <ele>1567.0864257812</ele>
        <time>2011-05-28T08:22:37Z</time>
      </trkpt>
      <trkpt lat="42.70343" lon="1.56914">
        <ele>1568.0476074219</ele>
        <time>2011-05-28T08:22:43Z</time>
      </trkpt>
      <trkpt lat="42.7034" lon="1.56924">
        <ele>1569.0090332031</ele>
        <time>2011-05-28T08:22:49Z</time>
      </trkpt>
      <trkpt lat="42.70335" lon="1.56936">
        <ele>1569.0090332031</ele>
        <time>2011-05-28T08:22:57Z</time>
      </trkpt>
      <trkpt lat="42.70334" lon="1.56951">
        <ele>1568.5283203125</ele>
        <time>2011-05-28T08:23:05Z</time>
      </trkpt>
      <trkpt lat="42.7033" lon="1.5696">
        <ele>1568.5283203125</ele>
        <time>2011-05-28T08:23:12Z</time>
      </trkpt>
      <trkpt lat="42.70329" lon="1.5696">
        <ele>1568.0476074219</ele>
        <time>2011-05-28T08:23:19Z</time>
      </trkpt>
      <trkpt lat="42.70321" lon="1.56963">
        <ele>1567.0864257812</ele>
        <time>2011-05-28T08:23:28Z</time>
      </trkpt>
      <trkpt lat="42.70315" lon="1.56968">
        <ele>1568.0476074219</ele>
        <time>2011-05-28T08:23:35Z</time>
      </trkpt>
      <trkpt lat="42.70315" lon="1.56969">
        <ele>1568.0476074219</ele>
        <time>2011-05-28T08:23:36Z</time>
      </trkpt>
      <trkpt lat="42.70311" lon="1.56978">
        <ele>1569.4897460938</ele>
        <time>2011-05-28T08:23:44Z</time>
      </trkpt>
      <trkpt lat="42.70306" lon="1.56986">
        <ele>1570.4509277344</ele>
        <time>2011-05-28T08:23:52Z</time>
      </trkpt>
      <trkpt lat="42.70301" lon="1.56993">
        <ele>1571.8928222656</ele>
        <time>2011-05-28T08:24:01Z</time>
      </trkpt>
      <trkpt lat="42.703" lon="1.56995">
        <ele>1572.3735351562</ele>
        <time>2011-05-28T08:24:06Z</time>
      </trkpt>
      <trkpt lat="42.70298" lon="1.56999">
        <ele>1573.3349609375</ele>
        <time>2011-05-28T08:24:13Z</time>
      </trkpt>
      <trkpt lat="42.70298" lon="1.57">
        <ele>1573.3349609375</ele>
        <time>2011-05-28T08:24:14Z</time>
      </trkpt>
      <trkpt lat="42.70296" lon="1.57002">
        <ele>1573.3349609375</ele>
        <time>2011-05-28T08:24:16Z</time>
      </trkpt>
      <trkpt lat="42.70295" lon="1.57008">
        <ele>1573.3349609375</ele>
        <time>2011-05-28T08:24:20Z</time>
      </trkpt>
      <trkpt lat="42.70293" lon="1.57015">
        <ele>1573.3349609375</ele>
        <time>2011-05-28T08:24:24Z</time>
      </trkpt>
      <trkpt lat="42.70289" lon="1.5702">
        <ele>1572.3735351562</ele>
        <time>2011-05-28T08:24:28Z</time>
      </trkpt>
      <trkpt lat="42.70283" lon="1.5703">
        <ele>1572.8542480469</ele>
        <time>2011-05-28T08:24:36Z</time>
      </trkpt>
      <trkpt lat="42.70278" lon="1.57044">
        <ele>1573.3349609375</ele>
        <time>2011-05-28T08:24:45Z</time>
      </trkpt>
      <trkpt lat="42.70277" lon="1.57049">
        <ele>1573.8154296875</ele>
        <time>2011-05-28T08:24:51Z</time>
      </trkpt>
      <trkpt lat="42.70277" lon="1.57054">
        <ele>1575.2573242188</ele>
        <time>2011-05-28T08:24:59Z</time>
      </trkpt>
      <trkpt lat="42.70277" lon="1.57055">
        <ele>1576.21875</ele>
        <time>2011-05-28T08:25:05Z</time>
      </trkpt>
      <trkpt lat="42.70277" lon="1.57062">
        <ele>1576.6994628906</ele>
        <time>2011-05-28T08:25:10Z</time>
      </trkpt>
      <trkpt lat="42.70273" lon="1.57077">
        <ele>1576.6994628906</ele>
        <time>2011-05-28T08:25:19Z</time>
      </trkpt>
      <trkpt lat="42.70272" lon="1.57085">
        <ele>1576.21875</ele>
        <time>2011-05-28T08:25:24Z</time>
      </trkpt>
      <trkpt lat="42.70274" lon="1.57086">
        <ele>1576.21875</ele>
        <time>2011-05-28T08:25:30Z</time>
      </trkpt>
      <trkpt lat="42.70275" lon="1.57085">
        <ele>1576.21875</ele>
        <time>2011-05-28T08:25:38Z</time>
      </trkpt>
      <trkpt lat="42.70273" lon="1.57089">
        <ele>1575.7380371094</ele>
        <time>2011-05-28T08:25:45Z</time>
      </trkpt>
      <trkpt lat="42.70271" lon="1.571">
        <ele>1575.2573242188</ele>
        <time>2011-05-28T08:25:53Z</time>
      </trkpt>
      <trkpt lat="42.70271" lon="1.57114">
        <ele>1574.7768554688</ele>
        <time>2011-05-28T08:26:00Z</time>
      </trkpt>
      <trkpt lat="42.70271" lon="1.57117">
        <ele>1574.7768554688</ele>
        <time>2011-05-28T08:26:02Z</time>
      </trkpt>
      <trkpt lat="42.70271" lon="1.57124">
        <ele>1574.2961425781</ele>
        <time>2011-05-28T08:26:07Z</time>
      </trkpt>
      <trkpt lat="42.70272" lon="1.5713">
        <ele>1574.7768554688</ele>
        <time>2011-05-28T08:26:11Z</time>
      </trkpt>
      <trkpt lat="42.70271" lon="1.57143">
        <ele>1574.2961425781</ele>
        <time>2011-05-28T08:26:19Z</time>
      </trkpt>
      <trkpt lat="42.70268" lon="1.57151">
        <ele>1573.3349609375</ele>
        <time>2011-05-28T08:26:26Z</time>
      </trkpt>
      <trkpt lat="42.70267" lon="1.5716">
        <ele>1573.3349609375</ele>
        <time>2011-05-28T08:26:33Z</time>
      </trkpt>
      <trkpt lat="42.70266" lon="1.57165">
        <ele>1573.3349609375</ele>
        <time>2011-05-28T08:26:36Z</time>
      </trkpt>
      <trkpt lat="42.70263" lon="1.57174">
        <ele>1573.3349609375</ele>
        <time>2011-05-28T08:26:43Z</time>
      </trkpt>
      <trkpt lat="42.70259" lon="1.57185">
        <ele>1573.3349609375</ele>
        <time>2011-05-28T08:26:52Z</time>
      </trkpt>
      <trkpt lat="42.70255" lon="1.57195">
        <ele>1573.3349609375</ele>
        <time>2011-05-28T08:27:01Z</time>
      </trkpt>
      <trkpt lat="42.70251" lon="1.57201">
        <ele>1572.8542480469</ele>
        <time>2011-05-28T08:27:08Z</time>
      </trkpt>
      <trkpt lat="42.70247" lon="1.5721">
        <ele>1572.3735351562</ele>
        <time>2011-05-28T08:27:16Z</time>
      </trkpt>
      <trkpt lat="42.70243" lon="1.57213">
        <ele>1572.3735351562</ele>
        <time>2011-05-28T08:27:21Z</time>
      </trkpt>
      <trkpt lat="42.70235" lon="1.57218">
        <ele>1572.3735351562</ele>
        <time>2011-05-28T08:27:28Z</time>
      </trkpt>
      <trkpt lat="42.70232" lon="1.57223">
        <ele>1572.8542480469</ele>
        <time>2011-05-28T08:27:33Z</time>
      </trkpt>
      <trkpt lat="42.70231" lon="1.57224">
        <ele>1572.8542480469</ele>
        <time>2011-05-28T08:27:34Z</time>
      </trkpt>
      <trkpt lat="42.70224" lon="1.57228">
        <ele>1572.8542480469</ele>
        <time>2011-05-28T08:27:42Z</time>
      </trkpt>
      <trkpt lat="42.70216" lon="1.57231">
        <ele>1573.3349609375</ele>
        <time>2011-05-28T08:27:48Z</time>
      </trkpt>
      <trkpt lat="42.70208" lon="1.57233">
        <ele>1573.8154296875</ele>
        <time>2011-05-28T08:27:55Z</time>
      </trkpt>
      <trkpt lat="42.70205" lon="1.57243">
        <ele>1573.8154296875</ele>
        <time>2011-05-28T08:28:02Z</time>
      </trkpt>
      <trkpt lat="42.70199" lon="1.57251">
        <ele>1573.3349609375</ele>
        <time>2011-05-28T08:28:09Z</time>
      </trkpt>
      <trkpt lat="42.70197" lon="1.57254">
        <ele>1573.8154296875</ele>
        <time>2011-05-28T08:28:12Z</time>
      </trkpt>
      <trkpt lat="42.70193" lon="1.57258">
        <ele>1573.3349609375</ele>
        <time>2011-05-28T08:28:16Z</time>
      </trkpt>
      <trkpt lat="42.70187" lon="1.57268">
        <ele>1573.3349609375</ele>
        <time>2011-05-28T08:28:25Z</time>
      </trkpt>
      <trkpt lat="42.70181" lon="1.57272">
        <ele>1573.3349609375</ele>
        <time>2011-05-28T08:28:31Z</time>
      </trkpt>
      <trkpt lat="42.70179" lon="1.57273">
        <ele>1573.3349609375</ele>
        <time>2011-05-28T08:28:33Z</time>
      </trkpt>
      <trkpt lat="42.70177" lon="1.5728">
        <ele>1572.8542480469</ele>
        <time>2011-05-28T08:28:38Z</time>
      </trkpt>
      <trkpt lat="42.70174" lon="1.5729">
        <ele>1573.3349609375</ele>
        <time>2011-05-28T08:28:46Z</time>
      </trkpt>
      <trkpt lat="42.70169" lon="1.57301">
        <ele>1573.8154296875</ele>
        <time>2011-05-28T08:28:55Z</time>
      </trkpt>
      <trkpt lat="42.70163" lon="1.57309">
        <ele>1573.8154296875</ele>
        <time>2011-05-28T08:29:02Z</time>
      </trkpt>
      <trkpt lat="42.70155" lon="1.57316">
        <ele>1573.8154296875</ele>
        <time>2011-05-28T08:29:11Z</time>
      </trkpt>
      <trkpt lat="42.70154" lon="1.5732">
        <ele>1573.8154296875</ele>
        <time>2011-05-28T08:29:14Z</time>
      </trkpt>
      <trkpt lat="42.70151" lon="1.57324">
        <ele>1573.8154296875</ele>
        <time>2011-05-28T08:29:18Z</time>
      </trkpt>
      <trkpt lat="42.70147" lon="1.57325">
        <ele>1573.8154296875</ele>
        <time>2011-05-28T08:29:22Z</time>
      </trkpt>
      <trkpt lat="42.70137" lon="1.57332">
        <ele>1573.3349609375</ele>
        <time>2011-05-28T08:29:30Z</time>
      </trkpt>
      <trkpt lat="42.7013" lon="1.57337">
        <ele>1573.8154296875</ele>
        <time>2011-05-28T08:29:37Z</time>
      </trkpt>
      <trkpt lat="42.70127" lon="1.57339">
        <ele>1573.8154296875</ele>
        <time>2011-05-28T08:29:40Z</time>
      </trkpt>
      <trkpt lat="42.70123" lon="1.57344">
        <ele>1573.8154296875</ele>
        <time>2011-05-28T08:29:48Z</time>
      </trkpt>
      <trkpt lat="42.70116" lon="1.57348">
        <ele>1573.3349609375</ele>
        <time>2011-05-28T08:29:54Z</time>
      </trkpt>
      <trkpt lat="42.70108" lon="1.5735">
        <ele>1573.3349609375</ele>
        <time>2011-05-28T08:30:01Z</time>
      </trkpt>
      <trkpt lat="42.701" lon="1.5735">
        <ele>1574.2961425781</ele>
        <time>2011-05-28T08:30:08Z</time>
      </trkpt>
      <trkpt lat="42.70094" lon="1.57349">
        <ele>1574.2961425781</ele>
        <time>2011-05-28T08:30:13Z</time>
      </trkpt>
      <trkpt lat="42.70087" lon="1.57354">
        <ele>1574.7768554688</ele>
        <time>2011-05-28T08:30:20Z</time>
      </trkpt>
      <trkpt lat="42.70082" lon="1.57359">
        <ele>1575.7380371094</ele>
        <time>2011-05-28T08:30:26Z</time>
      </trkpt>
      <trkpt lat="42.70074" lon="1.57364">
        <ele>1576.21875</ele>
        <time>2011-05-28T08:30:33Z</time>
      </trkpt>
      <trkpt lat="42.70065" lon="1.57369">
        <ele>1577.6606445312</ele>
        <time>2011-05-28T08:30:42Z</time>
      </trkpt>
      <trkpt lat="42.7006" lon="1.5738">
        <ele>1577.6606445312</ele>
        <time>2011-05-28T08:30:49Z</time>
      </trkpt>
      <trkpt lat="42.70052" lon="1.57387">
        <ele>1578.1413574219</ele>
        <time>2011-05-28T08:30:57Z</time>
      </trkpt>
      <trkpt lat="42.70044" lon="1.57388">
        <ele>1578.6220703125</ele>
        <time>2011-05-28T08:31:05Z</time>
      </trkpt>
      <trkpt lat="42.70035" lon="1.57389">
        <ele>1578.6220703125</ele>
        <time>2011-05-28T08:31:12Z</time>
      </trkpt>
      <trkpt lat="42.70026" lon="1.57393">
        <ele>1578.6220703125</ele>
        <time>2011-05-28T08:31:19Z</time>
      </trkpt>
      <trkpt lat="42.70018" lon="1.57397">
        <ele>1579.5832519531</ele>
        <time>2011-05-28T08:31:25Z</time>
      </trkpt>
      <trkpt lat="42.70005" lon="1.57403">
        <ele>1579.1025390625</ele>
        <time>2011-05-28T08:31:34Z</time>
      </trkpt>
      <trkpt lat="42.69992" lon="1.57409">
        <ele>1579.1025390625</ele>
        <time>2011-05-28T08:31:41Z</time>
      </trkpt>
      <trkpt lat="42.69981" lon="1.57411">
        <ele>1578.1413574219</ele>
        <time>2011-05-28T08:31:47Z</time>
      </trkpt>
      <trkpt lat="42.69969" lon="1.57416">
        <ele>1578.6220703125</ele>
        <time>2011-05-28T08:31:54Z</time>
      </trkpt>
      <trkpt lat="42.6996" lon="1.57421">
        <ele>1579.1025390625</ele>
        <time>2011-05-28T08:31:59Z</time>
      </trkpt>
      <trkpt lat="42.69954" lon="1.57424">
        <ele>1579.5832519531</ele>
        <time>2011-05-28T08:32:04Z</time>
      </trkpt>
      <trkpt lat="42.69953" lon="1.57424">
        <ele>1579.5832519531</ele>
        <time>2011-05-28T08:32:05Z</time>
      </trkpt>
      <trkpt lat="42.69947" lon="1.57428">
        <ele>1579.5832519531</ele>
        <time>2011-05-28T08:32:11Z</time>
      </trkpt>
      <trkpt lat="42.69941" lon="1.57429">
        <ele>1579.5832519531</ele>
        <time>2011-05-28T08:32:16Z</time>
      </trkpt>
      <trkpt lat="42.69927" lon="1.57431">
        <ele>1577.1801757812</ele>
        <time>2011-05-28T08:32:24Z</time>
      </trkpt>
      <trkpt lat="42.69915" lon="1.57435">
        <ele>1576.6994628906</ele>
        <time>2011-05-28T08:32:30Z</time>
      </trkpt>
      <trkpt lat="42.69906" lon="1.57437">
        <ele>1575.7380371094</ele>
        <time>2011-05-28T08:32:36Z</time>
      </trkpt>
      <trkpt lat="42.69903" lon="1.57437">
        <ele>1576.21875</ele>
        <time>2011-05-28T08:32:38Z</time>
      </trkpt>
      <trkpt lat="42.69895" lon="1.57437">
        <ele>1576.6994628906</ele>
        <time>2011-05-28T08:32:46Z</time>
      </trkpt>
      <trkpt lat="42.69885" lon="1.57441">
        <ele>1575.7380371094</ele>
        <time>2011-05-28T08:32:53Z</time>
      </trkpt>
      <trkpt lat="42.69878" lon="1.57446">
        <ele>1575.2573242188</ele>
        <time>2011-05-28T08:32:58Z</time>
      </trkpt>
      <trkpt lat="42.69874" lon="1.5745">
        <ele>1576.21875</ele>
        <time>2011-05-28T08:33:04Z</time>
      </trkpt>
      <trkpt lat="42.69872" lon="1.57455">
        <ele>1577.1801757812</ele>
        <time>2011-05-28T08:33:10Z</time>
      </trkpt>
      <trkpt lat="42.69867" lon="1.57457">
        <ele>1578.1413574219</ele>
        <time>2011-05-28T08:33:14Z</time>
      </trkpt>
      <trkpt lat="42.69863" lon="1.57459">
        <ele>1578.6220703125</ele>
        <time>2011-05-28T08:33:18Z</time>
      </trkpt>
      <trkpt lat="42.69856" lon="1.57461">
        <ele>1579.1025390625</ele>
        <time>2011-05-28T08:33:25Z</time>
      </trkpt>
      <trkpt lat="42.6985" lon="1.57465">
        <ele>1579.1025390625</ele>
        <time>2011-05-28T08:33:30Z</time>
      </trkpt>
      <trkpt lat="42.69849" lon="1.57466">
        <ele>1579.1025390625</ele>
        <time>2011-05-28T08:33:31Z</time>
      </trkpt>
      <trkpt lat="42.69842" lon="1.57466">
        <ele>1580.0642089844</ele>
        <time>2011-05-28T08:33:38Z</time>
      </trkpt>
      <trkpt lat="42.69838" lon="1.57471">
        <ele>1581.0256347656</ele>
        <time>2011-05-28T08:33:44Z</time>
      </trkpt>
      <trkpt lat="42.69835" lon="1.57477">
        <ele>1581.9868164062</ele>
        <time>2011-05-28T08:33:51Z</time>
      </trkpt>
      <trkpt lat="42.69831" lon="1.57483">
        <ele>1582.9479980469</ele>
        <time>2011-05-28T08:33:58Z</time>
      </trkpt>
      <trkpt lat="42.69828" lon="1.57485">
        <ele>1583.4287109375</ele>
        <time>2011-05-28T08:34:03Z</time>
      </trkpt>
      <trkpt lat="42.69823" lon="1.57484">
        <ele>1583.9094238281</ele>
        <time>2011-05-28T08:34:09Z</time>
      </trkpt>
      <trkpt lat="42.69816" lon="1.57486">
        <ele>1583.9094238281</ele>
        <time>2011-05-28T08:34:16Z</time>
      </trkpt>
      <trkpt lat="42.69815" lon="1.57489">
        <ele>1584.8708496094</ele>
        <time>2011-05-28T08:34:19Z</time>
      </trkpt>
      <trkpt lat="42.69812" lon="1.57496">
        <ele>1585.83203125</ele>
        <time>2011-05-28T08:34:25Z</time>
      </trkpt>
      <trkpt lat="42.6981" lon="1.57498">
        <ele>1586.7932128906</ele>
        <time>2011-05-28T08:34:27Z</time>
      </trkpt>
      <trkpt lat="42.69801" lon="1.57503">
        <ele>1588.7160644531</ele>
        <time>2011-05-28T08:34:36Z</time>
      </trkpt>
      <trkpt lat="42.69795" lon="1.57511">
        <ele>1590.1579589844</ele>
        <time>2011-05-28T08:34:44Z</time>
      </trkpt>
      <trkpt lat="42.69792" lon="1.57516">
        <ele>1591.5998535156</ele>
        <time>2011-05-28T08:34:49Z</time>
      </trkpt>
      <trkpt lat="42.69789" lon="1.57525">
        <ele>1593.5224609375</ele>
        <time>2011-05-28T08:34:57Z</time>
      </trkpt>
      <trkpt lat="42.69785" lon="1.57524">
        <ele>1593.5224609375</ele>
        <time>2011-05-28T08:35:03Z</time>
      </trkpt>
      <trkpt lat="42.6978" lon="1.57524">
        <ele>1594.0031738281</ele>
        <time>2011-05-28T08:35:08Z</time>
      </trkpt>
      <trkpt lat="42.69773" lon="1.57525">
        <ele>1594.4836425781</ele>
        <time>2011-05-28T08:35:14Z</time>
      </trkpt>
      <trkpt lat="42.6977" lon="1.57525">
        <ele>1594.4836425781</ele>
        <time>2011-05-28T08:35:18Z</time>
      </trkpt>
      <trkpt lat="42.69764" lon="1.57526">
        <ele>1594.0031738281</ele>
        <time>2011-05-28T08:35:23Z</time>
      </trkpt>
      <trkpt lat="42.69757" lon="1.57528">
        <ele>1593.5224609375</ele>
        <time>2011-05-28T08:35:28Z</time>
      </trkpt>
      <trkpt lat="42.69751" lon="1.57533">
        <ele>1593.5224609375</ele>
        <time>2011-05-28T08:35:35Z</time>
      </trkpt>
      <trkpt lat="42.69748" lon="1.57533">
        <ele>1593.5224609375</ele>
        <time>2011-05-28T08:35:37Z</time>
      </trkpt>
      <trkpt lat="42.69738" lon="1.57526">
        <ele>1593.0417480469</ele>
        <time>2011-05-28T08:35:44Z</time>
      </trkpt>
      <trkpt lat="42.69733" lon="1.57522">
        <ele>1592.0805664062</ele>
        <time>2011-05-28T08:35:48Z</time>
      </trkpt>
      <trkpt lat="42.69726" lon="1.57525">
        <ele>1592.5612792969</ele>
        <time>2011-05-28T08:35:55Z</time>
      </trkpt>
      <trkpt lat="42.69725" lon="1.57526">
        <ele>1592.5612792969</ele>
        <time>2011-05-28T08:35:56Z</time>
      </trkpt>
      <trkpt lat="42.6972" lon="1.57527">
        <ele>1592.5612792969</ele>
        <time>2011-05-28T08:36:00Z</time>
      </trkpt>
      <trkpt lat="42.69716" lon="1.57524">
        <ele>1591.5998535156</ele>
        <time>2011-05-28T08:36:04Z</time>
      </trkpt>
      <trkpt lat="42.6971" lon="1.5752">
        <ele>1590.1579589844</ele>
        <time>2011-05-28T08:36:09Z</time>
      </trkpt>
      <trkpt lat="42.69699" lon="1.5752">
        <ele>1588.7160644531</ele>
        <time>2011-05-28T08:36:16Z</time>
      </trkpt>
      <trkpt lat="42.69691" lon="1.57516">
        <ele>1587.2739257812</ele>
        <time>2011-05-28T08:36:22Z</time>
      </trkpt>
      <trkpt lat="42.69683" lon="1.57513">
        <ele>1586.3127441406</ele>
        <time>2011-05-28T08:36:28Z</time>
      </trkpt>
      <trkpt lat="42.69676" lon="1.57512">
        <ele>1585.83203125</ele>
        <time>2011-05-28T08:36:33Z</time>
      </trkpt>
      <trkpt lat="42.69668" lon="1.57516">
        <ele>1585.83203125</ele>
        <time>2011-05-28T08:36:40Z</time>
      </trkpt>
      <trkpt lat="42.69664" lon="1.57522">
        <ele>1586.3127441406</ele>
        <time>2011-05-28T08:36:44Z</time>
      </trkpt>
      <trkpt lat="42.69657" lon="1.57528">
        <ele>1586.3127441406</ele>
        <time>2011-05-28T08:36:50Z</time>
      </trkpt>
      <trkpt lat="42.69649" lon="1.57529">
        <ele>1586.7932128906</ele>
        <time>2011-05-28T08:36:58Z</time>
      </trkpt>
      <trkpt lat="42.69641" lon="1.57531">
        <ele>1587.2739257812</ele>
        <time>2011-05-28T08:37:05Z</time>
      </trkpt>
      <trkpt lat="42.69637" lon="1.57531">
        <ele>1587.2739257812</ele>
        <time>2011-05-28T08:37:10Z</time>
      </trkpt>
      <trkpt lat="42.69632" lon="1.5753">
        <ele>1586.7932128906</ele>
        <time>2011-05-28T08:37:15Z</time>
      </trkpt>
      <trkpt lat="42.69625" lon="1.57528">
        <ele>1587.2739257812</ele>
        <time>2011-05-28T08:37:20Z</time>
      </trkpt>
      <trkpt lat="42.69621" lon="1.57529">
        <ele>1587.7546386719</ele>
        <time>2011-05-28T08:37:23Z</time>
      </trkpt>
      <trkpt lat="42.69617" lon="1.57529">
        <ele>1588.2353515625</ele>
        <time>2011-05-28T08:37:26Z</time>
      </trkpt>
      <trkpt lat="42.69611" lon="1.57524">
        <ele>1589.1965332031</ele>
        <time>2011-05-28T08:37:31Z</time>
      </trkpt>
      <trkpt lat="42.69608" lon="1.5752">
        <ele>1590.6384277344</ele>
        <time>2011-05-28T08:37:38Z</time>
      </trkpt>
      <trkpt lat="42.69606" lon="1.57518">
        <ele>1590.6384277344</ele>
        <time>2011-05-28T08:37:40Z</time>
      </trkpt>
      <trkpt lat="42.69601" lon="1.57517">
        <ele>1591.119140625</ele>
        <time>2011-05-28T08:37:44Z</time>
      </trkpt>
      <trkpt lat="42.69592" lon="1.57514">
        <ele>1591.5998535156</ele>
        <time>2011-05-28T08:37:52Z</time>
      </trkpt>
      <trkpt lat="42.69584" lon="1.57509">
        <ele>1592.5612792969</ele>
        <time>2011-05-28T08:37:59Z</time>
      </trkpt>
      <trkpt lat="42.69576" lon="1.575">
        <ele>1592.5612792969</ele>
        <time>2011-05-28T08:38:06Z</time>
      </trkpt>
      <trkpt lat="42.69575" lon="1.57497">
        <ele>1592.5612792969</ele>
        <time>2011-05-28T08:38:08Z</time>
      </trkpt>
      <trkpt lat="42.69569" lon="1.57485">
        <ele>1593.5224609375</ele>
        <time>2011-05-28T08:38:16Z</time>
      </trkpt>
      <trkpt lat="42.69566" lon="1.57474">
        <ele>1594.9643554688</ele>
        <time>2011-05-28T08:38:23Z</time>
      </trkpt>
      <trkpt lat="42.69562" lon="1.57466">
        <ele>1596.4067382812</ele>
        <time>2011-05-28T08:38:29Z</time>
      </trkpt>
      <trkpt lat="42.69556" lon="1.57456">
        <ele>1598.3291015625</ele>
        <time>2011-05-28T08:38:37Z</time>
      </trkpt>
      <trkpt lat="42.69555" lon="1.57452">
        <ele>1598.8098144531</ele>
        <time>2011-05-28T08:38:40Z</time>
      </trkpt>
      <trkpt lat="42.69551" lon="1.57449">
        <ele>1599.7712402344</ele>
        <time>2011-05-28T08:38:44Z</time>
      </trkpt>
      <trkpt lat="42.69545" lon="1.5745">
        <ele>1600.732421875</ele>
        <time>2011-05-28T08:38:50Z</time>
      </trkpt>
      <trkpt lat="42.69543" lon="1.57451">
        <ele>1601.2131347656</ele>
        <time>2011-05-28T08:38:58Z</time>
      </trkpt>
      <trkpt lat="42.6954" lon="1.57449">
        <ele>1602.6550292969</ele>
        <time>2011-05-28T08:39:04Z</time>
      </trkpt>
      <trkpt lat="42.69537" lon="1.57448">
        <ele>1603.1357421875</ele>
        <time>2011-05-28T08:39:09Z</time>
      </trkpt>
      <trkpt lat="42.69532" lon="1.57448">
        <ele>1603.6164550781</ele>
        <time>2011-05-28T08:39:15Z</time>
      </trkpt>
      <trkpt lat="42.69528" lon="1.57442">
        <ele>1604.0971679688</ele>
        <time>2011-05-28T08:39:21Z</time>
      </trkpt>
      <trkpt lat="42.69521" lon="1.57431">
        <ele>1606.01953125</ele>
        <time>2011-05-28T08:39:30Z</time>
      </trkpt>
      <trkpt lat="42.69515" lon="1.57423">
        <ele>1606.9809570312</ele>
        <time>2011-05-28T08:39:38Z</time>
      </trkpt>
      <trkpt lat="42.69508" lon="1.57413">
        <ele>1607.4616699219</ele>
        <time>2011-05-28T08:39:46Z</time>
      </trkpt>
      <trkpt lat="42.69499" lon="1.57405">
        <ele>1607.9423828125</ele>
        <time>2011-05-28T08:39:55Z</time>
      </trkpt>
      <trkpt lat="42.69491" lon="1.57399">
        <ele>1608.4228515625</ele>
        <time>2011-05-28T08:40:02Z</time>
      </trkpt>
      <trkpt lat="42.69487" lon="1.57392">
        <ele>1608.4228515625</ele>
        <time>2011-05-28T08:40:08Z</time>
      </trkpt>
      <trkpt lat="42.69483" lon="1.57388">
        <ele>1608.4228515625</ele>
        <time>2011-05-28T08:40:12Z</time>
      </trkpt>
      <trkpt lat="42.69477" lon="1.57377">
        <ele>1608.9035644531</ele>
        <time>2011-05-28T08:40:22Z</time>
      </trkpt>
      <trkpt lat="42.69473" lon="1.57375">
        <ele>1609.3842773438</ele>
        <time>2011-05-28T08:40:25Z</time>
      </trkpt>
      <trkpt lat="42.69466" lon="1.57373">
        <ele>1610.3454589844</ele>
        <time>2011-05-28T08:40:32Z</time>
      </trkpt>
      <trkpt lat="42.6946" lon="1.57367">
        <ele>1611.7875976562</ele>
        <time>2011-05-28T08:40:38Z</time>
      </trkpt>
      <trkpt lat="42.69458" lon="1.57365">
        <ele>1612.2683105469</ele>
        <time>2011-05-28T08:40:41Z</time>
      </trkpt>
      <trkpt lat="42.69451" lon="1.57359">
        <ele>1612.7490234375</ele>
        <time>2011-05-28T08:40:48Z</time>
      </trkpt>
      <trkpt lat="42.6945" lon="1.57358">
        <ele>1612.7490234375</ele>
        <time>2011-05-28T08:40:49Z</time>
      </trkpt>
      <trkpt lat="42.69444" lon="1.57352">
        <ele>1613.7102050781</ele>
        <time>2011-05-28T08:40:56Z</time>
      </trkpt>
      <trkpt lat="42.6944" lon="1.57344">
        <ele>1614.6716308594</ele>
        <time>2011-05-28T08:41:03Z</time>
      </trkpt>
      <trkpt lat="42.69439" lon="1.57342">
        <ele>1615.15234375</ele>
        <time>2011-05-28T08:41:05Z</time>
      </trkpt>
      <trkpt lat="42.69435" lon="1.57336">
        <ele>1616.1135253906</ele>
        <time>2011-05-28T08:41:10Z</time>
      </trkpt>
      <trkpt lat="42.69431" lon="1.5733">
        <ele>1617.0749511719</ele>
        <time>2011-05-28T08:41:17Z</time>
      </trkpt>
      <trkpt lat="42.69427" lon="1.57321">
        <ele>1617.0749511719</ele>
        <time>2011-05-28T08:41:24Z</time>
      </trkpt>
      <trkpt lat="42.69426" lon="1.57316">
        <ele>1617.5554199219</ele>
        <time>2011-05-28T08:41:28Z</time>
      </trkpt>
      <trkpt lat="42.6942" lon="1.57309">
        <ele>1617.5554199219</ele>
        <time>2011-05-28T08:41:35Z</time>
      </trkpt>
      <trkpt lat="42.69418" lon="1.57298">
        <ele>1617.5554199219</ele>
        <time>2011-05-28T08:41:42Z</time>
      </trkpt>
      <trkpt lat="42.69419" lon="1.57287">
        <ele>1618.9975585938</ele>
        <time>2011-05-28T08:41:49Z</time>
      </trkpt>
      <trkpt lat="42.69421" lon="1.5728">
        <ele>1620.9201660156</ele>
        <time>2011-05-28T08:41:55Z</time>
      </trkpt>
      <trkpt lat="42.69419" lon="1.57266">
        <ele>1622.8427734375</ele>
        <time>2011-05-28T08:42:03Z</time>
      </trkpt>
      <trkpt lat="42.69419" lon="1.5726">
        <ele>1622.8427734375</ele>
        <time>2011-05-28T08:42:08Z</time>
      </trkpt>
      <trkpt lat="42.69415" lon="1.57254">
        <ele>1623.3234863281</ele>
        <time>2011-05-28T08:42:15Z</time>
      </trkpt>
      <trkpt lat="42.69411" lon="1.57247">
        <ele>1623.8039550781</ele>
        <time>2011-05-28T08:42:22Z</time>
      </trkpt>
      <trkpt lat="42.69408" lon="1.57245">
        <ele>1624.7653808594</ele>
        <time>2011-05-28T08:42:25Z</time>
      </trkpt>
      <trkpt lat="42.69402" lon="1.57238">
        <ele>1625.2458496094</ele>
        <time>2011-05-28T08:42:32Z</time>
      </trkpt>
      <trkpt lat="42.69402" lon="1.57237">
        <ele>1625.7265625</ele>
        <time>2011-05-28T08:42:33Z</time>
      </trkpt>
      <trkpt lat="42.69399" lon="1.57226">
        <ele>1627.1687011719</ele>
        <time>2011-05-28T08:42:40Z</time>
      </trkpt>
      <trkpt lat="42.69395" lon="1.57217">
        <ele>1628.6108398438</ele>
        <time>2011-05-28T08:42:48Z</time>
      </trkpt>
      <trkpt lat="42.69394" lon="1.57209">
        <ele>1630.5334472656</ele>
        <time>2011-05-28T08:42:54Z</time>
      </trkpt>
      <trkpt lat="42.69395" lon="1.57203">
        <ele>1631.9753417969</ele>
        <time>2011-05-28T08:42:58Z</time>
      </trkpt>
      <trkpt lat="42.69395" lon="1.572">
        <ele>1632.4560546875</ele>
        <time>2011-05-28T08:43:00Z</time>
      </trkpt>
      <trkpt lat="42.69394" lon="1.5719">
        <ele>1633.8979492188</ele>
        <time>2011-05-28T08:43:06Z</time>
      </trkpt>
      <trkpt lat="42.69392" lon="1.57183">
        <ele>1633.8979492188</ele>
        <time>2011-05-28T08:43:10Z</time>
      </trkpt>
      <trkpt lat="42.69388" lon="1.57172">
        <ele>1636.3012695312</ele>
        <time>2011-05-28T08:43:18Z</time>
      </trkpt>
      <trkpt lat="42.69383" lon="1.57168">
        <ele>1637.2624511719</ele>
        <time>2011-05-28T08:43:24Z</time>
      </trkpt>
      <trkpt lat="42.69376" lon="1.57169">
        <ele>1636.7817382812</ele>
        <time>2011-05-28T08:43:32Z</time>
      </trkpt>
      <trkpt lat="42.69375" lon="1.57169">
        <ele>1635.8205566406</ele>
        <time>2011-05-28T08:43:37Z</time>
      </trkpt>
      <trkpt lat="42.69369" lon="1.57165">
        <ele>1635.33984375</ele>
        <time>2011-05-28T08:43:44Z</time>
      </trkpt>
      <trkpt lat="42.69365" lon="1.57161">
        <ele>1635.33984375</ele>
        <time>2011-05-28T08:43:48Z</time>
      </trkpt>
      <trkpt lat="42.69362" lon="1.57157">
        <ele>1635.33984375</ele>
        <time>2011-05-28T08:43:53Z</time>
      </trkpt>
      <trkpt lat="42.69358" lon="1.57149">
        <ele>1635.8205566406</ele>
        <time>2011-05-28T08:44:00Z</time>
      </trkpt>
      <trkpt lat="42.69358" lon="1.57147">
        <ele>1635.33984375</ele>
        <time>2011-05-28T08:44:01Z</time>
      </trkpt>
      <trkpt lat="42.69358" lon="1.57131">
        <ele>1637.7431640625</ele>
        <time>2011-05-28T08:44:10Z</time>
      </trkpt>
      <trkpt lat="42.69358" lon="1.57126">
        <ele>1638.7045898438</ele>
        <time>2011-05-28T08:44:13Z</time>
      </trkpt>
      <trkpt lat="42.69356" lon="1.57118">
        <ele>1640.626953125</ele>
        <time>2011-05-28T08:44:20Z</time>
      </trkpt>
      <trkpt lat="42.69355" lon="1.57112">
        <ele>1641.1076660156</ele>
        <time>2011-05-28T08:44:24Z</time>
      </trkpt>
      <trkpt lat="42.69354" lon="1.57109">
        <ele>1642.0690917969</ele>
        <time>2011-05-28T08:44:26Z</time>
      </trkpt>
      <trkpt lat="42.69349" lon="1.57104">
        <ele>1643.0302734375</ele>
        <time>2011-05-28T08:44:33Z</time>
      </trkpt>
      <trkpt lat="42.69344" lon="1.571">
        <ele>1644.4724121094</ele>
        <time>2011-05-28T08:44:39Z</time>
      </trkpt>
      <trkpt lat="42.69338" lon="1.57095">
        <ele>1644.953125</ele>
        <time>2011-05-28T08:44:44Z</time>
      </trkpt>
      <trkpt lat="42.69329" lon="1.57085">
        <ele>1645.4338378906</ele>
        <time>2011-05-28T08:44:53Z</time>
      </trkpt>
      <trkpt lat="42.69328" lon="1.57082">
        <ele>1645.4338378906</ele>
        <time>2011-05-28T08:44:55Z</time>
      </trkpt>
      <trkpt lat="42.69321" lon="1.57075">
        <ele>1645.9145507812</ele>
        <time>2011-05-28T08:45:02Z</time>
      </trkpt>
      <trkpt lat="42.69315" lon="1.57063">
        <ele>1647.3564453125</ele>
        <time>2011-05-28T08:45:10Z</time>
      </trkpt>
      <trkpt lat="42.69309" lon="1.57052">
        <ele>1648.7983398438</ele>
        <time>2011-05-28T08:45:17Z</time>
      </trkpt>
      <trkpt lat="42.693" lon="1.5704">
        <ele>1649.759765625</ele>
        <time>2011-05-28T08:45:26Z</time>
      </trkpt>
      <trkpt lat="42.69296" lon="1.57031">
        <ele>1651.2016601562</ele>
        <time>2011-05-28T08:45:33Z</time>
      </trkpt>
      <trkpt lat="42.69294" lon="1.57026">
        <ele>1651.6823730469</ele>
        <time>2011-05-28T08:45:36Z</time>
      </trkpt>
      <trkpt lat="42.69289" lon="1.57018">
        <ele>1652.1628417969</ele>
        <time>2011-05-28T08:45:42Z</time>
      </trkpt>
      <trkpt lat="42.69288" lon="1.5701">
        <ele>1652.6435546875</ele>
        <time>2011-05-28T08:45:46Z</time>
      </trkpt>
      <trkpt lat="42.69285" lon="1.57004">
        <ele>1653.6049804688</ele>
        <time>2011-05-28T08:45:52Z</time>
      </trkpt>
      <trkpt lat="42.69276" lon="1.56995">
        <ele>1653.1242675781</ele>
        <time>2011-05-28T08:45:59Z</time>
      </trkpt>
      <trkpt lat="42.69272" lon="1.56983">
        <ele>1656.0080566406</ele>
        <time>2011-05-28T08:46:06Z</time>
      </trkpt>
      <trkpt lat="42.69267" lon="1.56975">
        <ele>1656.9694824219</ele>
        <time>2011-05-28T08:46:12Z</time>
      </trkpt>
      <trkpt lat="42.6926" lon="1.56963">
        <ele>1657.9309082031</ele>
        <time>2011-05-28T08:46:20Z</time>
      </trkpt>
      <trkpt lat="42.69257" lon="1.56949">
        <ele>1658.4113769531</ele>
        <time>2011-05-28T08:46:28Z</time>
      </trkpt>
      <trkpt lat="42.69255" lon="1.56937">
        <ele>1659.8532714844</ele>
        <time>2011-05-28T08:46:36Z</time>
      </trkpt>
      <trkpt lat="42.69257" lon="1.56928">
        <ele>1660.3342285156</ele>
        <time>2011-05-28T08:46:43Z</time>
      </trkpt>
      <trkpt lat="42.69258" lon="1.56926">
        <ele>1660.8149414062</ele>
        <time>2011-05-28T08:46:44Z</time>
      </trkpt>
      <trkpt lat="42.69257" lon="1.56915">
        <ele>1661.7763671875</ele>
        <time>2011-05-28T08:46:51Z</time>
      </trkpt>
      <trkpt lat="42.69253" lon="1.56903">
        <ele>1663.2182617188</ele>
        <time>2011-05-28T08:46:59Z</time>
      </trkpt>
      <trkpt lat="42.6925" lon="1.56898">
        <ele>1664.66015625</ele>
        <time>2011-05-28T08:47:04Z</time>
      </trkpt>
      <trkpt lat="42.69245" lon="1.5689">
        <ele>1666.5827636719</ele>
        <time>2011-05-28T08:47:11Z</time>
      </trkpt>
      <trkpt lat="42.69239" lon="1.56881">
        <ele>1668.0246582031</ele>
        <time>2011-05-28T08:47:19Z</time>
      </trkpt>
      <trkpt lat="42.69238" lon="1.56879">
        <ele>1668.5053710938</ele>
        <time>2011-05-28T08:47:21Z</time>
      </trkpt>
      <trkpt lat="42.69235" lon="1.56872">
        <ele>1669.466796875</ele>
        <time>2011-05-28T08:47:26Z</time>
      </trkpt>
      <trkpt lat="42.69228" lon="1.56859">
        <ele>1671.3891601562</ele>
        <time>2011-05-28T08:47:36Z</time>
      </trkpt>
      <trkpt lat="42.69218" lon="1.56849">
        <ele>1672.8312988281</ele>
        <time>2011-05-28T08:47:46Z</time>
      </trkpt>
      <trkpt lat="42.69212" lon="1.56841">
        <ele>1674.2731933594</ele>
        <time>2011-05-28T08:47:53Z</time>
      </trkpt>
      <trkpt lat="42.69212" lon="1.56839">
        <ele>1674.2731933594</ele>
        <time>2011-05-28T08:47:54Z</time>
      </trkpt>
      <trkpt lat="42.69215" lon="1.56835">
        <ele>1674.75390625</ele>
        <time>2011-05-28T08:47:59Z</time>
      </trkpt>
      <trkpt lat="42.69223" lon="1.56834">
        <ele>1676.1960449219</ele>
        <time>2011-05-28T08:48:06Z</time>
      </trkpt>
      <trkpt lat="42.69227" lon="1.56834">
        <ele>1676.1960449219</ele>
        <time>2011-05-28T08:48:10Z</time>
      </trkpt>
      <trkpt lat="42.69227" lon="1.56828">
        <ele>1677.6379394531</ele>
        <time>2011-05-28T08:48:16Z</time>
      </trkpt>
      <trkpt lat="42.69221" lon="1.56819">
        <ele>1679.560546875</ele>
        <time>2011-05-28T08:48:24Z</time>
      </trkpt>
      <trkpt lat="42.69216" lon="1.56809">
        <ele>1681.4831542969</ele>
        <time>2011-05-28T08:48:33Z</time>
      </trkpt>
      <trkpt lat="42.69213" lon="1.56801">
        <ele>1682.9250488281</ele>
        <time>2011-05-28T08:48:41Z</time>
      </trkpt>
      <trkpt lat="42.69209" lon="1.56792">
        <ele>1684.3671875</ele>
        <time>2011-05-28T08:48:49Z</time>
      </trkpt>
      <trkpt lat="42.69206" lon="1.56784">
        <ele>1685.3283691406</ele>
        <time>2011-05-28T08:48:56Z</time>
      </trkpt>
      <trkpt lat="42.69202" lon="1.56778">
        <ele>1686.7702636719</ele>
        <time>2011-05-28T08:49:03Z</time>
      </trkpt>
      <trkpt lat="42.692" lon="1.56772">
        <ele>1686.7702636719</ele>
        <time>2011-05-28T08:49:09Z</time>
      </trkpt>
      <trkpt lat="42.69198" lon="1.56768">
        <ele>1687.2509765625</ele>
        <time>2011-05-28T08:49:15Z</time>
      </trkpt>
      <trkpt lat="42.69194" lon="1.56763">
        <ele>1687.7316894531</ele>
        <time>2011-05-28T08:49:22Z</time>
      </trkpt>
      <trkpt lat="42.69188" lon="1.56762">
        <ele>1689.1735839844</ele>
        <time>2011-05-28T08:49:29Z</time>
      </trkpt>
      <trkpt lat="42.69183" lon="1.56764">
        <ele>1690.6154785156</ele>
        <time>2011-05-28T08:49:35Z</time>
      </trkpt>
      <trkpt lat="42.69179" lon="1.56766">
        <ele>1692.0578613281</ele>
        <time>2011-05-28T08:49:41Z</time>
      </trkpt>
      <trkpt lat="42.69173" lon="1.56773">
        <ele>1693.98046875</ele>
        <time>2011-05-28T08:49:48Z</time>
      </trkpt>
      <trkpt lat="42.69168" lon="1.56775">
        <ele>1694.4609375</ele>
        <time>2011-05-28T08:49:53Z</time>
      </trkpt>
      <trkpt lat="42.69161" lon="1.56777">
        <ele>1694.9416503906</ele>
        <time>2011-05-28T08:50:01Z</time>
      </trkpt>
      <trkpt lat="42.69154" lon="1.56777">
        <ele>1695.9030761719</ele>
        <time>2011-05-28T08:50:08Z</time>
      </trkpt>
      <trkpt lat="42.69153" lon="1.56772">
        <ele>1696.8642578125</ele>
        <time>2011-05-28T08:50:14Z</time>
      </trkpt>
      <trkpt lat="42.69156" lon="1.56765">
        <ele>1697.8256835938</ele>
        <time>2011-05-28T08:50:23Z</time>
      </trkpt>
      <trkpt lat="42.6916" lon="1.56759">
        <ele>1700.7094726562</ele>
        <time>2011-05-28T08:50:30Z</time>
      </trkpt>
      <trkpt lat="42.69164" lon="1.56755">
        <ele>1702.1513671875</ele>
        <time>2011-05-28T08:50:38Z</time>
      </trkpt>
      <trkpt lat="42.6916" lon="1.56755">
        <ele>1703.1127929688</ele>
        <time>2011-05-28T08:50:43Z</time>
      </trkpt>
      <trkpt lat="42.69156" lon="1.56754">
        <ele>1704.07421875</ele>
        <time>2011-05-28T08:50:50Z</time>
      </trkpt>
      <trkpt lat="42.69153" lon="1.56756">
        <ele>1705.0354003906</ele>
        <time>2011-05-28T08:50:56Z</time>
      </trkpt>
      <trkpt lat="42.69148" lon="1.56759">
        <ele>1705.9965820312</ele>
        <time>2011-05-28T08:51:02Z</time>
      </trkpt>
      <trkpt lat="42.69144" lon="1.56764">
        <ele>1706.9580078125</ele>
        <time>2011-05-28T08:51:09Z</time>
      </trkpt>
      <trkpt lat="42.69139" lon="1.56767">
        <ele>1708.4001464844</ele>
        <time>2011-05-28T08:51:16Z</time>
      </trkpt>
      <trkpt lat="42.69134" lon="1.56764">
        <ele>1708.880859375</ele>
        <time>2011-05-28T08:51:22Z</time>
      </trkpt>
      <trkpt lat="42.69131" lon="1.56759">
        <ele>1709.8420410156</ele>
        <time>2011-05-28T08:51:26Z</time>
      </trkpt>
      <trkpt lat="42.69128" lon="1.5675">
        <ele>1710.8034667969</ele>
        <time>2011-05-28T08:51:34Z</time>
      </trkpt>
      <trkpt lat="42.69126" lon="1.56748">
        <ele>1710.8034667969</ele>
        <time>2011-05-28T08:51:36Z</time>
      </trkpt>
      <trkpt lat="42.69119" lon="1.56743">
        <ele>1712.2453613281</ele>
        <time>2011-05-28T08:51:44Z</time>
      </trkpt>
      <trkpt lat="42.69118" lon="1.56742">
        <ele>1712.7260742188</ele>
        <time>2011-05-28T08:51:45Z</time>
      </trkpt>
      <trkpt lat="42.69112" lon="1.56735">
        <ele>1714.6486816406</ele>
        <time>2011-05-28T08:51:54Z</time>
      </trkpt>
      <trkpt lat="42.69106" lon="1.56732">
        <ele>1715.1293945312</ele>
        <time>2011-05-28T08:52:01Z</time>
      </trkpt>
      <trkpt lat="42.69098" lon="1.5673">
        <ele>1716.0905761719</ele>
        <time>2011-05-28T08:52:10Z</time>
      </trkpt>
      <trkpt lat="42.69092" lon="1.5673">
        <ele>1717.0520019531</ele>
        <time>2011-05-28T08:52:17Z</time>
      </trkpt>
      <trkpt lat="42.6909" lon="1.56733">
        <ele>1718.4938964844</ele>
        <time>2011-05-28T08:52:21Z</time>
      </trkpt>
      <trkpt lat="42.69085" lon="1.5674">
        <ele>1720.4165039062</ele>
        <time>2011-05-28T08:52:27Z</time>
      </trkpt>
      <trkpt lat="42.69083" lon="1.56741">
        <ele>1721.3776855469</ele>
        <time>2011-05-28T08:52:30Z</time>
      </trkpt>
      <trkpt lat="42.69081" lon="1.56739">
        <ele>1721.8583984375</ele>
        <time>2011-05-28T08:52:33Z</time>
      </trkpt>
      <trkpt lat="42.69081" lon="1.56731">
        <ele>1723.3005371094</ele>
        <time>2011-05-28T08:52:40Z</time>
      </trkpt>
      <trkpt lat="42.69081" lon="1.56724">
        <ele>1726.1845703125</ele>
        <time>2011-05-28T08:52:47Z</time>
      </trkpt>
      <trkpt lat="42.69078" lon="1.56729">
        <ele>1726.6652832031</ele>
        <time>2011-05-28T08:52:52Z</time>
      </trkpt>
      <trkpt lat="42.69074" lon="1.56732">
        <ele>1727.6264648438</ele>
        <time>2011-05-28T08:52:58Z</time>
      </trkpt>
      <trkpt lat="42.69073" lon="1.56728">
        <ele>1728.587890625</ele>
        <time>2011-05-28T08:53:05Z</time>
      </trkpt>
      <trkpt lat="42.6907" lon="1.5673">
        <ele>1730.9912109375</ele>
        <time>2011-05-28T08:53:10Z</time>
      </trkpt>
      <trkpt lat="42.69069" lon="1.56737">
        <ele>1731.9523925781</ele>
        <time>2011-05-28T08:53:16Z</time>
      </trkpt>
      <trkpt lat="42.69065" lon="1.56744">
        <ele>1732.9135742188</ele>
        <time>2011-05-28T08:53:24Z</time>
      </trkpt>
      <trkpt lat="42.69062" lon="1.56747">
        <ele>1733.875</ele>
        <time>2011-05-28T08:53:31Z</time>
      </trkpt>
      <trkpt lat="42.69061" lon="1.56742">
        <ele>1734.8364257812</ele>
        <time>2011-05-28T08:53:37Z</time>
      </trkpt>
      <trkpt lat="42.69058" lon="1.56737">
        <ele>1736.7587890625</ele>
        <time>2011-05-28T08:53:43Z</time>
      </trkpt>
      <trkpt lat="42.69054" lon="1.56739">
        <ele>1738.681640625</ele>
        <time>2011-05-28T08:53:49Z</time>
      </trkpt>
      <trkpt lat="42.6905" lon="1.56744">
        <ele>1741.0849609375</ele>
        <time>2011-05-28T08:53:57Z</time>
      </trkpt>
      <trkpt lat="42.6905" lon="1.56748">
        <ele>1741.5656738281</ele>
        <time>2011-05-28T08:54:03Z</time>
      </trkpt>
      <trkpt lat="42.69049" lon="1.56753">
        <ele>1742.0463867188</ele>
        <time>2011-05-28T08:54:09Z</time>
      </trkpt>
      <trkpt lat="42.69043" lon="1.56752">
        <ele>1743.0075683594</ele>
        <time>2011-05-28T08:54:15Z</time>
      </trkpt>
      <trkpt lat="42.69042" lon="1.56745">
        <ele>1743.9689941406</ele>
        <time>2011-05-28T08:54:22Z</time>
      </trkpt>
      <trkpt lat="42.69039" lon="1.56746">
        <ele>1744.4494628906</ele>
        <time>2011-05-28T08:54:28Z</time>
      </trkpt>
      <trkpt lat="42.69035" lon="1.56747">
        <ele>1746.3723144531</ele>
        <time>2011-05-28T08:54:35Z</time>
      </trkpt>
      <trkpt lat="42.6903" lon="1.5675">
        <ele>1747.8142089844</ele>
        <time>2011-05-28T08:54:43Z</time>
      </trkpt>
      <trkpt lat="42.69023" lon="1.56746">
        <ele>1749.7368164062</ele>
        <time>2011-05-28T08:54:51Z</time>
      </trkpt>
      <trkpt lat="42.69019" lon="1.56743">
        <ele>1751.6594238281</ele>
        <time>2011-05-28T08:54:58Z</time>
      </trkpt>
      <trkpt lat="42.69016" lon="1.56739">
        <ele>1753.58203125</ele>
        <time>2011-05-28T08:55:04Z</time>
      </trkpt>
      <trkpt lat="42.6901" lon="1.56735">
        <ele>1755.0239257812</ele>
        <time>2011-05-28T08:55:12Z</time>
      </trkpt>
      <trkpt lat="42.69007" lon="1.56728">
        <ele>1755.9851074219</ele>
        <time>2011-05-28T08:55:18Z</time>
      </trkpt>
      <trkpt lat="42.69002" lon="1.56722">
        <ele>1755.9851074219</ele>
        <time>2011-05-28T08:55:23Z</time>
      </trkpt>
      <trkpt lat="42.68996" lon="1.56719">
        <ele>1755.5046386719</ele>
        <time>2011-05-28T08:55:29Z</time>
      </trkpt>
      <trkpt lat="42.6899" lon="1.56713">
        <ele>1755.0239257812</ele>
        <time>2011-05-28T08:55:34Z</time>
      </trkpt>
      <trkpt lat="42.68982" lon="1.56703">
        <ele>1754.0627441406</ele>
        <time>2011-05-28T08:55:42Z</time>
      </trkpt>
      <trkpt lat="42.6898" lon="1.56701">
        <ele>1754.0627441406</ele>
        <time>2011-05-28T08:55:46Z</time>
      </trkpt>
      <trkpt lat="42.68974" lon="1.56698">
        <ele>1754.5432128906</ele>
        <time>2011-05-28T08:55:52Z</time>
      </trkpt>
      <trkpt lat="42.68967" lon="1.56696">
        <ele>1754.5432128906</ele>
        <time>2011-05-28T08:55:59Z</time>
      </trkpt>
      <trkpt lat="42.6896" lon="1.56692">
        <ele>1752.1398925781</ele>
        <time>2011-05-28T08:56:04Z</time>
      </trkpt>
      <trkpt lat="42.68957" lon="1.5669">
        <ele>1750.6979980469</ele>
        <time>2011-05-28T08:56:08Z</time>
      </trkpt>
      <trkpt lat="42.68954" lon="1.56679">
        <ele>1748.2946777344</ele>
        <time>2011-05-28T08:56:12Z</time>
      </trkpt>
      <trkpt lat="42.68954" lon="1.56676">
        <ele>1748.2946777344</ele>
        <time>2011-05-28T08:56:13Z</time>
      </trkpt>
      <trkpt lat="42.68952" lon="1.56664">
        <ele>1748.2946777344</ele>
        <time>2011-05-28T08:56:20Z</time>
      </trkpt>
      <trkpt lat="42.68949" lon="1.56661">
        <ele>1748.2946777344</ele>
        <time>2011-05-28T08:56:24Z</time>
      </trkpt>
      <trkpt lat="42.68945" lon="1.56658">
        <ele>1748.2946777344</ele>
        <time>2011-05-28T08:56:28Z</time>
      </trkpt>
      <trkpt lat="42.68942" lon="1.56653">
        <ele>1748.2946777344</ele>
        <time>2011-05-28T08:56:32Z</time>
      </trkpt>
      <trkpt lat="42.68935" lon="1.56649">
        <ele>1748.2946777344</ele>
        <time>2011-05-28T08:56:39Z</time>
      </trkpt>
      <trkpt lat="42.6893" lon="1.56641">
        <ele>1748.775390625</ele>
        <time>2011-05-28T08:56:47Z</time>
      </trkpt>
      <trkpt lat="42.68927" lon="1.56639">
        <ele>1748.775390625</ele>
        <time>2011-05-28T08:56:50Z</time>
      </trkpt>
      <trkpt lat="42.68922" lon="1.56634">
        <ele>1749.2561035156</ele>
        <time>2011-05-28T08:56:57Z</time>
      </trkpt>
      <trkpt lat="42.6892" lon="1.56626">
        <ele>1749.7368164062</ele>
        <time>2011-05-28T08:57:04Z</time>
      </trkpt>
      <trkpt lat="42.68915" lon="1.5662">
        <ele>1750.2175292969</ele>
        <time>2011-05-28T08:57:11Z</time>
      </trkpt>
      <trkpt lat="42.68912" lon="1.56621">
        <ele>1751.1787109375</ele>
        <time>2011-05-28T08:57:16Z</time>
      </trkpt>
      <trkpt lat="42.68909" lon="1.56625">
        <ele>1752.1398925781</ele>
        <time>2011-05-28T08:57:21Z</time>
      </trkpt>
      <trkpt lat="42.68903" lon="1.56628">
        <ele>1754.0627441406</ele>
        <time>2011-05-28T08:57:29Z</time>
      </trkpt>
      <trkpt lat="42.68898" lon="1.5663">
        <ele>1755.5046386719</ele>
        <time>2011-05-28T08:57:35Z</time>
      </trkpt>
      <trkpt lat="42.68895" lon="1.5663">
        <ele>1755.9851074219</ele>
        <time>2011-05-28T08:57:42Z</time>
      </trkpt>
      <trkpt lat="42.68895" lon="1.56626">
        <ele>1757.4274902344</ele>
        <time>2011-05-28T08:57:47Z</time>
      </trkpt>
      <trkpt lat="42.68893" lon="1.5662">
        <ele>1757.908203125</ele>
        <time>2011-05-28T08:57:53Z</time>
      </trkpt>
      <trkpt lat="42.68887" lon="1.56614">
        <ele>1757.908203125</ele>
        <time>2011-05-28T08:58:00Z</time>
      </trkpt>
      <trkpt lat="42.68881" lon="1.56611">
        <ele>1759.3500976562</ele>
        <time>2011-05-28T08:58:07Z</time>
      </trkpt>
      <trkpt lat="42.68876" lon="1.56605">
        <ele>1760.3112792969</ele>
        <time>2011-05-28T08:58:14Z</time>
      </trkpt>
      <trkpt lat="42.68875" lon="1.56601">
        <ele>1760.7919921875</ele>
        <time>2011-05-28T08:58:19Z</time>
      </trkpt>
      <trkpt lat="42.68872" lon="1.56591">
        <ele>1761.2727050781</ele>
        <time>2011-05-28T08:58:25Z</time>
      </trkpt>
      <trkpt lat="42.68871" lon="1.56582">
        <ele>1762.7145996094</ele>
        <time>2011-05-28T08:58:30Z</time>
      </trkpt>
      <trkpt lat="42.68874" lon="1.56575">
        <ele>1765.1179199219</ele>
        <time>2011-05-28T08:58:37Z</time>
      </trkpt>
      <trkpt lat="42.6888" lon="1.56573">
        <ele>1766.0791015625</ele>
        <time>2011-05-28T08:58:43Z</time>
      </trkpt>
      <trkpt lat="42.68884" lon="1.56567">
        <ele>1767.5209960938</ele>
        <time>2011-05-28T08:58:48Z</time>
      </trkpt>
      <trkpt lat="42.68883" lon="1.56564">
        <ele>1768.482421875</ele>
        <time>2011-05-28T08:58:53Z</time>
      </trkpt>
      <trkpt lat="42.68879" lon="1.56565">
        <ele>1768.9631347656</ele>
        <time>2011-05-28T08:58:57Z</time>
      </trkpt>
      <trkpt lat="42.68871" lon="1.56561">
        <ele>1770.4050292969</ele>
        <time>2011-05-28T08:59:06Z</time>
      </trkpt>
      <trkpt lat="42.68864" lon="1.56557">
        <ele>1770.8857421875</ele>
        <time>2011-05-28T08:59:13Z</time>
      </trkpt>
      <trkpt lat="42.68859" lon="1.56555">
        <ele>1771.3662109375</ele>
        <time>2011-05-28T08:59:19Z</time>
      </trkpt>
      <trkpt lat="42.68857" lon="1.56554">
        <ele>1771.8469238281</ele>
        <time>2011-05-28T08:59:21Z</time>
      </trkpt>
      <trkpt lat="42.68852" lon="1.56546">
        <ele>1772.80859375</ele>
        <time>2011-05-28T08:59:28Z</time>
      </trkpt>
      <trkpt lat="42.68849" lon="1.56541">
        <ele>1772.80859375</ele>
        <time>2011-05-28T08:59:34Z</time>
      </trkpt>
      <trkpt lat="42.68842" lon="1.5653">
        <ele>1773.7697753906</ele>
        <time>2011-05-28T08:59:42Z</time>
      </trkpt>
      <trkpt lat="42.68833" lon="1.56527">
        <ele>1773.2893066406</ele>
        <time>2011-05-28T08:59:49Z</time>
      </trkpt>
      <trkpt lat="42.68832" lon="1.56527">
        <ele>1773.2893066406</ele>
        <time>2011-05-28T08:59:50Z</time>
      </trkpt>
      <trkpt lat="42.68829" lon="1.56525">
        <ele>1773.7697753906</ele>
        <time>2011-05-28T08:59:56Z</time>
      </trkpt>
      <trkpt lat="42.68826" lon="1.56522">
        <ele>1774.2504882812</ele>
        <time>2011-05-28T09:00:01Z</time>
      </trkpt>
      <trkpt lat="42.68822" lon="1.56521">
        <ele>1774.7312011719</ele>
        <time>2011-05-28T09:00:04Z</time>
      </trkpt>
      <trkpt lat="42.68815" lon="1.56518">
        <ele>1776.1730957031</ele>
        <time>2011-05-28T09:00:11Z</time>
      </trkpt>
      <trkpt lat="42.6881" lon="1.56516">
        <ele>1777.1345214844</ele>
        <time>2011-05-28T09:00:16Z</time>
      </trkpt>
      <trkpt lat="42.68805" lon="1.56514">
        <ele>1776.6538085938</ele>
        <time>2011-05-28T09:00:21Z</time>
      </trkpt>
      <trkpt lat="42.68796" lon="1.56512">
        <ele>1776.6538085938</ele>
        <time>2011-05-28T09:00:29Z</time>
      </trkpt>
      <trkpt lat="42.68791" lon="1.56516">
        <ele>1777.6149902344</ele>
        <time>2011-05-28T09:00:36Z</time>
      </trkpt>
      <trkpt lat="42.68787" lon="1.56521">
        <ele>1779.0568847656</ele>
        <time>2011-05-28T09:00:41Z</time>
      </trkpt>
      <trkpt lat="42.68784" lon="1.5652">
        <ele>1780.0183105469</ele>
        <time>2011-05-28T09:00:45Z</time>
      </trkpt>
      <trkpt lat="42.68783" lon="1.56517">
        <ele>1780.4990234375</ele>
        <time>2011-05-28T09:00:47Z</time>
      </trkpt>
      <trkpt lat="42.68781" lon="1.56517">
        <ele>1781.4602050781</ele>
        <time>2011-05-28T09:00:49Z</time>
      </trkpt>
      <trkpt lat="42.68781" lon="1.56523">
        <ele>1781.4602050781</ele>
        <time>2011-05-28T09:00:54Z</time>
      </trkpt>
      <trkpt lat="42.68782" lon="1.56529">
        <ele>1781.9409179688</ele>
        <time>2011-05-28T09:00:58Z</time>
      </trkpt>
      <trkpt lat="42.68783" lon="1.56535">
        <ele>1781.9409179688</ele>
        <time>2011-05-28T09:01:02Z</time>
      </trkpt>
      <trkpt lat="42.6878" lon="1.56538">
        <ele>1782.9020996094</ele>
        <time>2011-05-28T09:01:06Z</time>
      </trkpt>
      <trkpt lat="42.68772" lon="1.56546">
        <ele>1784.8249511719</ele>
        <time>2011-05-28T09:01:14Z</time>
      </trkpt>
      <trkpt lat="42.68767" lon="1.56551">
        <ele>1786.2668457031</ele>
        <time>2011-05-28T09:01:20Z</time>
      </trkpt>
      <trkpt lat="42.68762" lon="1.56552">
        <ele>1787.2280273438</ele>
        <time>2011-05-28T09:01:25Z</time>
      </trkpt>
      <trkpt lat="42.68759" lon="1.5655">
        <ele>1790.1123046875</ele>
        <time>2011-05-28T09:01:31Z</time>
      </trkpt>
      <trkpt lat="42.68756" lon="1.56546">
        <ele>1791.5541992188</ele>
        <time>2011-05-28T09:01:36Z</time>
      </trkpt>
      <trkpt lat="42.68756" lon="1.56541">
        <ele>1792.515625</ele>
        <time>2011-05-28T09:01:41Z</time>
      </trkpt>
      <trkpt lat="42.68756" lon="1.56534">
        <ele>1794.4379882812</ele>
        <time>2011-05-28T09:01:48Z</time>
      </trkpt>
      <trkpt lat="42.68752" lon="1.56536">
        <ele>1794.9187011719</ele>
        <time>2011-05-28T09:01:54Z</time>
      </trkpt>
      <trkpt lat="42.68748" lon="1.56542">
        <ele>1795.8801269531</ele>
        <time>2011-05-28T09:02:00Z</time>
      </trkpt>
      <trkpt lat="42.68748" lon="1.5655">
        <ele>1796.8413085938</ele>
        <time>2011-05-28T09:02:06Z</time>
      </trkpt>
      <trkpt lat="42.68744" lon="1.56559">
        <ele>1798.283203125</ele>
        <time>2011-05-28T09:02:15Z</time>
      </trkpt>
      <trkpt lat="42.68742" lon="1.56568">
        <ele>1798.7639160156</ele>
        <time>2011-05-28T09:02:21Z</time>
      </trkpt>
      <trkpt lat="42.68741" lon="1.5657">
        <ele>1799.2446289062</ele>
        <time>2011-05-28T09:02:23Z</time>
      </trkpt>
      <trkpt lat="42.68741" lon="1.56577">
        <ele>1799.7253417969</ele>
        <time>2011-05-28T09:02:29Z</time>
      </trkpt>
      <trkpt lat="42.6874" lon="1.56582">
        <ele>1800.2060546875</ele>
        <time>2011-05-28T09:02:34Z</time>
      </trkpt>
      <trkpt lat="42.68737" lon="1.5659">
        <ele>1801.1672363281</ele>
        <time>2011-05-28T09:02:41Z</time>
      </trkpt>
      <trkpt lat="42.68734" lon="1.56587">
        <ele>1801.6479492188</ele>
        <time>2011-05-28T09:02:46Z</time>
      </trkpt>
      <trkpt lat="42.68731" lon="1.56582">
        <ele>1803.5705566406</ele>
        <time>2011-05-28T09:02:54Z</time>
      </trkpt>
      <trkpt lat="42.68728" lon="1.56584">
        <ele>1805.0126953125</ele>
        <time>2011-05-28T09:03:00Z</time>
      </trkpt>
      <trkpt lat="42.68726" lon="1.5659">
        <ele>1806.9353027344</ele>
        <time>2011-05-28T09:03:05Z</time>
      </trkpt>
      <trkpt lat="42.68724" lon="1.566">
        <ele>1808.8579101562</ele>
        <time>2011-05-28T09:03:13Z</time>
      </trkpt>
      <trkpt lat="42.68723" lon="1.56606">
        <ele>1809.3386230469</ele>
        <time>2011-05-28T09:03:19Z</time>
      </trkpt>
      <trkpt lat="42.6872" lon="1.56611">
        <ele>1810.7805175781</ele>
        <time>2011-05-28T09:03:25Z</time>
      </trkpt>
      <trkpt lat="42.68718" lon="1.56617">
        <ele>1812.2224121094</ele>
        <time>2011-05-28T09:03:33Z</time>
      </trkpt>
      <trkpt lat="42.68715" lon="1.56621">
        <ele>1813.1838378906</ele>
        <time>2011-05-28T09:03:39Z</time>
      </trkpt>
      <trkpt lat="42.68713" lon="1.56625">
        <ele>1814.6257324219</ele>
        <time>2011-05-28T09:03:45Z</time>
      </trkpt>
      <trkpt lat="42.68712" lon="1.56628">
        <ele>1815.5871582031</ele>
        <time>2011-05-28T09:03:51Z</time>
      </trkpt>
      <trkpt lat="42.68708" lon="1.56635">
        <ele>1817.0290527344</ele>
        <time>2011-05-28T09:03:59Z</time>
      </trkpt>
      <trkpt lat="42.68705" lon="1.56637">
        <ele>1818.4709472656</ele>
        <time>2011-05-28T09:04:05Z</time>
      </trkpt>
      <trkpt lat="42.68702" lon="1.56631">
        <ele>1818.9516601562</ele>
        <time>2011-05-28T09:04:12Z</time>
      </trkpt>
      <trkpt lat="42.687" lon="1.56623">
        <ele>1819.9128417969</ele>
        <time>2011-05-28T09:04:19Z</time>
      </trkpt>
      <trkpt lat="42.68698" lon="1.56616">
        <ele>1821.3549804688</ele>
        <time>2011-05-28T09:04:26Z</time>
      </trkpt>
      <trkpt lat="42.68696" lon="1.56612">
        <ele>1823.2778320312</ele>
        <time>2011-05-28T09:04:31Z</time>
      </trkpt>
      <trkpt lat="42.68697" lon="1.56606">
        <ele>1824.7197265625</ele>
        <time>2011-05-28T09:04:37Z</time>
      </trkpt>
      <trkpt lat="42.68693" lon="1.56604">
        <ele>1827.123046875</ele>
        <time>2011-05-28T09:04:45Z</time>
      </trkpt>
      <trkpt lat="42.68689" lon="1.56607">
        <ele>1828.5649414062</ele>
        <time>2011-05-28T09:04:51Z</time>
      </trkpt>
      <trkpt lat="42.68684" lon="1.56605">
        <ele>1829.5261230469</ele>
        <time>2011-05-28T09:04:58Z</time>
      </trkpt>
      <trkpt lat="42.68682" lon="1.56598">
        <ele>1830.4875488281</ele>
        <time>2011-05-28T09:05:05Z</time>
      </trkpt>
      <trkpt lat="42.68682" lon="1.56592">
        <ele>1830.9682617188</ele>
        <time>2011-05-28T09:05:11Z</time>
      </trkpt>
      <trkpt lat="42.68683" lon="1.56582">
        <ele>1833.3713378906</ele>
        <time>2011-05-28T09:05:19Z</time>
      </trkpt>
      <trkpt lat="42.68685" lon="1.56571">
        <ele>1836.2556152344</ele>
        <time>2011-05-28T09:05:28Z</time>
      </trkpt>
      <trkpt lat="42.68679" lon="1.56564">
        <ele>1837.6975097656</ele>
        <time>2011-05-28T09:05:36Z</time>
      </trkpt>
      <trkpt lat="42.68674" lon="1.56561">
        <ele>1838.6589355469</ele>
        <time>2011-05-28T09:05:42Z</time>
      </trkpt>
      <trkpt lat="42.68671" lon="1.56555">
        <ele>1840.1008300781</ele>
        <time>2011-05-28T09:05:49Z</time>
      </trkpt>
      <trkpt lat="42.68668" lon="1.5655">
        <ele>1841.0620117188</ele>
        <time>2011-05-28T09:05:55Z</time>
      </trkpt>
      <trkpt lat="42.68664" lon="1.56549">
        <ele>1842.9846191406</ele>
        <time>2011-05-28T09:06:01Z</time>
      </trkpt>
      <trkpt lat="42.68665" lon="1.56542">
        <ele>1844.4265136719</ele>
        <time>2011-05-28T09:06:07Z</time>
      </trkpt>
      <trkpt lat="42.68661" lon="1.56536">
        <ele>1845.8686523438</ele>
        <time>2011-05-28T09:06:13Z</time>
      </trkpt>
      <trkpt lat="42.68655" lon="1.56534">
        <ele>1846.8298339844</ele>
        <time>2011-05-28T09:06:20Z</time>
      </trkpt>
      <trkpt lat="42.68649" lon="1.56533">
        <ele>1847.7912597656</ele>
        <time>2011-05-28T09:06:27Z</time>
      </trkpt>
      <trkpt lat="42.68646" lon="1.56529">
        <ele>1848.2717285156</ele>
        <time>2011-05-28T09:06:32Z</time>
      </trkpt>
      <trkpt lat="42.68643" lon="1.56525">
        <ele>1849.7138671875</ele>
        <time>2011-05-28T09:06:38Z</time>
      </trkpt>
      <trkpt lat="42.68639" lon="1.56523">
        <ele>1851.6364746094</ele>
        <time>2011-05-28T09:06:44Z</time>
      </trkpt>
      <trkpt lat="42.68636" lon="1.56518">
        <ele>1852.5979003906</ele>
        <time>2011-05-28T09:06:51Z</time>
      </trkpt>
      <trkpt lat="42.68635" lon="1.56516">
        <ele>1852.5979003906</ele>
        <time>2011-05-28T09:06:57Z</time>
      </trkpt>
      <trkpt lat="42.68634" lon="1.56517">
        <ele>1852.1171875</ele>
        <time>2011-05-28T09:07:15Z</time>
      </trkpt>
      <trkpt lat="42.68634" lon="1.56516">
        <ele>1850.6750488281</ele>
        <time>2011-05-28T09:07:32Z</time>
      </trkpt>
      <trkpt lat="42.68634" lon="1.56515">
        <ele>1853.0786132812</ele>
        <time>2011-05-28T09:08:43Z</time>
      </trkpt>
      <trkpt lat="42.68634" lon="1.56515">
        <ele>1851.6364746094</ele>
        <time>2011-05-28T09:08:58Z</time>
      </trkpt>
      <trkpt lat="42.68637" lon="1.56513">
        <ele>1853.0786132812</ele>
        <time>2011-05-28T09:09:10Z</time>
      </trkpt>
      <trkpt lat="42.68636" lon="1.56509">
        <ele>1853.5593261719</ele>
        <time>2011-05-28T09:09:19Z</time>
      </trkpt>
      <trkpt lat="42.68637" lon="1.56505">
        <ele>1855.4819335938</ele>
        <time>2011-05-28T09:09:25Z</time>
      </trkpt>
      <trkpt lat="42.68636" lon="1.565">
        <ele>1856.923828125</ele>
        <time>2011-05-28T09:09:30Z</time>
      </trkpt>
      <trkpt lat="42.68634" lon="1.56497">
        <ele>1856.923828125</ele>
        <time>2011-05-28T09:09:36Z</time>
      </trkpt>
      <trkpt lat="42.68631" lon="1.56492">
        <ele>1857.8852539062</ele>
        <time>2011-05-28T09:09:43Z</time>
      </trkpt>
      <trkpt lat="42.68626" lon="1.56486">
        <ele>1858.8464355469</ele>
        <time>2011-05-28T09:09:50Z</time>
      </trkpt>
      <trkpt lat="42.68621" lon="1.56481">
        <ele>1859.8076171875</ele>
        <time>2011-05-28T09:09:57Z</time>
      </trkpt>
      <trkpt lat="42.6862" lon="1.56476">
        <ele>1861.2497558594</ele>
        <time>2011-05-28T09:10:03Z</time>
      </trkpt>
      <trkpt lat="42.68614" lon="1.56472">
        <ele>1862.6916503906</ele>
        <time>2011-05-28T09:10:11Z</time>
      </trkpt>
      <trkpt lat="42.68608" lon="1.56466">
        <ele>1863.1723632812</ele>
        <time>2011-05-28T09:10:18Z</time>
      </trkpt>
      <trkpt lat="42.68602" lon="1.56461">
        <ele>1865.0949707031</ele>
        <time>2011-05-28T09:10:26Z</time>
      </trkpt>
      <trkpt lat="42.68597" lon="1.56459">
        <ele>1867.017578125</ele>
        <time>2011-05-28T09:10:34Z</time>
      </trkpt>
      <trkpt lat="42.68597" lon="1.56456">
        <ele>1867.9787597656</ele>
        <time>2011-05-28T09:10:38Z</time>
      </trkpt>
      <trkpt lat="42.68593" lon="1.56452">
        <ele>1869.4211425781</ele>
        <time>2011-05-28T09:10:45Z</time>
      </trkpt>
      <trkpt lat="42.68589" lon="1.56452">
        <ele>1870.8630371094</ele>
        <time>2011-05-28T09:10:51Z</time>
      </trkpt>
      <trkpt lat="42.68586" lon="1.56451">
        <ele>1872.3049316406</ele>
        <time>2011-05-28T09:10:56Z</time>
      </trkpt>
      <trkpt lat="42.6858" lon="1.56449">
        <ele>1873.7468261719</ele>
        <time>2011-05-28T09:11:03Z</time>
      </trkpt>
      <trkpt lat="42.68576" lon="1.56444">
        <ele>1874.2275390625</ele>
        <time>2011-05-28T09:11:09Z</time>
      </trkpt>
      <trkpt lat="42.68572" lon="1.56438">
        <ele>1874.7082519531</ele>
        <time>2011-05-28T09:11:16Z</time>
      </trkpt>
      <trkpt lat="42.68568" lon="1.56432">
        <ele>1875.6694335938</ele>
        <time>2011-05-28T09:11:22Z</time>
      </trkpt>
      <trkpt lat="42.68566" lon="1.56424">
        <ele>1876.630859375</ele>
        <time>2011-05-28T09:11:29Z</time>
      </trkpt>
      <trkpt lat="42.68563" lon="1.56418">
        <ele>1877.5920410156</ele>
        <time>2011-05-28T09:11:34Z</time>
      </trkpt>
      <trkpt lat="42.6856" lon="1.5641">
        <ele>1879.0339355469</ele>
        <time>2011-05-28T09:11:41Z</time>
      </trkpt>
      <trkpt lat="42.68557" lon="1.56403">
        <ele>1880.4760742188</ele>
        <time>2011-05-28T09:11:48Z</time>
      </trkpt>
      <trkpt lat="42.68554" lon="1.56394">
        <ele>1882.3986816406</ele>
        <time>2011-05-28T09:11:56Z</time>
      </trkpt>
      <trkpt lat="42.6855" lon="1.56394">
        <ele>1883.3598632812</ele>
        <time>2011-05-28T09:12:02Z</time>
      </trkpt>
      <trkpt lat="42.68547" lon="1.56395">
        <ele>1883.8405761719</ele>
        <time>2011-05-28T09:12:08Z</time>
      </trkpt>
      <trkpt lat="42.68546" lon="1.56393">
        <ele>1884.8022460938</ele>
        <time>2011-05-28T09:12:14Z</time>
      </trkpt>
      <trkpt lat="42.68548" lon="1.56388">
        <ele>1885.2827148438</ele>
        <time>2011-05-28T09:12:19Z</time>
      </trkpt>
      <trkpt lat="42.6855" lon="1.56381">
        <ele>1887.2053222656</ele>
        <time>2011-05-28T09:12:25Z</time>
      </trkpt>
      <trkpt lat="42.68545" lon="1.56376">
        <ele>1888.6474609375</ele>
        <time>2011-05-28T09:12:32Z</time>
      </trkpt>
      <trkpt lat="42.6854" lon="1.56372">
        <ele>1890.0893554688</ele>
        <time>2011-05-28T09:12:39Z</time>
      </trkpt>
      <trkpt lat="42.68539" lon="1.56366">
        <ele>1891.53125</ele>
        <time>2011-05-28T09:12:45Z</time>
      </trkpt>
      <trkpt lat="42.68539" lon="1.56366">
        <ele>1892.0119628906</ele>
        <time>2011-05-28T09:12:53Z</time>
      </trkpt>
      <trkpt lat="42.68537" lon="1.56361">
        <ele>1892.9731445312</ele>
        <time>2011-05-28T09:13:01Z</time>
      </trkpt>
      <trkpt lat="42.68535" lon="1.56353">
        <ele>1894.8957519531</ele>
        <time>2011-05-28T09:13:08Z</time>
      </trkpt>
      <trkpt lat="42.68536" lon="1.56346">
        <ele>1896.337890625</ele>
        <time>2011-05-28T09:13:14Z</time>
      </trkpt>
      <trkpt lat="42.68538" lon="1.56343">
        <ele>1896.337890625</ele>
        <time>2011-05-28T09:13:21Z</time>
      </trkpt>
      <trkpt lat="42.68539" lon="1.56342">
        <ele>1895.8571777344</ele>
        <time>2011-05-28T09:13:27Z</time>
      </trkpt>
      <trkpt lat="42.68538" lon="1.56337">
        <ele>1896.337890625</ele>
        <time>2011-05-28T09:13:32Z</time>
      </trkpt>
      <trkpt lat="42.6853" lon="1.56332">
        <ele>1896.337890625</ele>
        <time>2011-05-28T09:13:40Z</time>
      </trkpt>
      <trkpt lat="42.68526" lon="1.56328">
        <ele>1896.818359375</ele>
        <time>2011-05-28T09:13:47Z</time>
      </trkpt>
      <trkpt lat="42.68525" lon="1.56322">
        <ele>1896.818359375</ele>
        <time>2011-05-28T09:13:54Z</time>
      </trkpt>
      <trkpt lat="42.68524" lon="1.56319">
        <ele>1896.818359375</ele>
        <time>2011-05-28T09:14:01Z</time>
      </trkpt>
      <trkpt lat="42.68523" lon="1.56319">
        <ele>1896.337890625</ele>
        <time>2011-05-28T09:14:07Z</time>
      </trkpt>
      <trkpt lat="42.68524" lon="1.56317">
        <ele>1896.818359375</ele>
        <time>2011-05-28T09:14:21Z</time>
      </trkpt>
      <trkpt lat="42.68525" lon="1.56317">
        <ele>1895.8571777344</ele>
        <time>2011-05-28T09:14:38Z</time>
      </trkpt>
      <trkpt lat="42.68526" lon="1.56314">
        <ele>1895.3764648438</ele>
        <time>2011-05-28T09:14:43Z</time>
      </trkpt>
      <trkpt lat="42.68528" lon="1.56312">
        <ele>1895.3764648438</ele>
        <time>2011-05-28T09:14:48Z</time>
      </trkpt>
      <trkpt lat="42.68531" lon="1.56307">
        <ele>1895.3764648438</ele>
        <time>2011-05-28T09:14:52Z</time>
      </trkpt>
      <trkpt lat="42.68536" lon="1.56297">
        <ele>1896.337890625</ele>
        <time>2011-05-28T09:15:00Z</time>
      </trkpt>
      <trkpt lat="42.68539" lon="1.56289">
        <ele>1897.2990722656</ele>
        <time>2011-05-28T09:15:07Z</time>
      </trkpt>
      <trkpt lat="42.68538" lon="1.56281">
        <ele>1897.7797851562</ele>
        <time>2011-05-28T09:15:14Z</time>
      </trkpt>
      <trkpt lat="42.68538" lon="1.56276">
        <ele>1898.2602539062</ele>
        <time>2011-05-28T09:15:19Z</time>
      </trkpt>
      <trkpt lat="42.68543" lon="1.5627">
        <ele>1899.7023925781</ele>
        <time>2011-05-28T09:15:27Z</time>
      </trkpt>
      <trkpt lat="42.68544" lon="1.56264">
        <ele>1900.1833496094</ele>
        <time>2011-05-28T09:15:32Z</time>
      </trkpt>
      <trkpt lat="42.68545" lon="1.56262">
        <ele>1900.1833496094</ele>
        <time>2011-05-28T09:15:39Z</time>
      </trkpt>
      <trkpt lat="42.68546" lon="1.5626">
        <ele>1900.6638183594</ele>
        <time>2011-05-28T09:15:46Z</time>
      </trkpt>
      <trkpt lat="42.68547" lon="1.56261">
        <ele>1899.7023925781</ele>
        <time>2011-05-28T09:15:55Z</time>
      </trkpt>
      <trkpt lat="42.68547" lon="1.56261">
        <ele>1899.7023925781</ele>
        <time>2011-05-28T09:16:07Z</time>
      </trkpt>
      <trkpt lat="42.68548" lon="1.56256">
        <ele>1900.1833496094</ele>
        <time>2011-05-28T09:16:14Z</time>
      </trkpt>
      <trkpt lat="42.68551" lon="1.56248">
        <ele>1903.0671386719</ele>
        <time>2011-05-28T09:16:22Z</time>
      </trkpt>
      <trkpt lat="42.68554" lon="1.56244">
        <ele>1905.4704589844</ele>
        <time>2011-05-28T09:16:29Z</time>
      </trkpt>
      <trkpt lat="42.68557" lon="1.5624">
        <ele>1906.9123535156</ele>
        <time>2011-05-28T09:16:35Z</time>
      </trkpt>
      <trkpt lat="42.68559" lon="1.56235">
        <ele>1908.3542480469</ele>
        <time>2011-05-28T09:16:41Z</time>
      </trkpt>
      <trkpt lat="42.68562" lon="1.56231">
        <ele>1910.2768554688</ele>
        <time>2011-05-28T09:16:48Z</time>
      </trkpt>
      <trkpt lat="42.68565" lon="1.56226">
        <ele>1913.1608886719</ele>
        <time>2011-05-28T09:16:57Z</time>
      </trkpt>
      <trkpt lat="42.68568" lon="1.5622">
        <ele>1915.0834960938</ele>
        <time>2011-05-28T09:17:06Z</time>
      </trkpt>
      <trkpt lat="42.68571" lon="1.56215">
        <ele>1917.0063476562</ele>
        <time>2011-05-28T09:17:14Z</time>
      </trkpt>
      <trkpt lat="42.68573" lon="1.5622">
        <ele>1917.0063476562</ele>
        <time>2011-05-28T09:17:20Z</time>
      </trkpt>
      <trkpt lat="42.68575" lon="1.56219">
        <ele>1917.9675292969</ele>
        <time>2011-05-28T09:17:25Z</time>
      </trkpt>
      <trkpt lat="42.68576" lon="1.56213">
        <ele>1919.8901367188</ele>
        <time>2011-05-28T09:17:31Z</time>
      </trkpt>
      <trkpt lat="42.68578" lon="1.56206">
        <ele>1922.7741699219</ele>
        <time>2011-05-28T09:17:38Z</time>
      </trkpt>
      <trkpt lat="42.6858" lon="1.56199">
        <ele>1924.2160644531</ele>
        <time>2011-05-28T09:17:45Z</time>
      </trkpt>
      <trkpt lat="42.68583" lon="1.56195">
        <ele>1925.1772460938</ele>
        <time>2011-05-28T09:17:53Z</time>
      </trkpt>
      <trkpt lat="42.68586" lon="1.56192">
        <ele>1927.1000976562</ele>
        <time>2011-05-28T09:18:00Z</time>
      </trkpt>
      <trkpt lat="42.68587" lon="1.56188">
        <ele>1928.5419921875</ele>
        <time>2011-05-28T09:18:06Z</time>
      </trkpt>
      <trkpt lat="42.6859" lon="1.56187">
        <ele>1928.5419921875</ele>
        <time>2011-05-28T09:18:14Z</time>
      </trkpt>
      <trkpt lat="42.68592" lon="1.56186">
        <ele>1929.5031738281</ele>
        <time>2011-05-28T09:18:19Z</time>
      </trkpt>
      <trkpt lat="42.68595" lon="1.56179">
        <ele>1931.9064941406</ele>
        <time>2011-05-28T09:18:27Z</time>
      </trkpt>
      <trkpt lat="42.68599" lon="1.56174">
        <ele>1934.7907714844</ele>
        <time>2011-05-28T09:18:36Z</time>
      </trkpt>
      <trkpt lat="42.68602" lon="1.56168">
        <ele>1937.1938476562</ele>
        <time>2011-05-28T09:18:43Z</time>
      </trkpt>
      <trkpt lat="42.68605" lon="1.56165">
        <ele>1939.1164550781</ele>
        <time>2011-05-28T09:18:50Z</time>
      </trkpt>
      <trkpt lat="42.68605" lon="1.56164">
        <ele>1939.5971679688</ele>
        <time>2011-05-28T09:18:59Z</time>
      </trkpt>
      <trkpt lat="42.68608" lon="1.56163">
        <ele>1940.0778808594</ele>
        <time>2011-05-28T09:19:06Z</time>
      </trkpt>
      <trkpt lat="42.68611" lon="1.56163">
        <ele>1941.5197753906</ele>
        <time>2011-05-28T09:19:12Z</time>
      </trkpt>
      <trkpt lat="42.68612" lon="1.56168">
        <ele>1942.4812011719</ele>
        <time>2011-05-28T09:19:18Z</time>
      </trkpt>
      <trkpt lat="42.68613" lon="1.56175">
        <ele>1943.4423828125</ele>
        <time>2011-05-28T09:19:25Z</time>
      </trkpt>
      <trkpt lat="42.68614" lon="1.56183">
        <ele>1944.8842773438</ele>
        <time>2011-05-28T09:19:33Z</time>
      </trkpt>
      <trkpt lat="42.68617" lon="1.56184">
        <ele>1946.8068847656</ele>
        <time>2011-05-28T09:19:39Z</time>
      </trkpt>
      <trkpt lat="42.68618" lon="1.56177">
        <ele>1948.7297363281</ele>
        <time>2011-05-28T09:19:46Z</time>
      </trkpt>
      <trkpt lat="42.68622" lon="1.56171">
        <ele>1951.1330566406</ele>
        <time>2011-05-28T09:19:53Z</time>
      </trkpt>
      <trkpt lat="42.68625" lon="1.5617">
        <ele>1952.5749511719</ele>
        <time>2011-05-28T09:19:59Z</time>
      </trkpt>
      <trkpt lat="42.68625" lon="1.56173">
        <ele>1953.0556640625</ele>
        <time>2011-05-28T09:20:05Z</time>
      </trkpt>
      <trkpt lat="42.68625" lon="1.56177">
        <ele>1954.0170898438</ele>
        <time>2011-05-28T09:20:23Z</time>
      </trkpt>
      <trkpt lat="42.68627" lon="1.5618">
        <ele>1956.4201660156</ele>
        <time>2011-05-28T09:20:29Z</time>
      </trkpt>
      <trkpt lat="42.68631" lon="1.56176">
        <ele>1958.3427734375</ele>
        <time>2011-05-28T09:20:36Z</time>
      </trkpt>
      <trkpt lat="42.68635" lon="1.56171">
        <ele>1960.2653808594</ele>
        <time>2011-05-28T09:20:43Z</time>
      </trkpt>
      <trkpt lat="42.6864" lon="1.56165">
        <ele>1962.1879882812</ele>
        <time>2011-05-28T09:20:50Z</time>
      </trkpt>
      <trkpt lat="42.68643" lon="1.56162">
        <ele>1964.1108398438</ele>
        <time>2011-05-28T09:20:57Z</time>
      </trkpt>
      <trkpt lat="42.68646" lon="1.56158">
        <ele>1968.4367675781</ele>
        <time>2011-05-28T09:21:03Z</time>
      </trkpt>
      <trkpt lat="42.68648" lon="1.56154">
        <ele>1969.3981933594</ele>
        <time>2011-05-28T09:21:08Z</time>
      </trkpt>
      <trkpt lat="42.6865" lon="1.56151">
        <ele>1970.359375</ele>
        <time>2011-05-28T09:21:13Z</time>
      </trkpt>
      <trkpt lat="42.68652" lon="1.56143">
        <ele>1970.8400878906</ele>
        <time>2011-05-28T09:21:20Z</time>
      </trkpt>
      <trkpt lat="42.68655" lon="1.56137">
        <ele>1972.2819824219</ele>
        <time>2011-05-28T09:21:27Z</time>
      </trkpt>
      <trkpt lat="42.68656" lon="1.56126">
        <ele>1973.7238769531</ele>
        <time>2011-05-28T09:21:36Z</time>
      </trkpt>
      <trkpt lat="42.68658" lon="1.56117">
        <ele>1975.646484375</ele>
        <time>2011-05-28T09:21:45Z</time>
      </trkpt>
      <trkpt lat="42.68661" lon="1.5611">
        <ele>1978.0498046875</ele>
        <time>2011-05-28T09:21:55Z</time>
      </trkpt>
      <trkpt lat="42.68662" lon="1.56102">
        <ele>1979.9724121094</ele>
        <time>2011-05-28T09:22:03Z</time>
      </trkpt>
      <trkpt lat="42.68664" lon="1.56097">
        <ele>1981.8952636719</ele>
        <time>2011-05-28T09:22:10Z</time>
      </trkpt>
      <trkpt lat="42.68666" lon="1.56094">
        <ele>1982.3759765625</ele>
        <time>2011-05-28T09:22:16Z</time>
      </trkpt>
      <trkpt lat="42.68671" lon="1.56098">
        <ele>1982.3759765625</ele>
        <time>2011-05-28T09:22:23Z</time>
      </trkpt>
      <trkpt lat="42.68673" lon="1.56102">
        <ele>1982.8564453125</ele>
        <time>2011-05-28T09:22:29Z</time>
      </trkpt>
      <trkpt lat="42.68675" lon="1.56107">
        <ele>1983.8178710938</ele>
        <time>2011-05-28T09:22:35Z</time>
      </trkpt>
      <trkpt lat="42.68679" lon="1.56114">
        <ele>1987.1823730469</ele>
        <time>2011-05-28T09:22:44Z</time>
      </trkpt>
      <trkpt lat="42.68682" lon="1.56111">
        <ele>1989.5856933594</ele>
        <time>2011-05-28T09:22:50Z</time>
      </trkpt>
      <trkpt lat="42.68684" lon="1.56108">
        <ele>1991.0275878906</ele>
        <time>2011-05-28T09:22:56Z</time>
      </trkpt>
      <trkpt lat="42.68685" lon="1.56103">
        <ele>1992.9501953125</ele>
        <time>2011-05-28T09:23:02Z</time>
      </trkpt>
      <trkpt lat="42.68686" lon="1.56097">
        <ele>1994.3920898438</ele>
        <time>2011-05-28T09:23:09Z</time>
      </trkpt>
      <trkpt lat="42.68688" lon="1.56091">
        <ele>1995.8342285156</ele>
        <time>2011-05-28T09:23:16Z</time>
      </trkpt>
      <trkpt lat="42.68689" lon="1.56085">
        <ele>1997.2763671875</ele>
        <time>2011-05-28T09:23:23Z</time>
      </trkpt>
      <trkpt lat="42.6869" lon="1.56075">
        <ele>2000.6408691406</ele>
        <time>2011-05-28T09:23:33Z</time>
      </trkpt>
      <trkpt lat="42.6869" lon="1.56069">
        <ele>2003.0441894531</ele>
        <time>2011-05-28T09:23:39Z</time>
      </trkpt>
      <trkpt lat="42.68693" lon="1.5607">
        <ele>2003.5249023438</ele>
        <time>2011-05-28T09:23:44Z</time>
      </trkpt>
      <trkpt lat="42.68697" lon="1.56074">
        <ele>2004.0056152344</ele>
        <time>2011-05-28T09:23:51Z</time>
      </trkpt>
      <trkpt lat="42.687" lon="1.56076">
        <ele>2004.4860839844</ele>
        <time>2011-05-28T09:23:58Z</time>
      </trkpt>
      <trkpt lat="42.68705" lon="1.56081">
        <ele>2005.9279785156</ele>
        <time>2011-05-28T09:24:05Z</time>
      </trkpt>
      <trkpt lat="42.68708" lon="1.5608">
        <ele>2008.3312988281</ele>
        <time>2011-05-28T09:24:13Z</time>
      </trkpt>
      <trkpt lat="42.68711" lon="1.56078">
        <ele>2010.25390625</ele>
        <time>2011-05-28T09:24:19Z</time>
      </trkpt>
      <trkpt lat="42.68713" lon="1.5608">
        <ele>2012.1767578125</ele>
        <time>2011-05-28T09:24:26Z</time>
      </trkpt>
      <trkpt lat="42.68716" lon="1.56076">
        <ele>2014.580078125</ele>
        <time>2011-05-28T09:24:33Z</time>
      </trkpt>
      <trkpt lat="42.68718" lon="1.56069">
        <ele>2016.5026855469</ele>
        <time>2011-05-28T09:24:40Z</time>
      </trkpt>
      <trkpt lat="42.6872" lon="1.56072">
        <ele>2016.5026855469</ele>
        <time>2011-05-28T09:24:45Z</time>
      </trkpt>
      <trkpt lat="42.68723" lon="1.56075">
        <ele>2016.9833984375</ele>
        <time>2011-05-28T09:24:51Z</time>
      </trkpt>
      <trkpt lat="42.68724" lon="1.56074">
        <ele>2017.9445800781</ele>
        <time>2011-05-28T09:24:59Z</time>
      </trkpt>
      <trkpt lat="42.68726" lon="1.56067">
        <ele>2020.3479003906</ele>
        <time>2011-05-28T09:25:07Z</time>
      </trkpt>
      <trkpt lat="42.68726" lon="1.56058">
        <ele>2022.7512207031</ele>
        <time>2011-05-28T09:25:15Z</time>
      </trkpt>
      <trkpt lat="42.68728" lon="1.56052">
        <ele>2025.154296875</ele>
        <time>2011-05-28T09:25:22Z</time>
      </trkpt>
      <trkpt lat="42.68731" lon="1.56055">
        <ele>2026.5964355469</ele>
        <time>2011-05-28T09:25:28Z</time>
      </trkpt>
      <trkpt lat="42.68733" lon="1.5606">
        <ele>2026.5964355469</ele>
        <time>2011-05-28T09:25:34Z</time>
      </trkpt>
      <trkpt lat="42.68734" lon="1.56063">
        <ele>2027.0771484375</ele>
        <time>2011-05-28T09:25:39Z</time>
      </trkpt>
      <trkpt lat="42.68734" lon="1.56067">
        <ele>2027.5576171875</ele>
        <time>2011-05-28T09:25:45Z</time>
      </trkpt>
      <trkpt lat="42.68734" lon="1.56074">
        <ele>2028.9997558594</ele>
        <time>2011-05-28T09:25:52Z</time>
      </trkpt>
      <trkpt lat="42.68738" lon="1.56071">
        <ele>2031.8837890625</ele>
        <time>2011-05-28T09:25:58Z</time>
      </trkpt>
      <trkpt lat="42.6874" lon="1.56067">
        <ele>2033.3256835938</ele>
        <time>2011-05-28T09:26:04Z</time>
      </trkpt>
      <trkpt lat="42.68744" lon="1.56065">
        <ele>2035.7290039062</ele>
        <time>2011-05-28T09:26:11Z</time>
      </trkpt>
      <trkpt lat="42.68745" lon="1.5607">
        <ele>2036.6901855469</ele>
        <time>2011-05-28T09:26:17Z</time>
      </trkpt>
      <trkpt lat="42.68746" lon="1.56075">
        <ele>2037.6516113281</ele>
        <time>2011-05-28T09:26:23Z</time>
      </trkpt>
      <trkpt lat="42.68749" lon="1.56078">
        <ele>2039.57421875</ele>
        <time>2011-05-28T09:26:29Z</time>
      </trkpt>
      <trkpt lat="42.68753" lon="1.5608">
        <ele>2041.9775390625</ele>
        <time>2011-05-28T09:26:36Z</time>
      </trkpt>
      <trkpt lat="42.68755" lon="1.56076">
        <ele>2042.4582519531</ele>
        <time>2011-05-28T09:26:41Z</time>
      </trkpt>
      <trkpt lat="42.68755" lon="1.5607">
        <ele>2043.9001464844</ele>
        <time>2011-05-28T09:26:48Z</time>
      </trkpt>
      <trkpt lat="42.68758" lon="1.56068">
        <ele>2045.3422851562</ele>
        <time>2011-05-28T09:26:53Z</time>
      </trkpt>
      <trkpt lat="42.68763" lon="1.5607">
        <ele>2047.2648925781</ele>
        <time>2011-05-28T09:27:01Z</time>
      </trkpt>
      <trkpt lat="42.68766" lon="1.56067">
        <ele>2049.1875</ele>
        <time>2011-05-28T09:27:08Z</time>
      </trkpt>
      <trkpt lat="42.68768" lon="1.56063">
        <ele>2050.6293945312</ele>
        <time>2011-05-28T09:27:14Z</time>
      </trkpt>
      <trkpt lat="42.68773" lon="1.56058">
        <ele>2052.0712890625</ele>
        <time>2011-05-28T09:27:22Z</time>
      </trkpt>
      <trkpt lat="42.68776" lon="1.56053">
        <ele>2053.0327148438</ele>
        <time>2011-05-28T09:27:28Z</time>
      </trkpt>
      <trkpt lat="42.68776" lon="1.5605">
        <ele>2054.9553222656</ele>
        <time>2011-05-28T09:27:34Z</time>
      </trkpt>
      <trkpt lat="42.68778" lon="1.56046">
        <ele>2056.3972167969</ele>
        <time>2011-05-28T09:27:41Z</time>
      </trkpt>
      <trkpt lat="42.68782" lon="1.56046">
        <ele>2056.8779296875</ele>
        <time>2011-05-28T09:27:48Z</time>
      </trkpt>
      <trkpt lat="42.68789" lon="1.56045">
        <ele>2057.8393554688</ele>
        <time>2011-05-28T09:27:56Z</time>
      </trkpt>
      <trkpt lat="42.68795" lon="1.56041">
        <ele>2059.76171875</ele>
        <time>2011-05-28T09:28:04Z</time>
      </trkpt>
      <trkpt lat="42.688" lon="1.56038">
        <ele>2060.7233886719</ele>
        <time>2011-05-28T09:28:11Z</time>
      </trkpt>
      <trkpt lat="42.68805" lon="1.56035">
        <ele>2063.1267089844</ele>
        <time>2011-05-28T09:28:20Z</time>
      </trkpt>
      <trkpt lat="42.68808" lon="1.56032">
        <ele>2064.087890625</ele>
        <time>2011-05-28T09:28:27Z</time>
      </trkpt>
      <trkpt lat="42.68811" lon="1.56031">
        <ele>2065.0493164062</ele>
        <time>2011-05-28T09:28:34Z</time>
      </trkpt>
      <trkpt lat="42.68814" lon="1.56029">
        <ele>2065.5300292969</ele>
        <time>2011-05-28T09:28:41Z</time>
      </trkpt>
      <trkpt lat="42.68819" lon="1.56028">
        <ele>2065.5300292969</ele>
        <time>2011-05-28T09:28:48Z</time>
      </trkpt>
      <trkpt lat="42.68822" lon="1.56026">
        <ele>2065.0493164062</ele>
        <time>2011-05-28T09:28:53Z</time>
      </trkpt>
      <trkpt lat="42.68827" lon="1.56024">
        <ele>2065.0493164062</ele>
        <time>2011-05-28T09:28:59Z</time>
      </trkpt>
      <trkpt lat="42.68833" lon="1.56025">
        <ele>2066.9719238281</ele>
        <time>2011-05-28T09:29:07Z</time>
      </trkpt>
      <trkpt lat="42.68839" lon="1.56022">
        <ele>2067.4523925781</ele>
        <time>2011-05-28T09:29:14Z</time>
      </trkpt>
      <trkpt lat="42.68846" lon="1.56017">
        <ele>2067.9331054688</ele>
        <time>2011-05-28T09:29:22Z</time>
      </trkpt>
      <trkpt lat="42.6885" lon="1.56012">
        <ele>2067.9331054688</ele>
        <time>2011-05-28T09:29:29Z</time>
      </trkpt>
      <trkpt lat="42.68856" lon="1.56008">
        <ele>2068.4138183594</ele>
        <time>2011-05-28T09:29:36Z</time>
      </trkpt>
      <trkpt lat="42.68863" lon="1.56006">
        <ele>2071.7783203125</ele>
        <time>2011-05-28T09:29:44Z</time>
      </trkpt>
      <trkpt lat="42.68869" lon="1.56005">
        <ele>2074.181640625</ele>
        <time>2011-05-28T09:29:51Z</time>
      </trkpt>
      <trkpt lat="42.68876" lon="1.56004">
        <ele>2076.5852050781</ele>
        <time>2011-05-28T09:30:01Z</time>
      </trkpt>
      <trkpt lat="42.68882" lon="1.56001">
        <ele>2077.5463867188</ele>
        <time>2011-05-28T09:30:09Z</time>
      </trkpt>
      <trkpt lat="42.68888" lon="1.55999">
        <ele>2078.5078125</ele>
        <time>2011-05-28T09:30:16Z</time>
      </trkpt>
      <trkpt lat="42.68895" lon="1.55996">
        <ele>2078.98828125</ele>
        <time>2011-05-28T09:30:24Z</time>
      </trkpt>
      <trkpt lat="42.68903" lon="1.55991">
        <ele>2078.98828125</ele>
        <time>2011-05-28T09:30:33Z</time>
      </trkpt>
      <trkpt lat="42.68911" lon="1.55986">
        <ele>2079.9497070312</ele>
        <time>2011-05-28T09:30:43Z</time>
      </trkpt>
      <trkpt lat="42.68916" lon="1.55982">
        <ele>2081.8723144531</ele>
        <time>2011-05-28T09:30:51Z</time>
      </trkpt>
      <trkpt lat="42.68921" lon="1.55978">
        <ele>2082.3530273438</ele>
        <time>2011-05-28T09:30:58Z</time>
      </trkpt>
      <trkpt lat="42.68926" lon="1.55975">
        <ele>2083.794921875</ele>
        <time>2011-05-28T09:31:05Z</time>
      </trkpt>
      <trkpt lat="42.68932" lon="1.55972">
        <ele>2084.7563476562</ele>
        <time>2011-05-28T09:31:12Z</time>
      </trkpt>
      <trkpt lat="42.68937" lon="1.55968">
        <ele>2085.7175292969</ele>
        <time>2011-05-28T09:31:19Z</time>
      </trkpt>
      <trkpt lat="42.68942" lon="1.55965">
        <ele>2087.1594238281</ele>
        <time>2011-05-28T09:31:26Z</time>
      </trkpt>
      <trkpt lat="42.68948" lon="1.55962">
        <ele>2088.6015625</ele>
        <time>2011-05-28T09:31:35Z</time>
      </trkpt>
      <trkpt lat="42.68954" lon="1.55956">
        <ele>2089.5627441406</ele>
        <time>2011-05-28T09:31:43Z</time>
      </trkpt>
      <trkpt lat="42.68956" lon="1.5595">
        <ele>2091.9660644531</ele>
        <time>2011-05-28T09:31:51Z</time>
      </trkpt>
      <trkpt lat="42.68956" lon="1.55943">
        <ele>2096.7727050781</ele>
        <time>2011-05-28T09:31:57Z</time>
      </trkpt>
      <trkpt lat="42.68958" lon="1.55935">
        <ele>2097.7341308594</ele>
        <time>2011-05-28T09:32:05Z</time>
      </trkpt>
      <trkpt lat="42.68961" lon="1.55929">
        <ele>2100.6179199219</ele>
        <time>2011-05-28T09:32:13Z</time>
      </trkpt>
      <trkpt lat="42.68964" lon="1.55926">
        <ele>2103.501953125</ele>
        <time>2011-05-28T09:32:19Z</time>
      </trkpt>
      <trkpt lat="42.68966" lon="1.55921">
        <ele>2105.4245605469</ele>
        <time>2011-05-28T09:32:25Z</time>
      </trkpt>
      <trkpt lat="42.68969" lon="1.55918">
        <ele>2106.3857421875</ele>
        <time>2011-05-28T09:32:30Z</time>
      </trkpt>
      <trkpt lat="42.68974" lon="1.55912">
        <ele>2108.7893066406</ele>
        <time>2011-05-28T09:32:37Z</time>
      </trkpt>
      <trkpt lat="42.68975" lon="1.55905">
        <ele>2109.7504882812</ele>
        <time>2011-05-28T09:32:45Z</time>
      </trkpt>
      <trkpt lat="42.68977" lon="1.55901">
        <ele>2111.6733398438</ele>
        <time>2011-05-28T09:32:50Z</time>
      </trkpt>
      <trkpt lat="42.68981" lon="1.55896">
        <ele>2111.6733398438</ele>
        <time>2011-05-28T09:32:55Z</time>
      </trkpt>
      <trkpt lat="42.68982" lon="1.55895">
        <ele>2111.1926269531</ele>
        <time>2011-05-28T09:33:01Z</time>
      </trkpt>
      <trkpt lat="42.68986" lon="1.55891">
        <ele>2110.7119140625</ele>
        <time>2011-05-28T09:33:08Z</time>
      </trkpt>
      <trkpt lat="42.68993" lon="1.55888">
        <ele>2110.2312011719</ele>
        <time>2011-05-28T09:33:15Z</time>
      </trkpt>
      <trkpt lat="42.69" lon="1.55883">
        <ele>2110.7119140625</ele>
        <time>2011-05-28T09:33:24Z</time>
      </trkpt>
      <trkpt lat="42.69004" lon="1.55879">
        <ele>2109.7504882812</ele>
        <time>2011-05-28T09:33:30Z</time>
      </trkpt>
      <trkpt lat="42.69007" lon="1.55875">
        <ele>2109.7504882812</ele>
        <time>2011-05-28T09:33:37Z</time>
      </trkpt>
      <trkpt lat="42.69012" lon="1.55869">
        <ele>2111.6733398438</ele>
        <time>2011-05-28T09:33:45Z</time>
      </trkpt>
      <trkpt lat="42.69017" lon="1.55862">
        <ele>2112.6345214844</ele>
        <time>2011-05-28T09:33:53Z</time>
      </trkpt>
      <trkpt lat="42.69017" lon="1.55857">
        <ele>2113.115234375</ele>
        <time>2011-05-28T09:33:59Z</time>
      </trkpt>
      <trkpt lat="42.69017" lon="1.55856">
        <ele>2113.595703125</ele>
        <time>2011-05-28T09:34:03Z</time>
      </trkpt>
      <trkpt lat="42.69022" lon="1.55859">
        <ele>2113.115234375</ele>
        <time>2011-05-28T09:34:08Z</time>
      </trkpt>
      <trkpt lat="42.69025" lon="1.55855">
        <ele>2113.595703125</ele>
        <time>2011-05-28T09:34:13Z</time>
      </trkpt>
      <trkpt lat="42.69025" lon="1.55848">
        <ele>2114.5571289062</ele>
        <time>2011-05-28T09:34:20Z</time>
      </trkpt>
      <trkpt lat="42.69026" lon="1.55846">
        <ele>2114.5571289062</ele>
        <time>2011-05-28T09:34:26Z</time>
      </trkpt>
      <trkpt lat="42.69026" lon="1.55839">
        <ele>2115.5185546875</ele>
        <time>2011-05-28T09:34:32Z</time>
      </trkpt>
      <trkpt lat="42.69026" lon="1.55834">
        <ele>2116.9604492188</ele>
        <time>2011-05-28T09:34:37Z</time>
      </trkpt>
      <trkpt lat="42.69025" lon="1.55831">
        <ele>2117.4409179688</ele>
        <time>2011-05-28T09:34:44Z</time>
      </trkpt>
      <trkpt lat="42.69025" lon="1.55824">
        <ele>2118.8830566406</ele>
        <time>2011-05-28T09:34:51Z</time>
      </trkpt>
      <trkpt lat="42.69026" lon="1.55814">
        <ele>2121.7668457031</ele>
        <time>2011-05-28T09:35:00Z</time>
      </trkpt>
      <trkpt lat="42.69026" lon="1.55806">
        <ele>2123.689453125</ele>
        <time>2011-05-28T09:35:07Z</time>
      </trkpt>
      <trkpt lat="42.69026" lon="1.55799">
        <ele>2125.6123046875</ele>
        <time>2011-05-28T09:35:14Z</time>
      </trkpt>
      <trkpt lat="42.69028" lon="1.55793">
        <ele>2127.5349121094</ele>
        <time>2011-05-28T09:35:20Z</time>
      </trkpt>
      <trkpt lat="42.6903" lon="1.55789">
        <ele>2128.4963378906</ele>
        <time>2011-05-28T09:35:25Z</time>
      </trkpt>
      <trkpt lat="42.69032" lon="1.55784">
        <ele>2130.4189453125</ele>
        <time>2011-05-28T09:35:32Z</time>
      </trkpt>
      <trkpt lat="42.69033" lon="1.55776">
        <ele>2132.3415527344</ele>
        <time>2011-05-28T09:35:39Z</time>
      </trkpt>
      <trkpt lat="42.69036" lon="1.55769">
        <ele>2133.302734375</ele>
        <time>2011-05-28T09:35:47Z</time>
      </trkpt>
      <trkpt lat="42.6904" lon="1.55767">
        <ele>2134.2641601562</ele>
        <time>2011-05-28T09:35:53Z</time>
      </trkpt>
      <trkpt lat="42.69044" lon="1.55763">
        <ele>2134.7448730469</ele>
        <time>2011-05-28T09:35:59Z</time>
      </trkpt>
      <trkpt lat="42.69045" lon="1.55758">
        <ele>2135.2253417969</ele>
        <time>2011-05-28T09:36:05Z</time>
      </trkpt>
      <trkpt lat="42.69049" lon="1.55755">
        <ele>2135.7060546875</ele>
        <time>2011-05-28T09:36:10Z</time>
      </trkpt>
      <trkpt lat="42.69052" lon="1.55749">
        <ele>2136.1867675781</ele>
        <time>2011-05-28T09:36:16Z</time>
      </trkpt>
      <trkpt lat="42.69054" lon="1.55749">
        <ele>2136.1867675781</ele>
        <time>2011-05-28T09:36:23Z</time>
      </trkpt>
      <trkpt lat="42.69057" lon="1.55751">
        <ele>2135.7060546875</ele>
        <time>2011-05-28T09:36:29Z</time>
      </trkpt>
      <trkpt lat="42.69058" lon="1.55752">
        <ele>2134.7448730469</ele>
        <time>2011-05-28T09:36:35Z</time>
      </trkpt>
      <trkpt lat="42.69061" lon="1.55752">
        <ele>2135.2253417969</ele>
        <time>2011-05-28T09:36:46Z</time>
      </trkpt>
      <trkpt lat="42.69061" lon="1.55753">
        <ele>2135.7060546875</ele>
        <time>2011-05-28T09:36:53Z</time>
      </trkpt>
      <trkpt lat="42.69061" lon="1.55757">
        <ele>2135.2253417969</ele>
        <time>2011-05-28T09:36:58Z</time>
      </trkpt>
      <trkpt lat="42.69061" lon="1.55756">
        <ele>2134.7448730469</ele>
        <time>2011-05-28T09:37:14Z</time>
      </trkpt>
      <trkpt lat="42.69062" lon="1.55755">
        <ele>2136.1867675781</ele>
        <time>2011-05-28T09:37:22Z</time>
      </trkpt>
      <trkpt lat="42.69062" lon="1.55755">
        <ele>2137.1479492188</ele>
        <time>2011-05-28T09:38:19Z</time>
      </trkpt>
      <trkpt lat="42.69062" lon="1.55755">
        <ele>2137.1479492188</ele>
        <time>2011-05-28T09:38:51Z</time>
      </trkpt>
      <trkpt lat="42.69062" lon="1.55754">
        <ele>2138.109375</ele>
        <time>2011-05-28T09:39:11Z</time>
      </trkpt>
      <trkpt lat="42.69063" lon="1.55754">
        <ele>2139.0705566406</ele>
        <time>2011-05-28T09:39:27Z</time>
      </trkpt>
      <trkpt lat="42.69064" lon="1.55754">
        <ele>2140.0322265625</ele>
        <time>2011-05-28T09:39:34Z</time>
      </trkpt>
      <trkpt lat="42.69067" lon="1.55754">
        <ele>2141.4741210938</ele>
        <time>2011-05-28T09:40:33Z</time>
      </trkpt>
      <trkpt lat="42.69075" lon="1.5575">
        <ele>2142.916015625</ele>
        <time>2011-05-28T09:40:42Z</time>
      </trkpt>
      <trkpt lat="42.69078" lon="1.5575">
        <ele>2143.3967285156</ele>
        <time>2011-05-28T09:40:44Z</time>
      </trkpt>
      <trkpt lat="42.69084" lon="1.55746">
        <ele>2145.3193359375</ele>
        <time>2011-05-28T09:40:52Z</time>
      </trkpt>
      <trkpt lat="42.69091" lon="1.55744">
        <ele>2148.203125</ele>
        <time>2011-05-28T09:41:01Z</time>
      </trkpt>
      <trkpt lat="42.69095" lon="1.55744">
        <ele>2149.1645507812</ele>
        <time>2011-05-28T09:41:07Z</time>
      </trkpt>
      <trkpt lat="42.69102" lon="1.55743">
        <ele>2151.0871582031</ele>
        <time>2011-05-28T09:41:16Z</time>
      </trkpt>
      <trkpt lat="42.69109" lon="1.55743">
        <ele>2152.5290527344</ele>
        <time>2011-05-28T09:41:25Z</time>
      </trkpt>
      <trkpt lat="42.69113" lon="1.55741">
        <ele>2153.4904785156</ele>
        <time>2011-05-28T09:41:32Z</time>
      </trkpt>
      <trkpt lat="42.69116" lon="1.55741">
        <ele>2154.4516601562</ele>
        <time>2011-05-28T09:41:38Z</time>
      </trkpt>
      <trkpt lat="42.69121" lon="1.55739">
        <ele>2156.8552246094</ele>
        <time>2011-05-28T09:41:46Z</time>
      </trkpt>
      <trkpt lat="42.69127" lon="1.5574">
        <ele>2157.8166503906</ele>
        <time>2011-05-28T09:41:54Z</time>
      </trkpt>
      <trkpt lat="42.69133" lon="1.55737">
        <ele>2160.2197265625</ele>
        <time>2011-05-28T09:42:02Z</time>
      </trkpt>
      <trkpt lat="42.69138" lon="1.55735">
        <ele>2161.6618652344</ele>
        <time>2011-05-28T09:42:09Z</time>
      </trkpt>
      <trkpt lat="42.69144" lon="1.5573">
        <ele>2163.5842285156</ele>
        <time>2011-05-28T09:42:17Z</time>
      </trkpt>
      <trkpt lat="42.6915" lon="1.55721">
        <ele>2165.9875488281</ele>
        <time>2011-05-28T09:42:27Z</time>
      </trkpt>
      <trkpt lat="42.69156" lon="1.55717">
        <ele>2166.9489746094</ele>
        <time>2011-05-28T09:42:34Z</time>
      </trkpt>
      <trkpt lat="42.69159" lon="1.55715">
        <ele>2167.4294433594</ele>
        <time>2011-05-28T09:42:40Z</time>
      </trkpt>
      <trkpt lat="42.69163" lon="1.55711">
        <ele>2168.8715820312</ele>
        <time>2011-05-28T09:42:46Z</time>
      </trkpt>
      <trkpt lat="42.6917" lon="1.55707">
        <ele>2170.7941894531</ele>
        <time>2011-05-28T09:42:54Z</time>
      </trkpt>
      <trkpt lat="42.6918" lon="1.55705">
        <ele>2172.7170410156</ele>
        <time>2011-05-28T09:43:03Z</time>
      </trkpt>
      <trkpt lat="42.69188" lon="1.55705">
        <ele>2173.1977539062</ele>
        <time>2011-05-28T09:43:12Z</time>
      </trkpt>
      <trkpt lat="42.69193" lon="1.55708">
        <ele>2174.1589355469</ele>
        <time>2011-05-28T09:43:20Z</time>
      </trkpt>
      <trkpt lat="42.69197" lon="1.55712">
        <ele>2175.1201171875</ele>
        <time>2011-05-28T09:43:28Z</time>
      </trkpt>
      <trkpt lat="42.69202" lon="1.55712">
        <ele>2176.5622558594</ele>
        <time>2011-05-28T09:43:35Z</time>
      </trkpt>
      <trkpt lat="42.69206" lon="1.55712">
        <ele>2178.4848632812</ele>
        <time>2011-05-28T09:43:43Z</time>
      </trkpt>
      <trkpt lat="42.69208" lon="1.55715">
        <ele>2178.9653320312</ele>
        <time>2011-05-28T09:43:50Z</time>
      </trkpt>
      <trkpt lat="42.6921" lon="1.55717">
        <ele>2178.9653320312</ele>
        <time>2011-05-28T09:43:52Z</time>
      </trkpt>
      <trkpt lat="42.69218" lon="1.55724">
        <ele>2178.4848632812</ele>
        <time>2011-05-28T09:44:02Z</time>
      </trkpt>
      <trkpt lat="42.69217" lon="1.55723">
        <ele>2178.0041503906</ele>
        <time>2011-05-28T09:44:07Z</time>
      </trkpt>
      <trkpt lat="42.69213" lon="1.55716">
        <ele>2178.4848632812</ele>
        <time>2011-05-28T09:44:14Z</time>
      </trkpt>
      <trkpt lat="42.69211" lon="1.55709">
        <ele>2179.9267578125</ele>
        <time>2011-05-28T09:44:21Z</time>
      </trkpt>
      <trkpt lat="42.69212" lon="1.55704">
        <ele>2181.3686523438</ele>
        <time>2011-05-28T09:44:27Z</time>
      </trkpt>
      <trkpt lat="42.69215" lon="1.557">
        <ele>2183.7719726562</ele>
        <time>2011-05-28T09:44:34Z</time>
      </trkpt>
      <trkpt lat="42.6922" lon="1.55696">
        <ele>2186.1752929688</ele>
        <time>2011-05-28T09:44:42Z</time>
      </trkpt>
      <trkpt lat="42.69223" lon="1.55696">
        <ele>2187.6171875</ele>
        <time>2011-05-28T09:44:49Z</time>
      </trkpt>
      <trkpt lat="42.69228" lon="1.55696">
        <ele>2189.5400390625</ele>
        <time>2011-05-28T09:44:56Z</time>
      </trkpt>
      <trkpt lat="42.6923" lon="1.55698">
        <ele>2190.0207519531</ele>
        <time>2011-05-28T09:45:02Z</time>
      </trkpt>
      <trkpt lat="42.69233" lon="1.55698">
        <ele>2190.0207519531</ele>
        <time>2011-05-28T09:45:09Z</time>
      </trkpt>
      <trkpt lat="42.69241" lon="1.55696">
        <ele>2192.4240722656</ele>
        <time>2011-05-28T09:45:19Z</time>
      </trkpt>
      <trkpt lat="42.69246" lon="1.5569">
        <ele>2194.3464355469</ele>
        <time>2011-05-28T09:45:27Z</time>
      </trkpt>
      <trkpt lat="42.69248" lon="1.55687">
        <ele>2195.7885742188</ele>
        <time>2011-05-28T09:45:33Z</time>
      </trkpt>
      <trkpt lat="42.69253" lon="1.55681">
        <ele>2198.1916503906</ele>
        <time>2011-05-28T09:45:42Z</time>
      </trkpt>
      <trkpt lat="42.69254" lon="1.55674">
        <ele>2200.5949707031</ele>
        <time>2011-05-28T09:45:49Z</time>
      </trkpt>
      <trkpt lat="42.69255" lon="1.5567">
        <ele>2202.517578125</ele>
        <time>2011-05-28T09:45:56Z</time>
      </trkpt>
      <trkpt lat="42.69259" lon="1.55671">
        <ele>2203.9597167969</ele>
        <time>2011-05-28T09:46:02Z</time>
      </trkpt>
      <trkpt lat="42.69261" lon="1.55665">
        <ele>2205.8823242188</ele>
        <time>2011-05-28T09:46:09Z</time>
      </trkpt>
      <trkpt lat="42.69261" lon="1.55656">
        <ele>2207.8051757812</ele>
        <time>2011-05-28T09:46:17Z</time>
      </trkpt>
      <trkpt lat="42.69261" lon="1.55652">
        <ele>2208.2856445312</ele>
        <time>2011-05-28T09:46:24Z</time>
      </trkpt>
      <trkpt lat="42.6926" lon="1.55647">
        <ele>2207.8051757812</ele>
        <time>2011-05-28T09:46:39Z</time>
      </trkpt>
      <trkpt lat="42.69255" lon="1.55639">
        <ele>2208.7663574219</ele>
        <time>2011-05-28T09:46:46Z</time>
      </trkpt>
      <trkpt lat="42.69251" lon="1.55632">
        <ele>2211.650390625</ele>
        <time>2011-05-28T09:46:53Z</time>
      </trkpt>
      <trkpt lat="42.69249" lon="1.55625">
        <ele>2214.5341796875</ele>
        <time>2011-05-28T09:47:00Z</time>
      </trkpt>
      <trkpt lat="42.6925" lon="1.55614">
        <ele>2216.9375</ele>
        <time>2011-05-28T09:47:08Z</time>
      </trkpt>
      <trkpt lat="42.6925" lon="1.55613">
        <ele>2216.9375</ele>
        <time>2011-05-28T09:47:09Z</time>
      </trkpt>
      <trkpt lat="42.69252" lon="1.55607">
        <ele>2217.8986816406</ele>
        <time>2011-05-28T09:47:13Z</time>
      </trkpt>
      <trkpt lat="42.69255" lon="1.55601">
        <ele>2219.8212890625</ele>
        <time>2011-05-28T09:47:19Z</time>
      </trkpt>
      <trkpt lat="42.69259" lon="1.55598">
        <ele>2221.2634277344</ele>
        <time>2011-05-28T09:47:25Z</time>
      </trkpt>
      <trkpt lat="42.69265" lon="1.55595">
        <ele>2222.2248535156</ele>
        <time>2011-05-28T09:47:32Z</time>
      </trkpt>
      <trkpt lat="42.69273" lon="1.5559">
        <ele>2224.1474609375</ele>
        <time>2011-05-28T09:47:41Z</time>
      </trkpt>
      <trkpt lat="42.69276" lon="1.55585">
        <ele>2225.5893554688</ele>
        <time>2011-05-28T09:47:47Z</time>
      </trkpt>
      <trkpt lat="42.69278" lon="1.55579">
        <ele>2226.55078125</ele>
        <time>2011-05-28T09:47:53Z</time>
      </trkpt>
      <trkpt lat="42.69279" lon="1.55573">
        <ele>2227.9926757812</ele>
        <time>2011-05-28T09:47:59Z</time>
      </trkpt>
      <trkpt lat="42.69278" lon="1.55562">
        <ele>2229.9152832031</ele>
        <time>2011-05-28T09:48:08Z</time>
      </trkpt>
      <trkpt lat="42.69279" lon="1.55558">
        <ele>2231.3571777344</ele>
        <time>2011-05-28T09:48:13Z</time>
      </trkpt>
      <trkpt lat="42.69283" lon="1.55554">
        <ele>2232.7990722656</ele>
        <time>2011-05-28T09:48:19Z</time>
      </trkpt>
      <trkpt lat="42.69287" lon="1.55548">
        <ele>2234.2412109375</ele>
        <time>2011-05-28T09:48:27Z</time>
      </trkpt>
      <trkpt lat="42.69291" lon="1.55547">
        <ele>2235.2023925781</ele>
        <time>2011-05-28T09:48:33Z</time>
      </trkpt>
      <trkpt lat="42.69293" lon="1.55548">
        <ele>2234.7219238281</ele>
        <time>2011-05-28T09:48:47Z</time>
      </trkpt>
      <trkpt lat="42.69298" lon="1.55545">
        <ele>2237.1252441406</ele>
        <time>2011-05-28T09:48:54Z</time>
      </trkpt>
      <trkpt lat="42.69303" lon="1.55541">
        <ele>2238.0866699219</ele>
        <time>2011-05-28T09:49:02Z</time>
      </trkpt>
      <trkpt lat="42.69305" lon="1.55535">
        <ele>2239.5285644531</ele>
        <time>2011-05-28T09:49:08Z</time>
      </trkpt>
      <trkpt lat="42.69304" lon="1.55532">
        <ele>2240.0092773438</ele>
        <time>2011-05-28T09:49:10Z</time>
      </trkpt>
      <trkpt lat="42.69302" lon="1.55524">
        <ele>2240.4897460938</ele>
        <time>2011-05-28T09:49:15Z</time>
      </trkpt>
      <trkpt lat="42.69301" lon="1.5551">
        <ele>2241.9318847656</ele>
        <time>2011-05-28T09:49:24Z</time>
      </trkpt>
      <trkpt lat="42.693" lon="1.55498">
        <ele>2242.4125976562</ele>
        <time>2011-05-28T09:49:31Z</time>
      </trkpt>
      <trkpt lat="42.69299" lon="1.55487">
        <ele>2242.4125976562</ele>
        <time>2011-05-28T09:49:37Z</time>
      </trkpt>
      <trkpt lat="42.693" lon="1.55471">
        <ele>2244.8156738281</ele>
        <time>2011-05-28T09:49:47Z</time>
      </trkpt>
      <trkpt lat="42.69299" lon="1.5546">
        <ele>2246.2578125</ele>
        <time>2011-05-28T09:49:54Z</time>
      </trkpt>
      <trkpt lat="42.69296" lon="1.55453">
        <ele>2246.73828125</ele>
        <time>2011-05-28T09:50:00Z</time>
      </trkpt>
      <trkpt lat="42.69296" lon="1.55444">
        <ele>2248.6608886719</ele>
        <time>2011-05-28T09:50:07Z</time>
      </trkpt>
      <trkpt lat="42.69294" lon="1.55434">
        <ele>2249.6223144531</ele>
        <time>2011-05-28T09:50:14Z</time>
      </trkpt>
      <trkpt lat="42.6929" lon="1.55422">
        <ele>2250.1030273438</ele>
        <time>2011-05-28T09:50:22Z</time>
      </trkpt>
      <trkpt lat="42.69284" lon="1.55405">
        <ele>2250.5834960938</ele>
        <time>2011-05-28T09:50:33Z</time>
      </trkpt>
      <trkpt lat="42.69281" lon="1.55393">
        <ele>2251.544921875</ele>
        <time>2011-05-28T09:50:41Z</time>
      </trkpt>
      <trkpt lat="42.69281" lon="1.55384">
        <ele>2252.0256347656</ele>
        <time>2011-05-28T09:50:47Z</time>
      </trkpt>
      <trkpt lat="42.69283" lon="1.55373">
        <ele>2253.9484863281</ele>
        <time>2011-05-28T09:50:55Z</time>
      </trkpt>
      <trkpt lat="42.69286" lon="1.55366">
        <ele>2255.3903808594</ele>
        <time>2011-05-28T09:51:00Z</time>
      </trkpt>
      <trkpt lat="42.69291" lon="1.55354">
        <ele>2255.3903808594</ele>
        <time>2011-05-28T09:51:08Z</time>
      </trkpt>
      <trkpt lat="42.69295" lon="1.55344">
        <ele>2254.9096679688</ele>
        <time>2011-05-28T09:51:14Z</time>
      </trkpt>
      <trkpt lat="42.69295" lon="1.55342">
        <ele>2254.9096679688</ele>
        <time>2011-05-28T09:51:15Z</time>
      </trkpt>
      <trkpt lat="42.69292" lon="1.55335">
        <ele>2254.4289550781</ele>
        <time>2011-05-28T09:51:20Z</time>
      </trkpt>
      <trkpt lat="42.69291" lon="1.55331">
        <ele>2255.3903808594</ele>
        <time>2011-05-28T09:51:24Z</time>
      </trkpt>
      <trkpt lat="42.69289" lon="1.55324">
        <ele>2257.3129882812</ele>
        <time>2011-05-28T09:51:31Z</time>
      </trkpt>
      <trkpt lat="42.69289" lon="1.55317">
        <ele>2258.7548828125</ele>
        <time>2011-05-28T09:51:38Z</time>
      </trkpt>
      <trkpt lat="42.69284" lon="1.5531">
        <ele>2260.1967773438</ele>
        <time>2011-05-28T09:51:46Z</time>
      </trkpt>
      <trkpt lat="42.6928" lon="1.55302">
        <ele>2262.1193847656</ele>
        <time>2011-05-28T09:51:53Z</time>
      </trkpt>
      <trkpt lat="42.69276" lon="1.55294">
        <ele>2262.6000976562</ele>
        <time>2011-05-28T09:52:01Z</time>
      </trkpt>
      <trkpt lat="42.69275" lon="1.55292">
        <ele>2261.6389160156</ele>
        <time>2011-05-28T09:52:11Z</time>
      </trkpt>
      <trkpt lat="42.69272" lon="1.55284">
        <ele>2263.0808105469</ele>
        <time>2011-05-28T09:52:18Z</time>
      </trkpt>
      <trkpt lat="42.69269" lon="1.55278">
        <ele>2263.5612792969</ele>
        <time>2011-05-28T09:52:25Z</time>
      </trkpt>
      <trkpt lat="42.69265" lon="1.55277">
        <ele>2263.5612792969</ele>
        <time>2011-05-28T09:52:31Z</time>
      </trkpt>
      <trkpt lat="42.69261" lon="1.55269">
        <ele>2263.5612792969</ele>
        <time>2011-05-28T09:52:38Z</time>
      </trkpt>
      <trkpt lat="42.69261" lon="1.55266">
        <ele>2263.5612792969</ele>
        <time>2011-05-28T09:52:44Z</time>
      </trkpt>
      <trkpt lat="42.69261" lon="1.55261">
        <ele>2263.5612792969</ele>
        <time>2011-05-28T09:52:50Z</time>
      </trkpt>
      <trkpt lat="42.69262" lon="1.55255">
        <ele>2264.5227050781</ele>
        <time>2011-05-28T09:52:57Z</time>
      </trkpt>
      <trkpt lat="42.69263" lon="1.55248">
        <ele>2265.9645996094</ele>
        <time>2011-05-28T09:53:04Z</time>
      </trkpt>
      <trkpt lat="42.69263" lon="1.55243">
        <ele>2267.4064941406</ele>
        <time>2011-05-28T09:53:10Z</time>
      </trkpt>
      <trkpt lat="42.69263" lon="1.5524">
        <ele>2268.3681640625</ele>
        <time>2011-05-28T09:53:16Z</time>
      </trkpt>
      <trkpt lat="42.69263" lon="1.55236">
        <ele>2270.2907714844</ele>
        <time>2011-05-28T09:53:22Z</time>
      </trkpt>
      <trkpt lat="42.69264" lon="1.5523">
        <ele>2272.6940917969</ele>
        <time>2011-05-28T09:53:29Z</time>
      </trkpt>
      <trkpt lat="42.69265" lon="1.55225">
        <ele>2274.1359863281</ele>
        <time>2011-05-28T09:53:37Z</time>
      </trkpt>
      <trkpt lat="42.69263" lon="1.5522">
        <ele>2275.0971679688</ele>
        <time>2011-05-28T09:53:44Z</time>
      </trkpt>
      <trkpt lat="42.69262" lon="1.55216">
        <ele>2275.0971679688</ele>
        <time>2011-05-28T09:53:50Z</time>
      </trkpt>
      <trkpt lat="42.69261" lon="1.55212">
        <ele>2276.05859375</ele>
        <time>2011-05-28T09:53:56Z</time>
      </trkpt>
      <trkpt lat="42.69261" lon="1.55209">
        <ele>2276.5393066406</ele>
        <time>2011-05-28T09:54:01Z</time>
      </trkpt>
      <trkpt lat="42.69259" lon="1.55205">
        <ele>2276.5393066406</ele>
        <time>2011-05-28T09:54:07Z</time>
      </trkpt>
      <trkpt lat="42.69258" lon="1.552">
        <ele>2277.0200195312</ele>
        <time>2011-05-28T09:54:14Z</time>
      </trkpt>
      <trkpt lat="42.69257" lon="1.55196">
        <ele>2277.9812011719</ele>
        <time>2011-05-28T09:54:20Z</time>
      </trkpt>
      <trkpt lat="42.69255" lon="1.55192">
        <ele>2277.9812011719</ele>
        <time>2011-05-28T09:54:25Z</time>
      </trkpt>
      <trkpt lat="42.69254" lon="1.55187">
        <ele>2278.9423828125</ele>
        <time>2011-05-28T09:54:31Z</time>
      </trkpt>
      <trkpt lat="42.69251" lon="1.55179">
        <ele>2279.9038085938</ele>
        <time>2011-05-28T09:54:39Z</time>
      </trkpt>
      <trkpt lat="42.69249" lon="1.55174">
        <ele>2281.8264160156</ele>
        <time>2011-05-28T09:54:46Z</time>
      </trkpt>
      <trkpt lat="42.69247" lon="1.55167">
        <ele>2283.7490234375</ele>
        <time>2011-05-28T09:54:53Z</time>
      </trkpt>
      <trkpt lat="42.69245" lon="1.55161">
        <ele>2285.671875</ele>
        <time>2011-05-28T09:55:00Z</time>
      </trkpt>
      <trkpt lat="42.69244" lon="1.55157">
        <ele>2286.6330566406</ele>
        <time>2011-05-28T09:55:05Z</time>
      </trkpt>
      <trkpt lat="42.69242" lon="1.55151">
        <ele>2288.0751953125</ele>
        <time>2011-05-28T09:55:12Z</time>
      </trkpt>
      <trkpt lat="42.69241" lon="1.55143">
        <ele>2289.5170898438</ele>
        <time>2011-05-28T09:55:20Z</time>
      </trkpt>
      <trkpt lat="42.69241" lon="1.55139">
        <ele>2290.958984375</ele>
        <time>2011-05-28T09:55:25Z</time>
      </trkpt>
      <trkpt lat="42.69238" lon="1.55132">
        <ele>2291.4396972656</ele>
        <time>2011-05-28T09:55:32Z</time>
      </trkpt>
      <trkpt lat="42.69238" lon="1.55128">
        <ele>2291.9204101562</ele>
        <time>2011-05-28T09:55:38Z</time>
      </trkpt>
      <trkpt lat="42.69236" lon="1.55122">
        <ele>2291.4396972656</ele>
        <time>2011-05-28T09:55:44Z</time>
      </trkpt>
      <trkpt lat="42.69234" lon="1.55116">
        <ele>2290.4782714844</ele>
        <time>2011-05-28T09:55:51Z</time>
      </trkpt>
      <trkpt lat="42.69233" lon="1.55108">
        <ele>2290.4782714844</ele>
        <time>2011-05-28T09:55:57Z</time>
      </trkpt>
      <trkpt lat="42.69232" lon="1.55105">
        <ele>2290.4782714844</ele>
        <time>2011-05-28T09:55:59Z</time>
      </trkpt>
      <trkpt lat="42.69232" lon="1.55095">
        <ele>2291.4396972656</ele>
        <time>2011-05-28T09:56:07Z</time>
      </trkpt>
      <trkpt lat="42.69231" lon="1.55089">
        <ele>2293.3623046875</ele>
        <time>2011-05-28T09:56:13Z</time>
      </trkpt>
      <trkpt lat="42.69228" lon="1.55081">
        <ele>2293.3623046875</ele>
        <time>2011-05-28T09:56:20Z</time>
      </trkpt>
      <trkpt lat="42.69227" lon="1.55075">
        <ele>2293.3623046875</ele>
        <time>2011-05-28T09:56:25Z</time>
      </trkpt>
      <trkpt lat="42.69227" lon="1.5507">
        <ele>2292.8815917969</ele>
        <time>2011-05-28T09:56:30Z</time>
      </trkpt>
      <trkpt lat="42.69225" lon="1.55065">
        <ele>2292.4011230469</ele>
        <time>2011-05-28T09:56:36Z</time>
      </trkpt>
      <trkpt lat="42.69224" lon="1.55059">
        <ele>2293.3623046875</ele>
        <time>2011-05-28T09:56:42Z</time>
      </trkpt>
      <trkpt lat="42.69225" lon="1.55052">
        <ele>2294.8041992188</ele>
        <time>2011-05-28T09:56:49Z</time>
      </trkpt>
      <trkpt lat="42.69225" lon="1.55049">
        <ele>2296.2463378906</ele>
        <time>2011-05-28T09:56:55Z</time>
      </trkpt>
      <trkpt lat="42.69227" lon="1.55042">
        <ele>2297.6882324219</ele>
        <time>2011-05-28T09:57:03Z</time>
      </trkpt>
      <trkpt lat="42.69229" lon="1.55039">
        <ele>2298.1687011719</ele>
        <time>2011-05-28T09:57:09Z</time>
      </trkpt>
      <trkpt lat="42.6923" lon="1.55034">
        <ele>2299.6108398438</ele>
        <time>2011-05-28T09:57:12Z</time>
      </trkpt>
      <trkpt lat="42.69231" lon="1.5503">
        <ele>2300.572265625</ele>
        <time>2011-05-28T09:57:18Z</time>
      </trkpt>
      <trkpt lat="42.69232" lon="1.5503">
        <ele>2301.0529785156</ele>
        <time>2011-05-28T09:57:30Z</time>
      </trkpt>
      <trkpt lat="42.69233" lon="1.55025">
        <ele>2302.0141601562</ele>
        <time>2011-05-28T09:57:36Z</time>
      </trkpt>
      <trkpt lat="42.69234" lon="1.55023">
        <ele>2303.4562988281</ele>
        <time>2011-05-28T09:57:41Z</time>
      </trkpt>
      <trkpt lat="42.69235" lon="1.5502">
        <ele>2305.37890625</ele>
        <time>2011-05-28T09:57:46Z</time>
      </trkpt>
      <trkpt lat="42.69237" lon="1.55015">
        <ele>2307.3015136719</ele>
        <time>2011-05-28T09:57:53Z</time>
      </trkpt>
      <trkpt lat="42.69239" lon="1.55009">
        <ele>2309.2241210938</ele>
        <time>2011-05-28T09:58:00Z</time>
      </trkpt>
      <trkpt lat="42.69242" lon="1.55003">
        <ele>2310.666015625</ele>
        <time>2011-05-28T09:58:08Z</time>
      </trkpt>
      <trkpt lat="42.69246" lon="1.55001">
        <ele>2312.1079101562</ele>
        <time>2011-05-28T09:58:16Z</time>
      </trkpt>
      <trkpt lat="42.69247" lon="1.54999">
        <ele>2312.1079101562</ele>
        <time>2011-05-28T09:58:24Z</time>
      </trkpt>
      <trkpt lat="42.6925" lon="1.54996">
        <ele>2313.5498046875</ele>
        <time>2011-05-28T09:58:31Z</time>
      </trkpt>
      <trkpt lat="42.69251" lon="1.5499">
        <ele>2315.47265625</ele>
        <time>2011-05-28T09:58:38Z</time>
      </trkpt>
      <trkpt lat="42.69252" lon="1.54984">
        <ele>2316.9147949219</ele>
        <time>2011-05-28T09:58:44Z</time>
      </trkpt>
      <trkpt lat="42.69254" lon="1.54979">
        <ele>2318.3566894531</ele>
        <time>2011-05-28T09:58:51Z</time>
      </trkpt>
      <trkpt lat="42.69257" lon="1.54974">
        <ele>2320.279296875</ele>
        <time>2011-05-28T09:58:59Z</time>
      </trkpt>
      <trkpt lat="42.69259" lon="1.54971">
        <ele>2321.7211914062</ele>
        <time>2011-05-28T09:59:06Z</time>
      </trkpt>
      <trkpt lat="42.6926" lon="1.54967">
        <ele>2323.1633300781</ele>
        <time>2011-05-28T09:59:12Z</time>
      </trkpt>
      <trkpt lat="42.69263" lon="1.54963">
        <ele>2325.0856933594</ele>
        <time>2011-05-28T09:59:19Z</time>
      </trkpt>
      <trkpt lat="42.69265" lon="1.54959">
        <ele>2326.5278320312</ele>
        <time>2011-05-28T09:59:26Z</time>
      </trkpt>
      <trkpt lat="42.69268" lon="1.54955">
        <ele>2327.9697265625</ele>
        <time>2011-05-28T09:59:34Z</time>
      </trkpt>
      <trkpt lat="42.69271" lon="1.54951">
        <ele>2329.8923339844</ele>
        <time>2011-05-28T09:59:43Z</time>
      </trkpt>
      <trkpt lat="42.69273" lon="1.54946">
        <ele>2331.3342285156</ele>
        <time>2011-05-28T09:59:49Z</time>
      </trkpt>
      <trkpt lat="42.69276" lon="1.54942">
        <ele>2331.8149414062</ele>
        <time>2011-05-28T09:59:56Z</time>
      </trkpt>
      <trkpt lat="42.69278" lon="1.54937">
        <ele>2334.2185058594</ele>
        <time>2011-05-28T10:00:04Z</time>
      </trkpt>
      <trkpt lat="42.6928" lon="1.54934">
        <ele>2334.69921875</ele>
        <time>2011-05-28T10:00:12Z</time>
      </trkpt>
      <trkpt lat="42.69282" lon="1.54934">
        <ele>2334.2185058594</ele>
        <time>2011-05-28T10:00:21Z</time>
      </trkpt>
      <trkpt lat="42.69283" lon="1.54934">
        <ele>2334.2185058594</ele>
        <time>2011-05-28T10:00:33Z</time>
      </trkpt>
      <trkpt lat="42.69283" lon="1.54934">
        <ele>2333.7377929688</ele>
        <time>2011-05-28T10:00:56Z</time>
      </trkpt>
      <trkpt lat="42.69281" lon="1.54935">
        <ele>2333.7377929688</ele>
        <time>2011-05-28T10:01:08Z</time>
      </trkpt>
      <trkpt lat="42.69281" lon="1.54936">
        <ele>2333.2570800781</ele>
        <time>2011-05-28T10:01:18Z</time>
      </trkpt>
      <trkpt lat="42.69281" lon="1.54931">
        <ele>2336.1411132812</ele>
        <time>2011-05-28T10:01:38Z</time>
      </trkpt>
      <trkpt lat="42.69281" lon="1.54928">
        <ele>2335.6604003906</ele>
        <time>2011-05-28T10:01:44Z</time>
      </trkpt>
      <trkpt lat="42.6928" lon="1.54918">
        <ele>2336.1411132812</ele>
        <time>2011-05-28T10:01:53Z</time>
      </trkpt>
      <trkpt lat="42.69281" lon="1.54913">
        <ele>2337.1022949219</ele>
        <time>2011-05-28T10:02:01Z</time>
      </trkpt>
      <trkpt lat="42.69279" lon="1.54902">
        <ele>2338.0637207031</ele>
        <time>2011-05-28T10:02:10Z</time>
      </trkpt>
      <trkpt lat="42.69276" lon="1.54891">
        <ele>2339.5056152344</ele>
        <time>2011-05-28T10:02:19Z</time>
      </trkpt>
      <trkpt lat="42.69277" lon="1.54882">
        <ele>2339.986328125</ele>
        <time>2011-05-28T10:02:26Z</time>
      </trkpt>
      <trkpt lat="42.69275" lon="1.54872">
        <ele>2340.9475097656</ele>
        <time>2011-05-28T10:02:34Z</time>
      </trkpt>
      <trkpt lat="42.69272" lon="1.54868">
        <ele>2342.8701171875</ele>
        <time>2011-05-28T10:02:41Z</time>
      </trkpt>
      <trkpt lat="42.69269" lon="1.54869">
        <ele>2344.3120117188</ele>
        <time>2011-05-28T10:02:47Z</time>
      </trkpt>
      <trkpt lat="42.69266" lon="1.54868">
        <ele>2345.2734375</ele>
        <time>2011-05-28T10:02:53Z</time>
      </trkpt>
      <trkpt lat="42.69263" lon="1.54872">
        <ele>2346.7153320312</ele>
        <time>2011-05-28T10:03:00Z</time>
      </trkpt>
      <trkpt lat="42.69258" lon="1.54877">
        <ele>2348.1574707031</ele>
        <time>2011-05-28T10:03:08Z</time>
      </trkpt>
      <trkpt lat="42.69255" lon="1.54873">
        <ele>2349.1188964844</ele>
        <time>2011-05-28T10:03:14Z</time>
      </trkpt>
      <trkpt lat="42.69253" lon="1.54867">
        <ele>2350.5607910156</ele>
        <time>2011-05-28T10:03:21Z</time>
      </trkpt>
      <trkpt lat="42.69252" lon="1.54863">
        <ele>2352.0026855469</ele>
        <time>2011-05-28T10:03:28Z</time>
      </trkpt>
      <trkpt lat="42.69251" lon="1.54856">
        <ele>2352.9641113281</ele>
        <time>2011-05-28T10:03:36Z</time>
      </trkpt>
      <trkpt lat="42.69249" lon="1.54853">
        <ele>2353.4448242188</ele>
        <time>2011-05-28T10:03:42Z</time>
      </trkpt>
      <trkpt lat="42.6925" lon="1.54848">
        <ele>2353.9255371094</ele>
        <time>2011-05-28T10:03:49Z</time>
      </trkpt>
      <trkpt lat="42.6925" lon="1.54844">
        <ele>2353.4448242188</ele>
        <time>2011-05-28T10:03:54Z</time>
      </trkpt>
      <trkpt lat="42.6925" lon="1.54839">
        <ele>2354.4060058594</ele>
        <time>2011-05-28T10:04:00Z</time>
      </trkpt>
      <trkpt lat="42.6925" lon="1.54837">
        <ele>2354.88671875</ele>
        <time>2011-05-28T10:04:05Z</time>
      </trkpt>
      <trkpt lat="42.69251" lon="1.54832">
        <ele>2355.3674316406</ele>
        <time>2011-05-28T10:04:12Z</time>
      </trkpt>
      <trkpt lat="42.69251" lon="1.54828">
        <ele>2355.8479003906</ele>
        <time>2011-05-28T10:04:18Z</time>
      </trkpt>
      <trkpt lat="42.69252" lon="1.54823">
        <ele>2356.3286132812</ele>
        <time>2011-05-28T10:04:26Z</time>
      </trkpt>
      <trkpt lat="42.69252" lon="1.54821">
        <ele>2356.3286132812</ele>
        <time>2011-05-28T10:04:32Z</time>
      </trkpt>
      <trkpt lat="42.69251" lon="1.54818">
        <ele>2357.7707519531</ele>
        <time>2011-05-28T10:04:38Z</time>
      </trkpt>
      <trkpt lat="42.69252" lon="1.54815">
        <ele>2358.2512207031</ele>
        <time>2011-05-28T10:04:43Z</time>
      </trkpt>
      <trkpt lat="42.69252" lon="1.5481">
        <ele>2359.6931152344</ele>
        <time>2011-05-28T10:04:49Z</time>
      </trkpt>
      <trkpt lat="42.69254" lon="1.54807">
        <ele>2360.6545410156</ele>
        <time>2011-05-28T10:04:55Z</time>
      </trkpt>
      <trkpt lat="42.69252" lon="1.54802">
        <ele>2363.5383300781</ele>
        <time>2011-05-28T10:05:03Z</time>
      </trkpt>
      <trkpt lat="42.69253" lon="1.54799">
        <ele>2363.5383300781</ele>
        <time>2011-05-28T10:05:09Z</time>
      </trkpt>
      <trkpt lat="42.69254" lon="1.54794">
        <ele>2363.0578613281</ele>
        <time>2011-05-28T10:05:16Z</time>
      </trkpt>
      <trkpt lat="42.69256" lon="1.5479">
        <ele>2362.5771484375</ele>
        <time>2011-05-28T10:05:23Z</time>
      </trkpt>
      <trkpt lat="42.69256" lon="1.54785">
        <ele>2364.5</ele>
        <time>2011-05-28T10:05:30Z</time>
      </trkpt>
      <trkpt lat="42.69255" lon="1.5478">
        <ele>2366.4226074219</ele>
        <time>2011-05-28T10:05:37Z</time>
      </trkpt>
      <trkpt lat="42.69255" lon="1.54775">
        <ele>2367.3837890625</ele>
        <time>2011-05-28T10:05:43Z</time>
      </trkpt>
      <trkpt lat="42.69255" lon="1.54769">
        <ele>2368.8259277344</ele>
        <time>2011-05-28T10:05:50Z</time>
      </trkpt>
      <trkpt lat="42.69256" lon="1.54763">
        <ele>2369.306640625</ele>
        <time>2011-05-28T10:05:56Z</time>
      </trkpt>
      <trkpt lat="42.69256" lon="1.54756">
        <ele>2369.787109375</ele>
        <time>2011-05-28T10:06:02Z</time>
      </trkpt>
      <trkpt lat="42.69254" lon="1.54749">
        <ele>2371.7097167969</ele>
        <time>2011-05-28T10:06:09Z</time>
      </trkpt>
      <trkpt lat="42.69252" lon="1.54747">
        <ele>2373.1518554688</ele>
        <time>2011-05-28T10:06:15Z</time>
      </trkpt>
      <trkpt lat="42.69249" lon="1.54746">
        <ele>2374.59375</ele>
        <time>2011-05-28T10:06:22Z</time>
      </trkpt>
      <trkpt lat="42.69247" lon="1.54746">
        <ele>2376.5163574219</ele>
        <time>2011-05-28T10:06:29Z</time>
      </trkpt>
      <trkpt lat="42.69245" lon="1.54749">
        <ele>2377.4775390625</ele>
        <time>2011-05-28T10:06:35Z</time>
      </trkpt>
      <trkpt lat="42.69243" lon="1.54746">
        <ele>2378.4389648438</ele>
        <time>2011-05-28T10:06:41Z</time>
      </trkpt>
      <trkpt lat="42.69241" lon="1.54745">
        <ele>2379.4001464844</ele>
        <time>2011-05-28T10:06:47Z</time>
      </trkpt>
      <trkpt lat="42.69239" lon="1.54749">
        <ele>2380.8425292969</ele>
        <time>2011-05-28T10:06:54Z</time>
      </trkpt>
      <trkpt lat="42.69236" lon="1.54747">
        <ele>2382.2844238281</ele>
        <time>2011-05-28T10:07:01Z</time>
      </trkpt>
      <trkpt lat="42.69233" lon="1.54751">
        <ele>2383.2456054688</ele>
        <time>2011-05-28T10:07:08Z</time>
      </trkpt>
      <trkpt lat="42.69231" lon="1.54754">
        <ele>2384.20703125</ele>
        <time>2011-05-28T10:07:14Z</time>
      </trkpt>
      <trkpt lat="42.69227" lon="1.54756">
        <ele>2385.1682128906</ele>
        <time>2011-05-28T10:07:21Z</time>
      </trkpt>
      <trkpt lat="42.69224" lon="1.54757">
        <ele>2386.6101074219</ele>
        <time>2011-05-28T10:07:27Z</time>
      </trkpt>
      <trkpt lat="42.69223" lon="1.54753">
        <ele>2388.0522460938</ele>
        <time>2011-05-28T10:07:33Z</time>
      </trkpt>
      <trkpt lat="42.69221" lon="1.54748">
        <ele>2389.0134277344</ele>
        <time>2011-05-28T10:07:39Z</time>
      </trkpt>
      <trkpt lat="42.6922" lon="1.54744">
        <ele>2389.494140625</ele>
        <time>2011-05-28T10:07:45Z</time>
      </trkpt>
      <trkpt lat="42.69218" lon="1.54744">
        <ele>2389.9748535156</ele>
        <time>2011-05-28T10:07:51Z</time>
      </trkpt>
      <trkpt lat="42.69217" lon="1.54746">
        <ele>2391.4167480469</ele>
        <time>2011-05-28T10:07:56Z</time>
      </trkpt>
      <trkpt lat="42.69214" lon="1.54744">
        <ele>2392.3781738281</ele>
        <time>2011-05-28T10:08:02Z</time>
      </trkpt>
      <trkpt lat="42.69214" lon="1.54737">
        <ele>2393.3393554688</ele>
        <time>2011-05-28T10:08:10Z</time>
      </trkpt>
      <trkpt lat="42.69213" lon="1.54734">
        <ele>2393.8200683594</ele>
        <time>2011-05-28T10:08:16Z</time>
      </trkpt>
      <trkpt lat="42.69212" lon="1.5473">
        <ele>2393.8200683594</ele>
        <time>2011-05-28T10:08:23Z</time>
      </trkpt>
      <trkpt lat="42.69211" lon="1.54726">
        <ele>2394.78125</ele>
        <time>2011-05-28T10:08:29Z</time>
      </trkpt>
      <trkpt lat="42.69208" lon="1.54724">
        <ele>2395.7426757812</ele>
        <time>2011-05-28T10:08:36Z</time>
      </trkpt>
      <trkpt lat="42.69205" lon="1.5472">
        <ele>2396.7041015625</ele>
        <time>2011-05-28T10:08:42Z</time>
      </trkpt>
      <trkpt lat="42.69203" lon="1.54721">
        <ele>2398.1459960938</ele>
        <time>2011-05-28T10:08:48Z</time>
      </trkpt>
      <trkpt lat="42.692" lon="1.54725">
        <ele>2400.5493164062</ele>
        <time>2011-05-28T10:08:56Z</time>
      </trkpt>
      <trkpt lat="42.69197" lon="1.5473">
        <ele>2402.9526367188</ele>
        <time>2011-05-28T10:09:04Z</time>
      </trkpt>
      <trkpt lat="42.69196" lon="1.54736">
        <ele>2403.9140625</ele>
        <time>2011-05-28T10:09:11Z</time>
      </trkpt>
      <trkpt lat="42.69194" lon="1.54745">
        <ele>2406.3171386719</ele>
        <time>2011-05-28T10:09:21Z</time>
      </trkpt>
      <trkpt lat="42.69191" lon="1.54749">
        <ele>2407.7592773438</ele>
        <time>2011-05-28T10:09:29Z</time>
      </trkpt>
      <trkpt lat="42.69188" lon="1.54754">
        <ele>2409.201171875</ele>
        <time>2011-05-28T10:09:36Z</time>
      </trkpt>
      <trkpt lat="42.69184" lon="1.54758">
        <ele>2410.6430664062</ele>
        <time>2011-05-28T10:09:44Z</time>
      </trkpt>
      <trkpt lat="42.6918" lon="1.54764">
        <ele>2412.0852050781</ele>
        <time>2011-05-28T10:09:52Z</time>
      </trkpt>
      <trkpt lat="42.69176" lon="1.5477">
        <ele>2414.4885253906</ele>
        <time>2011-05-28T10:10:01Z</time>
      </trkpt>
      <trkpt lat="42.69172" lon="1.5477">
        <ele>2415.4499511719</ele>
        <time>2011-05-28T10:10:09Z</time>
      </trkpt>
      <trkpt lat="42.6917" lon="1.54771">
        <ele>2416.4111328125</ele>
        <time>2011-05-28T10:10:16Z</time>
      </trkpt>
      <trkpt lat="42.69166" lon="1.54776">
        <ele>2418.3337402344</ele>
        <time>2011-05-28T10:10:24Z</time>
      </trkpt>
      <trkpt lat="42.69164" lon="1.54774">
        <ele>2418.3337402344</ele>
        <time>2011-05-28T10:10:29Z</time>
      </trkpt>
      <trkpt lat="42.69162" lon="1.54767">
        <ele>2419.2951660156</ele>
        <time>2011-05-28T10:10:36Z</time>
      </trkpt>
      <trkpt lat="42.69159" lon="1.54762">
        <ele>2421.2175292969</ele>
        <time>2011-05-28T10:10:44Z</time>
      </trkpt>
      <trkpt lat="42.69159" lon="1.54757">
        <ele>2422.1789550781</ele>
        <time>2011-05-28T10:10:51Z</time>
      </trkpt>
      <trkpt lat="42.69157" lon="1.54751">
        <ele>2423.6208496094</ele>
        <time>2011-05-28T10:10:59Z</time>
      </trkpt>
      <trkpt lat="42.69157" lon="1.54743">
        <ele>2424.5822753906</ele>
        <time>2011-05-28T10:11:08Z</time>
      </trkpt>
      <trkpt lat="42.69157" lon="1.54736">
        <ele>2425.0627441406</ele>
        <time>2011-05-28T10:11:15Z</time>
      </trkpt>
      <trkpt lat="42.69155" lon="1.5473">
        <ele>2426.0241699219</ele>
        <time>2011-05-28T10:11:22Z</time>
      </trkpt>
      <trkpt lat="42.69154" lon="1.54724">
        <ele>2427.4660644531</ele>
        <time>2011-05-28T10:11:29Z</time>
      </trkpt>
      <trkpt lat="42.69152" lon="1.5472">
        <ele>2427.9467773438</ele>
        <time>2011-05-28T10:11:35Z</time>
      </trkpt>
      <trkpt lat="42.69152" lon="1.54716">
        <ele>2428.908203125</ele>
        <time>2011-05-28T10:11:41Z</time>
      </trkpt>
      <trkpt lat="42.69152" lon="1.54712">
        <ele>2429.3889160156</ele>
        <time>2011-05-28T10:11:47Z</time>
      </trkpt>
      <trkpt lat="42.69151" lon="1.54708">
        <ele>2431.3115234375</ele>
        <time>2011-05-28T10:11:54Z</time>
      </trkpt>
      <trkpt lat="42.6915" lon="1.54705">
        <ele>2432.2729492188</ele>
        <time>2011-05-28T10:12:00Z</time>
      </trkpt>
      <trkpt lat="42.69149" lon="1.54702">
        <ele>2433.71484375</ele>
        <time>2011-05-28T10:12:05Z</time>
      </trkpt>
      <trkpt lat="42.69149" lon="1.54697">
        <ele>2435.1567382812</ele>
        <time>2011-05-28T10:12:13Z</time>
      </trkpt>
      <trkpt lat="42.69149" lon="1.54692">
        <ele>2437.0793457031</ele>
        <time>2011-05-28T10:12:32Z</time>
      </trkpt>
      <trkpt lat="42.69149" lon="1.5469">
        <ele>2438.0407714844</ele>
        <time>2011-05-28T10:12:38Z</time>
      </trkpt>
      <trkpt lat="42.69148" lon="1.54684">
        <ele>2439.9633789062</ele>
        <time>2011-05-28T10:12:47Z</time>
      </trkpt>
      <trkpt lat="42.69147" lon="1.54679">
        <ele>2441.4052734375</ele>
        <time>2011-05-28T10:12:55Z</time>
      </trkpt>
      <trkpt lat="42.69146" lon="1.54673">
        <ele>2442.3666992188</ele>
        <time>2011-05-28T10:13:03Z</time>
      </trkpt>
      <trkpt lat="42.69146" lon="1.54669">
        <ele>2443.3278808594</ele>
        <time>2011-05-28T10:13:10Z</time>
      </trkpt>
      <trkpt lat="42.69146" lon="1.54664">
        <ele>2444.2893066406</ele>
        <time>2011-05-28T10:13:24Z</time>
      </trkpt>
      <trkpt lat="42.69146" lon="1.54656">
        <ele>2445.2507324219</ele>
        <time>2011-05-28T10:13:31Z</time>
      </trkpt>
      <trkpt lat="42.69144" lon="1.54651">
        <ele>2447.6540527344</ele>
        <time>2011-05-28T10:13:38Z</time>
      </trkpt>
      <trkpt lat="42.6914" lon="1.54647">
        <ele>2449.5766601562</ele>
        <time>2011-05-28T10:13:45Z</time>
      </trkpt>
      <trkpt lat="42.69136" lon="1.54644">
        <ele>2451.4992675781</ele>
        <time>2011-05-28T10:13:53Z</time>
      </trkpt>
      <trkpt lat="42.69132" lon="1.54646">
        <ele>2452.9411621094</ele>
        <time>2011-05-28T10:14:01Z</time>
      </trkpt>
      <trkpt lat="42.69128" lon="1.54653">
        <ele>2454.8637695312</ele>
        <time>2011-05-28T10:14:09Z</time>
      </trkpt>
      <trkpt lat="42.69125" lon="1.54653">
        <ele>2455.8249511719</ele>
        <time>2011-05-28T10:14:15Z</time>
      </trkpt>
      <trkpt lat="42.69121" lon="1.54655">
        <ele>2456.7863769531</ele>
        <time>2011-05-28T10:14:21Z</time>
      </trkpt>
      <trkpt lat="42.69116" lon="1.54659">
        <ele>2459.1896972656</ele>
        <time>2011-05-28T10:14:29Z</time>
      </trkpt>
      <trkpt lat="42.6911" lon="1.54661">
        <ele>2459.6701660156</ele>
        <time>2011-05-28T10:14:36Z</time>
      </trkpt>
      <trkpt lat="42.69103" lon="1.5466">
        <ele>2460.6318359375</ele>
        <time>2011-05-28T10:14:44Z</time>
      </trkpt>
      <trkpt lat="42.69097" lon="1.54659">
        <ele>2461.5932617188</ele>
        <time>2011-05-28T10:14:51Z</time>
      </trkpt>
      <trkpt lat="42.6909" lon="1.54659">
        <ele>2462.5544433594</ele>
        <time>2011-05-28T10:14:59Z</time>
      </trkpt>
      <trkpt lat="42.69081" lon="1.54662">
        <ele>2463.515625</ele>
        <time>2011-05-28T10:15:08Z</time>
      </trkpt>
      <trkpt lat="42.69075" lon="1.54667">
        <ele>2464.9577636719</ele>
        <time>2011-05-28T10:15:16Z</time>
      </trkpt>
      <trkpt lat="42.6907" lon="1.54668">
        <ele>2465.4384765625</ele>
        <time>2011-05-28T10:15:21Z</time>
      </trkpt>
      <trkpt lat="42.69062" lon="1.54673">
        <ele>2466.8803710938</ele>
        <time>2011-05-28T10:15:30Z</time>
      </trkpt>
      <trkpt lat="42.69057" lon="1.54676">
        <ele>2467.8415527344</ele>
        <time>2011-05-28T10:15:37Z</time>
      </trkpt>
      <trkpt lat="42.69051" lon="1.5468">
        <ele>2469.2836914062</ele>
        <time>2011-05-28T10:15:44Z</time>
      </trkpt>
      <trkpt lat="42.69043" lon="1.54683">
        <ele>2470.2448730469</ele>
        <time>2011-05-28T10:15:54Z</time>
      </trkpt>
      <trkpt lat="42.69036" lon="1.54686">
        <ele>2471.2060546875</ele>
        <time>2011-05-28T10:16:02Z</time>
      </trkpt>
      <trkpt lat="42.69028" lon="1.54688">
        <ele>2472.6481933594</ele>
        <time>2011-05-28T10:16:10Z</time>
      </trkpt>
      <trkpt lat="42.69021" lon="1.54696">
        <ele>2475.0512695312</ele>
        <time>2011-05-28T10:16:19Z</time>
      </trkpt>
      <trkpt lat="42.69019" lon="1.54699">
        <ele>2475.5319824219</ele>
        <time>2011-05-28T10:16:22Z</time>
      </trkpt>
      <trkpt lat="42.69013" lon="1.54701">
        <ele>2476.4936523438</ele>
        <time>2011-05-28T10:16:28Z</time>
      </trkpt>
      <trkpt lat="42.69004" lon="1.54707">
        <ele>2477.935546875</ele>
        <time>2011-05-28T10:16:38Z</time>
      </trkpt>
      <trkpt lat="42.68997" lon="1.54714">
        <ele>2478.8967285156</ele>
        <time>2011-05-28T10:16:47Z</time>
      </trkpt>
      <trkpt lat="42.68994" lon="1.54717">
        <ele>2479.3774414062</ele>
        <time>2011-05-28T10:16:51Z</time>
      </trkpt>
      <trkpt lat="42.68988" lon="1.54727">
        <ele>2480.8195800781</ele>
        <time>2011-05-28T10:17:00Z</time>
      </trkpt>
      <trkpt lat="42.68982" lon="1.54734">
        <ele>2481.7807617188</ele>
        <time>2011-05-28T10:17:08Z</time>
      </trkpt>
      <trkpt lat="42.68976" lon="1.54737">
        <ele>2482.7419433594</ele>
        <time>2011-05-28T10:17:16Z</time>
      </trkpt>
      <trkpt lat="42.68968" lon="1.54737">
        <ele>2483.22265625</ele>
        <time>2011-05-28T10:17:24Z</time>
      </trkpt>
      <trkpt lat="42.68966" lon="1.54738">
        <ele>2483.22265625</ele>
        <time>2011-05-28T10:17:26Z</time>
      </trkpt>
      <trkpt lat="42.68957" lon="1.54741">
        <ele>2484.1840820312</ele>
        <time>2011-05-28T10:17:35Z</time>
      </trkpt>
      <trkpt lat="42.68949" lon="1.54743">
        <ele>2484.6647949219</ele>
        <time>2011-05-28T10:17:43Z</time>
      </trkpt>
      <trkpt lat="42.68942" lon="1.54751">
        <ele>2485.1452636719</ele>
        <time>2011-05-28T10:17:51Z</time>
      </trkpt>
      <trkpt lat="42.68937" lon="1.54762">
        <ele>2486.1066894531</ele>
        <time>2011-05-28T10:18:00Z</time>
      </trkpt>
      <trkpt lat="42.68937" lon="1.54763">
        <ele>2486.1066894531</ele>
        <time>2011-05-28T10:18:01Z</time>
      </trkpt>
      <trkpt lat="42.68932" lon="1.54769">
        <ele>2486.1066894531</ele>
        <time>2011-05-28T10:18:09Z</time>
      </trkpt>
      <trkpt lat="42.68931" lon="1.54773">
        <ele>2486.1066894531</ele>
        <time>2011-05-28T10:18:16Z</time>
      </trkpt>
      <trkpt lat="42.68931" lon="1.54775">
        <ele>2485.6259765625</ele>
        <time>2011-05-28T10:18:22Z</time>
      </trkpt>
      <trkpt lat="42.68932" lon="1.54775">
        <ele>2484.6647949219</ele>
        <time>2011-05-28T10:18:30Z</time>
      </trkpt>
      <trkpt lat="42.68933" lon="1.54776">
        <ele>2484.6647949219</ele>
        <time>2011-05-28T10:18:41Z</time>
      </trkpt>
      <trkpt lat="42.68933" lon="1.54777">
        <ele>2484.1840820312</ele>
        <time>2011-05-28T10:18:47Z</time>
      </trkpt>
      <trkpt lat="42.68931" lon="1.54777">
        <ele>2484.1840820312</ele>
        <time>2011-05-28T10:18:56Z</time>
      </trkpt>
      <trkpt lat="42.6893" lon="1.54776">
        <ele>2484.6647949219</ele>
        <time>2011-05-28T10:19:04Z</time>
      </trkpt>
      <trkpt lat="42.68926" lon="1.54776">
        <ele>2485.1452636719</ele>
        <time>2011-05-28T10:19:15Z</time>
      </trkpt>
      <trkpt lat="42.6892" lon="1.54778">
        <ele>2485.1452636719</ele>
        <time>2011-05-28T10:19:23Z</time>
      </trkpt>
      <trkpt lat="42.68914" lon="1.54786">
        <ele>2486.1066894531</ele>
        <time>2011-05-28T10:19:32Z</time>
      </trkpt>
      <trkpt lat="42.6891" lon="1.54792">
        <ele>2486.1066894531</ele>
        <time>2011-05-28T10:19:39Z</time>
      </trkpt>
      <trkpt lat="42.68908" lon="1.54793">
        <ele>2486.1066894531</ele>
        <time>2011-05-28T10:19:47Z</time>
      </trkpt>
      <trkpt lat="42.68904" lon="1.54791">
        <ele>2485.6259765625</ele>
        <time>2011-05-28T10:19:53Z</time>
      </trkpt>
      <trkpt lat="42.68899" lon="1.5479">
        <ele>2484.6647949219</ele>
        <time>2011-05-28T10:20:01Z</time>
      </trkpt>
      <trkpt lat="42.68898" lon="1.54789">
        <ele>2484.6647949219</ele>
        <time>2011-05-28T10:20:09Z</time>
      </trkpt>
      <trkpt lat="42.68898" lon="1.54786">
        <ele>2485.1452636719</ele>
        <time>2011-05-28T10:20:26Z</time>
      </trkpt>
      <trkpt lat="42.68898" lon="1.54787">
        <ele>2486.1066894531</ele>
        <time>2011-05-28T10:20:37Z</time>
      </trkpt>
      <trkpt lat="42.68898" lon="1.54787">
        <ele>2486.1066894531</ele>
        <time>2011-05-28T10:20:46Z</time>
      </trkpt>
      <trkpt lat="42.68898" lon="1.54787">
        <ele>2487.0678710938</ele>
        <time>2011-05-28T10:21:08Z</time>
      </trkpt>
      <trkpt lat="42.68898" lon="1.54788">
        <ele>2488.029296875</ele>
        <time>2011-05-28T10:21:19Z</time>
      </trkpt>
      <trkpt lat="42.68898" lon="1.54789">
        <ele>2488.5100097656</ele>
        <time>2011-05-28T10:21:30Z</time>
      </trkpt>
      <trkpt lat="42.68898" lon="1.54788">
        <ele>2488.5100097656</ele>
        <time>2011-05-28T10:21:44Z</time>
      </trkpt>
      <trkpt lat="42.68901" lon="1.54786">
        <ele>2488.5100097656</ele>
        <time>2011-05-28T10:21:49Z</time>
      </trkpt>
      <trkpt lat="42.68903" lon="1.54784">
        <ele>2488.9904785156</ele>
        <time>2011-05-28T10:21:57Z</time>
      </trkpt>
      <trkpt lat="42.68906" lon="1.54784">
        <ele>2489.4711914062</ele>
        <time>2011-05-28T10:22:03Z</time>
      </trkpt>
      <trkpt lat="42.68912" lon="1.54789">
        <ele>2489.4711914062</ele>
        <time>2011-05-28T10:22:12Z</time>
      </trkpt>
      <trkpt lat="42.68913" lon="1.54791">
        <ele>2488.9904785156</ele>
        <time>2011-05-28T10:22:19Z</time>
      </trkpt>
      <trkpt lat="42.68912" lon="1.5479">
        <ele>2488.9904785156</ele>
        <time>2011-05-28T10:22:25Z</time>
      </trkpt>
      <trkpt lat="42.68913" lon="1.5479">
        <ele>2488.029296875</ele>
        <time>2011-05-28T10:22:30Z</time>
      </trkpt>
      <trkpt lat="42.68911" lon="1.5479">
        <ele>2491.8745117188</ele>
        <time>2011-05-28T10:57:23Z</time>
      </trkpt>
      <trkpt lat="42.68911" lon="1.5479">
        <ele>2491.3937988281</ele>
        <time>2011-05-28T10:57:24Z</time>
      </trkpt>
      <trkpt lat="42.68912" lon="1.5479">
        <ele>2488.9904785156</ele>
        <time>2011-05-28T10:57:31Z</time>
      </trkpt>
      <trkpt lat="42.68912" lon="1.54785">
        <ele>2488.029296875</ele>
        <time>2011-05-28T10:57:39Z</time>
      </trkpt>
      <trkpt lat="42.68911" lon="1.54777">
        <ele>2487.5485839844</ele>
        <time>2011-05-28T10:57:45Z</time>
      </trkpt>
      <trkpt lat="42.68908" lon="1.54759">
        <ele>2487.0678710938</ele>
        <time>2011-05-28T10:57:56Z</time>
      </trkpt>
      <trkpt lat="42.68906" lon="1.54748">
        <ele>2486.5871582031</ele>
        <time>2011-05-28T10:58:04Z</time>
      </trkpt>
      <trkpt lat="42.68906" lon="1.54743">
        <ele>2485.6259765625</ele>
        <time>2011-05-28T10:58:18Z</time>
      </trkpt>
      <trkpt lat="42.68904" lon="1.54738">
        <ele>2486.1066894531</ele>
        <time>2011-05-28T10:58:22Z</time>
      </trkpt>
      <trkpt lat="42.68896" lon="1.54728">
        <ele>2486.5871582031</ele>
        <time>2011-05-28T10:58:31Z</time>
      </trkpt>
      <trkpt lat="42.68889" lon="1.54716">
        <ele>2486.5871582031</ele>
        <time>2011-05-28T10:58:40Z</time>
      </trkpt>
      <trkpt lat="42.68884" lon="1.54703">
        <ele>2486.5871582031</ele>
        <time>2011-05-28T10:58:49Z</time>
      </trkpt>
      <trkpt lat="42.68878" lon="1.54693">
        <ele>2487.0678710938</ele>
        <time>2011-05-28T10:58:57Z</time>
      </trkpt>
      <trkpt lat="42.68876" lon="1.54689">
        <ele>2487.0678710938</ele>
        <time>2011-05-28T10:59:01Z</time>
      </trkpt>
      <trkpt lat="42.68871" lon="1.54674">
        <ele>2487.0678710938</ele>
        <time>2011-05-28T10:59:10Z</time>
      </trkpt>
      <trkpt lat="42.68867" lon="1.54666">
        <ele>2487.0678710938</ele>
        <time>2011-05-28T10:59:17Z</time>
      </trkpt>
      <trkpt lat="42.68863" lon="1.54655">
        <ele>2486.5871582031</ele>
        <time>2011-05-28T10:59:25Z</time>
      </trkpt>
      <trkpt lat="42.68859" lon="1.54642">
        <ele>2485.6259765625</ele>
        <time>2011-05-28T10:59:34Z</time>
      </trkpt>
      <trkpt lat="42.68859" lon="1.5463">
        <ele>2485.1452636719</ele>
        <time>2011-05-28T10:59:41Z</time>
      </trkpt>
      <trkpt lat="42.6886" lon="1.5461">
        <ele>2483.7033691406</ele>
        <time>2011-05-28T10:59:49Z</time>
      </trkpt>
      <trkpt lat="42.68863" lon="1.54592">
        <ele>2481.3000488281</ele>
        <time>2011-05-28T10:59:55Z</time>
      </trkpt>
      <trkpt lat="42.68864" lon="1.54571">
        <ele>2479.8581542969</ele>
        <time>2011-05-28T11:00:02Z</time>
      </trkpt>
      <trkpt lat="42.68869" lon="1.54551">
        <ele>2477.935546875</ele>
        <time>2011-05-28T11:00:09Z</time>
      </trkpt>
      <trkpt lat="42.68876" lon="1.54534">
        <ele>2476.0129394531</ele>
        <time>2011-05-28T11:00:16Z</time>
      </trkpt>
      <trkpt lat="42.6888" lon="1.54529">
        <ele>2475.5319824219</ele>
        <time>2011-05-28T11:00:21Z</time>
      </trkpt>
      <trkpt lat="42.68887" lon="1.54524">
        <ele>2474.0900878906</ele>
        <time>2011-05-28T11:00:29Z</time>
      </trkpt>
      <trkpt lat="42.68899" lon="1.54525">
        <ele>2473.12890625</ele>
        <time>2011-05-28T11:00:37Z</time>
      </trkpt>
      <trkpt lat="42.68915" lon="1.54528">
        <ele>2471.6867675781</ele>
        <time>2011-05-28T11:00:45Z</time>
      </trkpt>
      <trkpt lat="42.68923" lon="1.54529">
        <ele>2471.2060546875</ele>
        <time>2011-05-28T11:00:49Z</time>
      </trkpt>
      <trkpt lat="42.68933" lon="1.5453">
        <ele>2469.7641601562</ele>
        <time>2011-05-28T11:00:54Z</time>
      </trkpt>
      <trkpt lat="42.68948" lon="1.54534">
        <ele>2468.322265625</ele>
        <time>2011-05-28T11:01:01Z</time>
      </trkpt>
      <trkpt lat="42.68964" lon="1.5454">
        <ele>2466.8803710938</ele>
        <time>2011-05-28T11:01:09Z</time>
      </trkpt>
      <trkpt lat="42.68974" lon="1.54545">
        <ele>2466.8803710938</ele>
        <time>2011-05-28T11:01:14Z</time>
      </trkpt>
      <trkpt lat="42.68986" lon="1.54551">
        <ele>2465.9189453125</ele>
        <time>2011-05-28T11:01:20Z</time>
      </trkpt>
      <trkpt lat="42.68998" lon="1.54556">
        <ele>2464.9577636719</ele>
        <time>2011-05-28T11:01:26Z</time>
      </trkpt>
      <trkpt lat="42.69006" lon="1.54561">
        <ele>2464.4770507812</ele>
        <time>2011-05-28T11:01:32Z</time>
      </trkpt>
      <trkpt lat="42.69014" lon="1.54565">
        <ele>2463.9963378906</ele>
        <time>2011-05-28T11:01:40Z</time>
      </trkpt>
      <trkpt lat="42.69023" lon="1.54571">
        <ele>2463.515625</ele>
        <time>2011-05-28T11:01:48Z</time>
      </trkpt>
      <trkpt lat="42.69029" lon="1.54576">
        <ele>2463.515625</ele>
        <time>2011-05-28T11:01:55Z</time>
      </trkpt>
      <trkpt lat="42.69038" lon="1.54582">
        <ele>2463.03515625</ele>
        <time>2011-05-28T11:02:03Z</time>
      </trkpt>
      <trkpt lat="42.69049" lon="1.54591">
        <ele>2462.5544433594</ele>
        <time>2011-05-28T11:02:12Z</time>
      </trkpt>
      <trkpt lat="42.69058" lon="1.54598">
        <ele>2461.1125488281</ele>
        <time>2011-05-28T11:02:19Z</time>
      </trkpt>
      <trkpt lat="42.6907" lon="1.54605">
        <ele>2460.1511230469</ele>
        <time>2011-05-28T11:02:27Z</time>
      </trkpt>
      <trkpt lat="42.69078" lon="1.5461">
        <ele>2459.6701660156</ele>
        <time>2011-05-28T11:02:33Z</time>
      </trkpt>
      <trkpt lat="42.69086" lon="1.54616">
        <ele>2459.1896972656</ele>
        <time>2011-05-28T11:02:40Z</time>
      </trkpt>
      <trkpt lat="42.69095" lon="1.54623">
        <ele>2458.2282714844</ele>
        <time>2011-05-28T11:02:46Z</time>
      </trkpt>
      <trkpt lat="42.69104" lon="1.54628">
        <ele>2457.7478027344</ele>
        <time>2011-05-28T11:02:53Z</time>
      </trkpt>
      <trkpt lat="42.69113" lon="1.54635">
        <ele>2456.3056640625</ele>
        <time>2011-05-28T11:03:01Z</time>
      </trkpt>
      <trkpt lat="42.6912" lon="1.54641">
        <ele>2455.3444824219</ele>
        <time>2011-05-28T11:03:08Z</time>
      </trkpt>
      <trkpt lat="42.69128" lon="1.54645">
        <ele>2453.9025878906</ele>
        <time>2011-05-28T11:03:15Z</time>
      </trkpt>
      <trkpt lat="42.69132" lon="1.54648">
        <ele>2452.4604492188</ele>
        <time>2011-05-28T11:03:19Z</time>
      </trkpt>
      <trkpt lat="42.69134" lon="1.5465">
        <ele>2452.4604492188</ele>
        <time>2011-05-28T11:03:27Z</time>
      </trkpt>
      <trkpt lat="42.69138" lon="1.54649">
        <ele>2451.9797363281</ele>
        <time>2011-05-28T11:03:36Z</time>
      </trkpt>
      <trkpt lat="42.69143" lon="1.54654">
        <ele>2450.0573730469</ele>
        <time>2011-05-28T11:03:44Z</time>
      </trkpt>
      <trkpt lat="42.69145" lon="1.54655">
        <ele>2448.615234375</ele>
        <time>2011-05-28T11:03:52Z</time>
      </trkpt>
      <trkpt lat="42.69144" lon="1.54655">
        <ele>2450.0573730469</ele>
        <time>2011-05-28T11:04:04Z</time>
      </trkpt>
      <trkpt lat="42.69144" lon="1.54655">
        <ele>2450.0573730469</ele>
        <time>2011-05-28T11:04:14Z</time>
      </trkpt>
      <trkpt lat="42.69145" lon="1.54657">
        <ele>2449.5766601562</ele>
        <time>2011-05-28T11:04:26Z</time>
      </trkpt>
      <trkpt lat="42.69145" lon="1.5466">
        <ele>2448.615234375</ele>
        <time>2011-05-28T11:04:33Z</time>
      </trkpt>
      <trkpt lat="42.69146" lon="1.54666">
        <ele>2446.6926269531</ele>
        <time>2011-05-28T11:04:40Z</time>
      </trkpt>
      <trkpt lat="42.69146" lon="1.54671">
        <ele>2445.7314453125</ele>
        <time>2011-05-28T11:04:43Z</time>
      </trkpt>
      <trkpt lat="42.69147" lon="1.5468">
        <ele>2443.80859375</ele>
        <time>2011-05-28T11:04:51Z</time>
      </trkpt>
      <trkpt lat="42.69149" lon="1.54688">
        <ele>2441.8859863281</ele>
        <time>2011-05-28T11:04:56Z</time>
      </trkpt>
      <trkpt lat="42.6915" lon="1.54693">
        <ele>2439.4826660156</ele>
        <time>2011-05-28T11:05:02Z</time>
      </trkpt>
      <trkpt lat="42.6915" lon="1.54697">
        <ele>2438.521484375</ele>
        <time>2011-05-28T11:05:08Z</time>
      </trkpt>
      <trkpt lat="42.69151" lon="1.547">
        <ele>2437.5600585938</ele>
        <time>2011-05-28T11:05:10Z</time>
      </trkpt>
      <trkpt lat="42.69152" lon="1.54707">
        <ele>2436.1181640625</ele>
        <time>2011-05-28T11:05:15Z</time>
      </trkpt>
      <trkpt lat="42.69153" lon="1.54719">
        <ele>2432.7534179688</ele>
        <time>2011-05-28T11:05:22Z</time>
      </trkpt>
      <trkpt lat="42.69156" lon="1.54722">
        <ele>2431.3115234375</ele>
        <time>2011-05-28T11:05:26Z</time>
      </trkpt>
      <trkpt lat="42.69159" lon="1.54727">
        <ele>2429.8696289062</ele>
        <time>2011-05-28T11:05:30Z</time>
      </trkpt>
      <trkpt lat="42.69164" lon="1.54725">
        <ele>2426.9855957031</ele>
        <time>2011-05-28T11:05:38Z</time>
      </trkpt>
      <trkpt lat="42.6917" lon="1.54718">
        <ele>2423.6208496094</ele>
        <time>2011-05-28T11:05:47Z</time>
      </trkpt>
      <trkpt lat="42.69173" lon="1.54716">
        <ele>2421.6982421875</ele>
        <time>2011-05-28T11:05:52Z</time>
      </trkpt>
      <trkpt lat="42.69176" lon="1.54715">
        <ele>2419.7756347656</ele>
        <time>2011-05-28T11:05:58Z</time>
      </trkpt>
      <trkpt lat="42.6918" lon="1.54715">
        <ele>2417.8530273438</ele>
        <time>2011-05-28T11:06:04Z</time>
      </trkpt>
      <trkpt lat="42.69183" lon="1.54715">
        <ele>2415.4499511719</ele>
        <time>2011-05-28T11:06:10Z</time>
      </trkpt>
      <trkpt lat="42.69187" lon="1.54714">
        <ele>2413.0466308594</ele>
        <time>2011-05-28T11:06:16Z</time>
      </trkpt>
      <trkpt lat="42.6919" lon="1.54711">
        <ele>2410.6430664062</ele>
        <time>2011-05-28T11:06:23Z</time>
      </trkpt>
      <trkpt lat="42.69194" lon="1.54712">
        <ele>2408.2397460938</ele>
        <time>2011-05-28T11:06:28Z</time>
      </trkpt>
      <trkpt lat="42.69199" lon="1.54714">
        <ele>2405.8364257812</ele>
        <time>2011-05-28T11:06:35Z</time>
      </trkpt>
      <trkpt lat="42.69202" lon="1.54718">
        <ele>2403.4333496094</ele>
        <time>2011-05-28T11:06:41Z</time>
      </trkpt>
      <trkpt lat="42.69205" lon="1.5472">
        <ele>2401.5107421875</ele>
        <time>2011-05-28T11:06:46Z</time>
      </trkpt>
      <trkpt lat="42.69208" lon="1.54721">
        <ele>2399.5881347656</ele>
        <time>2011-05-28T11:06:52Z</time>
      </trkpt>
      <trkpt lat="42.69209" lon="1.54718">
        <ele>2398.6267089844</ele>
        <time>2011-05-28T11:06:59Z</time>
      </trkpt>
      <trkpt lat="42.69213" lon="1.54714">
        <ele>2396.7041015625</ele>
        <time>2011-05-28T11:07:06Z</time>
      </trkpt>
      <trkpt lat="42.69218" lon="1.5471">
        <ele>2393.8200683594</ele>
        <time>2011-05-28T11:07:13Z</time>
      </trkpt>
      <trkpt lat="42.69223" lon="1.54706">
        <ele>2391.4167480469</ele>
        <time>2011-05-28T11:07:20Z</time>
      </trkpt>
      <trkpt lat="42.69227" lon="1.54703">
        <ele>2390.4553222656</ele>
        <time>2011-05-28T11:07:23Z</time>
      </trkpt>
      <trkpt lat="42.69231" lon="1.54701">
        <ele>2389.494140625</ele>
        <time>2011-05-28T11:07:26Z</time>
      </trkpt>
      <trkpt lat="42.69237" lon="1.54699">
        <ele>2387.5715332031</ele>
        <time>2011-05-28T11:07:30Z</time>
      </trkpt>
      <trkpt lat="42.6924" lon="1.54697">
        <ele>2387.0908203125</ele>
        <time>2011-05-28T11:07:32Z</time>
      </trkpt>
      <trkpt lat="42.69249" lon="1.54695">
        <ele>2383.7263183594</ele>
        <time>2011-05-28T11:07:38Z</time>
      </trkpt>
      <trkpt lat="42.69255" lon="1.54695">
        <ele>2381.3229980469</ele>
        <time>2011-05-28T11:07:44Z</time>
      </trkpt>
      <trkpt lat="42.69258" lon="1.54696">
        <ele>2379.4001464844</ele>
        <time>2011-05-28T11:07:50Z</time>
      </trkpt>
      <trkpt lat="42.6926" lon="1.54697">
        <ele>2377.9582519531</ele>
        <time>2011-05-28T11:07:55Z</time>
      </trkpt>
      <trkpt lat="42.69263" lon="1.54698">
        <ele>2376.5163574219</ele>
        <time>2011-05-28T11:08:02Z</time>
      </trkpt>
      <trkpt lat="42.69267" lon="1.54699">
        <ele>2375.07421875</ele>
        <time>2011-05-28T11:08:09Z</time>
      </trkpt>
      <trkpt lat="42.69268" lon="1.54702">
        <ele>2372.6711425781</ele>
        <time>2011-05-28T11:08:15Z</time>
      </trkpt>
      <trkpt lat="42.69271" lon="1.54704">
        <ele>2370.7485351562</ele>
        <time>2011-05-28T11:08:23Z</time>
      </trkpt>
      <trkpt lat="42.69273" lon="1.54703">
        <ele>2370.2678222656</ele>
        <time>2011-05-28T11:08:30Z</time>
      </trkpt>
      <trkpt lat="42.69275" lon="1.54705">
        <ele>2369.306640625</ele>
        <time>2011-05-28T11:08:37Z</time>
      </trkpt>
      <trkpt lat="42.69277" lon="1.54708">
        <ele>2367.3837890625</ele>
        <time>2011-05-28T11:08:44Z</time>
      </trkpt>
      <trkpt lat="42.69279" lon="1.54711">
        <ele>2365.9418945312</ele>
        <time>2011-05-28T11:08:49Z</time>
      </trkpt>
      <trkpt lat="42.69281" lon="1.54715">
        <ele>2363.5383300781</ele>
        <time>2011-05-28T11:08:55Z</time>
      </trkpt>
      <trkpt lat="42.69283" lon="1.54718">
        <ele>2361.6159667969</ele>
        <time>2011-05-28T11:09:00Z</time>
      </trkpt>
      <trkpt lat="42.69285" lon="1.54723">
        <ele>2360.173828125</ele>
        <time>2011-05-28T11:09:06Z</time>
      </trkpt>
      <trkpt lat="42.69283" lon="1.54728">
        <ele>2357.7707519531</ele>
        <time>2011-05-28T11:09:13Z</time>
      </trkpt>
      <trkpt lat="42.69283" lon="1.5473">
        <ele>2356.8093261719</ele>
        <time>2011-05-28T11:09:20Z</time>
      </trkpt>
      <trkpt lat="42.69284" lon="1.54731">
        <ele>2355.3674316406</ele>
        <time>2011-05-28T11:09:28Z</time>
      </trkpt>
      <trkpt lat="42.69286" lon="1.54732">
        <ele>2354.88671875</ele>
        <time>2011-05-28T11:09:34Z</time>
      </trkpt>
      <trkpt lat="42.69286" lon="1.54734">
        <ele>2353.9255371094</ele>
        <time>2011-05-28T11:09:43Z</time>
      </trkpt>
      <trkpt lat="42.69287" lon="1.54736">
        <ele>2352.4833984375</ele>
        <time>2011-05-28T11:09:49Z</time>
      </trkpt>
      <trkpt lat="42.69288" lon="1.54737">
        <ele>2351.5222167969</ele>
        <time>2011-05-28T11:09:56Z</time>
      </trkpt>
      <trkpt lat="42.69289" lon="1.54738">
        <ele>2351.0415039062</ele>
        <time>2011-05-28T11:10:01Z</time>
      </trkpt>
      <trkpt lat="42.6929" lon="1.5474">
        <ele>2350.0803222656</ele>
        <time>2011-05-28T11:10:08Z</time>
      </trkpt>
      <trkpt lat="42.69292" lon="1.5474">
        <ele>2349.1188964844</ele>
        <time>2011-05-28T11:10:14Z</time>
      </trkpt>
      <trkpt lat="42.69294" lon="1.54739">
        <ele>2347.6767578125</ele>
        <time>2011-05-28T11:10:19Z</time>
      </trkpt>
      <trkpt lat="42.69297" lon="1.5474">
        <ele>2346.7153320312</ele>
        <time>2011-05-28T11:10:26Z</time>
      </trkpt>
      <trkpt lat="42.693" lon="1.5474">
        <ele>2345.7541503906</ele>
        <time>2011-05-28T11:10:33Z</time>
      </trkpt>
      <trkpt lat="42.69304" lon="1.54742">
        <ele>2344.7927246094</ele>
        <time>2011-05-28T11:10:39Z</time>
      </trkpt>
      <trkpt lat="42.69309" lon="1.54741">
        <ele>2343.3508300781</ele>
        <time>2011-05-28T11:10:45Z</time>
      </trkpt>
      <trkpt lat="42.69311" lon="1.54745">
        <ele>2341.9089355469</ele>
        <time>2011-05-28T11:10:51Z</time>
      </trkpt>
      <trkpt lat="42.69314" lon="1.5475">
        <ele>2340.9475097656</ele>
        <time>2011-05-28T11:10:56Z</time>
      </trkpt>
      <trkpt lat="42.69319" lon="1.54751">
        <ele>2339.0249023438</ele>
        <time>2011-05-28T11:11:01Z</time>
      </trkpt>
      <trkpt lat="42.6932" lon="1.54751">
        <ele>2339.0249023438</ele>
        <time>2011-05-28T11:11:02Z</time>
      </trkpt>
      <trkpt lat="42.69323" lon="1.54756">
        <ele>2337.1022949219</ele>
        <time>2011-05-28T11:11:07Z</time>
      </trkpt>
      <trkpt lat="42.69326" lon="1.54763">
        <ele>2335.1796875</ele>
        <time>2011-05-28T11:11:12Z</time>
      </trkpt>
      <trkpt lat="42.69331" lon="1.54766">
        <ele>2334.2185058594</ele>
        <time>2011-05-28T11:11:20Z</time>
      </trkpt>
      <trkpt lat="42.69333" lon="1.54767">
        <ele>2333.2570800781</ele>
        <time>2011-05-28T11:11:26Z</time>
      </trkpt>
      <trkpt lat="42.69337" lon="1.54766">
        <ele>2332.2958984375</ele>
        <time>2011-05-28T11:11:30Z</time>
      </trkpt>
      <trkpt lat="42.69344" lon="1.5476">
        <ele>2331.8149414062</ele>
        <time>2011-05-28T11:11:36Z</time>
      </trkpt>
      <trkpt lat="42.6935" lon="1.54756">
        <ele>2329.8923339844</ele>
        <time>2011-05-28T11:11:44Z</time>
      </trkpt>
      <trkpt lat="42.69358" lon="1.54752">
        <ele>2327.9697265625</ele>
        <time>2011-05-28T11:11:52Z</time>
      </trkpt>
      <trkpt lat="42.69361" lon="1.54748">
        <ele>2327.4890136719</ele>
        <time>2011-05-28T11:11:58Z</time>
      </trkpt>
      <trkpt lat="42.69365" lon="1.54745">
        <ele>2326.5278320312</ele>
        <time>2011-05-28T11:12:03Z</time>
      </trkpt>
      <trkpt lat="42.69369" lon="1.54748">
        <ele>2324.6052246094</ele>
        <time>2011-05-28T11:12:10Z</time>
      </trkpt>
      <trkpt lat="42.69373" lon="1.54748">
        <ele>2323.1633300781</ele>
        <time>2011-05-28T11:12:17Z</time>
      </trkpt>
      <trkpt lat="42.69377" lon="1.54745">
        <ele>2322.2019042969</ele>
        <time>2011-05-28T11:12:22Z</time>
      </trkpt>
      <trkpt lat="42.69381" lon="1.54743">
        <ele>2320.279296875</ele>
        <time>2011-05-28T11:12:29Z</time>
      </trkpt>
      <trkpt lat="42.69385" lon="1.54744">
        <ele>2318.8374023438</ele>
        <time>2011-05-28T11:12:36Z</time>
      </trkpt>
      <trkpt lat="42.69389" lon="1.54741">
        <ele>2317.8759765625</ele>
        <time>2011-05-28T11:12:41Z</time>
      </trkpt>
      <trkpt lat="42.69392" lon="1.54743">
        <ele>2315.953125</ele>
        <time>2011-05-28T11:12:47Z</time>
      </trkpt>
      <trkpt lat="42.69395" lon="1.54743">
        <ele>2314.0305175781</ele>
        <time>2011-05-28T11:12:53Z</time>
      </trkpt>
      <trkpt lat="42.69397" lon="1.54745">
        <ele>2313.0693359375</ele>
        <time>2011-05-28T11:12:59Z</time>
      </trkpt>
      <trkpt lat="42.69396" lon="1.54748">
        <ele>2311.6274414062</ele>
        <time>2011-05-28T11:13:06Z</time>
      </trkpt>
      <trkpt lat="42.69397" lon="1.54749">
        <ele>2310.1853027344</ele>
        <time>2011-05-28T11:13:13Z</time>
      </trkpt>
      <trkpt lat="42.69399" lon="1.54749">
        <ele>2308.7434082031</ele>
        <time>2011-05-28T11:13:19Z</time>
      </trkpt>
      <trkpt lat="42.69402" lon="1.5475">
        <ele>2307.3015136719</ele>
        <time>2011-05-28T11:13:27Z</time>
      </trkpt>
      <trkpt lat="42.69404" lon="1.54753">
        <ele>2306.3400878906</ele>
        <time>2011-05-28T11:13:33Z</time>
      </trkpt>
      <trkpt lat="42.69403" lon="1.54756">
        <ele>2305.37890625</ele>
        <time>2011-05-28T11:13:40Z</time>
      </trkpt>
      <trkpt lat="42.69403" lon="1.54757">
        <ele>2304.4174804688</ele>
        <time>2011-05-28T11:13:50Z</time>
      </trkpt>
      <trkpt lat="42.69403" lon="1.54761">
        <ele>2302.4948730469</ele>
        <time>2011-05-28T11:14:00Z</time>
      </trkpt>
      <trkpt lat="42.69408" lon="1.54764">
        <ele>2300.091796875</ele>
        <time>2011-05-28T11:14:06Z</time>
      </trkpt>
      <trkpt lat="42.69414" lon="1.54761">
        <ele>2300.091796875</ele>
        <time>2011-05-28T11:14:11Z</time>
      </trkpt>
      <trkpt lat="42.6942" lon="1.54759">
        <ele>2299.6108398438</ele>
        <time>2011-05-28T11:14:17Z</time>
      </trkpt>
      <trkpt lat="42.69425" lon="1.54753">
        <ele>2299.1301269531</ele>
        <time>2011-05-28T11:14:24Z</time>
      </trkpt>
      <trkpt lat="42.69431" lon="1.54753">
        <ele>2296.7268066406</ele>
        <time>2011-05-28T11:14:31Z</time>
      </trkpt>
      <trkpt lat="42.69435" lon="1.54754">
        <ele>2296.2463378906</ele>
        <time>2011-05-28T11:14:36Z</time>
      </trkpt>
      <trkpt lat="42.69436" lon="1.54759">
        <ele>2295.2849121094</ele>
        <time>2011-05-28T11:14:43Z</time>
      </trkpt>
      <trkpt lat="42.69434" lon="1.54762">
        <ele>2293.8430175781</ele>
        <time>2011-05-28T11:14:48Z</time>
      </trkpt>
      <trkpt lat="42.69432" lon="1.54768">
        <ele>2291.9204101562</ele>
        <time>2011-05-28T11:14:54Z</time>
      </trkpt>
      <trkpt lat="42.69431" lon="1.54769">
        <ele>2291.4396972656</ele>
        <time>2011-05-28T11:15:00Z</time>
      </trkpt>
      <trkpt lat="42.69428" lon="1.54774">
        <ele>2289.5170898438</ele>
        <time>2011-05-28T11:15:08Z</time>
      </trkpt>
      <trkpt lat="42.69429" lon="1.54775">
        <ele>2288.0751953125</ele>
        <time>2011-05-28T11:15:17Z</time>
      </trkpt>
      <trkpt lat="42.69432" lon="1.54777">
        <ele>2286.6330566406</ele>
        <time>2011-05-28T11:15:23Z</time>
      </trkpt>
      <trkpt lat="42.69434" lon="1.54781">
        <ele>2285.671875</ele>
        <time>2011-05-28T11:15:31Z</time>
      </trkpt>
      <trkpt lat="42.69437" lon="1.54782">
        <ele>2283.7490234375</ele>
        <time>2011-05-28T11:15:39Z</time>
      </trkpt>
      <trkpt lat="42.69439" lon="1.54783">
        <ele>2283.2683105469</ele>
        <time>2011-05-28T11:15:46Z</time>
      </trkpt>
      <trkpt lat="42.6944" lon="1.54785">
        <ele>2282.7875976562</ele>
        <time>2011-05-28T11:15:51Z</time>
      </trkpt>
      <trkpt lat="42.69442" lon="1.54788">
        <ele>2280.3845214844</ele>
        <time>2011-05-28T11:15:58Z</time>
      </trkpt>
      <trkpt lat="42.69443" lon="1.54796">
        <ele>2278.4619140625</ele>
        <time>2011-05-28T11:16:03Z</time>
      </trkpt>
      <trkpt lat="42.69444" lon="1.54801">
        <ele>2277.9812011719</ele>
        <time>2011-05-28T11:16:10Z</time>
      </trkpt>
      <trkpt lat="42.69444" lon="1.54802">
        <ele>2277.9812011719</ele>
        <time>2011-05-28T11:16:16Z</time>
      </trkpt>
      <trkpt lat="42.69444" lon="1.54803">
        <ele>2277.0200195312</ele>
        <time>2011-05-28T11:17:17Z</time>
      </trkpt>
      <trkpt lat="42.69446" lon="1.54811">
        <ele>2275.5778808594</ele>
        <time>2011-05-28T11:17:25Z</time>
      </trkpt>
      <trkpt lat="42.69448" lon="1.54814">
        <ele>2274.1359863281</ele>
        <time>2011-05-28T11:17:31Z</time>
      </trkpt>
      <trkpt lat="42.69452" lon="1.54816">
        <ele>2272.6940917969</ele>
        <time>2011-05-28T11:17:38Z</time>
      </trkpt>
      <trkpt lat="42.69458" lon="1.54816">
        <ele>2271.7326660156</ele>
        <time>2011-05-28T11:17:46Z</time>
      </trkpt>
      <trkpt lat="42.69464" lon="1.54814">
        <ele>2271.7326660156</ele>
        <time>2011-05-28T11:17:53Z</time>
      </trkpt>
      <trkpt lat="42.69469" lon="1.54818">
        <ele>2271.251953125</ele>
        <time>2011-05-28T11:17:58Z</time>
      </trkpt>
      <trkpt lat="42.69474" lon="1.54825">
        <ele>2270.2907714844</ele>
        <time>2011-05-28T11:18:04Z</time>
      </trkpt>
      <trkpt lat="42.69483" lon="1.54828">
        <ele>2268.8488769531</ele>
        <time>2011-05-28T11:18:12Z</time>
      </trkpt>
      <trkpt lat="42.69495" lon="1.54832">
        <ele>2267.4064941406</ele>
        <time>2011-05-28T11:18:18Z</time>
      </trkpt>
      <trkpt lat="42.69503" lon="1.54836">
        <ele>2266.4453125</ele>
        <time>2011-05-28T11:18:22Z</time>
      </trkpt>
      <trkpt lat="42.69509" lon="1.54839">
        <ele>2265.0034179688</ele>
        <time>2011-05-28T11:18:26Z</time>
      </trkpt>
      <trkpt lat="42.69515" lon="1.54842">
        <ele>2263.5612792969</ele>
        <time>2011-05-28T11:18:31Z</time>
      </trkpt>
      <trkpt lat="42.69523" lon="1.5484">
        <ele>2261.158203125</ele>
        <time>2011-05-28T11:18:36Z</time>
      </trkpt>
      <trkpt lat="42.69526" lon="1.54839">
        <ele>2260.1967773438</ele>
        <time>2011-05-28T11:18:38Z</time>
      </trkpt>
      <trkpt lat="42.69528" lon="1.54838">
        <ele>2259.2355957031</ele>
        <time>2011-05-28T11:18:40Z</time>
      </trkpt>
      <trkpt lat="42.69533" lon="1.54838">
        <ele>2257.7937011719</ele>
        <time>2011-05-28T11:18:46Z</time>
      </trkpt>
      <trkpt lat="42.69536" lon="1.54839">
        <ele>2256.3515625</ele>
        <time>2011-05-28T11:18:50Z</time>
      </trkpt>
      <trkpt lat="42.69542" lon="1.54842">
        <ele>2253.9484863281</ele>
        <time>2011-05-28T11:18:56Z</time>
      </trkpt>
      <trkpt lat="42.69551" lon="1.54848">
        <ele>2251.0642089844</ele>
        <time>2011-05-28T11:19:02Z</time>
      </trkpt>
      <trkpt lat="42.69553" lon="1.54848">
        <ele>2250.1030273438</ele>
        <time>2011-05-28T11:19:04Z</time>
      </trkpt>
      <trkpt lat="42.69559" lon="1.5485">
        <ele>2248.1801757812</ele>
        <time>2011-05-28T11:19:10Z</time>
      </trkpt>
      <trkpt lat="42.69564" lon="1.54848">
        <ele>2246.2578125</ele>
        <time>2011-05-28T11:19:15Z</time>
      </trkpt>
      <trkpt lat="42.69569" lon="1.54849">
        <ele>2243.8544921875</ele>
        <time>2011-05-28T11:19:20Z</time>
      </trkpt>
      <trkpt lat="42.69572" lon="1.5485">
        <ele>2243.3737792969</ele>
        <time>2011-05-28T11:19:22Z</time>
      </trkpt>
      <trkpt lat="42.69576" lon="1.54853">
        <ele>2241.451171875</ele>
        <time>2011-05-28T11:19:26Z</time>
      </trkpt>
      <trkpt lat="42.69585" lon="1.54858">
        <ele>2238.0866699219</ele>
        <time>2011-05-28T11:19:33Z</time>
      </trkpt>
      <trkpt lat="42.69586" lon="1.54859">
        <ele>2238.0866699219</ele>
        <time>2011-05-28T11:19:34Z</time>
      </trkpt>
      <trkpt lat="42.6959" lon="1.54861">
        <ele>2236.1640625</ele>
        <time>2011-05-28T11:19:38Z</time>
      </trkpt>
      <trkpt lat="42.69596" lon="1.54863">
        <ele>2233.7604980469</ele>
        <time>2011-05-28T11:19:44Z</time>
      </trkpt>
      <trkpt lat="42.69598" lon="1.54863">
        <ele>2233.2797851562</ele>
        <time>2011-05-28T11:19:45Z</time>
      </trkpt>
      <trkpt lat="42.69607" lon="1.54864">
        <ele>2230.8767089844</ele>
        <time>2011-05-28T11:19:52Z</time>
      </trkpt>
      <trkpt lat="42.6961" lon="1.54864">
        <ele>2230.3959960938</ele>
        <time>2011-05-28T11:19:54Z</time>
      </trkpt>
      <trkpt lat="42.69616" lon="1.54868">
        <ele>2228.4733886719</ele>
        <time>2011-05-28T11:20:00Z</time>
      </trkpt>
      <trkpt lat="42.69622" lon="1.54868">
        <ele>2226.55078125</ele>
        <time>2011-05-28T11:20:06Z</time>
      </trkpt>
      <trkpt lat="42.69628" lon="1.54873">
        <ele>2224.1474609375</ele>
        <time>2011-05-28T11:20:12Z</time>
      </trkpt>
      <trkpt lat="42.6963" lon="1.54877">
        <ele>2223.1862792969</ele>
        <time>2011-05-28T11:20:14Z</time>
      </trkpt>
      <trkpt lat="42.69633" lon="1.5489">
        <ele>2220.3022460938</ele>
        <time>2011-05-28T11:20:21Z</time>
      </trkpt>
      <trkpt lat="42.69636" lon="1.54896">
        <ele>2218.3793945312</ele>
        <time>2011-05-28T11:20:25Z</time>
      </trkpt>
      <trkpt lat="42.69641" lon="1.54911">
        <ele>2214.0534667969</ele>
        <time>2011-05-28T11:20:33Z</time>
      </trkpt>
      <trkpt lat="42.69649" lon="1.54926">
        <ele>2210.2082519531</ele>
        <time>2011-05-28T11:20:40Z</time>
      </trkpt>
      <trkpt lat="42.69658" lon="1.54935">
        <ele>2206.3630371094</ele>
        <time>2011-05-28T11:20:46Z</time>
      </trkpt>
      <trkpt lat="42.69667" lon="1.54946">
        <ele>2202.9982910156</ele>
        <time>2011-05-28T11:20:52Z</time>
      </trkpt>
      <trkpt lat="42.69675" lon="1.54956">
        <ele>2199.6337890625</ele>
        <time>2011-05-28T11:20:57Z</time>
      </trkpt>
      <trkpt lat="42.69679" lon="1.54969">
        <ele>2197.23046875</ele>
        <time>2011-05-28T11:21:02Z</time>
      </trkpt>
      <trkpt lat="42.69683" lon="1.54978">
        <ele>2194.8271484375</ele>
        <time>2011-05-28T11:21:07Z</time>
      </trkpt>
      <trkpt lat="42.69693" lon="1.54989">
        <ele>2190.5012207031</ele>
        <time>2011-05-28T11:21:12Z</time>
      </trkpt>
      <trkpt lat="42.69703" lon="1.54998">
        <ele>2187.6171875</ele>
        <time>2011-05-28T11:21:17Z</time>
      </trkpt>
      <trkpt lat="42.69709" lon="1.55001">
        <ele>2187.1364746094</ele>
        <time>2011-05-28T11:21:20Z</time>
      </trkpt>
      <trkpt lat="42.69717" lon="1.55003">
        <ele>2186.1752929688</ele>
        <time>2011-05-28T11:21:25Z</time>
      </trkpt>
      <trkpt lat="42.69723" lon="1.55001">
        <ele>2183.7719726562</ele>
        <time>2011-05-28T11:21:32Z</time>
      </trkpt>
      <trkpt lat="42.69728" lon="1.55001">
        <ele>2182.330078125</ele>
        <time>2011-05-28T11:21:38Z</time>
      </trkpt>
      <trkpt lat="42.6973" lon="1.55">
        <ele>2180.8881835938</ele>
        <time>2011-05-28T11:21:44Z</time>
      </trkpt>
      <trkpt lat="42.69733" lon="1.54999">
        <ele>2179.9267578125</ele>
        <time>2011-05-28T11:21:49Z</time>
      </trkpt>
      <trkpt lat="42.69736" lon="1.54999">
        <ele>2178.9653320312</ele>
        <time>2011-05-28T11:21:56Z</time>
      </trkpt>
      <trkpt lat="42.69739" lon="1.55">
        <ele>2177.04296875</ele>
        <time>2011-05-28T11:22:02Z</time>
      </trkpt>
      <trkpt lat="42.69742" lon="1.55">
        <ele>2176.0815429688</ele>
        <time>2011-05-28T11:22:07Z</time>
      </trkpt>
      <trkpt lat="42.69747" lon="1.55">
        <ele>2175.6008300781</ele>
        <time>2011-05-28T11:22:12Z</time>
      </trkpt>
      <trkpt lat="42.69765" lon="1.54997">
        <ele>2173.6782226562</ele>
        <time>2011-05-28T11:22:18Z</time>
      </trkpt>
      <trkpt lat="42.69783" lon="1.55003">
        <ele>2171.2746582031</ele>
        <time>2011-05-28T11:22:24Z</time>
      </trkpt>
      <trkpt lat="42.69804" lon="1.55007">
        <ele>2169.3522949219</ele>
        <time>2011-05-28T11:22:30Z</time>
      </trkpt>
      <trkpt lat="42.69814" lon="1.55005">
        <ele>2167.91015625</ele>
        <time>2011-05-28T11:22:34Z</time>
      </trkpt>
      <trkpt lat="42.69823" lon="1.55004">
        <ele>2166.4682617188</ele>
        <time>2011-05-28T11:22:38Z</time>
      </trkpt>
      <trkpt lat="42.69832" lon="1.54999">
        <ele>2165.9875488281</ele>
        <time>2011-05-28T11:22:42Z</time>
      </trkpt>
      <trkpt lat="42.69839" lon="1.54998">
        <ele>2164.5456542969</ele>
        <time>2011-05-28T11:22:45Z</time>
      </trkpt>
      <trkpt lat="42.69848" lon="1.5499">
        <ele>2163.1037597656</ele>
        <time>2011-05-28T11:22:50Z</time>
      </trkpt>
      <trkpt lat="42.69854" lon="1.54983">
        <ele>2160.7004394531</ele>
        <time>2011-05-28T11:22:55Z</time>
      </trkpt>
      <trkpt lat="42.69859" lon="1.54973">
        <ele>2158.7778320312</ele>
        <time>2011-05-28T11:23:00Z</time>
      </trkpt>
      <trkpt lat="42.69863" lon="1.5497">
        <ele>2157.3359375</ele>
        <time>2011-05-28T11:23:02Z</time>
      </trkpt>
      <trkpt lat="42.69876" lon="1.54964">
        <ele>2153.4904785156</ele>
        <time>2011-05-28T11:23:08Z</time>
      </trkpt>
      <trkpt lat="42.69884" lon="1.54968">
        <ele>2152.0483398438</ele>
        <time>2011-05-28T11:23:12Z</time>
      </trkpt>
      <trkpt lat="42.69886" lon="1.54969">
        <ele>2151.5678710938</ele>
        <time>2011-05-28T11:23:13Z</time>
      </trkpt>
      <trkpt lat="42.69889" lon="1.54969">
        <ele>2150.6064453125</ele>
        <time>2011-05-28T11:23:15Z</time>
      </trkpt>
      <trkpt lat="42.69897" lon="1.54977">
        <ele>2148.203125</ele>
        <time>2011-05-28T11:23:23Z</time>
      </trkpt>
      <trkpt lat="42.69904" lon="1.54988">
        <ele>2146.7612304688</ele>
        <time>2011-05-28T11:23:28Z</time>
      </trkpt>
      <trkpt lat="42.69906" lon="1.54997">
        <ele>2145.3193359375</ele>
        <time>2011-05-28T11:23:33Z</time>
      </trkpt>
      <trkpt lat="42.69909" lon="1.55003">
        <ele>2143.8774414062</ele>
        <time>2011-05-28T11:23:39Z</time>
      </trkpt>
      <trkpt lat="42.6991" lon="1.55011">
        <ele>2142.435546875</ele>
        <time>2011-05-28T11:23:45Z</time>
      </trkpt>
      <trkpt lat="42.6991" lon="1.55018">
        <ele>2140.5126953125</ele>
        <time>2011-05-28T11:23:51Z</time>
      </trkpt>
      <trkpt lat="42.69913" lon="1.55024">
        <ele>2139.5512695312</ele>
        <time>2011-05-28T11:23:55Z</time>
      </trkpt>
      <trkpt lat="42.69918" lon="1.55022">
        <ele>2139.5512695312</ele>
        <time>2011-05-28T11:23:59Z</time>
      </trkpt>
      <trkpt lat="42.69926" lon="1.55025">
        <ele>2140.0322265625</ele>
        <time>2011-05-28T11:24:05Z</time>
      </trkpt>
      <trkpt lat="42.69931" lon="1.5503">
        <ele>2138.5900878906</ele>
        <time>2011-05-28T11:24:13Z</time>
      </trkpt>
      <trkpt lat="42.69938" lon="1.55033">
        <ele>2136.1867675781</ele>
        <time>2011-05-28T11:24:20Z</time>
      </trkpt>
      <trkpt lat="42.69942" lon="1.55034">
        <ele>2133.7834472656</ele>
        <time>2011-05-28T11:24:25Z</time>
      </trkpt>
      <trkpt lat="42.69949" lon="1.55039">
        <ele>2131.3801269531</ele>
        <time>2011-05-28T11:24:32Z</time>
      </trkpt>
      <trkpt lat="42.69953" lon="1.55043">
        <ele>2129.9382324219</ele>
        <time>2011-05-28T11:24:39Z</time>
      </trkpt>
      <trkpt lat="42.69957" lon="1.55045">
        <ele>2127.5349121094</ele>
        <time>2011-05-28T11:24:46Z</time>
      </trkpt>
      <trkpt lat="42.69961" lon="1.55046">
        <ele>2125.6123046875</ele>
        <time>2011-05-28T11:24:52Z</time>
      </trkpt>
      <trkpt lat="42.69964" lon="1.55044">
        <ele>2124.1704101562</ele>
        <time>2011-05-28T11:24:57Z</time>
      </trkpt>
      <trkpt lat="42.69967" lon="1.55044">
        <ele>2122.7282714844</ele>
        <time>2011-05-28T11:25:04Z</time>
      </trkpt>
      <trkpt lat="42.69967" lon="1.55044">
        <ele>2122.2475585938</ele>
        <time>2011-05-28T11:25:12Z</time>
      </trkpt>
      <trkpt lat="42.69969" lon="1.55044">
        <ele>2121.7668457031</ele>
        <time>2011-05-28T11:25:42Z</time>
      </trkpt>
      <trkpt lat="42.69973" lon="1.55051">
        <ele>2120.3249511719</ele>
        <time>2011-05-28T11:25:50Z</time>
      </trkpt>
      <trkpt lat="42.69976" lon="1.55052">
        <ele>2117.9216308594</ele>
        <time>2011-05-28T11:25:56Z</time>
      </trkpt>
      <trkpt lat="42.69983" lon="1.55053">
        <ele>2114.0764160156</ele>
        <time>2011-05-28T11:26:03Z</time>
      </trkpt>
      <trkpt lat="42.69989" lon="1.55054">
        <ele>2113.115234375</ele>
        <time>2011-05-28T11:26:08Z</time>
      </trkpt>
      <trkpt lat="42.69989" lon="1.55055">
        <ele>2112.6345214844</ele>
        <time>2011-05-28T11:26:09Z</time>
      </trkpt>
      <trkpt lat="42.69994" lon="1.55061">
        <ele>2111.6733398438</ele>
        <time>2011-05-28T11:26:17Z</time>
      </trkpt>
      <trkpt lat="42.7" lon="1.55068">
        <ele>2111.1926269531</ele>
        <time>2011-05-28T11:26:24Z</time>
      </trkpt>
      <trkpt lat="42.70004" lon="1.55077">
        <ele>2110.2312011719</ele>
        <time>2011-05-28T11:26:31Z</time>
      </trkpt>
      <trkpt lat="42.70005" lon="1.55077">
        <ele>2110.2312011719</ele>
        <time>2011-05-28T11:26:32Z</time>
      </trkpt>
      <trkpt lat="42.7001" lon="1.55085">
        <ele>2109.7504882812</ele>
        <time>2011-05-28T11:26:38Z</time>
      </trkpt>
      <trkpt lat="42.70013" lon="1.55089">
        <ele>2109.2700195312</ele>
        <time>2011-05-28T11:26:44Z</time>
      </trkpt>
      <trkpt lat="42.70014" lon="1.55091">
        <ele>2109.2700195312</ele>
        <time>2011-05-28T11:26:49Z</time>
      </trkpt>
      <trkpt lat="42.70017" lon="1.55094">
        <ele>2109.2700195312</ele>
        <time>2011-05-28T11:26:56Z</time>
      </trkpt>
      <trkpt lat="42.70023" lon="1.55094">
        <ele>2108.7893066406</ele>
        <time>2011-05-28T11:27:02Z</time>
      </trkpt>
      <trkpt lat="42.70026" lon="1.55094">
        <ele>2108.7893066406</ele>
        <time>2011-05-28T11:27:07Z</time>
      </trkpt>
      <trkpt lat="42.70029" lon="1.55098">
        <ele>2108.30859375</ele>
        <time>2011-05-28T11:27:12Z</time>
      </trkpt>
      <trkpt lat="42.70033" lon="1.55101">
        <ele>2108.7893066406</ele>
        <time>2011-05-28T11:27:17Z</time>
      </trkpt>
      <trkpt lat="42.70039" lon="1.55103">
        <ele>2109.7504882812</ele>
        <time>2011-05-28T11:27:23Z</time>
      </trkpt>
      <trkpt lat="42.70046" lon="1.55105">
        <ele>2111.6733398438</ele>
        <time>2011-05-28T11:27:30Z</time>
      </trkpt>
      <trkpt lat="42.70053" lon="1.5511">
        <ele>2112.6345214844</ele>
        <time>2011-05-28T11:27:37Z</time>
      </trkpt>
      <trkpt lat="42.70066" lon="1.55121">
        <ele>2112.1538085938</ele>
        <time>2011-05-28T11:27:46Z</time>
      </trkpt>
      <trkpt lat="42.70082" lon="1.55135">
        <ele>2110.2312011719</ele>
        <time>2011-05-28T11:27:54Z</time>
      </trkpt>
      <trkpt lat="42.70096" lon="1.55144">
        <ele>2108.7893066406</ele>
        <time>2011-05-28T11:28:00Z</time>
      </trkpt>
      <trkpt lat="42.70101" lon="1.55154">
        <ele>2108.30859375</ele>
        <time>2011-05-28T11:28:05Z</time>
      </trkpt>
      <trkpt lat="42.70102" lon="1.55163">
        <ele>2107.3471679688</ele>
        <time>2011-05-28T11:28:11Z</time>
      </trkpt>
      <trkpt lat="42.70105" lon="1.55173">
        <ele>2106.8664550781</ele>
        <time>2011-05-28T11:28:18Z</time>
      </trkpt>
      <trkpt lat="42.7011" lon="1.55186">
        <ele>2107.3471679688</ele>
        <time>2011-05-28T11:28:26Z</time>
      </trkpt>
      <trkpt lat="42.70115" lon="1.55195">
        <ele>2107.8278808594</ele>
        <time>2011-05-28T11:28:33Z</time>
      </trkpt>
      <trkpt lat="42.70119" lon="1.55204">
        <ele>2107.8278808594</ele>
        <time>2011-05-28T11:28:40Z</time>
      </trkpt>
      <trkpt lat="42.70121" lon="1.55207">
        <ele>2107.8278808594</ele>
        <time>2011-05-28T11:28:43Z</time>
      </trkpt>
      <trkpt lat="42.70124" lon="1.55216">
        <ele>2105.4245605469</ele>
        <time>2011-05-28T11:28:50Z</time>
      </trkpt>
      <trkpt lat="42.70129" lon="1.55227">
        <ele>2103.501953125</ele>
        <time>2011-05-28T11:28:57Z</time>
      </trkpt>
      <trkpt lat="42.7013" lon="1.55228">
        <ele>2103.501953125</ele>
        <time>2011-05-28T11:28:58Z</time>
      </trkpt>
      <trkpt lat="42.70133" lon="1.55233">
        <ele>2102.0598144531</ele>
        <time>2011-05-28T11:29:03Z</time>
      </trkpt>
      <trkpt lat="42.70135" lon="1.55241">
        <ele>2101.5793457031</ele>
        <time>2011-05-28T11:29:08Z</time>
      </trkpt>
      <trkpt lat="42.70142" lon="1.55252">
        <ele>2097.7341308594</ele>
        <time>2011-05-28T11:29:17Z</time>
      </trkpt>
      <trkpt lat="42.70144" lon="1.55259">
        <ele>2095.8115234375</ele>
        <time>2011-05-28T11:29:24Z</time>
      </trkpt>
      <trkpt lat="42.70147" lon="1.55266">
        <ele>2094.8500976562</ele>
        <time>2011-05-28T11:29:29Z</time>
      </trkpt>
      <trkpt lat="42.70153" lon="1.55271">
        <ele>2094.3693847656</ele>
        <time>2011-05-28T11:29:35Z</time>
      </trkpt>
      <trkpt lat="42.70158" lon="1.55277">
        <ele>2093.8889160156</ele>
        <time>2011-05-28T11:29:41Z</time>
      </trkpt>
      <trkpt lat="42.70161" lon="1.55279">
        <ele>2092.9274902344</ele>
        <time>2011-05-28T11:29:44Z</time>
      </trkpt>
      <trkpt lat="42.70162" lon="1.55282">
        <ele>2091.9660644531</ele>
        <time>2011-05-28T11:29:52Z</time>
      </trkpt>
      <trkpt lat="42.70165" lon="1.55284">
        <ele>2091.0046386719</ele>
        <time>2011-05-28T11:29:58Z</time>
      </trkpt>
      <trkpt lat="42.70166" lon="1.55285">
        <ele>2091.0046386719</ele>
        <time>2011-05-28T11:30:04Z</time>
      </trkpt>
      <trkpt lat="42.70173" lon="1.55286">
        <ele>2090.0434570312</ele>
        <time>2011-05-28T11:30:11Z</time>
      </trkpt>
      <trkpt lat="42.7018" lon="1.55287">
        <ele>2089.08203125</ele>
        <time>2011-05-28T11:30:16Z</time>
      </trkpt>
      <trkpt lat="42.70185" lon="1.55288">
        <ele>2088.1208496094</ele>
        <time>2011-05-28T11:30:20Z</time>
      </trkpt>
      <trkpt lat="42.70193" lon="1.55289">
        <ele>2085.2368164062</ele>
        <time>2011-05-28T11:30:28Z</time>
      </trkpt>
      <trkpt lat="42.70198" lon="1.55291">
        <ele>2083.794921875</ele>
        <time>2011-05-28T11:30:33Z</time>
      </trkpt>
      <trkpt lat="42.70203" lon="1.55291">
        <ele>2081.3916015625</ele>
        <time>2011-05-28T11:30:38Z</time>
      </trkpt>
      <trkpt lat="42.70207" lon="1.55293">
        <ele>2078.98828125</ele>
        <time>2011-05-28T11:30:43Z</time>
      </trkpt>
      <trkpt lat="42.70211" lon="1.55295">
        <ele>2077.5463867188</ele>
        <time>2011-05-28T11:30:48Z</time>
      </trkpt>
      <trkpt lat="42.70214" lon="1.55293">
        <ele>2075.1428222656</ele>
        <time>2011-05-28T11:30:54Z</time>
      </trkpt>
      <trkpt lat="42.70215" lon="1.55286">
        <ele>2073.2204589844</ele>
        <time>2011-05-28T11:31:00Z</time>
      </trkpt>
      <trkpt lat="42.70219" lon="1.55285">
        <ele>2071.2976074219</ele>
        <time>2011-05-28T11:31:05Z</time>
      </trkpt>
      <trkpt lat="42.70222" lon="1.55282">
        <ele>2068.4138183594</ele>
        <time>2011-05-28T11:31:12Z</time>
      </trkpt>
      <trkpt lat="42.70227" lon="1.5528">
        <ele>2066.4912109375</ele>
        <time>2011-05-28T11:31:19Z</time>
      </trkpt>
      <trkpt lat="42.7023" lon="1.55277">
        <ele>2064.087890625</ele>
        <time>2011-05-28T11:31:25Z</time>
      </trkpt>
      <trkpt lat="42.70232" lon="1.55277">
        <ele>2062.1652832031</ele>
        <time>2011-05-28T11:31:31Z</time>
      </trkpt>
      <trkpt lat="42.70233" lon="1.55273">
        <ele>2061.2041015625</ele>
        <time>2011-05-28T11:31:34Z</time>
      </trkpt>
      <trkpt lat="42.70235" lon="1.55262">
        <ele>2058.8005371094</ele>
        <time>2011-05-28T11:31:40Z</time>
      </trkpt>
      <trkpt lat="42.70237" lon="1.55254">
        <ele>2057.3586425781</ele>
        <time>2011-05-28T11:31:46Z</time>
      </trkpt>
      <trkpt lat="42.70238" lon="1.5525">
        <ele>2056.3972167969</ele>
        <time>2011-05-28T11:31:49Z</time>
      </trkpt>
      <trkpt lat="42.70242" lon="1.55244">
        <ele>2055.4360351562</ele>
        <time>2011-05-28T11:31:56Z</time>
      </trkpt>
      <trkpt lat="42.70245" lon="1.55236">
        <ele>2053.994140625</ele>
        <time>2011-05-28T11:32:02Z</time>
      </trkpt>
      <trkpt lat="42.70245" lon="1.55234">
        <ele>2053.5134277344</ele>
        <time>2011-05-28T11:32:03Z</time>
      </trkpt>
      <trkpt lat="42.70253" lon="1.55224">
        <ele>2054.474609375</ele>
        <time>2011-05-28T11:32:09Z</time>
      </trkpt>
      <trkpt lat="42.70258" lon="1.55222">
        <ele>2054.474609375</ele>
        <time>2011-05-28T11:32:14Z</time>
      </trkpt>
      <trkpt lat="42.70258" lon="1.55221">
        <ele>2054.9553222656</ele>
        <time>2011-05-28T11:32:22Z</time>
      </trkpt>
      <trkpt lat="42.70262" lon="1.55215">
        <ele>2053.994140625</ele>
        <time>2011-05-28T11:32:29Z</time>
      </trkpt>
      <trkpt lat="42.70262" lon="1.55216">
        <ele>2054.474609375</ele>
        <time>2011-05-28T11:32:34Z</time>
      </trkpt>
      <trkpt lat="42.70258" lon="1.55213">
        <ele>2053.994140625</ele>
        <time>2011-05-28T11:32:42Z</time>
      </trkpt>
      <trkpt lat="42.70256" lon="1.55213">
        <ele>2053.994140625</ele>
        <time>2011-05-28T11:32:48Z</time>
      </trkpt>
      <trkpt lat="42.70255" lon="1.55214">
        <ele>2051.5908203125</ele>
        <time>2011-05-28T11:32:53Z</time>
      </trkpt>
      <trkpt lat="42.70251" lon="1.55214">
        <ele>2041.0161132812</ele>
        <time>2011-05-28T11:33:23Z</time>
      </trkpt>
      <trkpt lat="42.70251" lon="1.55213">
        <ele>2041.0161132812</ele>
        <time>2011-05-28T11:33:39Z</time>
      </trkpt>
      <trkpt lat="42.70252" lon="1.55215">
        <ele>2039.57421875</ele>
        <time>2011-05-28T11:34:22Z</time>
      </trkpt>
      <trkpt lat="42.70255" lon="1.55214">
        <ele>2045.8229980469</ele>
        <time>2011-05-28T11:35:31Z</time>
      </trkpt>
      <trkpt lat="42.70255" lon="1.55214">
        <ele>2047.2648925781</ele>
        <time>2011-05-28T11:35:43Z</time>
      </trkpt>
      <trkpt lat="42.70255" lon="1.55213">
        <ele>2048.2260742188</ele>
        <time>2011-05-28T11:36:10Z</time>
      </trkpt>
      <trkpt lat="42.70255" lon="1.55214">
        <ele>2048.7067871094</ele>
        <time>2011-05-28T11:36:33Z</time>
      </trkpt>
      <trkpt lat="42.70252" lon="1.55216">
        <ele>2049.1875</ele>
        <time>2011-05-28T11:36:51Z</time>
      </trkpt>
      <trkpt lat="42.70255" lon="1.5521">
        <ele>2049.1875</ele>
        <time>2011-05-28T11:37:12Z</time>
      </trkpt>
      <trkpt lat="42.70255" lon="1.55208">
        <ele>2048.7067871094</ele>
        <time>2011-05-28T11:37:13Z</time>
      </trkpt>
      <trkpt lat="42.70255" lon="1.55201">
        <ele>2048.2260742188</ele>
        <time>2011-05-28T11:37:17Z</time>
      </trkpt>
      <trkpt lat="42.70256" lon="1.55197">
        <ele>2047.7456054688</ele>
        <time>2011-05-28T11:37:19Z</time>
      </trkpt>
      <trkpt lat="42.70251" lon="1.55182">
        <ele>2046.3037109375</ele>
        <time>2011-05-28T11:37:27Z</time>
      </trkpt>
      <trkpt lat="42.70251" lon="1.55181">
        <ele>2046.3037109375</ele>
        <time>2011-05-28T11:37:28Z</time>
      </trkpt>
      <trkpt lat="42.70248" lon="1.55176">
        <ele>2045.3422851562</ele>
        <time>2011-05-28T11:37:32Z</time>
      </trkpt>
      <trkpt lat="42.7024" lon="1.55166">
        <ele>2043.9001464844</ele>
        <time>2011-05-28T11:37:40Z</time>
      </trkpt>
      <trkpt lat="42.70231" lon="1.55163">
        <ele>2041.9775390625</ele>
        <time>2011-05-28T11:37:47Z</time>
      </trkpt>
      <trkpt lat="42.7023" lon="1.55163">
        <ele>2041.4968261719</ele>
        <time>2011-05-28T11:37:48Z</time>
      </trkpt>
      <trkpt lat="42.70223" lon="1.55158">
        <ele>2040.0549316406</ele>
        <time>2011-05-28T11:37:56Z</time>
      </trkpt>
      <trkpt lat="42.70219" lon="1.55152">
        <ele>2039.0935058594</ele>
        <time>2011-05-28T11:38:03Z</time>
      </trkpt>
      <trkpt lat="42.70216" lon="1.55147">
        <ele>2039.0935058594</ele>
        <time>2011-05-28T11:38:09Z</time>
      </trkpt>
      <trkpt lat="42.70209" lon="1.55136">
        <ele>2036.6901855469</ele>
        <time>2011-05-28T11:38:18Z</time>
      </trkpt>
      <trkpt lat="42.70206" lon="1.55129">
        <ele>2034.7678222656</ele>
        <time>2011-05-28T11:38:24Z</time>
      </trkpt>
      <trkpt lat="42.70202" lon="1.5512">
        <ele>2032.8449707031</ele>
        <time>2011-05-28T11:38:32Z</time>
      </trkpt>
      <trkpt lat="42.70201" lon="1.55114">
        <ele>2030.9226074219</ele>
        <time>2011-05-28T11:38:39Z</time>
      </trkpt>
      <trkpt lat="42.70199" lon="1.55105">
        <ele>2028.5192871094</ele>
        <time>2011-05-28T11:38:46Z</time>
      </trkpt>
      <trkpt lat="42.70198" lon="1.55099">
        <ele>2027.0771484375</ele>
        <time>2011-05-28T11:38:50Z</time>
      </trkpt>
      <trkpt lat="42.70197" lon="1.55094">
        <ele>2025.6350097656</ele>
        <time>2011-05-28T11:38:54Z</time>
      </trkpt>
      <trkpt lat="42.70194" lon="1.55082">
        <ele>2022.2705078125</ele>
        <time>2011-05-28T11:39:02Z</time>
      </trkpt>
      <trkpt lat="42.70191" lon="1.55073">
        <ele>2020.3479003906</ele>
        <time>2011-05-28T11:39:07Z</time>
      </trkpt>
      <trkpt lat="42.70187" lon="1.55063">
        <ele>2018.9060058594</ele>
        <time>2011-05-28T11:39:13Z</time>
      </trkpt>
      <trkpt lat="42.70183" lon="1.55054">
        <ele>2017.4638671875</ele>
        <time>2011-05-28T11:39:19Z</time>
      </trkpt>
      <trkpt lat="42.70177" lon="1.5504">
        <ele>2016.5026855469</ele>
        <time>2011-05-28T11:39:25Z</time>
      </trkpt>
      <trkpt lat="42.70175" lon="1.55028">
        <ele>2016.9833984375</ele>
        <time>2011-05-28T11:39:33Z</time>
      </trkpt>
      <trkpt lat="42.70173" lon="1.5502">
        <ele>2016.0219726562</ele>
        <time>2011-05-28T11:39:39Z</time>
      </trkpt>
      <trkpt lat="42.70174" lon="1.55008">
        <ele>2016.0219726562</ele>
        <time>2011-05-28T11:39:45Z</time>
      </trkpt>
      <trkpt lat="42.70176" lon="1.54996">
        <ele>2015.5415039062</ele>
        <time>2011-05-28T11:39:52Z</time>
      </trkpt>
      <trkpt lat="42.70177" lon="1.54987">
        <ele>2015.5415039062</ele>
        <time>2011-05-28T11:39:57Z</time>
      </trkpt>
      <trkpt lat="42.70178" lon="1.54977">
        <ele>2015.0607910156</ele>
        <time>2011-05-28T11:40:04Z</time>
      </trkpt>
      <trkpt lat="42.70178" lon="1.54971">
        <ele>2014.0993652344</ele>
        <time>2011-05-28T11:40:08Z</time>
      </trkpt>
      <trkpt lat="42.70178" lon="1.54966">
        <ele>2013.1381835938</ele>
        <time>2011-05-28T11:40:11Z</time>
      </trkpt>
      <trkpt lat="42.70178" lon="1.54959">
        <ele>2012.1767578125</ele>
        <time>2011-05-28T11:40:18Z</time>
      </trkpt>
      <trkpt lat="42.70181" lon="1.54951">
        <ele>2010.7346191406</ele>
        <time>2011-05-28T11:40:24Z</time>
      </trkpt>
      <trkpt lat="42.70191" lon="1.54942">
        <ele>2011.2153320312</ele>
        <time>2011-05-28T11:40:33Z</time>
      </trkpt>
      <trkpt lat="42.70198" lon="1.54932">
        <ele>2011.6960449219</ele>
        <time>2011-05-28T11:40:41Z</time>
      </trkpt>
      <trkpt lat="42.70199" lon="1.54931">
        <ele>2011.6960449219</ele>
        <time>2011-05-28T11:40:42Z</time>
      </trkpt>
      <trkpt lat="42.70201" lon="1.54927">
        <ele>2011.2153320312</ele>
        <time>2011-05-28T11:40:50Z</time>
      </trkpt>
      <trkpt lat="42.70202" lon="1.54924">
        <ele>2010.7346191406</ele>
        <time>2011-05-28T11:40:54Z</time>
      </trkpt>
      <trkpt lat="42.70207" lon="1.54923">
        <ele>2009.7731933594</ele>
        <time>2011-05-28T11:41:00Z</time>
      </trkpt>
      <trkpt lat="42.70211" lon="1.54919">
        <ele>2009.7731933594</ele>
        <time>2011-05-28T11:41:04Z</time>
      </trkpt>
      <trkpt lat="42.70214" lon="1.54915">
        <ele>2009.2927246094</ele>
        <time>2011-05-28T11:41:08Z</time>
      </trkpt>
      <trkpt lat="42.70217" lon="1.54913">
        <ele>2008.8120117188</ele>
        <time>2011-05-28T11:41:11Z</time>
      </trkpt>
      <trkpt lat="42.70222" lon="1.54915">
        <ele>2006.4086914062</ele>
        <time>2011-05-28T11:41:17Z</time>
      </trkpt>
      <trkpt lat="42.70226" lon="1.54918">
        <ele>2005.4475097656</ele>
        <time>2011-05-28T11:41:22Z</time>
      </trkpt>
      <trkpt lat="42.7023" lon="1.54918">
        <ele>2004.966796875</ele>
        <time>2011-05-28T11:41:25Z</time>
      </trkpt>
      <trkpt lat="42.70239" lon="1.54923">
        <ele>2002.0827636719</ele>
        <time>2011-05-28T11:41:33Z</time>
      </trkpt>
      <trkpt lat="42.70247" lon="1.54926">
        <ele>2000.6408691406</ele>
        <time>2011-05-28T11:41:39Z</time>
      </trkpt>
      <trkpt lat="42.70255" lon="1.54932">
        <ele>1998.7182617188</ele>
        <time>2011-05-28T11:41:45Z</time>
      </trkpt>
      <trkpt lat="42.70265" lon="1.54939">
        <ele>1997.7570800781</ele>
        <time>2011-05-28T11:41:53Z</time>
      </trkpt>
      <trkpt lat="42.70266" lon="1.5494">
        <ele>1997.2763671875</ele>
        <time>2011-05-28T11:41:54Z</time>
      </trkpt>
      <trkpt lat="42.70275" lon="1.54946">
        <ele>1995.353515625</ele>
        <time>2011-05-28T11:41:59Z</time>
      </trkpt>
      <trkpt lat="42.70284" lon="1.54949">
        <ele>1994.3920898438</ele>
        <time>2011-05-28T11:42:03Z</time>
      </trkpt>
      <trkpt lat="42.70293" lon="1.54953">
        <ele>1992.9501953125</ele>
        <time>2011-05-28T11:42:07Z</time>
      </trkpt>
      <trkpt lat="42.70301" lon="1.54958">
        <ele>1991.5083007812</ele>
        <time>2011-05-28T11:42:11Z</time>
      </trkpt>
      <trkpt lat="42.70308" lon="1.5496">
        <ele>1991.0275878906</ele>
        <time>2011-05-28T11:42:14Z</time>
      </trkpt>
      <trkpt lat="42.70316" lon="1.54959">
        <ele>1989.5856933594</ele>
        <time>2011-05-28T11:42:18Z</time>
      </trkpt>
      <trkpt lat="42.70323" lon="1.54958">
        <ele>1989.5856933594</ele>
        <time>2011-05-28T11:42:23Z</time>
      </trkpt>
      <trkpt lat="42.70325" lon="1.54957">
        <ele>1989.5856933594</ele>
        <time>2011-05-28T11:42:25Z</time>
      </trkpt>
      <trkpt lat="42.7033" lon="1.54956">
        <ele>1989.1049804688</ele>
        <time>2011-05-28T11:42:32Z</time>
      </trkpt>
      <trkpt lat="42.70335" lon="1.5496">
        <ele>1988.6245117188</ele>
        <time>2011-05-28T11:42:37Z</time>
      </trkpt>
      <trkpt lat="42.70336" lon="1.54961">
        <ele>1988.6245117188</ele>
        <time>2011-05-28T11:42:38Z</time>
      </trkpt>
      <trkpt lat="42.7034" lon="1.54965">
        <ele>1988.6245117188</ele>
        <time>2011-05-28T11:42:43Z</time>
      </trkpt>
      <trkpt lat="42.70346" lon="1.54967">
        <ele>1988.1437988281</ele>
        <time>2011-05-28T11:42:48Z</time>
      </trkpt>
      <trkpt lat="42.7035" lon="1.54973">
        <ele>1988.1437988281</ele>
        <time>2011-05-28T11:42:54Z</time>
      </trkpt>
      <trkpt lat="42.7035" lon="1.54968">
        <ele>1988.6245117188</ele>
        <time>2011-05-28T11:43:00Z</time>
      </trkpt>
      <trkpt lat="42.70352" lon="1.54964">
        <ele>1989.1049804688</ele>
        <time>2011-05-28T11:43:03Z</time>
      </trkpt>
      <trkpt lat="42.70355" lon="1.54946">
        <ele>1990.546875</ele>
        <time>2011-05-28T11:43:14Z</time>
      </trkpt>
      <trkpt lat="42.70359" lon="1.54942">
        <ele>1991.0275878906</ele>
        <time>2011-05-28T11:43:19Z</time>
      </trkpt>
      <trkpt lat="42.7036" lon="1.54942">
        <ele>1990.546875</ele>
        <time>2011-05-28T11:43:20Z</time>
      </trkpt>
      <trkpt lat="42.70365" lon="1.54937">
        <ele>1990.06640625</ele>
        <time>2011-05-28T11:43:24Z</time>
      </trkpt>
      <trkpt lat="42.70366" lon="1.54932">
        <ele>1990.06640625</ele>
        <time>2011-05-28T11:43:30Z</time>
      </trkpt>
      <trkpt lat="42.70367" lon="1.54935">
        <ele>1989.5856933594</ele>
        <time>2011-05-28T11:43:37Z</time>
      </trkpt>
      <trkpt lat="42.70365" lon="1.54931">
        <ele>1990.06640625</ele>
        <time>2011-05-28T11:43:42Z</time>
      </trkpt>
      <trkpt lat="42.70366" lon="1.54923">
        <ele>1990.06640625</ele>
        <time>2011-05-28T11:43:47Z</time>
      </trkpt>
      <trkpt lat="42.70366" lon="1.54922">
        <ele>1989.5856933594</ele>
        <time>2011-05-28T11:43:48Z</time>
      </trkpt>
      <trkpt lat="42.70364" lon="1.54914">
        <ele>1989.5856933594</ele>
        <time>2011-05-28T11:43:56Z</time>
      </trkpt>
      <trkpt lat="42.70366" lon="1.54917">
        <ele>1989.1049804688</ele>
        <time>2011-05-28T11:44:00Z</time>
      </trkpt>
      <trkpt lat="42.70367" lon="1.54926">
        <ele>1989.1049804688</ele>
        <time>2011-05-28T11:44:05Z</time>
      </trkpt>
      <trkpt lat="42.7037" lon="1.54933">
        <ele>1988.6245117188</ele>
        <time>2011-05-28T11:44:10Z</time>
      </trkpt>
      <trkpt lat="42.70372" lon="1.54944">
        <ele>1988.1437988281</ele>
        <time>2011-05-28T11:44:17Z</time>
      </trkpt>
      <trkpt lat="42.70374" lon="1.54947">
        <ele>1988.1437988281</ele>
        <time>2011-05-28T11:44:19Z</time>
      </trkpt>
      <trkpt lat="42.7038" lon="1.54954">
        <ele>1987.6630859375</ele>
        <time>2011-05-28T11:44:27Z</time>
      </trkpt>
      <trkpt lat="42.7038" lon="1.54952">
        <ele>1987.6630859375</ele>
        <time>2011-05-28T11:44:33Z</time>
      </trkpt>
      <trkpt lat="42.70377" lon="1.5495">
        <ele>1987.6630859375</ele>
        <time>2011-05-28T11:44:38Z</time>
      </trkpt>
      <trkpt lat="42.7037" lon="1.54949">
        <ele>1987.6630859375</ele>
        <time>2011-05-28T11:44:43Z</time>
      </trkpt>
      <trkpt lat="42.70361" lon="1.54955">
        <ele>1988.1437988281</ele>
        <time>2011-05-28T11:44:51Z</time>
      </trkpt>
      <trkpt lat="42.70357" lon="1.54962">
        <ele>1988.1437988281</ele>
        <time>2011-05-28T11:44:57Z</time>
      </trkpt>
      <trkpt lat="42.70356" lon="1.54969">
        <ele>1988.6245117188</ele>
        <time>2011-05-28T11:45:01Z</time>
      </trkpt>
      <trkpt lat="42.70357" lon="1.54974">
        <ele>1989.1049804688</ele>
        <time>2011-05-28T11:45:05Z</time>
      </trkpt>
      <trkpt lat="42.70358" lon="1.54977">
        <ele>1987.6630859375</ele>
        <time>2011-05-28T11:45:12Z</time>
      </trkpt>
      <trkpt lat="42.70358" lon="1.54978">
        <ele>1987.1823730469</ele>
        <time>2011-05-28T11:45:19Z</time>
      </trkpt>
      <trkpt lat="42.7036" lon="1.54981">
        <ele>1985.7404785156</ele>
        <time>2011-05-28T11:45:25Z</time>
      </trkpt>
      <trkpt lat="42.70361" lon="1.54984">
        <ele>1985.7404785156</ele>
        <time>2011-05-28T11:45:27Z</time>
      </trkpt>
      <trkpt lat="42.70365" lon="1.54987">
        <ele>1985.7404785156</ele>
        <time>2011-05-28T11:45:31Z</time>
      </trkpt>
      <trkpt lat="42.70374" lon="1.54985">
        <ele>1983.3371582031</ele>
        <time>2011-05-28T11:45:39Z</time>
      </trkpt>
      <trkpt lat="42.70379" lon="1.54985">
        <ele>1982.3759765625</ele>
        <time>2011-05-28T11:45:43Z</time>
      </trkpt>
      <trkpt lat="42.70383" lon="1.54982">
        <ele>1981.8952636719</ele>
        <time>2011-05-28T11:45:49Z</time>
      </trkpt>
      <trkpt lat="42.70388" lon="1.54979">
        <ele>1981.8952636719</ele>
        <time>2011-05-28T11:45:53Z</time>
      </trkpt>
      <trkpt lat="42.70389" lon="1.54979">
        <ele>1981.8952636719</ele>
        <time>2011-05-28T11:45:54Z</time>
      </trkpt>
      <trkpt lat="42.70395" lon="1.5497">
        <ele>1980.9340820312</ele>
        <time>2011-05-28T11:46:01Z</time>
      </trkpt>
      <trkpt lat="42.70399" lon="1.54967">
        <ele>1980.4533691406</ele>
        <time>2011-05-28T11:46:04Z</time>
      </trkpt>
      <trkpt lat="42.70406" lon="1.54964">
        <ele>1980.4533691406</ele>
        <time>2011-05-28T11:46:09Z</time>
      </trkpt>
      <trkpt lat="42.70409" lon="1.54962">
        <ele>1980.9340820312</ele>
        <time>2011-05-28T11:46:13Z</time>
      </trkpt>
      <trkpt lat="42.70418" lon="1.54955">
        <ele>1980.9340820312</ele>
        <time>2011-05-28T11:46:21Z</time>
      </trkpt>
      <trkpt lat="42.7042" lon="1.54953">
        <ele>1981.4145507812</ele>
        <time>2011-05-28T11:46:23Z</time>
      </trkpt>
      <trkpt lat="42.70423" lon="1.54953">
        <ele>1981.4145507812</ele>
        <time>2011-05-28T11:46:25Z</time>
      </trkpt>
      <trkpt lat="42.70428" lon="1.5495">
        <ele>1981.8952636719</ele>
        <time>2011-05-28T11:46:30Z</time>
      </trkpt>
      <trkpt lat="42.70438" lon="1.54946">
        <ele>1982.8564453125</ele>
        <time>2011-05-28T11:46:39Z</time>
      </trkpt>
      <trkpt lat="42.70444" lon="1.54943">
        <ele>1982.8564453125</ele>
        <time>2011-05-28T11:46:44Z</time>
      </trkpt>
      <trkpt lat="42.70445" lon="1.54942">
        <ele>1983.3371582031</ele>
        <time>2011-05-28T11:46:52Z</time>
      </trkpt>
      <trkpt lat="42.70447" lon="1.54942">
        <ele>1983.3371582031</ele>
        <time>2011-05-28T11:46:57Z</time>
      </trkpt>
      <trkpt lat="42.70454" lon="1.54942">
        <ele>1982.8564453125</ele>
        <time>2011-05-28T11:47:02Z</time>
      </trkpt>
      <trkpt lat="42.70456" lon="1.54942">
        <ele>1982.8564453125</ele>
        <time>2011-05-28T11:47:04Z</time>
      </trkpt>
      <trkpt lat="42.70459" lon="1.54945">
        <ele>1983.3371582031</ele>
        <time>2011-05-28T11:47:07Z</time>
      </trkpt>
      <trkpt lat="42.70465" lon="1.54943">
        <ele>1984.2985839844</ele>
        <time>2011-05-28T11:47:14Z</time>
      </trkpt>
      <trkpt lat="42.70467" lon="1.54943">
        <ele>1984.779296875</ele>
        <time>2011-05-28T11:47:15Z</time>
      </trkpt>
      <trkpt lat="42.70472" lon="1.54945">
        <ele>1984.779296875</ele>
        <time>2011-05-28T11:47:22Z</time>
      </trkpt>
      <trkpt lat="42.70478" lon="1.54947">
        <ele>1986.7016601562</ele>
        <time>2011-05-28T11:47:29Z</time>
      </trkpt>
      <trkpt lat="42.70486" lon="1.54946">
        <ele>1987.1823730469</ele>
        <time>2011-05-28T11:47:35Z</time>
      </trkpt>
      <trkpt lat="42.7049" lon="1.54947">
        <ele>1986.7016601562</ele>
        <time>2011-05-28T11:47:37Z</time>
      </trkpt>
      <trkpt lat="42.70498" lon="1.54946">
        <ele>1985.259765625</ele>
        <time>2011-05-28T11:47:42Z</time>
      </trkpt>
      <trkpt lat="42.70506" lon="1.5495">
        <ele>1984.2985839844</ele>
        <time>2011-05-28T11:47:48Z</time>
      </trkpt>
      <trkpt lat="42.70512" lon="1.54956">
        <ele>1985.7404785156</ele>
        <time>2011-05-28T11:47:55Z</time>
      </trkpt>
      <trkpt lat="42.70517" lon="1.54963">
        <ele>1987.6630859375</ele>
        <time>2011-05-28T11:48:03Z</time>
      </trkpt>
      <trkpt lat="42.70522" lon="1.54964">
        <ele>1988.1437988281</ele>
        <time>2011-05-28T11:48:10Z</time>
      </trkpt>
      <trkpt lat="42.70529" lon="1.54968">
        <ele>1989.5856933594</ele>
        <time>2011-05-28T11:48:15Z</time>
      </trkpt>
      <trkpt lat="42.7053" lon="1.54968">
        <ele>1989.5856933594</ele>
        <time>2011-05-28T11:48:19Z</time>
      </trkpt>
      <trkpt lat="42.70533" lon="1.5497">
        <ele>1989.1049804688</ele>
        <time>2011-05-28T11:48:25Z</time>
      </trkpt>
      <trkpt lat="42.70538" lon="1.54978">
        <ele>1988.1437988281</ele>
        <time>2011-05-28T11:48:31Z</time>
      </trkpt>
      <trkpt lat="42.70546" lon="1.54983">
        <ele>1986.7016601562</ele>
        <time>2011-05-28T11:48:37Z</time>
      </trkpt>
      <trkpt lat="42.70554" lon="1.54984">
        <ele>1984.779296875</ele>
        <time>2011-05-28T11:48:43Z</time>
      </trkpt>
      <trkpt lat="42.70559" lon="1.5499">
        <ele>1983.8178710938</ele>
        <time>2011-05-28T11:48:47Z</time>
      </trkpt>
      <trkpt lat="42.70564" lon="1.54992">
        <ele>1983.3371582031</ele>
        <time>2011-05-28T11:48:51Z</time>
      </trkpt>
      <trkpt lat="42.70569" lon="1.54989">
        <ele>1982.8564453125</ele>
        <time>2011-05-28T11:48:55Z</time>
      </trkpt>
      <trkpt lat="42.70573" lon="1.54991">
        <ele>1982.3759765625</ele>
        <time>2011-05-28T11:48:57Z</time>
      </trkpt>
      <trkpt lat="42.70576" lon="1.55">
        <ele>1981.8952636719</ele>
        <time>2011-05-28T11:49:03Z</time>
      </trkpt>
      <trkpt lat="42.70581" lon="1.55001">
        <ele>1979.9724121094</ele>
        <time>2011-05-28T11:49:10Z</time>
      </trkpt>
      <trkpt lat="42.70586" lon="1.55004">
        <ele>1979.9724121094</ele>
        <time>2011-05-28T11:49:14Z</time>
      </trkpt>
      <trkpt lat="42.7059" lon="1.55006">
        <ele>1979.4916992188</ele>
        <time>2011-05-28T11:49:20Z</time>
      </trkpt>
      <trkpt lat="42.706" lon="1.5501">
        <ele>1979.9724121094</ele>
        <time>2011-05-28T11:49:28Z</time>
      </trkpt>
      <trkpt lat="42.7061" lon="1.55013">
        <ele>1980.9340820312</ele>
        <time>2011-05-28T11:49:34Z</time>
      </trkpt>
      <trkpt lat="42.70623" lon="1.55024">
        <ele>1980.4533691406</ele>
        <time>2011-05-28T11:49:40Z</time>
      </trkpt>
      <trkpt lat="42.70627" lon="1.55028">
        <ele>1979.9724121094</ele>
        <time>2011-05-28T11:49:44Z</time>
      </trkpt>
      <trkpt lat="42.7063" lon="1.55028">
        <ele>1979.9724121094</ele>
        <time>2011-05-28T11:49:52Z</time>
      </trkpt>
      <trkpt lat="42.70634" lon="1.5503">
        <ele>1979.9724121094</ele>
        <time>2011-05-28T11:49:59Z</time>
      </trkpt>
      <trkpt lat="42.70636" lon="1.55031">
        <ele>1979.4916992188</ele>
        <time>2011-05-28T11:50:04Z</time>
      </trkpt>
      <trkpt lat="42.70643" lon="1.55033">
        <ele>1979.0109863281</ele>
        <time>2011-05-28T11:50:12Z</time>
      </trkpt>
      <trkpt lat="42.70647" lon="1.55031">
        <ele>1978.5305175781</ele>
        <time>2011-05-28T11:50:18Z</time>
      </trkpt>
      <trkpt lat="42.70647" lon="1.55032">
        <ele>1978.5305175781</ele>
        <time>2011-05-28T11:50:24Z</time>
      </trkpt>
      <trkpt lat="42.70648" lon="1.55031">
        <ele>1978.0498046875</ele>
        <time>2011-05-28T11:50:35Z</time>
      </trkpt>
      <trkpt lat="42.7065" lon="1.55029">
        <ele>1978.0498046875</ele>
        <time>2011-05-28T11:50:41Z</time>
      </trkpt>
      <trkpt lat="42.70654" lon="1.5503">
        <ele>1977.5690917969</ele>
        <time>2011-05-28T11:50:47Z</time>
      </trkpt>
      <trkpt lat="42.70655" lon="1.5503">
        <ele>1977.0886230469</ele>
        <time>2011-05-28T11:50:50Z</time>
      </trkpt>
      <trkpt lat="42.70664" lon="1.55032">
        <ele>1976.6079101562</ele>
        <time>2011-05-28T11:50:56Z</time>
      </trkpt>
      <trkpt lat="42.70671" lon="1.55036">
        <ele>1975.646484375</ele>
        <time>2011-05-28T11:51:01Z</time>
      </trkpt>
      <trkpt lat="42.70683" lon="1.55031">
        <ele>1974.6853027344</ele>
        <time>2011-05-28T11:51:08Z</time>
      </trkpt>
      <trkpt lat="42.70691" lon="1.55023">
        <ele>1974.6853027344</ele>
        <time>2011-05-28T11:51:13Z</time>
      </trkpt>
      <trkpt lat="42.70694" lon="1.55018">
        <ele>1974.6853027344</ele>
        <time>2011-05-28T11:51:19Z</time>
      </trkpt>
      <trkpt lat="42.70695" lon="1.55016">
        <ele>1974.2045898438</ele>
        <time>2011-05-28T11:51:21Z</time>
      </trkpt>
      <trkpt lat="42.70696" lon="1.5501">
        <ele>1973.7238769531</ele>
        <time>2011-05-28T11:51:28Z</time>
      </trkpt>
      <trkpt lat="42.707" lon="1.55008">
        <ele>1972.7626953125</ele>
        <time>2011-05-28T11:51:33Z</time>
      </trkpt>
      <trkpt lat="42.70705" lon="1.55007">
        <ele>1970.359375</ele>
        <time>2011-05-28T11:51:39Z</time>
      </trkpt>
      <trkpt lat="42.7071" lon="1.55013">
        <ele>1967.4753417969</ele>
        <time>2011-05-28T11:51:46Z</time>
      </trkpt>
      <trkpt lat="42.70712" lon="1.55013">
        <ele>1967.4753417969</ele>
        <time>2011-05-28T11:51:47Z</time>
      </trkpt>
      <trkpt lat="42.70721" lon="1.55012">
        <ele>1965.5529785156</ele>
        <time>2011-05-28T11:51:55Z</time>
      </trkpt>
      <trkpt lat="42.70723" lon="1.55008">
        <ele>1963.6298828125</ele>
        <time>2011-05-28T11:52:01Z</time>
      </trkpt>
      <trkpt lat="42.70726" lon="1.55008">
        <ele>1962.6687011719</ele>
        <time>2011-05-28T11:52:06Z</time>
      </trkpt>
      <trkpt lat="42.70728" lon="1.55008">
        <ele>1962.1879882812</ele>
        <time>2011-05-28T11:52:11Z</time>
      </trkpt>
      <trkpt lat="42.70733" lon="1.55009">
        <ele>1961.2268066406</ele>
        <time>2011-05-28T11:52:16Z</time>
      </trkpt>
      <trkpt lat="42.70739" lon="1.5501">
        <ele>1959.3041992188</ele>
        <time>2011-05-28T11:52:22Z</time>
      </trkpt>
      <trkpt lat="42.70743" lon="1.55008">
        <ele>1956.9008789062</ele>
        <time>2011-05-28T11:52:28Z</time>
      </trkpt>
      <trkpt lat="42.70747" lon="1.55005">
        <ele>1954.9782714844</ele>
        <time>2011-05-28T11:52:34Z</time>
      </trkpt>
      <trkpt lat="42.70751" lon="1.55003">
        <ele>1953.0556640625</ele>
        <time>2011-05-28T11:52:40Z</time>
      </trkpt>
      <trkpt lat="42.70753" lon="1.55004">
        <ele>1952.0942382812</ele>
        <time>2011-05-28T11:52:46Z</time>
      </trkpt>
      <trkpt lat="42.70755" lon="1.55003">
        <ele>1951.1330566406</ele>
        <time>2011-05-28T11:52:51Z</time>
      </trkpt>
      <trkpt lat="42.70757" lon="1.55003">
        <ele>1949.6911621094</ele>
        <time>2011-05-28T11:52:56Z</time>
      </trkpt>
      <trkpt lat="42.70758" lon="1.55002">
        <ele>1949.2104492188</ele>
        <time>2011-05-28T11:53:02Z</time>
      </trkpt>
      <trkpt lat="42.70759" lon="1.55002">
        <ele>1948.7297363281</ele>
        <time>2011-05-28T11:53:13Z</time>
      </trkpt>
      <trkpt lat="42.70761" lon="1.55004">
        <ele>1947.7683105469</ele>
        <time>2011-05-28T11:53:22Z</time>
      </trkpt>
      <trkpt lat="42.7076" lon="1.55005">
        <ele>1947.7683105469</ele>
        <time>2011-05-28T11:53:49Z</time>
      </trkpt>
      <trkpt lat="42.70762" lon="1.55005">
        <ele>1946.3264160156</ele>
        <time>2011-05-28T11:54:04Z</time>
      </trkpt>
      <trkpt lat="42.70763" lon="1.55003">
        <ele>1944.4035644531</ele>
        <time>2011-05-28T11:54:11Z</time>
      </trkpt>
      <trkpt lat="42.70765" lon="1.55002">
        <ele>1942.9616699219</ele>
        <time>2011-05-28T11:54:17Z</time>
      </trkpt>
      <trkpt lat="42.70767" lon="1.55003">
        <ele>1942.0004882812</ele>
        <time>2011-05-28T11:54:23Z</time>
      </trkpt>
      <trkpt lat="42.70771" lon="1.55003">
        <ele>1939.5971679688</ele>
        <time>2011-05-28T11:54:30Z</time>
      </trkpt>
      <trkpt lat="42.70773" lon="1.55003">
        <ele>1938.1552734375</ele>
        <time>2011-05-28T11:54:36Z</time>
      </trkpt>
      <trkpt lat="42.70774" lon="1.54999">
        <ele>1937.1938476562</ele>
        <time>2011-05-28T11:54:42Z</time>
      </trkpt>
      <trkpt lat="42.70775" lon="1.54999">
        <ele>1936.2326660156</ele>
        <time>2011-05-28T11:54:47Z</time>
      </trkpt>
      <trkpt lat="42.70777" lon="1.54999">
        <ele>1935.2712402344</ele>
        <time>2011-05-28T11:54:54Z</time>
      </trkpt>
      <trkpt lat="42.70779" lon="1.55">
        <ele>1933.3486328125</ele>
        <time>2011-05-28T11:55:01Z</time>
      </trkpt>
      <trkpt lat="42.7078" lon="1.54999">
        <ele>1931.9064941406</ele>
        <time>2011-05-28T11:55:07Z</time>
      </trkpt>
      <trkpt lat="42.70782" lon="1.54999">
        <ele>1929.9838867188</ele>
        <time>2011-05-28T11:55:14Z</time>
      </trkpt>
      <trkpt lat="42.70782" lon="1.55003">
        <ele>1929.0224609375</ele>
        <time>2011-05-28T11:55:19Z</time>
      </trkpt>
      <trkpt lat="42.70785" lon="1.55004">
        <ele>1926.6193847656</ele>
        <time>2011-05-28T11:55:26Z</time>
      </trkpt>
      <trkpt lat="42.70788" lon="1.55003">
        <ele>1925.6579589844</ele>
        <time>2011-05-28T11:55:32Z</time>
      </trkpt>
      <trkpt lat="42.70792" lon="1.55003">
        <ele>1924.6967773438</ele>
        <time>2011-05-28T11:55:38Z</time>
      </trkpt>
      <trkpt lat="42.70797" lon="1.55001">
        <ele>1922.2934570312</ele>
        <time>2011-05-28T11:55:44Z</time>
      </trkpt>
      <trkpt lat="42.70802" lon="1.55">
        <ele>1920.8515625</ele>
        <time>2011-05-28T11:55:50Z</time>
      </trkpt>
      <trkpt lat="42.70805" lon="1.54996">
        <ele>1918.4482421875</ele>
        <time>2011-05-28T11:55:57Z</time>
      </trkpt>
      <trkpt lat="42.7081" lon="1.54996">
        <ele>1917.0063476562</ele>
        <time>2011-05-28T11:56:03Z</time>
      </trkpt>
      <trkpt lat="42.70814" lon="1.54993">
        <ele>1915.0834960938</ele>
        <time>2011-05-28T11:56:09Z</time>
      </trkpt>
      <trkpt lat="42.70818" lon="1.54993">
        <ele>1914.6027832031</ele>
        <time>2011-05-28T11:56:15Z</time>
      </trkpt>
      <trkpt lat="42.70823" lon="1.5499">
        <ele>1912.1994628906</ele>
        <time>2011-05-28T11:56:22Z</time>
      </trkpt>
      <trkpt lat="42.70828" lon="1.54987">
        <ele>1910.2768554688</ele>
        <time>2011-05-28T11:56:28Z</time>
      </trkpt>
      <trkpt lat="42.70834" lon="1.54985">
        <ele>1908.3542480469</ele>
        <time>2011-05-28T11:56:34Z</time>
      </trkpt>
      <trkpt lat="42.70837" lon="1.54985">
        <ele>1907.3930664062</ele>
        <time>2011-05-28T11:56:37Z</time>
      </trkpt>
      <trkpt lat="42.70842" lon="1.54981">
        <ele>1905.9509277344</ele>
        <time>2011-05-28T11:56:43Z</time>
      </trkpt>
      <trkpt lat="42.70848" lon="1.54973">
        <ele>1904.5090332031</ele>
        <time>2011-05-28T11:56:50Z</time>
      </trkpt>
      <trkpt lat="42.7085" lon="1.54969">
        <ele>1904.0285644531</ele>
        <time>2011-05-28T11:56:55Z</time>
      </trkpt>
      <trkpt lat="42.70854" lon="1.54965">
        <ele>1902.5864257812</ele>
        <time>2011-05-28T11:57:01Z</time>
      </trkpt>
      <trkpt lat="42.70857" lon="1.54961">
        <ele>1901.6252441406</ele>
        <time>2011-05-28T11:57:07Z</time>
      </trkpt>
      <trkpt lat="42.70861" lon="1.54962">
        <ele>1900.1833496094</ele>
        <time>2011-05-28T11:57:14Z</time>
      </trkpt>
      <trkpt lat="42.70866" lon="1.54958">
        <ele>1897.2990722656</ele>
        <time>2011-05-28T11:57:21Z</time>
      </trkpt>
      <trkpt lat="42.70866" lon="1.5495">
        <ele>1896.337890625</ele>
        <time>2011-05-28T11:57:28Z</time>
      </trkpt>
      <trkpt lat="42.70866" lon="1.54943">
        <ele>1895.3764648438</ele>
        <time>2011-05-28T11:57:33Z</time>
      </trkpt>
      <trkpt lat="42.70864" lon="1.54937">
        <ele>1893.9345703125</ele>
        <time>2011-05-28T11:57:39Z</time>
      </trkpt>
      <trkpt lat="42.70863" lon="1.54933">
        <ele>1892.9731445312</ele>
        <time>2011-05-28T11:57:45Z</time>
      </trkpt>
      <trkpt lat="42.70859" lon="1.54929">
        <ele>1891.0505371094</ele>
        <time>2011-05-28T11:57:51Z</time>
      </trkpt>
      <trkpt lat="42.7086" lon="1.54926">
        <ele>1889.6086425781</ele>
        <time>2011-05-28T11:57:56Z</time>
      </trkpt>
      <trkpt lat="42.7086" lon="1.54923">
        <ele>1888.1667480469</ele>
        <time>2011-05-28T11:58:01Z</time>
      </trkpt>
      <trkpt lat="42.70862" lon="1.54922">
        <ele>1886.244140625</ele>
        <time>2011-05-28T11:58:06Z</time>
      </trkpt>
      <trkpt lat="42.70868" lon="1.54917">
        <ele>1883.3598632812</ele>
        <time>2011-05-28T11:58:13Z</time>
      </trkpt>
      <trkpt lat="42.70872" lon="1.54914">
        <ele>1880.9567871094</ele>
        <time>2011-05-28T11:58:20Z</time>
      </trkpt>
      <trkpt lat="42.70877" lon="1.54911">
        <ele>1879.9953613281</ele>
        <time>2011-05-28T11:58:26Z</time>
      </trkpt>
      <trkpt lat="42.70883" lon="1.54913">
        <ele>1879.0339355469</ele>
        <time>2011-05-28T11:58:33Z</time>
      </trkpt>
      <trkpt lat="42.70886" lon="1.54913">
        <ele>1878.5534667969</ele>
        <time>2011-05-28T11:58:40Z</time>
      </trkpt>
      <trkpt lat="42.70893" lon="1.54911">
        <ele>1877.5920410156</ele>
        <time>2011-05-28T11:58:48Z</time>
      </trkpt>
      <trkpt lat="42.70896" lon="1.54909">
        <ele>1877.1115722656</ele>
        <time>2011-05-28T11:58:54Z</time>
      </trkpt>
      <trkpt lat="42.709" lon="1.54913">
        <ele>1876.630859375</ele>
        <time>2011-05-28T11:59:00Z</time>
      </trkpt>
      <trkpt lat="42.70903" lon="1.54915">
        <ele>1875.1887207031</ele>
        <time>2011-05-28T11:59:06Z</time>
      </trkpt>
      <trkpt lat="42.70905" lon="1.5491">
        <ele>1873.7468261719</ele>
        <time>2011-05-28T11:59:11Z</time>
      </trkpt>
      <trkpt lat="42.70905" lon="1.54906">
        <ele>1872.7856445312</ele>
        <time>2011-05-28T11:59:17Z</time>
      </trkpt>
      <trkpt lat="42.70907" lon="1.54905">
        <ele>1871.82421875</ele>
        <time>2011-05-28T11:59:24Z</time>
      </trkpt>
      <trkpt lat="42.70913" lon="1.54901">
        <ele>1871.3435058594</ele>
        <time>2011-05-28T11:59:31Z</time>
      </trkpt>
      <trkpt lat="42.70918" lon="1.54897">
        <ele>1869.9016113281</ele>
        <time>2011-05-28T11:59:37Z</time>
      </trkpt>
      <trkpt lat="42.70922" lon="1.549">
        <ele>1867.9787597656</ele>
        <time>2011-05-28T11:59:43Z</time>
      </trkpt>
      <trkpt lat="42.70926" lon="1.54902">
        <ele>1866.0561523438</ele>
        <time>2011-05-28T11:59:49Z</time>
      </trkpt>
      <trkpt lat="42.7093" lon="1.54906">
        <ele>1864.1335449219</ele>
        <time>2011-05-28T11:59:56Z</time>
      </trkpt>
      <trkpt lat="42.70934" lon="1.54909">
        <ele>1861.73046875</ele>
        <time>2011-05-28T12:00:03Z</time>
      </trkpt>
      <trkpt lat="42.70936" lon="1.54911">
        <ele>1860.2883300781</ele>
        <time>2011-05-28T12:00:09Z</time>
      </trkpt>
      <trkpt lat="42.70938" lon="1.54912">
        <ele>1858.3657226562</ele>
        <time>2011-05-28T12:00:15Z</time>
      </trkpt>
      <trkpt lat="42.70943" lon="1.54912">
        <ele>1855.4819335938</ele>
        <time>2011-05-28T12:00:21Z</time>
      </trkpt>
      <trkpt lat="42.70947" lon="1.54907">
        <ele>1853.5593261719</ele>
        <time>2011-05-28T12:00:27Z</time>
      </trkpt>
      <trkpt lat="42.70949" lon="1.54905">
        <ele>1852.1171875</ele>
        <time>2011-05-28T12:00:32Z</time>
      </trkpt>
      <trkpt lat="42.70951" lon="1.54902">
        <ele>1850.6750488281</ele>
        <time>2011-05-28T12:00:37Z</time>
      </trkpt>
      <trkpt lat="42.70954" lon="1.549">
        <ele>1849.2331542969</ele>
        <time>2011-05-28T12:00:44Z</time>
      </trkpt>
      <trkpt lat="42.70957" lon="1.54902">
        <ele>1847.7912597656</ele>
        <time>2011-05-28T12:00:50Z</time>
      </trkpt>
      <trkpt lat="42.7096" lon="1.54905">
        <ele>1846.3493652344</ele>
        <time>2011-05-28T12:00:57Z</time>
      </trkpt>
      <trkpt lat="42.70962" lon="1.54904">
        <ele>1844.9072265625</ele>
        <time>2011-05-28T12:01:02Z</time>
      </trkpt>
      <trkpt lat="42.70964" lon="1.54907">
        <ele>1843.4653320312</ele>
        <time>2011-05-28T12:01:07Z</time>
      </trkpt>
      <trkpt lat="42.70967" lon="1.54906">
        <ele>1841.5427246094</ele>
        <time>2011-05-28T12:01:13Z</time>
      </trkpt>
      <trkpt lat="42.7097" lon="1.54903">
        <ele>1839.6201171875</ele>
        <time>2011-05-28T12:01:20Z</time>
      </trkpt>
      <trkpt lat="42.7097" lon="1.54896">
        <ele>1838.1782226562</ele>
        <time>2011-05-28T12:01:26Z</time>
      </trkpt>
      <trkpt lat="42.7097" lon="1.54891">
        <ele>1837.216796875</ele>
        <time>2011-05-28T12:01:31Z</time>
      </trkpt>
      <trkpt lat="42.70969" lon="1.54888">
        <ele>1835.7746582031</ele>
        <time>2011-05-28T12:01:37Z</time>
      </trkpt>
      <trkpt lat="42.70968" lon="1.54887">
        <ele>1834.3327636719</ele>
        <time>2011-05-28T12:01:44Z</time>
      </trkpt>
      <trkpt lat="42.70968" lon="1.54884">
        <ele>1833.8520507812</ele>
        <time>2011-05-28T12:01:51Z</time>
      </trkpt>
      <trkpt lat="42.70969" lon="1.54884">
        <ele>1832.890625</ele>
        <time>2011-05-28T12:01:56Z</time>
      </trkpt>
      <trkpt lat="42.70972" lon="1.54883">
        <ele>1831.9294433594</ele>
        <time>2011-05-28T12:02:02Z</time>
      </trkpt>
      <trkpt lat="42.70973" lon="1.5488">
        <ele>1830.4875488281</ele>
        <time>2011-05-28T12:02:06Z</time>
      </trkpt>
      <trkpt lat="42.70978" lon="1.54879">
        <ele>1829.5261230469</ele>
        <time>2011-05-28T12:02:11Z</time>
      </trkpt>
      <trkpt lat="42.70982" lon="1.54878">
        <ele>1828.0842285156</ele>
        <time>2011-05-28T12:02:16Z</time>
      </trkpt>
      <trkpt lat="42.70985" lon="1.54871">
        <ele>1826.6423339844</ele>
        <time>2011-05-28T12:02:22Z</time>
      </trkpt>
      <trkpt lat="42.70984" lon="1.54861">
        <ele>1824.7197265625</ele>
        <time>2011-05-28T12:02:29Z</time>
      </trkpt>
      <trkpt lat="42.70983" lon="1.54859">
        <ele>1823.7583007812</ele>
        <time>2011-05-28T12:02:31Z</time>
      </trkpt>
      <trkpt lat="42.70986" lon="1.54851">
        <ele>1820.3937988281</ele>
        <time>2011-05-28T12:02:38Z</time>
      </trkpt>
      <trkpt lat="42.70985" lon="1.54846">
        <ele>1818.4709472656</ele>
        <time>2011-05-28T12:02:44Z</time>
      </trkpt>
      <trkpt lat="42.70985" lon="1.5484">
        <ele>1816.5483398438</ele>
        <time>2011-05-28T12:02:51Z</time>
      </trkpt>
      <trkpt lat="42.70982" lon="1.54834">
        <ele>1813.6643066406</ele>
        <time>2011-05-28T12:02:59Z</time>
      </trkpt>
      <trkpt lat="42.7098" lon="1.54828">
        <ele>1811.7419433594</ele>
        <time>2011-05-28T12:03:06Z</time>
      </trkpt>
      <trkpt lat="42.70979" lon="1.54826">
        <ele>1809.8190917969</ele>
        <time>2011-05-28T12:03:12Z</time>
      </trkpt>
      <trkpt lat="42.70979" lon="1.54825">
        <ele>1809.3386230469</ele>
        <time>2011-05-28T12:03:13Z</time>
      </trkpt>
      <trkpt lat="42.70975" lon="1.54816">
        <ele>1805.9738769531</ele>
        <time>2011-05-28T12:03:21Z</time>
      </trkpt>
      <trkpt lat="42.70973" lon="1.54812">
        <ele>1804.0515136719</ele>
        <time>2011-05-28T12:03:27Z</time>
      </trkpt>
      <trkpt lat="42.70971" lon="1.54808">
        <ele>1801.1672363281</ele>
        <time>2011-05-28T12:03:33Z</time>
      </trkpt>
      <trkpt lat="42.70967" lon="1.54802">
        <ele>1799.7253417969</ele>
        <time>2011-05-28T12:03:39Z</time>
      </trkpt>
      <trkpt lat="42.70965" lon="1.54795">
        <ele>1797.3220214844</ele>
        <time>2011-05-28T12:03:45Z</time>
      </trkpt>
      <trkpt lat="42.70963" lon="1.54787">
        <ele>1793.9575195312</ele>
        <time>2011-05-28T12:03:52Z</time>
      </trkpt>
      <trkpt lat="42.7096" lon="1.54784">
        <ele>1793.4768066406</ele>
        <time>2011-05-28T12:03:55Z</time>
      </trkpt>
      <trkpt lat="42.70957" lon="1.5478">
        <ele>1791.5541992188</ele>
        <time>2011-05-28T12:03:59Z</time>
      </trkpt>
      <trkpt lat="42.70953" lon="1.54775">
        <ele>1790.1123046875</ele>
        <time>2011-05-28T12:04:04Z</time>
      </trkpt>
      <trkpt lat="42.70947" lon="1.54771">
        <ele>1786.7473144531</ele>
        <time>2011-05-28T12:04:10Z</time>
      </trkpt>
      <trkpt lat="42.70942" lon="1.54767">
        <ele>1784.8249511719</ele>
        <time>2011-05-28T12:04:14Z</time>
      </trkpt>
      <trkpt lat="42.70937" lon="1.54764">
        <ele>1781.9409179688</ele>
        <time>2011-05-28T12:04:21Z</time>
      </trkpt>
      <trkpt lat="42.70934" lon="1.54764">
        <ele>1780.0183105469</ele>
        <time>2011-05-28T12:04:27Z</time>
      </trkpt>
      <trkpt lat="42.70931" lon="1.54764">
        <ele>1779.5375976562</ele>
        <time>2011-05-28T12:04:32Z</time>
      </trkpt>
      <trkpt lat="42.70929" lon="1.54762">
        <ele>1778.095703125</ele>
        <time>2011-05-28T12:04:37Z</time>
      </trkpt>
      <trkpt lat="42.7093" lon="1.54759">
        <ele>1775.2116699219</ele>
        <time>2011-05-28T12:04:43Z</time>
      </trkpt>
      <trkpt lat="42.70932" lon="1.54754">
        <ele>1771.8469238281</ele>
        <time>2011-05-28T12:04:49Z</time>
      </trkpt>
      <trkpt lat="42.70931" lon="1.54751">
        <ele>1768.482421875</ele>
        <time>2011-05-28T12:04:55Z</time>
      </trkpt>
      <trkpt lat="42.70929" lon="1.54749">
        <ele>1768.0017089844</ele>
        <time>2011-05-28T12:05:00Z</time>
      </trkpt>
      <trkpt lat="42.70924" lon="1.54744">
        <ele>1767.0405273438</ele>
        <time>2011-05-28T12:05:07Z</time>
      </trkpt>
      <trkpt lat="42.70925" lon="1.54742">
        <ele>1768.0017089844</ele>
        <time>2011-05-28T12:05:14Z</time>
      </trkpt>
      <trkpt lat="42.70922" lon="1.5474">
        <ele>1768.0017089844</ele>
        <time>2011-05-28T12:05:22Z</time>
      </trkpt>
      <trkpt lat="42.70918" lon="1.54735">
        <ele>1766.0791015625</ele>
        <time>2011-05-28T12:05:29Z</time>
      </trkpt>
      <trkpt lat="42.70914" lon="1.54731">
        <ele>1764.6372070312</ele>
        <time>2011-05-28T12:05:35Z</time>
      </trkpt>
      <trkpt lat="42.7091" lon="1.54729">
        <ele>1763.67578125</ele>
        <time>2011-05-28T12:05:40Z</time>
      </trkpt>
      <trkpt lat="42.70908" lon="1.54729">
        <ele>1763.1953125</ele>
        <time>2011-05-28T12:05:45Z</time>
      </trkpt>
      <trkpt lat="42.70907" lon="1.54726">
        <ele>1759.8305664062</ele>
        <time>2011-05-28T12:05:51Z</time>
      </trkpt>
      <trkpt lat="42.70903" lon="1.54719">
        <ele>1756.9467773438</ele>
        <time>2011-05-28T12:05:58Z</time>
      </trkpt>
      <trkpt lat="42.70902" lon="1.54714">
        <ele>1755.5046386719</ele>
        <time>2011-05-28T12:06:01Z</time>
      </trkpt>
      <trkpt lat="42.70897" lon="1.54709">
        <ele>1753.1013183594</ele>
        <time>2011-05-28T12:06:06Z</time>
      </trkpt>
      <trkpt lat="42.70894" lon="1.54699">
        <ele>1752.1398925781</ele>
        <time>2011-05-28T12:06:11Z</time>
      </trkpt>
      <trkpt lat="42.70893" lon="1.54688">
        <ele>1751.1787109375</ele>
        <time>2011-05-28T12:06:16Z</time>
      </trkpt>
      <trkpt lat="42.70888" lon="1.54678">
        <ele>1749.7368164062</ele>
        <time>2011-05-28T12:06:20Z</time>
      </trkpt>
      <trkpt lat="42.70887" lon="1.54672">
        <ele>1750.2175292969</ele>
        <time>2011-05-28T12:06:24Z</time>
      </trkpt>
      <trkpt lat="42.70888" lon="1.54666">
        <ele>1750.2175292969</ele>
        <time>2011-05-28T12:06:29Z</time>
      </trkpt>
      <trkpt lat="42.70887" lon="1.54655">
        <ele>1750.6979980469</ele>
        <time>2011-05-28T12:06:37Z</time>
      </trkpt>
      <trkpt lat="42.7089" lon="1.54645">
        <ele>1748.775390625</ele>
        <time>2011-05-28T12:06:43Z</time>
      </trkpt>
      <trkpt lat="42.70891" lon="1.54643">
        <ele>1748.2946777344</ele>
        <time>2011-05-28T12:06:45Z</time>
      </trkpt>
      <trkpt lat="42.70889" lon="1.54637">
        <ele>1748.2946777344</ele>
        <time>2011-05-28T12:06:49Z</time>
      </trkpt>
      <trkpt lat="42.70885" lon="1.54629">
        <ele>1746.8527832031</ele>
        <time>2011-05-28T12:06:57Z</time>
      </trkpt>
      <trkpt lat="42.70883" lon="1.54627">
        <ele>1746.3723144531</ele>
        <time>2011-05-28T12:07:04Z</time>
      </trkpt>
      <trkpt lat="42.70881" lon="1.54624">
        <ele>1745.4108886719</ele>
        <time>2011-05-28T12:07:10Z</time>
      </trkpt>
      <trkpt lat="42.7088" lon="1.54622">
        <ele>1745.4108886719</ele>
        <time>2011-05-28T12:07:14Z</time>
      </trkpt>
      <trkpt lat="42.7088" lon="1.54619">
        <ele>1746.3723144531</ele>
        <time>2011-05-28T12:07:19Z</time>
      </trkpt>
      <trkpt lat="42.70882" lon="1.54618">
        <ele>1746.3723144531</ele>
        <time>2011-05-28T12:07:27Z</time>
      </trkpt>
      <trkpt lat="42.70885" lon="1.54617">
        <ele>1746.8527832031</ele>
        <time>2011-05-28T12:07:35Z</time>
      </trkpt>
      <trkpt lat="42.70889" lon="1.5462">
        <ele>1744.9301757812</ele>
        <time>2011-05-28T12:07:41Z</time>
      </trkpt>
      <trkpt lat="42.70892" lon="1.54621">
        <ele>1743.9689941406</ele>
        <time>2011-05-28T12:07:47Z</time>
      </trkpt>
      <trkpt lat="42.70895" lon="1.5462">
        <ele>1743.48828125</ele>
        <time>2011-05-28T12:07:52Z</time>
      </trkpt>
      <trkpt lat="42.70899" lon="1.5462">
        <ele>1740.1237792969</ele>
        <time>2011-05-28T12:07:59Z</time>
      </trkpt>
      <trkpt lat="42.70906" lon="1.54619">
        <ele>1736.7587890625</ele>
        <time>2011-05-28T12:08:06Z</time>
      </trkpt>
      <trkpt lat="42.7091" lon="1.54618">
        <ele>1736.7587890625</ele>
        <time>2011-05-28T12:08:12Z</time>
      </trkpt>
      <trkpt lat="42.70911" lon="1.54615">
        <ele>1736.7587890625</ele>
        <time>2011-05-28T12:08:19Z</time>
      </trkpt>
      <trkpt lat="42.70911" lon="1.54613">
        <ele>1736.2783203125</ele>
        <time>2011-05-28T12:08:26Z</time>
      </trkpt>
      <trkpt lat="42.70913" lon="1.54611">
        <ele>1737.2395019531</ele>
        <time>2011-05-28T12:08:32Z</time>
      </trkpt>
      <trkpt lat="42.70917" lon="1.5461">
        <ele>1737.7202148438</ele>
        <time>2011-05-28T12:08:41Z</time>
      </trkpt>
      <trkpt lat="42.70919" lon="1.54608">
        <ele>1738.2009277344</ele>
        <time>2011-05-28T12:08:46Z</time>
      </trkpt>
      <trkpt lat="42.70922" lon="1.54608">
        <ele>1737.7202148438</ele>
        <time>2011-05-28T12:08:51Z</time>
      </trkpt>
      <trkpt lat="42.70926" lon="1.54611">
        <ele>1737.7202148438</ele>
        <time>2011-05-28T12:08:56Z</time>
      </trkpt>
      <trkpt lat="42.70928" lon="1.54615">
        <ele>1737.2395019531</ele>
        <time>2011-05-28T12:09:02Z</time>
      </trkpt>
      <trkpt lat="42.70931" lon="1.54618">
        <ele>1737.7202148438</ele>
        <time>2011-05-28T12:09:05Z</time>
      </trkpt>
      <trkpt lat="42.70936" lon="1.54623">
        <ele>1737.7202148438</ele>
        <time>2011-05-28T12:09:13Z</time>
      </trkpt>
      <trkpt lat="42.70936" lon="1.54626">
        <ele>1737.2395019531</ele>
        <time>2011-05-28T12:09:18Z</time>
      </trkpt>
      <trkpt lat="42.70939" lon="1.54631">
        <ele>1736.7587890625</ele>
        <time>2011-05-28T12:09:25Z</time>
      </trkpt>
      <trkpt lat="42.70941" lon="1.54634">
        <ele>1736.2783203125</ele>
        <time>2011-05-28T12:09:38Z</time>
      </trkpt>
      <trkpt lat="42.70943" lon="1.54637">
        <ele>1736.2783203125</ele>
        <time>2011-05-28T12:09:40Z</time>
      </trkpt>
      <trkpt lat="42.70947" lon="1.54641">
        <ele>1735.7976074219</ele>
        <time>2011-05-28T12:09:44Z</time>
      </trkpt>
      <trkpt lat="42.70948" lon="1.54643">
        <ele>1736.2783203125</ele>
        <time>2011-05-28T12:09:51Z</time>
      </trkpt>
      <trkpt lat="42.70945" lon="1.5464">
        <ele>1736.2783203125</ele>
        <time>2011-05-28T12:09:57Z</time>
      </trkpt>
      <trkpt lat="42.70946" lon="1.54642">
        <ele>1737.7202148438</ele>
        <time>2011-05-28T12:10:21Z</time>
      </trkpt>
      <trkpt lat="42.70949" lon="1.54645">
        <ele>1737.2395019531</ele>
        <time>2011-05-28T12:10:25Z</time>
      </trkpt>
      <trkpt lat="42.70953" lon="1.54649">
        <ele>1737.2395019531</ele>
        <time>2011-05-28T12:10:31Z</time>
      </trkpt>
      <trkpt lat="42.70954" lon="1.54651">
        <ele>1736.7587890625</ele>
        <time>2011-05-28T12:10:33Z</time>
      </trkpt>
      <trkpt lat="42.70959" lon="1.54654">
        <ele>1736.7587890625</ele>
        <time>2011-05-28T12:10:38Z</time>
      </trkpt>
      <trkpt lat="42.70968" lon="1.5466">
        <ele>1736.2783203125</ele>
        <time>2011-05-28T12:10:47Z</time>
      </trkpt>
      <trkpt lat="42.70972" lon="1.54665">
        <ele>1735.7976074219</ele>
        <time>2011-05-28T12:10:53Z</time>
      </trkpt>
      <trkpt lat="42.70977" lon="1.54669">
        <ele>1734.8364257812</ele>
        <time>2011-05-28T12:11:00Z</time>
      </trkpt>
      <trkpt lat="42.70981" lon="1.54673">
        <ele>1734.3557128906</ele>
        <time>2011-05-28T12:11:05Z</time>
      </trkpt>
      <trkpt lat="42.70986" lon="1.54676">
        <ele>1734.3557128906</ele>
        <time>2011-05-28T12:11:10Z</time>
      </trkpt>
      <trkpt lat="42.70988" lon="1.5468">
        <ele>1734.8364257812</ele>
        <time>2011-05-28T12:11:17Z</time>
      </trkpt>
      <trkpt lat="42.70993" lon="1.54686">
        <ele>1735.3168945312</ele>
        <time>2011-05-28T12:11:23Z</time>
      </trkpt>
      <trkpt lat="42.70996" lon="1.5469">
        <ele>1735.7976074219</ele>
        <time>2011-05-28T12:11:28Z</time>
      </trkpt>
      <trkpt lat="42.70998" lon="1.54694">
        <ele>1734.8364257812</ele>
        <time>2011-05-28T12:11:33Z</time>
      </trkpt>
      <trkpt lat="42.71003" lon="1.54696">
        <ele>1734.3557128906</ele>
        <time>2011-05-28T12:11:38Z</time>
      </trkpt>
      <trkpt lat="42.71007" lon="1.547">
        <ele>1734.3557128906</ele>
        <time>2011-05-28T12:11:44Z</time>
      </trkpt>
      <trkpt lat="42.71012" lon="1.54703">
        <ele>1734.8364257812</ele>
        <time>2011-05-28T12:11:50Z</time>
      </trkpt>
      <trkpt lat="42.71016" lon="1.54705">
        <ele>1736.2783203125</ele>
        <time>2011-05-28T12:11:56Z</time>
      </trkpt>
      <trkpt lat="42.71022" lon="1.5471">
        <ele>1738.681640625</ele>
        <time>2011-05-28T12:12:06Z</time>
      </trkpt>
      <trkpt lat="42.71026" lon="1.54712">
        <ele>1738.681640625</ele>
        <time>2011-05-28T12:12:12Z</time>
      </trkpt>
      <trkpt lat="42.71032" lon="1.54712">
        <ele>1737.2395019531</ele>
        <time>2011-05-28T12:12:19Z</time>
      </trkpt>
      <trkpt lat="42.71036" lon="1.54715">
        <ele>1736.2783203125</ele>
        <time>2011-05-28T12:12:24Z</time>
      </trkpt>
      <trkpt lat="42.71041" lon="1.5472">
        <ele>1734.8364257812</ele>
        <time>2011-05-28T12:12:30Z</time>
      </trkpt>
      <trkpt lat="42.71045" lon="1.54726">
        <ele>1733.3942871094</ele>
        <time>2011-05-28T12:12:36Z</time>
      </trkpt>
      <trkpt lat="42.71045" lon="1.54728">
        <ele>1733.3942871094</ele>
        <time>2011-05-28T12:12:37Z</time>
      </trkpt>
      <trkpt lat="42.71045" lon="1.54731">
        <ele>1732.9135742188</ele>
        <time>2011-05-28T12:12:39Z</time>
      </trkpt>
      <trkpt lat="42.71045" lon="1.54741">
        <ele>1731.9523925781</ele>
        <time>2011-05-28T12:12:46Z</time>
      </trkpt>
      <trkpt lat="42.71048" lon="1.54749">
        <ele>1730.9912109375</ele>
        <time>2011-05-28T12:12:52Z</time>
      </trkpt>
      <trkpt lat="42.71051" lon="1.54751">
        <ele>1730.9912109375</ele>
        <time>2011-05-28T12:12:54Z</time>
      </trkpt>
      <trkpt lat="42.71052" lon="1.54753">
        <ele>1730.5104980469</ele>
        <time>2011-05-28T12:12:56Z</time>
      </trkpt>
      <trkpt lat="42.71056" lon="1.5476">
        <ele>1729.068359375</ele>
        <time>2011-05-28T12:13:03Z</time>
      </trkpt>
      <trkpt lat="42.71064" lon="1.5477">
        <ele>1727.6264648438</ele>
        <time>2011-05-28T12:13:11Z</time>
      </trkpt>
      <trkpt lat="42.7107" lon="1.54774">
        <ele>1727.1459960938</ele>
        <time>2011-05-28T12:13:17Z</time>
      </trkpt>
      <trkpt lat="42.71075" lon="1.54775">
        <ele>1726.1845703125</ele>
        <time>2011-05-28T12:13:23Z</time>
      </trkpt>
      <trkpt lat="42.71077" lon="1.54778">
        <ele>1724.7426757812</ele>
        <time>2011-05-28T12:13:30Z</time>
      </trkpt>
      <trkpt lat="42.71078" lon="1.54782">
        <ele>1722.8198242188</ele>
        <time>2011-05-28T12:13:36Z</time>
      </trkpt>
      <trkpt lat="42.71081" lon="1.54782">
        <ele>1721.8583984375</ele>
        <time>2011-05-28T12:13:41Z</time>
      </trkpt>
      <trkpt lat="42.71083" lon="1.54782">
        <ele>1719.9357910156</ele>
        <time>2011-05-28T12:13:49Z</time>
      </trkpt>
      <trkpt lat="42.71086" lon="1.54781">
        <ele>1718.4938964844</ele>
        <time>2011-05-28T12:13:55Z</time>
      </trkpt>
      <trkpt lat="42.7109" lon="1.54781">
        <ele>1717.5324707031</ele>
        <time>2011-05-28T12:14:01Z</time>
      </trkpt>
      <trkpt lat="42.71091" lon="1.54785">
        <ele>1717.5324707031</ele>
        <time>2011-05-28T12:14:09Z</time>
      </trkpt>
      <trkpt lat="42.71095" lon="1.54787">
        <ele>1716.0905761719</ele>
        <time>2011-05-28T12:14:14Z</time>
      </trkpt>
      <trkpt lat="42.71095" lon="1.54789">
        <ele>1716.0905761719</ele>
        <time>2011-05-28T12:14:19Z</time>
      </trkpt>
      <trkpt lat="42.7109" lon="1.54792">
        <ele>1714.6486816406</ele>
        <time>2011-05-28T12:14:26Z</time>
      </trkpt>
      <trkpt lat="42.71088" lon="1.54797">
        <ele>1713.6872558594</ele>
        <time>2011-05-28T12:14:32Z</time>
      </trkpt>
      <trkpt lat="42.71091" lon="1.54798">
        <ele>1712.7260742188</ele>
        <time>2011-05-28T12:14:38Z</time>
      </trkpt>
      <trkpt lat="42.71093" lon="1.54804">
        <ele>1710.8034667969</ele>
        <time>2011-05-28T12:14:44Z</time>
      </trkpt>
      <trkpt lat="42.71095" lon="1.54804">
        <ele>1710.3227539062</ele>
        <time>2011-05-28T12:14:49Z</time>
      </trkpt>
      <trkpt lat="42.71098" lon="1.54807">
        <ele>1709.3615722656</ele>
        <time>2011-05-28T12:14:56Z</time>
      </trkpt>
      <trkpt lat="42.71099" lon="1.54808">
        <ele>1709.3615722656</ele>
        <time>2011-05-28T12:15:01Z</time>
      </trkpt>
      <trkpt lat="42.71104" lon="1.54812">
        <ele>1708.880859375</ele>
        <time>2011-05-28T12:15:07Z</time>
      </trkpt>
      <trkpt lat="42.71107" lon="1.54817">
        <ele>1707.9194335938</ele>
        <time>2011-05-28T12:15:13Z</time>
      </trkpt>
      <trkpt lat="42.71108" lon="1.54818">
        <ele>1707.9194335938</ele>
        <time>2011-05-28T12:15:19Z</time>
      </trkpt>
      <trkpt lat="42.71108" lon="1.54818">
        <ele>1708.4001464844</ele>
        <time>2011-05-28T12:15:20Z</time>
      </trkpt>
      <trkpt lat="42.71114" lon="1.54829">
        <ele>1707.9194335938</ele>
        <time>2011-05-28T12:15:29Z</time>
      </trkpt>
      <trkpt lat="42.71113" lon="1.54836">
        <ele>1705.9965820312</ele>
        <time>2011-05-28T12:15:37Z</time>
      </trkpt>
      <trkpt lat="42.71116" lon="1.54842">
        <ele>1704.07421875</ele>
        <time>2011-05-28T12:15:43Z</time>
      </trkpt>
      <trkpt lat="42.71119" lon="1.54846">
        <ele>1701.1901855469</ele>
        <time>2011-05-28T12:15:50Z</time>
      </trkpt>
      <trkpt lat="42.71123" lon="1.5485">
        <ele>1699.7482910156</ele>
        <time>2011-05-28T12:15:56Z</time>
      </trkpt>
      <trkpt lat="42.71123" lon="1.54852">
        <ele>1699.267578125</ele>
        <time>2011-05-28T12:15:57Z</time>
      </trkpt>
      <trkpt lat="42.71125" lon="1.54859">
        <ele>1698.3061523438</ele>
        <time>2011-05-28T12:16:04Z</time>
      </trkpt>
      <trkpt lat="42.71128" lon="1.5486">
        <ele>1697.3449707031</ele>
        <time>2011-05-28T12:16:09Z</time>
      </trkpt>
      <trkpt lat="42.71131" lon="1.54865">
        <ele>1696.3837890625</ele>
        <time>2011-05-28T12:16:13Z</time>
      </trkpt>
      <trkpt lat="42.71134" lon="1.54872">
        <ele>1695.4223632812</ele>
        <time>2011-05-28T12:16:19Z</time>
      </trkpt>
      <trkpt lat="42.71137" lon="1.54878">
        <ele>1693.4997558594</ele>
        <time>2011-05-28T12:16:25Z</time>
      </trkpt>
      <trkpt lat="42.71141" lon="1.54883">
        <ele>1690.6154785156</ele>
        <time>2011-05-28T12:16:32Z</time>
      </trkpt>
      <trkpt lat="42.71144" lon="1.54888">
        <ele>1687.2509765625</ele>
        <time>2011-05-28T12:16:39Z</time>
      </trkpt>
      <trkpt lat="42.71148" lon="1.54894">
        <ele>1684.3671875</ele>
        <time>2011-05-28T12:16:46Z</time>
      </trkpt>
      <trkpt lat="42.7115" lon="1.54899">
        <ele>1682.9250488281</ele>
        <time>2011-05-28T12:16:52Z</time>
      </trkpt>
      <trkpt lat="42.71154" lon="1.54903">
        <ele>1682.9250488281</ele>
        <time>2011-05-28T12:16:57Z</time>
      </trkpt>
      <trkpt lat="42.71156" lon="1.54905">
        <ele>1682.4445800781</ele>
        <time>2011-05-28T12:16:59Z</time>
      </trkpt>
      <trkpt lat="42.71158" lon="1.54911">
        <ele>1682.9250488281</ele>
        <time>2011-05-28T12:17:03Z</time>
      </trkpt>
      <trkpt lat="42.71161" lon="1.54921">
        <ele>1682.4445800781</ele>
        <time>2011-05-28T12:17:09Z</time>
      </trkpt>
      <trkpt lat="42.71162" lon="1.54922">
        <ele>1681.9638671875</ele>
        <time>2011-05-28T12:17:10Z</time>
      </trkpt>
      <trkpt lat="42.71163" lon="1.54928">
        <ele>1680.0412597656</ele>
        <time>2011-05-28T12:17:15Z</time>
      </trkpt>
      <trkpt lat="42.71167" lon="1.54932">
        <ele>1676.6767578125</ele>
        <time>2011-05-28T12:17:22Z</time>
      </trkpt>
      <trkpt lat="42.71171" lon="1.54939">
        <ele>1674.2731933594</ele>
        <time>2011-05-28T12:17:28Z</time>
      </trkpt>
      <trkpt lat="42.71175" lon="1.54945">
        <ele>1670.9086914062</ele>
        <time>2011-05-28T12:17:34Z</time>
      </trkpt>
      <trkpt lat="42.71177" lon="1.5495">
        <ele>1668.5053710938</ele>
        <time>2011-05-28T12:17:40Z</time>
      </trkpt>
      <trkpt lat="42.71181" lon="1.54958">
        <ele>1666.1020507812</ele>
        <time>2011-05-28T12:17:47Z</time>
      </trkpt>
      <trkpt lat="42.71188" lon="1.54966">
        <ele>1663.6987304688</ele>
        <time>2011-05-28T12:17:53Z</time>
      </trkpt>
      <trkpt lat="42.71192" lon="1.54971">
        <ele>1662.7375488281</ele>
        <time>2011-05-28T12:17:57Z</time>
      </trkpt>
      <trkpt lat="42.71194" lon="1.54976">
        <ele>1661.7763671875</ele>
        <time>2011-05-28T12:18:01Z</time>
      </trkpt>
      <trkpt lat="42.71198" lon="1.54981">
        <ele>1658.8920898438</ele>
        <time>2011-05-28T12:18:09Z</time>
      </trkpt>
      <trkpt lat="42.71202" lon="1.54988">
        <ele>1656.9694824219</ele>
        <time>2011-05-28T12:18:15Z</time>
      </trkpt>
      <trkpt lat="42.71208" lon="1.54999">
        <ele>1655.046875</ele>
        <time>2011-05-28T12:18:21Z</time>
      </trkpt>
      <trkpt lat="42.71214" lon="1.55007">
        <ele>1653.1242675781</ele>
        <time>2011-05-28T12:18:27Z</time>
      </trkpt>
      <trkpt lat="42.71215" lon="1.55009">
        <ele>1653.1242675781</ele>
        <time>2011-05-28T12:18:29Z</time>
      </trkpt>
      <trkpt lat="42.71219" lon="1.55015">
        <ele>1651.2016601562</ele>
        <time>2011-05-28T12:18:34Z</time>
      </trkpt>
      <trkpt lat="42.71222" lon="1.55018">
        <ele>1649.759765625</ele>
        <time>2011-05-28T12:18:38Z</time>
      </trkpt>
      <trkpt lat="42.71224" lon="1.55022">
        <ele>1648.7983398438</ele>
        <time>2011-05-28T12:18:41Z</time>
      </trkpt>
      <trkpt lat="42.7122" lon="1.55024">
        <ele>1646.3952636719</ele>
        <time>2011-05-28T12:18:47Z</time>
      </trkpt>
      <trkpt lat="42.71218" lon="1.55027">
        <ele>1645.4338378906</ele>
        <time>2011-05-28T12:18:52Z</time>
      </trkpt>
      <trkpt lat="42.71221" lon="1.55033">
        <ele>1643.5109863281</ele>
        <time>2011-05-28T12:18:58Z</time>
      </trkpt>
      <trkpt lat="42.71224" lon="1.55038">
        <ele>1641.1076660156</ele>
        <time>2011-05-28T12:19:04Z</time>
      </trkpt>
      <trkpt lat="42.71219" lon="1.5504">
        <ele>1640.146484375</ele>
        <time>2011-05-28T12:19:09Z</time>
      </trkpt>
      <trkpt lat="42.71218" lon="1.5504">
        <ele>1640.146484375</ele>
        <time>2011-05-28T12:19:10Z</time>
      </trkpt>
      <trkpt lat="42.71214" lon="1.55039">
        <ele>1639.1850585938</ele>
        <time>2011-05-28T12:19:16Z</time>
      </trkpt>
      <trkpt lat="42.71212" lon="1.55042">
        <ele>1638.2238769531</ele>
        <time>2011-05-28T12:19:21Z</time>
      </trkpt>
      <trkpt lat="42.71218" lon="1.55047">
        <ele>1636.3012695312</ele>
        <time>2011-05-28T12:19:27Z</time>
      </trkpt>
      <trkpt lat="42.71219" lon="1.55048">
        <ele>1636.3012695312</ele>
        <time>2011-05-28T12:19:28Z</time>
      </trkpt>
      <trkpt lat="42.71223" lon="1.55056">
        <ele>1633.4172363281</ele>
        <time>2011-05-28T12:19:35Z</time>
      </trkpt>
      <trkpt lat="42.71225" lon="1.55066">
        <ele>1631.0141601562</ele>
        <time>2011-05-28T12:19:42Z</time>
      </trkpt>
      <trkpt lat="42.71225" lon="1.55077">
        <ele>1628.1301269531</ele>
        <time>2011-05-28T12:19:48Z</time>
      </trkpt>
      <trkpt lat="42.71226" lon="1.55086">
        <ele>1626.2072753906</ele>
        <time>2011-05-28T12:19:53Z</time>
      </trkpt>
      <trkpt lat="42.71227" lon="1.55093">
        <ele>1624.7653808594</ele>
        <time>2011-05-28T12:19:57Z</time>
      </trkpt>
      <trkpt lat="42.71223" lon="1.55097">
        <ele>1624.7653808594</ele>
        <time>2011-05-28T12:20:04Z</time>
      </trkpt>
      <trkpt lat="42.71219" lon="1.551">
        <ele>1624.7653808594</ele>
        <time>2011-05-28T12:20:13Z</time>
      </trkpt>
      <trkpt lat="42.71218" lon="1.55101">
        <ele>1624.7653808594</ele>
        <time>2011-05-28T12:20:19Z</time>
      </trkpt>
      <trkpt lat="42.71218" lon="1.55104">
        <ele>1625.2458496094</ele>
        <time>2011-05-28T12:20:26Z</time>
      </trkpt>
      <trkpt lat="42.7122" lon="1.55113">
        <ele>1626.2072753906</ele>
        <time>2011-05-28T12:20:33Z</time>
      </trkpt>
      <trkpt lat="42.71218" lon="1.55119">
        <ele>1627.1687011719</ele>
        <time>2011-05-28T12:20:38Z</time>
      </trkpt>
      <trkpt lat="42.71219" lon="1.5513">
        <ele>1628.6108398438</ele>
        <time>2011-05-28T12:20:46Z</time>
      </trkpt>
      <trkpt lat="42.71219" lon="1.55142">
        <ele>1629.5720214844</ele>
        <time>2011-05-28T12:20:54Z</time>
      </trkpt>
      <trkpt lat="42.71219" lon="1.55155">
        <ele>1629.0913085938</ele>
        <time>2011-05-28T12:21:04Z</time>
      </trkpt>
      <trkpt lat="42.71221" lon="1.55156">
        <ele>1629.0913085938</ele>
        <time>2011-05-28T12:21:15Z</time>
      </trkpt>
      <trkpt lat="42.71223" lon="1.55157">
        <ele>1629.0913085938</ele>
        <time>2011-05-28T12:21:21Z</time>
      </trkpt>
      <trkpt lat="42.71219" lon="1.55159">
        <ele>1623.8039550781</ele>
        <time>2011-05-28T12:21:30Z</time>
      </trkpt>
      <trkpt lat="42.71218" lon="1.5516">
        <ele>1625.2458496094</ele>
        <time>2011-05-28T12:21:36Z</time>
      </trkpt>
      <trkpt lat="42.71217" lon="1.55167">
        <ele>1625.2458496094</ele>
        <time>2011-05-28T12:21:43Z</time>
      </trkpt>
      <trkpt lat="42.71216" lon="1.55172">
        <ele>1625.2458496094</ele>
        <time>2011-05-28T12:21:50Z</time>
      </trkpt>
      <trkpt lat="42.71214" lon="1.55175">
        <ele>1624.7653808594</ele>
        <time>2011-05-28T12:21:56Z</time>
      </trkpt>
      <trkpt lat="42.71215" lon="1.5518">
        <ele>1625.7265625</ele>
        <time>2011-05-28T12:22:05Z</time>
      </trkpt>
      <trkpt lat="42.71214" lon="1.55187">
        <ele>1624.2846679688</ele>
        <time>2011-05-28T12:22:12Z</time>
      </trkpt>
      <trkpt lat="42.71216" lon="1.55196">
        <ele>1622.8427734375</ele>
        <time>2011-05-28T12:22:19Z</time>
      </trkpt>
      <trkpt lat="42.71217" lon="1.55199">
        <ele>1622.8427734375</ele>
        <time>2011-05-28T12:22:21Z</time>
      </trkpt>
      <trkpt lat="42.71215" lon="1.55206">
        <ele>1621.4006347656</ele>
        <time>2011-05-28T12:22:29Z</time>
      </trkpt>
      <trkpt lat="42.71215" lon="1.55208">
        <ele>1621.4006347656</ele>
        <time>2011-05-28T12:22:35Z</time>
      </trkpt>
      <trkpt lat="42.71215" lon="1.55212">
        <ele>1619.9587402344</ele>
        <time>2011-05-28T12:22:42Z</time>
      </trkpt>
      <trkpt lat="42.71215" lon="1.55217">
        <ele>1618.9975585938</ele>
        <time>2011-05-28T12:22:47Z</time>
      </trkpt>
      <trkpt lat="42.71215" lon="1.55222">
        <ele>1617.0749511719</ele>
        <time>2011-05-28T12:22:53Z</time>
      </trkpt>
      <trkpt lat="42.71216" lon="1.55229">
        <ele>1616.5942382812</ele>
        <time>2011-05-28T12:22:58Z</time>
      </trkpt>
      <trkpt lat="42.71214" lon="1.55234">
        <ele>1615.6330566406</ele>
        <time>2011-05-28T12:23:05Z</time>
      </trkpt>
      <trkpt lat="42.71213" lon="1.55239">
        <ele>1613.7102050781</ele>
        <time>2011-05-28T12:23:12Z</time>
      </trkpt>
      <trkpt lat="42.7121" lon="1.55245">
        <ele>1612.2683105469</ele>
        <time>2011-05-28T12:23:17Z</time>
      </trkpt>
      <trkpt lat="42.71209" lon="1.55256">
        <ele>1610.3454589844</ele>
        <time>2011-05-28T12:23:23Z</time>
      </trkpt>
      <trkpt lat="42.71207" lon="1.55259">
        <ele>1609.8647460938</ele>
        <time>2011-05-28T12:23:25Z</time>
      </trkpt>
      <trkpt lat="42.71205" lon="1.55263">
        <ele>1609.3842773438</ele>
        <time>2011-05-28T12:23:29Z</time>
      </trkpt>
      <trkpt lat="42.712" lon="1.55281">
        <ele>1607.9423828125</ele>
        <time>2011-05-28T12:23:39Z</time>
      </trkpt>
      <trkpt lat="42.71196" lon="1.55295">
        <ele>1606.9809570312</ele>
        <time>2011-05-28T12:23:47Z</time>
      </trkpt>
      <trkpt lat="42.71192" lon="1.55302">
        <ele>1606.5002441406</ele>
        <time>2011-05-28T12:23:52Z</time>
      </trkpt>
      <trkpt lat="42.71189" lon="1.55315">
        <ele>1606.9809570312</ele>
        <time>2011-05-28T12:24:01Z</time>
      </trkpt>
      <trkpt lat="42.71188" lon="1.55318">
        <ele>1606.9809570312</ele>
        <time>2011-05-28T12:24:04Z</time>
      </trkpt>
      <trkpt lat="42.71188" lon="1.55322">
        <ele>1606.5002441406</ele>
        <time>2011-05-28T12:24:07Z</time>
      </trkpt>
      <trkpt lat="42.71187" lon="1.55331">
        <ele>1605.5390625</ele>
        <time>2011-05-28T12:24:13Z</time>
      </trkpt>
      <trkpt lat="42.71187" lon="1.55344">
        <ele>1603.1357421875</ele>
        <time>2011-05-28T12:24:21Z</time>
      </trkpt>
      <trkpt lat="42.71187" lon="1.55352">
        <ele>1602.1743164062</ele>
        <time>2011-05-28T12:24:27Z</time>
      </trkpt>
      <trkpt lat="42.71188" lon="1.55355">
        <ele>1601.6938476562</ele>
        <time>2011-05-28T12:24:30Z</time>
      </trkpt>
      <trkpt lat="42.71187" lon="1.55361">
        <ele>1600.251953125</ele>
        <time>2011-05-28T12:24:37Z</time>
      </trkpt>
      <trkpt lat="42.71187" lon="1.55366">
        <ele>1599.7712402344</ele>
        <time>2011-05-28T12:24:42Z</time>
      </trkpt>
      <trkpt lat="42.71191" lon="1.55368">
        <ele>1598.3291015625</ele>
        <time>2011-05-28T12:24:47Z</time>
      </trkpt>
      <trkpt lat="42.71196" lon="1.55369">
        <ele>1596.8872070312</ele>
        <time>2011-05-28T12:24:51Z</time>
      </trkpt>
      <trkpt lat="42.71198" lon="1.55372">
        <ele>1595.92578125</ele>
        <time>2011-05-28T12:24:54Z</time>
      </trkpt>
      <trkpt lat="42.71195" lon="1.55381">
        <ele>1593.5224609375</ele>
        <time>2011-05-28T12:25:02Z</time>
      </trkpt>
      <trkpt lat="42.71193" lon="1.55389">
        <ele>1592.0805664062</ele>
        <time>2011-05-28T12:25:09Z</time>
      </trkpt>
      <trkpt lat="42.71191" lon="1.55393">
        <ele>1591.5998535156</ele>
        <time>2011-05-28T12:25:12Z</time>
      </trkpt>
      <trkpt lat="42.71189" lon="1.55399">
        <ele>1590.6384277344</ele>
        <time>2011-05-28T12:25:19Z</time>
      </trkpt>
      <trkpt lat="42.71188" lon="1.55405">
        <ele>1589.1965332031</ele>
        <time>2011-05-28T12:25:26Z</time>
      </trkpt>
      <trkpt lat="42.71186" lon="1.55414">
        <ele>1588.2353515625</ele>
        <time>2011-05-28T12:25:33Z</time>
      </trkpt>
      <trkpt lat="42.71184" lon="1.55419">
        <ele>1587.7546386719</ele>
        <time>2011-05-28T12:25:36Z</time>
      </trkpt>
      <trkpt lat="42.71178" lon="1.55427">
        <ele>1587.7546386719</ele>
        <time>2011-05-28T12:25:42Z</time>
      </trkpt>
      <trkpt lat="42.71169" lon="1.55436">
        <ele>1587.2739257812</ele>
        <time>2011-05-28T12:25:50Z</time>
      </trkpt>
      <trkpt lat="42.71165" lon="1.55442">
        <ele>1586.3127441406</ele>
        <time>2011-05-28T12:25:55Z</time>
      </trkpt>
      <trkpt lat="42.71161" lon="1.55451">
        <ele>1586.3127441406</ele>
        <time>2011-05-28T12:26:02Z</time>
      </trkpt>
      <trkpt lat="42.71156" lon="1.55456">
        <ele>1585.3513183594</ele>
        <time>2011-05-28T12:26:07Z</time>
      </trkpt>
      <trkpt lat="42.71152" lon="1.55463">
        <ele>1585.3513183594</ele>
        <time>2011-05-28T12:26:16Z</time>
      </trkpt>
      <trkpt lat="42.7115" lon="1.55469">
        <ele>1586.7932128906</ele>
        <time>2011-05-28T12:26:23Z</time>
      </trkpt>
      <trkpt lat="42.71146" lon="1.55475">
        <ele>1586.7932128906</ele>
        <time>2011-05-28T12:26:30Z</time>
      </trkpt>
      <trkpt lat="42.71144" lon="1.55481">
        <ele>1586.7932128906</ele>
        <time>2011-05-28T12:26:36Z</time>
      </trkpt>
      <trkpt lat="42.71142" lon="1.55486">
        <ele>1588.2353515625</ele>
        <time>2011-05-28T12:26:42Z</time>
      </trkpt>
      <trkpt lat="42.71139" lon="1.5549">
        <ele>1587.7546386719</ele>
        <time>2011-05-28T12:26:47Z</time>
      </trkpt>
      <trkpt lat="42.71135" lon="1.55497">
        <ele>1587.7546386719</ele>
        <time>2011-05-28T12:26:53Z</time>
      </trkpt>
      <trkpt lat="42.71134" lon="1.55498">
        <ele>1587.7546386719</ele>
        <time>2011-05-28T12:26:54Z</time>
      </trkpt>
      <trkpt lat="42.71131" lon="1.55509">
        <ele>1587.2739257812</ele>
        <time>2011-05-28T12:27:03Z</time>
      </trkpt>
      <trkpt lat="42.71125" lon="1.55515">
        <ele>1584.8708496094</ele>
        <time>2011-05-28T12:27:09Z</time>
      </trkpt>
      <trkpt lat="42.7112" lon="1.55521">
        <ele>1583.4287109375</ele>
        <time>2011-05-28T12:27:15Z</time>
      </trkpt>
      <trkpt lat="42.71115" lon="1.55528">
        <ele>1581.0256347656</ele>
        <time>2011-05-28T12:27:23Z</time>
      </trkpt>
      <trkpt lat="42.7111" lon="1.55537">
        <ele>1578.6220703125</ele>
        <time>2011-05-28T12:27:30Z</time>
      </trkpt>
      <trkpt lat="42.71106" lon="1.55546">
        <ele>1577.1801757812</ele>
        <time>2011-05-28T12:27:36Z</time>
      </trkpt>
      <trkpt lat="42.71105" lon="1.5555">
        <ele>1575.7380371094</ele>
        <time>2011-05-28T12:27:39Z</time>
      </trkpt>
      <trkpt lat="42.71098" lon="1.55561">
        <ele>1573.3349609375</ele>
        <time>2011-05-28T12:27:48Z</time>
      </trkpt>
      <trkpt lat="42.71097" lon="1.55563">
        <ele>1572.8542480469</ele>
        <time>2011-05-28T12:27:49Z</time>
      </trkpt>
      <trkpt lat="42.71093" lon="1.55569">
        <ele>1571.8928222656</ele>
        <time>2011-05-28T12:27:55Z</time>
      </trkpt>
      <trkpt lat="42.71092" lon="1.55579">
        <ele>1574.2961425781</ele>
        <time>2011-05-28T12:28:02Z</time>
      </trkpt>
      <trkpt lat="42.71092" lon="1.55588">
        <ele>1577.6606445312</ele>
        <time>2011-05-28T12:28:10Z</time>
      </trkpt>
      <trkpt lat="42.7109" lon="1.55597">
        <ele>1580.0642089844</ele>
        <time>2011-05-28T12:28:17Z</time>
      </trkpt>
      <trkpt lat="42.71082" lon="1.55606">
        <ele>1579.5832519531</ele>
        <time>2011-05-28T12:28:26Z</time>
      </trkpt>
      <trkpt lat="42.71075" lon="1.55616">
        <ele>1579.1025390625</ele>
        <time>2011-05-28T12:28:35Z</time>
      </trkpt>
      <trkpt lat="42.71074" lon="1.55626">
        <ele>1579.1025390625</ele>
        <time>2011-05-28T12:28:42Z</time>
      </trkpt>
      <trkpt lat="42.7107" lon="1.55636">
        <ele>1579.5832519531</ele>
        <time>2011-05-28T12:28:49Z</time>
      </trkpt>
      <trkpt lat="42.71064" lon="1.55644">
        <ele>1579.5832519531</ele>
        <time>2011-05-28T12:28:56Z</time>
      </trkpt>
      <trkpt lat="42.71059" lon="1.55656">
        <ele>1580.0642089844</ele>
        <time>2011-05-28T12:29:05Z</time>
      </trkpt>
      <trkpt lat="42.71056" lon="1.5566">
        <ele>1580.0642089844</ele>
        <time>2011-05-28T12:29:08Z</time>
      </trkpt>
      <trkpt lat="42.71055" lon="1.55662">
        <ele>1580.0642089844</ele>
        <time>2011-05-28T12:29:10Z</time>
      </trkpt>
      <trkpt lat="42.71048" lon="1.55674">
        <ele>1580.0642089844</ele>
        <time>2011-05-28T12:29:19Z</time>
      </trkpt>
      <trkpt lat="42.71045" lon="1.55681">
        <ele>1580.0642089844</ele>
        <time>2011-05-28T12:29:24Z</time>
      </trkpt>
      <trkpt lat="42.71039" lon="1.55689">
        <ele>1580.544921875</ele>
        <time>2011-05-28T12:29:31Z</time>
      </trkpt>
      <trkpt lat="42.71036" lon="1.557">
        <ele>1580.0642089844</ele>
        <time>2011-05-28T12:29:39Z</time>
      </trkpt>
      <trkpt lat="42.71031" lon="1.55708">
        <ele>1580.0642089844</ele>
        <time>2011-05-28T12:29:45Z</time>
      </trkpt>
      <trkpt lat="42.71024" lon="1.5572">
        <ele>1581.9868164062</ele>
        <time>2011-05-28T12:29:53Z</time>
      </trkpt>
      <trkpt lat="42.71023" lon="1.55721">
        <ele>1582.4675292969</ele>
        <time>2011-05-28T12:29:54Z</time>
      </trkpt>
      <trkpt lat="42.71017" lon="1.55734">
        <ele>1583.4287109375</ele>
        <time>2011-05-28T12:30:03Z</time>
      </trkpt>
      <trkpt lat="42.71019" lon="1.55743">
        <ele>1586.3127441406</ele>
        <time>2011-05-28T12:30:10Z</time>
      </trkpt>
      <trkpt lat="42.71014" lon="1.55754">
        <ele>1585.3513183594</ele>
        <time>2011-05-28T12:30:19Z</time>
      </trkpt>
      <trkpt lat="42.71009" lon="1.5576">
        <ele>1584.3901367188</ele>
        <time>2011-05-28T12:30:26Z</time>
      </trkpt>
      <trkpt lat="42.71008" lon="1.55761">
        <ele>1583.9094238281</ele>
        <time>2011-05-28T12:30:27Z</time>
      </trkpt>
      <trkpt lat="42.70999" lon="1.55771">
        <ele>1581.0256347656</ele>
        <time>2011-05-28T12:30:35Z</time>
      </trkpt>
      <trkpt lat="42.70994" lon="1.55782">
        <ele>1578.6220703125</ele>
        <time>2011-05-28T12:30:41Z</time>
      </trkpt>
      <trkpt lat="42.70993" lon="1.55784">
        <ele>1577.1801757812</ele>
        <time>2011-05-28T12:30:42Z</time>
      </trkpt>
      <trkpt lat="42.70987" lon="1.55793">
        <ele>1572.3735351562</ele>
        <time>2011-05-28T12:30:47Z</time>
      </trkpt>
      <trkpt lat="42.70975" lon="1.55799">
        <ele>1568.5283203125</ele>
        <time>2011-05-28T12:30:52Z</time>
      </trkpt>
      <trkpt lat="42.70971" lon="1.55802">
        <ele>1566.125</ele>
        <time>2011-05-28T12:30:54Z</time>
      </trkpt>
      <trkpt lat="42.70965" lon="1.5581">
        <ele>1564.6831054688</ele>
        <time>2011-05-28T12:31:00Z</time>
      </trkpt>
      <trkpt lat="42.70958" lon="1.55815">
        <ele>1563.7214355469</ele>
        <time>2011-05-28T12:31:04Z</time>
      </trkpt>
      <trkpt lat="42.70953" lon="1.55816">
        <ele>1561.318359375</ele>
        <time>2011-05-28T12:31:09Z</time>
      </trkpt>
      <trkpt lat="42.70951" lon="1.55819">
        <ele>1561.7990722656</ele>
        <time>2011-05-28T12:31:16Z</time>
      </trkpt>
      <trkpt lat="42.70949" lon="1.5582">
        <ele>1560.8376464844</ele>
        <time>2011-05-28T12:31:18Z</time>
      </trkpt>
      <trkpt lat="42.70944" lon="1.55826">
        <ele>1559.3957519531</ele>
        <time>2011-05-28T12:31:22Z</time>
      </trkpt>
      <trkpt lat="42.70938" lon="1.55833">
        <ele>1556.9924316406</ele>
        <time>2011-05-28T12:31:27Z</time>
      </trkpt>
      <trkpt lat="42.70937" lon="1.55834">
        <ele>1556.9924316406</ele>
        <time>2011-05-28T12:31:28Z</time>
      </trkpt>
      <trkpt lat="42.70932" lon="1.5584">
        <ele>1555.0698242188</ele>
        <time>2011-05-28T12:31:33Z</time>
      </trkpt>
      <trkpt lat="42.70929" lon="1.55844">
        <ele>1552.6665039062</ele>
        <time>2011-05-28T12:31:37Z</time>
      </trkpt>
      <trkpt lat="42.70926" lon="1.55854">
        <ele>1549.7827148438</ele>
        <time>2011-05-28T12:31:42Z</time>
      </trkpt>
      <trkpt lat="42.70924" lon="1.55856">
        <ele>1548.3405761719</ele>
        <time>2011-05-28T12:31:49Z</time>
      </trkpt>
      <trkpt lat="42.70919" lon="1.55859">
        <ele>1544.9758300781</ele>
        <time>2011-05-28T12:32:10Z</time>
      </trkpt>
      <trkpt lat="42.70916" lon="1.55862">
        <ele>1543.5339355469</ele>
        <time>2011-05-28T12:32:17Z</time>
      </trkpt>
      <trkpt lat="42.70912" lon="1.5587">
        <ele>1544.0146484375</ele>
        <time>2011-05-28T12:32:23Z</time>
      </trkpt>
      <trkpt lat="42.70911" lon="1.55871">
        <ele>1544.0146484375</ele>
        <time>2011-05-28T12:32:24Z</time>
      </trkpt>
      <trkpt lat="42.70911" lon="1.55874">
        <ele>1543.0532226562</ele>
        <time>2011-05-28T12:32:26Z</time>
      </trkpt>
      <trkpt lat="42.70902" lon="1.55879">
        <ele>1542.0920410156</ele>
        <time>2011-05-28T12:32:30Z</time>
      </trkpt>
      <trkpt lat="42.709" lon="1.5588">
        <ele>1540.1694335938</ele>
        <time>2011-05-28T12:32:35Z</time>
      </trkpt>
      <trkpt lat="42.70901" lon="1.55881">
        <ele>1539.6887207031</ele>
        <time>2011-05-28T12:32:58Z</time>
      </trkpt>
      <trkpt lat="42.70897" lon="1.5589">
        <ele>1538.7275390625</ele>
        <time>2011-05-28T12:33:02Z</time>
      </trkpt>
      <trkpt lat="42.70886" lon="1.55896">
        <ele>1537.2854003906</ele>
        <time>2011-05-28T12:33:07Z</time>
      </trkpt>
      <trkpt lat="42.70882" lon="1.559">
        <ele>1538.2468261719</ele>
        <time>2011-05-28T12:33:09Z</time>
      </trkpt>
      <trkpt lat="42.7088" lon="1.55911">
        <ele>1540.1694335938</ele>
        <time>2011-05-28T12:33:13Z</time>
      </trkpt>
      <trkpt lat="42.70875" lon="1.55917">
        <ele>1542.5727539062</ele>
        <time>2011-05-28T12:33:17Z</time>
      </trkpt>
      <trkpt lat="42.70874" lon="1.55925">
        <ele>1542.5727539062</ele>
        <time>2011-05-28T12:33:21Z</time>
      </trkpt>
      <trkpt lat="42.70874" lon="1.5593">
        <ele>1540.6499023438</ele>
        <time>2011-05-28T12:33:25Z</time>
      </trkpt>
      <trkpt lat="42.70874" lon="1.55937">
        <ele>1537.7661132812</ele>
        <time>2011-05-28T12:33:31Z</time>
      </trkpt>
      <trkpt lat="42.70872" lon="1.55942">
        <ele>1536.32421875</ele>
        <time>2011-05-28T12:33:35Z</time>
      </trkpt>
      <trkpt lat="42.7087" lon="1.55948">
        <ele>1533.9208984375</ele>
        <time>2011-05-28T12:33:41Z</time>
      </trkpt>
      <trkpt lat="42.70867" lon="1.55952">
        <ele>1535.3627929688</ele>
        <time>2011-05-28T12:33:50Z</time>
      </trkpt>
      <trkpt lat="42.70859" lon="1.55964">
        <ele>1534.4016113281</ele>
        <time>2011-05-28T12:33:57Z</time>
      </trkpt>
      <trkpt lat="42.7085" lon="1.5597">
        <ele>1532.9594726562</ele>
        <time>2011-05-28T12:34:01Z</time>
      </trkpt>
      <trkpt lat="42.70844" lon="1.55982">
        <ele>1528.6335449219</ele>
        <time>2011-05-28T12:34:10Z</time>
      </trkpt>
      <trkpt lat="42.70843" lon="1.55984">
        <ele>1528.1528320312</ele>
        <time>2011-05-28T12:34:11Z</time>
      </trkpt>
      <trkpt lat="42.70839" lon="1.55988">
        <ele>1525.7495117188</ele>
        <time>2011-05-28T12:34:15Z</time>
      </trkpt>
      <trkpt lat="42.70832" lon="1.56001">
        <ele>1521.904296875</ele>
        <time>2011-05-28T12:34:21Z</time>
      </trkpt>
      <trkpt lat="42.70826" lon="1.56009">
        <ele>1519.9816894531</ele>
        <time>2011-05-28T12:34:25Z</time>
      </trkpt>
      <trkpt lat="42.70826" lon="1.56011">
        <ele>1519.0205078125</ele>
        <time>2011-05-28T12:34:26Z</time>
      </trkpt>
      <trkpt lat="42.70823" lon="1.56017">
        <ele>1516.6171875</ele>
        <time>2011-05-28T12:34:31Z</time>
      </trkpt>
      <trkpt lat="42.70824" lon="1.56018">
        <ele>1516.6171875</ele>
        <time>2011-05-28T12:34:32Z</time>
      </trkpt>
      <trkpt lat="42.70832" lon="1.56016">
        <ele>1515.6557617188</ele>
        <time>2011-05-28T12:34:38Z</time>
      </trkpt>
      <trkpt lat="42.7084" lon="1.56014">
        <ele>1514.2136230469</ele>
        <time>2011-05-28T12:34:44Z</time>
      </trkpt>
      <trkpt lat="42.70843" lon="1.56013">
        <ele>1513.7329101562</ele>
        <time>2011-05-28T12:34:47Z</time>
      </trkpt>
      <trkpt lat="42.70844" lon="1.56015">
        <ele>1513.2524414062</ele>
        <time>2011-05-28T12:34:49Z</time>
      </trkpt>
      <trkpt lat="42.70843" lon="1.56019">
        <ele>1512.291015625</ele>
        <time>2011-05-28T12:34:52Z</time>
      </trkpt>
      <trkpt lat="42.70841" lon="1.56032">
        <ele>1509.4072265625</ele>
        <time>2011-05-28T12:34:59Z</time>
      </trkpt>
      <trkpt lat="42.70843" lon="1.56038">
        <ele>1507.9653320312</ele>
        <time>2011-05-28T12:35:03Z</time>
      </trkpt>
      <trkpt lat="42.70848" lon="1.56046">
        <ele>1506.0424804688</ele>
        <time>2011-05-28T12:35:10Z</time>
      </trkpt>
      <trkpt lat="42.70855" lon="1.56051">
        <ele>1503.6394042969</ele>
        <time>2011-05-28T12:35:17Z</time>
      </trkpt>
      <trkpt lat="42.70861" lon="1.56057">
        <ele>1502.197265625</ele>
        <time>2011-05-28T12:35:21Z</time>
      </trkpt>
      <trkpt lat="42.70865" lon="1.56061">
        <ele>1501.716796875</ele>
        <time>2011-05-28T12:35:24Z</time>
      </trkpt>
      <trkpt lat="42.70872" lon="1.56076">
        <ele>1498.8325195312</ele>
        <time>2011-05-28T12:35:31Z</time>
      </trkpt>
      <trkpt lat="42.70873" lon="1.56078">
        <ele>1498.8325195312</ele>
        <time>2011-05-28T12:35:33Z</time>
      </trkpt>
      <trkpt lat="42.70875" lon="1.56084">
        <ele>1498.8325195312</ele>
        <time>2011-05-28T12:35:37Z</time>
      </trkpt>
      <trkpt lat="42.70881" lon="1.56089">
        <ele>1498.3518066406</ele>
        <time>2011-05-28T12:35:44Z</time>
      </trkpt>
      <trkpt lat="42.70882" lon="1.5609">
        <ele>1498.3518066406</ele>
        <time>2011-05-28T12:35:50Z</time>
      </trkpt>
      <trkpt lat="42.70885" lon="1.56093">
        <ele>1497.8713378906</ele>
        <time>2011-05-28T12:35:55Z</time>
      </trkpt>
      <trkpt lat="42.70888" lon="1.56095">
        <ele>1497.8713378906</ele>
        <time>2011-05-28T12:36:00Z</time>
      </trkpt>
      <trkpt lat="42.70892" lon="1.56096">
        <ele>1498.8325195312</ele>
        <time>2011-05-28T12:36:06Z</time>
      </trkpt>
      <trkpt lat="42.70895" lon="1.56098">
        <ele>1498.3518066406</ele>
        <time>2011-05-28T12:36:10Z</time>
      </trkpt>
      <trkpt lat="42.70899" lon="1.56097">
        <ele>1497.8713378906</ele>
        <time>2011-05-28T12:36:16Z</time>
      </trkpt>
      <trkpt lat="42.70905" lon="1.56087">
        <ele>1497.390625</ele>
        <time>2011-05-28T12:36:23Z</time>
      </trkpt>
      <trkpt lat="42.70906" lon="1.56086">
        <ele>1497.390625</ele>
        <time>2011-05-28T12:36:24Z</time>
      </trkpt>
      <trkpt lat="42.7091" lon="1.56075">
        <ele>1498.3518066406</ele>
        <time>2011-05-28T12:36:31Z</time>
      </trkpt>
      <trkpt lat="42.70918" lon="1.56072">
        <ele>1498.3518066406</ele>
        <time>2011-05-28T12:36:38Z</time>
      </trkpt>
      <trkpt lat="42.70926" lon="1.56061">
        <ele>1498.8325195312</ele>
        <time>2011-05-28T12:36:47Z</time>
      </trkpt>
      <trkpt lat="42.70929" lon="1.56053">
        <ele>1499.3132324219</ele>
        <time>2011-05-28T12:36:55Z</time>
      </trkpt>
      <trkpt lat="42.70931" lon="1.56047">
        <ele>1499.7939453125</ele>
        <time>2011-05-28T12:37:05Z</time>
      </trkpt>
      <trkpt lat="42.70932" lon="1.56044">
        <ele>1500.2749023438</ele>
        <time>2011-05-28T12:37:10Z</time>
      </trkpt>
      <trkpt lat="42.70936" lon="1.56034">
        <ele>1499.7939453125</ele>
        <time>2011-05-28T12:37:17Z</time>
      </trkpt>
      <trkpt lat="42.70942" lon="1.56023">
        <ele>1499.3132324219</ele>
        <time>2011-05-28T12:37:24Z</time>
      </trkpt>
      <trkpt lat="42.70951" lon="1.5601">
        <ele>1495.9487304688</ele>
        <time>2011-05-28T12:37:30Z</time>
      </trkpt>
      <trkpt lat="42.70955" lon="1.56002">
        <ele>1495.4680175781</ele>
        <time>2011-05-28T12:37:33Z</time>
      </trkpt>
      <trkpt lat="42.70962" lon="1.55994">
        <ele>1494.5065917969</ele>
        <time>2011-05-28T12:37:38Z</time>
      </trkpt>
      <trkpt lat="42.70969" lon="1.55983">
        <ele>1494.0261230469</ele>
        <time>2011-05-28T12:37:43Z</time>
      </trkpt>
      <trkpt lat="42.70974" lon="1.55981">
        <ele>1493.5454101562</ele>
        <time>2011-05-28T12:37:45Z</time>
      </trkpt>
      <trkpt lat="42.70982" lon="1.55968">
        <ele>1493.0646972656</ele>
        <time>2011-05-28T12:37:51Z</time>
      </trkpt>
      <trkpt lat="42.70988" lon="1.55957">
        <ele>1491.6228027344</ele>
        <time>2011-05-28T12:37:55Z</time>
      </trkpt>
      <trkpt lat="42.70994" lon="1.55954">
        <ele>1490.6613769531</ele>
        <time>2011-05-28T12:38:00Z</time>
      </trkpt>
      <trkpt lat="42.70997" lon="1.55954">
        <ele>1489.2194824219</ele>
        <time>2011-05-28T12:38:07Z</time>
      </trkpt>
      <trkpt lat="42.71001" lon="1.5595">
        <ele>1488.2583007812</ele>
        <time>2011-05-28T12:38:17Z</time>
      </trkpt>
      <trkpt lat="42.71008" lon="1.55946">
        <ele>1488.7390136719</ele>
        <time>2011-05-28T12:38:22Z</time>
      </trkpt>
      <trkpt lat="42.7101" lon="1.55943">
        <ele>1488.2583007812</ele>
        <time>2011-05-28T12:38:25Z</time>
      </trkpt>
      <trkpt lat="42.71012" lon="1.55938">
        <ele>1488.2583007812</ele>
        <time>2011-05-28T12:38:29Z</time>
      </trkpt>
      <trkpt lat="42.71016" lon="1.55933">
        <ele>1488.7390136719</ele>
        <time>2011-05-28T12:38:33Z</time>
      </trkpt>
      <trkpt lat="42.71016" lon="1.55924">
        <ele>1487.296875</ele>
        <time>2011-05-28T12:38:38Z</time>
      </trkpt>
      <trkpt lat="42.71017" lon="1.5592">
        <ele>1486.3356933594</ele>
        <time>2011-05-28T12:38:40Z</time>
      </trkpt>
      <trkpt lat="42.71019" lon="1.55916">
        <ele>1485.8549804688</ele>
        <time>2011-05-28T12:38:42Z</time>
      </trkpt>
      <trkpt lat="42.71025" lon="1.55911">
        <ele>1484.4130859375</ele>
        <time>2011-05-28T12:38:48Z</time>
      </trkpt>
      <trkpt lat="42.71029" lon="1.55908">
        <ele>1483.4514160156</ele>
        <time>2011-05-28T12:38:51Z</time>
      </trkpt>
      <trkpt lat="42.71038" lon="1.55907">
        <ele>1482.0095214844</ele>
        <time>2011-05-28T12:38:55Z</time>
      </trkpt>
      <trkpt lat="42.71042" lon="1.55909">
        <ele>1482.490234375</ele>
        <time>2011-05-28T12:38:58Z</time>
      </trkpt>
      <trkpt lat="42.7105" lon="1.55907">
        <ele>1481.0483398438</ele>
        <time>2011-05-28T12:39:03Z</time>
      </trkpt>
      <trkpt lat="42.71057" lon="1.55907">
        <ele>1481.5288085938</ele>
        <time>2011-05-28T12:39:06Z</time>
      </trkpt>
      <trkpt lat="42.71065" lon="1.55903">
        <ele>1481.0483398438</ele>
        <time>2011-05-28T12:39:10Z</time>
      </trkpt>
      <trkpt lat="42.71072" lon="1.55891">
        <ele>1479.1254882812</ele>
        <time>2011-05-28T12:39:15Z</time>
      </trkpt>
      <trkpt lat="42.71077" lon="1.55887">
        <ele>1477.68359375</ele>
        <time>2011-05-28T12:39:18Z</time>
      </trkpt>
      <trkpt lat="42.71083" lon="1.55884">
        <ele>1476.7224121094</ele>
        <time>2011-05-28T12:39:23Z</time>
      </trkpt>
      <trkpt lat="42.71087" lon="1.55878">
        <ele>1476.2416992188</ele>
        <time>2011-05-28T12:39:27Z</time>
      </trkpt>
      <trkpt lat="42.71091" lon="1.55877">
        <ele>1475.2802734375</ele>
        <time>2011-05-28T12:39:30Z</time>
      </trkpt>
      <trkpt lat="42.71098" lon="1.55872">
        <ele>1475.2802734375</ele>
        <time>2011-05-28T12:39:34Z</time>
      </trkpt>
      <trkpt lat="42.71104" lon="1.55869">
        <ele>1474.7998046875</ele>
        <time>2011-05-28T12:39:37Z</time>
      </trkpt>
      <trkpt lat="42.71108" lon="1.55868">
        <ele>1474.3190917969</ele>
        <time>2011-05-28T12:39:39Z</time>
      </trkpt>
      <trkpt lat="42.71117" lon="1.55858">
        <ele>1471.4350585938</ele>
        <time>2011-05-28T12:39:45Z</time>
      </trkpt>
      <trkpt lat="42.71124" lon="1.55851">
        <ele>1470.4738769531</ele>
        <time>2011-05-28T12:39:49Z</time>
      </trkpt>
      <trkpt lat="42.71135" lon="1.55845">
        <ele>1469.5126953125</ele>
        <time>2011-05-28T12:39:53Z</time>
      </trkpt>
      <trkpt lat="42.71139" lon="1.55836">
        <ele>1468.0705566406</ele>
        <time>2011-05-28T12:39:56Z</time>
      </trkpt>
      <trkpt lat="42.71146" lon="1.55826">
        <ele>1465.6672363281</ele>
        <time>2011-05-28T12:40:01Z</time>
      </trkpt>
      <trkpt lat="42.71156" lon="1.55816">
        <ele>1461.8220214844</ele>
        <time>2011-05-28T12:40:06Z</time>
      </trkpt>
      <trkpt lat="42.7116" lon="1.55814">
        <ele>1459.4187011719</ele>
        <time>2011-05-28T12:40:08Z</time>
      </trkpt>
      <trkpt lat="42.71169" lon="1.55807">
        <ele>1455.0927734375</ele>
        <time>2011-05-28T12:40:13Z</time>
      </trkpt>
      <trkpt lat="42.71172" lon="1.55807">
        <ele>1454.6120605469</ele>
        <time>2011-05-28T12:40:15Z</time>
      </trkpt>
      <trkpt lat="42.71177" lon="1.55807">
        <ele>1455.5734863281</ele>
        <time>2011-05-28T12:40:19Z</time>
      </trkpt>
      <trkpt lat="42.71178" lon="1.55807">
        <ele>1455.0927734375</ele>
        <time>2011-05-28T12:40:21Z</time>
      </trkpt>
      <trkpt lat="42.71181" lon="1.55797">
        <ele>1453.6508789062</ele>
        <time>2011-05-28T12:40:26Z</time>
      </trkpt>
      <trkpt lat="42.71191" lon="1.55794">
        <ele>1456.0539550781</ele>
        <time>2011-05-28T12:40:31Z</time>
      </trkpt>
      <trkpt lat="42.71194" lon="1.55791">
        <ele>1456.5346679688</ele>
        <time>2011-05-28T12:40:33Z</time>
      </trkpt>
      <trkpt lat="42.71201" lon="1.55785">
        <ele>1458.9379882812</ele>
        <time>2011-05-28T12:40:37Z</time>
      </trkpt>
      <trkpt lat="42.71207" lon="1.55781">
        <ele>1462.3024902344</ele>
        <time>2011-05-28T12:40:40Z</time>
      </trkpt>
      <trkpt lat="42.7121" lon="1.55778">
        <ele>1462.3024902344</ele>
        <time>2011-05-28T12:40:43Z</time>
      </trkpt>
      <trkpt lat="42.71214" lon="1.55773">
        <ele>1464.2250976562</ele>
        <time>2011-05-28T12:40:48Z</time>
      </trkpt>
      <trkpt lat="42.71215" lon="1.55774">
        <ele>1463.7443847656</ele>
        <time>2011-05-28T12:40:49Z</time>
      </trkpt>
      <trkpt lat="42.71219" lon="1.55776">
        <ele>1464.2250976562</ele>
        <time>2011-05-28T12:40:53Z</time>
      </trkpt>
      <trkpt lat="42.71225" lon="1.5577">
        <ele>1464.2250976562</ele>
        <time>2011-05-28T12:41:00Z</time>
      </trkpt>
      <trkpt lat="42.7123" lon="1.55765">
        <ele>1463.7443847656</ele>
        <time>2011-05-28T12:41:04Z</time>
      </trkpt>
      <trkpt lat="42.71233" lon="1.5576">
        <ele>1467.1091308594</ele>
        <time>2011-05-28T12:41:08Z</time>
      </trkpt>
      <trkpt lat="42.71242" lon="1.55758">
        <ele>1463.2639160156</ele>
        <time>2011-05-28T12:41:14Z</time>
      </trkpt>
      <trkpt lat="42.71252" lon="1.55753">
        <ele>1461.3413085938</ele>
        <time>2011-05-28T12:41:20Z</time>
      </trkpt>
      <trkpt lat="42.7126" lon="1.55748">
        <ele>1458.9379882812</ele>
        <time>2011-05-28T12:41:25Z</time>
      </trkpt>
      <trkpt lat="42.71267" lon="1.55742">
        <ele>1458.9379882812</ele>
        <time>2011-05-28T12:41:30Z</time>
      </trkpt>
      <trkpt lat="42.71273" lon="1.55736">
        <ele>1456.5346679688</ele>
        <time>2011-05-28T12:41:35Z</time>
      </trkpt>
      <trkpt lat="42.71277" lon="1.55733">
        <ele>1455.0927734375</ele>
        <time>2011-05-28T12:41:39Z</time>
      </trkpt>
      <trkpt lat="42.71278" lon="1.55731">
        <ele>1454.6120605469</ele>
        <time>2011-05-28T12:41:40Z</time>
      </trkpt>
      <trkpt lat="42.7129" lon="1.55722">
        <ele>1452.2087402344</ele>
        <time>2011-05-28T12:41:47Z</time>
      </trkpt>
      <trkpt lat="42.71299" lon="1.55718">
        <ele>1447.8828125</ele>
        <time>2011-05-28T12:41:51Z</time>
      </trkpt>
      <trkpt lat="42.71304" lon="1.55714">
        <ele>1445.9602050781</ele>
        <time>2011-05-28T12:41:55Z</time>
      </trkpt>
      <trkpt lat="42.7131" lon="1.55715">
        <ele>1443.5568847656</ele>
        <time>2011-05-28T12:42:00Z</time>
      </trkpt>
      <trkpt lat="42.71311" lon="1.55715">
        <ele>1443.076171875</ele>
        <time>2011-05-28T12:42:02Z</time>
      </trkpt>
      <trkpt lat="42.7132" lon="1.55714">
        <ele>1443.076171875</ele>
        <time>2011-05-28T12:42:07Z</time>
      </trkpt>
      <trkpt lat="42.71323" lon="1.55712">
        <ele>1443.076171875</ele>
        <time>2011-05-28T12:42:09Z</time>
      </trkpt>
      <trkpt lat="42.71329" lon="1.5571">
        <ele>1443.5568847656</ele>
        <time>2011-05-28T12:42:14Z</time>
      </trkpt>
      <trkpt lat="42.71338" lon="1.55706">
        <ele>1444.0375976562</ele>
        <time>2011-05-28T12:42:20Z</time>
      </trkpt>
      <trkpt lat="42.71339" lon="1.55705">
        <ele>1444.9987792969</ele>
        <time>2011-05-28T12:42:21Z</time>
      </trkpt>
      <trkpt lat="42.71354" lon="1.55703">
        <ele>1449.3247070312</ele>
        <time>2011-05-28T12:42:27Z</time>
      </trkpt>
      <trkpt lat="42.71362" lon="1.55703">
        <ele>1447.8828125</ele>
        <time>2011-05-28T12:42:31Z</time>
      </trkpt>
      <trkpt lat="42.71367" lon="1.557">
        <ele>1445.9602050781</ele>
        <time>2011-05-28T12:42:35Z</time>
      </trkpt>
      <trkpt lat="42.7137" lon="1.55699">
        <ele>1446.4409179688</ele>
        <time>2011-05-28T12:42:36Z</time>
      </trkpt>
      <trkpt lat="42.71377" lon="1.55691">
        <ele>1445.9602050781</ele>
        <time>2011-05-28T12:42:41Z</time>
      </trkpt>
      <trkpt lat="42.71385" lon="1.55688">
        <ele>1444.5180664062</ele>
        <time>2011-05-28T12:42:46Z</time>
      </trkpt>
      <trkpt lat="42.71387" lon="1.55686">
        <ele>1443.5568847656</ele>
        <time>2011-05-28T12:42:50Z</time>
      </trkpt>
      <trkpt lat="42.71391" lon="1.55684">
        <ele>1442.595703125</ele>
        <time>2011-05-28T12:42:55Z</time>
      </trkpt>
      <trkpt lat="42.71395" lon="1.55685">
        <ele>1441.6342773438</ele>
        <time>2011-05-28T12:42:59Z</time>
      </trkpt>
      <trkpt lat="42.71402" lon="1.55686">
        <ele>1439.7116699219</ele>
        <time>2011-05-28T12:43:06Z</time>
      </trkpt>
      <trkpt lat="42.71404" lon="1.55689">
        <ele>1438.2697753906</ele>
        <time>2011-05-28T12:43:10Z</time>
      </trkpt>
      <trkpt lat="42.71408" lon="1.55688">
        <ele>1436.8276367188</ele>
        <time>2011-05-28T12:43:14Z</time>
      </trkpt>
      <trkpt lat="42.7141" lon="1.55687">
        <ele>1435.8662109375</ele>
        <time>2011-05-28T12:43:16Z</time>
      </trkpt>
      <trkpt lat="42.71419" lon="1.55678">
        <ele>1433.9436035156</ele>
        <time>2011-05-28T12:43:21Z</time>
      </trkpt>
      <trkpt lat="42.71421" lon="1.55677">
        <ele>1434.4243164062</ele>
        <time>2011-05-28T12:43:23Z</time>
      </trkpt>
      <trkpt lat="42.71428" lon="1.5567">
        <ele>1428.6564941406</ele>
        <time>2011-05-28T12:43:29Z</time>
      </trkpt>
      <trkpt lat="42.71429" lon="1.55668">
        <ele>1428.17578125</ele>
        <time>2011-05-28T12:43:30Z</time>
      </trkpt>
      <trkpt lat="42.71436" lon="1.55657">
        <ele>1426.7338867188</ele>
        <time>2011-05-28T12:43:36Z</time>
      </trkpt>
      <trkpt lat="42.71438" lon="1.5565">
        <ele>1425.2917480469</ele>
        <time>2011-05-28T12:43:40Z</time>
      </trkpt>
      <trkpt lat="42.71441" lon="1.55642">
        <ele>1422.4079589844</ele>
        <time>2011-05-28T12:43:45Z</time>
      </trkpt>
      <trkpt lat="42.71445" lon="1.55636">
        <ele>1421.9272460938</ele>
        <time>2011-05-28T12:43:48Z</time>
      </trkpt>
      <trkpt lat="42.71452" lon="1.55625">
        <ele>1419.0432128906</ele>
        <time>2011-05-28T12:43:54Z</time>
      </trkpt>
      <trkpt lat="42.71453" lon="1.55623">
        <ele>1419.0432128906</ele>
        <time>2011-05-28T12:43:55Z</time>
      </trkpt>
      <trkpt lat="42.71459" lon="1.5562">
        <ele>1414.7172851562</ele>
        <time>2011-05-28T12:44:02Z</time>
      </trkpt>
      <trkpt lat="42.71463" lon="1.55611">
        <ele>1413.275390625</ele>
        <time>2011-05-28T12:44:08Z</time>
      </trkpt>
      <trkpt lat="42.71465" lon="1.55609">
        <ele>1413.755859375</ele>
        <time>2011-05-28T12:44:09Z</time>
      </trkpt>
      <trkpt lat="42.71467" lon="1.55602">
        <ele>1412.7946777344</ele>
        <time>2011-05-28T12:44:13Z</time>
      </trkpt>
      <trkpt lat="42.71476" lon="1.55592">
        <ele>1408.9494628906</ele>
        <time>2011-05-28T12:44:19Z</time>
      </trkpt>
      <trkpt lat="42.71478" lon="1.5559">
        <ele>1409.4301757812</ele>
        <time>2011-05-28T12:44:21Z</time>
      </trkpt>
      <trkpt lat="42.71488" lon="1.55596">
        <ele>1405.5849609375</ele>
        <time>2011-05-28T12:44:26Z</time>
      </trkpt>
      <trkpt lat="42.71489" lon="1.55597">
        <ele>1405.1042480469</ele>
        <time>2011-05-28T12:44:27Z</time>
      </trkpt>
      <trkpt lat="42.71494" lon="1.55602">
        <ele>1402.2199707031</ele>
        <time>2011-05-28T12:44:33Z</time>
      </trkpt>
      <trkpt lat="42.71497" lon="1.55603">
        <ele>1400.2976074219</ele>
        <time>2011-05-28T12:44:36Z</time>
      </trkpt>
      <trkpt lat="42.71503" lon="1.55601">
        <ele>1405.1042480469</ele>
        <time>2011-05-28T12:44:44Z</time>
      </trkpt>
      <trkpt lat="42.71507" lon="1.55601">
        <ele>1406.0654296875</ele>
        <time>2011-05-28T12:44:49Z</time>
      </trkpt>
      <trkpt lat="42.7151" lon="1.55602">
        <ele>1408.46875</ele>
        <time>2011-05-28T12:44:53Z</time>
      </trkpt>
      <trkpt lat="42.71516" lon="1.55604">
        <ele>1407.98828125</ele>
        <time>2011-05-28T12:44:58Z</time>
      </trkpt>
      <trkpt lat="42.71516" lon="1.55605">
        <ele>1408.46875</ele>
        <time>2011-05-28T12:44:59Z</time>
      </trkpt>
      <trkpt lat="42.71523" lon="1.55606">
        <ele>1408.9494628906</ele>
        <time>2011-05-28T12:45:06Z</time>
      </trkpt>
      <trkpt lat="42.71533" lon="1.5561">
        <ele>1405.1042480469</ele>
        <time>2011-05-28T12:45:13Z</time>
      </trkpt>
      <trkpt lat="42.71535" lon="1.55609">
        <ele>1403.662109375</ele>
        <time>2011-05-28T12:45:16Z</time>
      </trkpt>
      <trkpt lat="42.7154" lon="1.55602">
        <ele>1405.5849609375</ele>
        <time>2011-05-28T12:45:23Z</time>
      </trkpt>
      <trkpt lat="42.71546" lon="1.55602">
        <ele>1410.8720703125</ele>
        <time>2011-05-28T12:45:32Z</time>
      </trkpt>
      <trkpt lat="42.71559" lon="1.55609">
        <ele>1411.3527832031</ele>
        <time>2011-05-28T12:45:39Z</time>
      </trkpt>
      <trkpt lat="42.71574" lon="1.55609">
        <ele>1419.5239257812</ele>
        <time>2011-05-28T12:45:44Z</time>
      </trkpt>
      <trkpt lat="42.71586" lon="1.55607">
        <ele>1422.4079589844</ele>
        <time>2011-05-28T12:45:50Z</time>
      </trkpt>
      <trkpt lat="42.716" lon="1.55604">
        <ele>1426.2531738281</ele>
        <time>2011-05-28T12:45:56Z</time>
      </trkpt>
      <trkpt lat="42.71603" lon="1.55596">
        <ele>1424.8112792969</ele>
        <time>2011-05-28T12:46:01Z</time>
      </trkpt>
      <trkpt lat="42.71592" lon="1.55585">
        <ele>1412.3139648438</ele>
        <time>2011-05-28T12:46:06Z</time>
      </trkpt>
      <trkpt lat="42.71588" lon="1.55578">
        <ele>1403.662109375</ele>
        <time>2011-05-28T12:46:10Z</time>
      </trkpt>
      <trkpt lat="42.7159" lon="1.55571">
        <ele>1396.4523925781</ele>
        <time>2011-05-28T12:46:15Z</time>
      </trkpt>
      <trkpt lat="42.71598" lon="1.55564">
        <ele>1391.6457519531</ele>
        <time>2011-05-28T12:46:21Z</time>
      </trkpt>
      <trkpt lat="42.71605" lon="1.55559">
        <ele>1389.7231445312</ele>
        <time>2011-05-28T12:46:25Z</time>
      </trkpt>
      <trkpt lat="42.7161" lon="1.55556">
        <ele>1387.8002929688</ele>
        <time>2011-05-28T12:46:30Z</time>
      </trkpt>
      <trkpt lat="42.71611" lon="1.55555">
        <ele>1386.8388671875</ele>
        <time>2011-05-28T12:46:32Z</time>
      </trkpt>
      <trkpt lat="42.71613" lon="1.55554">
        <ele>1385.8776855469</ele>
        <time>2011-05-28T12:46:34Z</time>
      </trkpt>
      <trkpt lat="42.71616" lon="1.5555">
        <ele>1382.0324707031</ele>
        <time>2011-05-28T12:46:40Z</time>
      </trkpt>
      <trkpt lat="42.71619" lon="1.55543">
        <ele>1379.1484375</ele>
        <time>2011-05-28T12:46:47Z</time>
      </trkpt>
      <trkpt lat="42.7162" lon="1.55537">
        <ele>1376.7453613281</ele>
        <time>2011-05-28T12:46:53Z</time>
      </trkpt>
      <trkpt lat="42.71622" lon="1.55527">
        <ele>1372.4194335938</ele>
        <time>2011-05-28T12:47:00Z</time>
      </trkpt>
      <trkpt lat="42.71622" lon="1.55524">
        <ele>1370.9772949219</ele>
        <time>2011-05-28T12:47:03Z</time>
      </trkpt>
      <trkpt lat="42.71624" lon="1.55518">
        <ele>1369.5354003906</ele>
        <time>2011-05-28T12:47:08Z</time>
      </trkpt>
      <trkpt lat="42.71626" lon="1.55511">
        <ele>1367.6125488281</ele>
        <time>2011-05-28T12:47:14Z</time>
      </trkpt>
      <trkpt lat="42.71628" lon="1.55507">
        <ele>1365.6901855469</ele>
        <time>2011-05-28T12:47:19Z</time>
      </trkpt>
      <trkpt lat="42.7163" lon="1.55512">
        <ele>1363.2868652344</ele>
        <time>2011-05-28T12:47:25Z</time>
      </trkpt>
      <trkpt lat="42.71632" lon="1.55521">
        <ele>1359.4416503906</ele>
        <time>2011-05-28T12:47:32Z</time>
      </trkpt>
      <trkpt lat="42.71634" lon="1.55527">
        <ele>1357.0383300781</ele>
        <time>2011-05-28T12:47:37Z</time>
      </trkpt>
      <trkpt lat="42.71636" lon="1.55534">
        <ele>1356.0769042969</ele>
        <time>2011-05-28T12:47:41Z</time>
      </trkpt>
      <trkpt lat="42.7164" lon="1.55539">
        <ele>1355.1154785156</ele>
        <time>2011-05-28T12:47:47Z</time>
      </trkpt>
      <trkpt lat="42.71638" lon="1.55527">
        <ele>1353.1928710938</ele>
        <time>2011-05-28T12:47:52Z</time>
      </trkpt>
      <trkpt lat="42.71634" lon="1.55513">
        <ele>1350.7895507812</ele>
        <time>2011-05-28T12:47:55Z</time>
      </trkpt>
      <trkpt lat="42.71632" lon="1.55499">
        <ele>1348.3862304688</ele>
        <time>2011-05-28T12:48:01Z</time>
      </trkpt>
      <trkpt lat="42.71633" lon="1.55485">
        <ele>1345.5024414062</ele>
        <time>2011-05-28T12:48:06Z</time>
      </trkpt>
      <trkpt lat="42.71633" lon="1.55474">
        <ele>1345.5024414062</ele>
        <time>2011-05-28T12:48:10Z</time>
      </trkpt>
      <trkpt lat="42.71634" lon="1.5547">
        <ele>1344.541015625</ele>
        <time>2011-05-28T12:48:12Z</time>
      </trkpt>
      <trkpt lat="42.71637" lon="1.55464">
        <ele>1342.6186523438</ele>
        <time>2011-05-28T12:48:19Z</time>
      </trkpt>
      <trkpt lat="42.71638" lon="1.55461">
        <ele>1342.1379394531</ele>
        <time>2011-05-28T12:48:25Z</time>
      </trkpt>
      <trkpt lat="42.71641" lon="1.55463">
        <ele>1341.1765136719</ele>
        <time>2011-05-28T12:48:30Z</time>
      </trkpt>
      <trkpt lat="42.71643" lon="1.55467">
        <ele>1340.2153320312</ele>
        <time>2011-05-28T12:48:34Z</time>
      </trkpt>
      <trkpt lat="42.71642" lon="1.55472">
        <ele>1339.2536621094</ele>
        <time>2011-05-28T12:48:38Z</time>
      </trkpt>
      <trkpt lat="42.71641" lon="1.55477">
        <ele>1338.7731933594</ele>
        <time>2011-05-28T12:48:41Z</time>
      </trkpt>
      <trkpt lat="42.7164" lon="1.5548">
        <ele>1338.2924804688</ele>
        <time>2011-05-28T12:48:43Z</time>
      </trkpt>
      <trkpt lat="42.71643" lon="1.55493">
        <ele>1334.9279785156</ele>
        <time>2011-05-28T12:48:50Z</time>
      </trkpt>
      <trkpt lat="42.71647" lon="1.55505">
        <ele>1334.447265625</ele>
        <time>2011-05-28T12:48:56Z</time>
      </trkpt>
      <trkpt lat="42.7165" lon="1.55516">
        <ele>1333.0051269531</ele>
        <time>2011-05-28T12:49:03Z</time>
      </trkpt>
      <trkpt lat="42.71651" lon="1.55521">
        <ele>1332.0439453125</ele>
        <time>2011-05-28T12:49:08Z</time>
      </trkpt>
      <trkpt lat="42.71653" lon="1.55525">
        <ele>1331.0827636719</ele>
        <time>2011-05-28T12:49:14Z</time>
      </trkpt>
      <trkpt lat="42.71654" lon="1.55517">
        <ele>1330.1213378906</ele>
        <time>2011-05-28T12:49:21Z</time>
      </trkpt>
      <trkpt lat="42.71653" lon="1.5551">
        <ele>1329.640625</ele>
        <time>2011-05-28T12:49:26Z</time>
      </trkpt>
      <trkpt lat="42.71652" lon="1.55501">
        <ele>1328.1987304688</ele>
        <time>2011-05-28T12:49:32Z</time>
      </trkpt>
      <trkpt lat="42.71653" lon="1.55492">
        <ele>1328.1987304688</ele>
        <time>2011-05-28T12:49:38Z</time>
      </trkpt>
      <trkpt lat="42.71653" lon="1.55485">
        <ele>1329.1599121094</ele>
        <time>2011-05-28T12:49:42Z</time>
      </trkpt>
      <trkpt lat="42.71651" lon="1.55478">
        <ele>1328.1987304688</ele>
        <time>2011-05-28T12:49:46Z</time>
      </trkpt>
      <trkpt lat="42.7165" lon="1.55473">
        <ele>1327.7180175781</ele>
        <time>2011-05-28T12:49:50Z</time>
      </trkpt>
      <trkpt lat="42.7165" lon="1.55467">
        <ele>1326.7568359375</ele>
        <time>2011-05-28T12:49:56Z</time>
      </trkpt>
      <trkpt lat="42.71651" lon="1.55463">
        <ele>1327.2375488281</ele>
        <time>2011-05-28T12:50:00Z</time>
      </trkpt>
      <trkpt lat="42.71652" lon="1.55458">
        <ele>1327.2375488281</ele>
        <time>2011-05-28T12:50:05Z</time>
      </trkpt>
      <trkpt lat="42.71653" lon="1.55453">
        <ele>1326.7568359375</ele>
        <time>2011-05-28T12:50:11Z</time>
      </trkpt>
      <trkpt lat="42.71653" lon="1.55452">
        <ele>1327.2375488281</ele>
        <time>2011-05-28T12:50:12Z</time>
      </trkpt>
      <trkpt lat="42.71657" lon="1.55443">
        <ele>1330.6020507812</ele>
        <time>2011-05-28T12:50:19Z</time>
      </trkpt>
      <trkpt lat="42.71672" lon="1.55442">
        <ele>1340.6958007812</ele>
        <time>2011-05-28T12:50:25Z</time>
      </trkpt>
      <trkpt lat="42.71679" lon="1.55441">
        <ele>1344.060546875</ele>
        <time>2011-05-28T12:50:29Z</time>
      </trkpt>
      <trkpt lat="42.71687" lon="1.55439">
        <ele>1349.8283691406</ele>
        <time>2011-05-28T12:50:32Z</time>
      </trkpt>
      <trkpt lat="42.71702" lon="1.55437">
        <ele>1367.1320800781</ele>
        <time>2011-05-28T12:50:38Z</time>
      </trkpt>
      <trkpt lat="42.71715" lon="1.55436">
        <ele>1385.8776855469</ele>
        <time>2011-05-28T12:50:43Z</time>
      </trkpt>
      <trkpt lat="42.71731" lon="1.55434">
        <ele>1397.4135742188</ele>
        <time>2011-05-28T12:50:48Z</time>
      </trkpt>
      <trkpt lat="42.71749" lon="1.55432">
        <ele>1417.6010742188</ele>
        <time>2011-05-28T12:50:53Z</time>
      </trkpt>
      <trkpt lat="42.71754" lon="1.5543">
        <ele>1424.3305664062</ele>
        <time>2011-05-28T12:50:55Z</time>
      </trkpt>
      <trkpt lat="42.71764" lon="1.55429">
        <ele>1432.5017089844</ele>
        <time>2011-05-28T12:50:59Z</time>
      </trkpt>
      <trkpt lat="42.71768" lon="1.55423">
        <ele>1429.6176757812</ele>
        <time>2011-05-28T12:51:06Z</time>
      </trkpt>
      <trkpt lat="42.71761" lon="1.55413">
        <ele>1406.0654296875</ele>
        <time>2011-05-28T12:51:10Z</time>
      </trkpt>
      <trkpt lat="42.71745" lon="1.55409">
        <ele>1368.5739746094</ele>
        <time>2011-05-28T12:51:15Z</time>
      </trkpt>
      <trkpt lat="42.7173" lon="1.55412">
        <ele>1330.1213378906</ele>
        <time>2011-05-28T12:51:28Z</time>
      </trkpt>
      <trkpt lat="42.71728" lon="1.55421">
        <ele>1318.5854492188</ele>
        <time>2011-05-28T12:51:35Z</time>
      </trkpt>
      <trkpt lat="42.71728" lon="1.55422">
        <ele>1317.1435546875</ele>
        <time>2011-05-28T12:51:36Z</time>
      </trkpt>
      <trkpt lat="42.71733" lon="1.55426">
        <ele>1307.5302734375</ele>
        <time>2011-05-28T12:51:43Z</time>
      </trkpt>
      <trkpt lat="42.71735" lon="1.55428">
        <ele>1302.2429199219</ele>
        <time>2011-05-28T12:51:47Z</time>
      </trkpt>
      <trkpt lat="42.7174" lon="1.55432">
        <ele>1295.5139160156</ele>
        <time>2011-05-28T12:51:56Z</time>
      </trkpt>
      <trkpt lat="42.71745" lon="1.55434">
        <ele>1291.1877441406</ele>
        <time>2011-05-28T12:52:02Z</time>
      </trkpt>
      <trkpt lat="42.7175" lon="1.55438">
        <ele>1285.9006347656</ele>
        <time>2011-05-28T12:52:09Z</time>
      </trkpt>
      <trkpt lat="42.71756" lon="1.55443">
        <ele>1282.5361328125</ele>
        <time>2011-05-28T12:52:15Z</time>
      </trkpt>
      <trkpt lat="42.71764" lon="1.55452">
        <ele>1276.7683105469</ele>
        <time>2011-05-28T12:52:25Z</time>
      </trkpt>
      <trkpt lat="42.7177" lon="1.55458">
        <ele>1273.8840332031</ele>
        <time>2011-05-28T12:52:33Z</time>
      </trkpt>
      <trkpt lat="42.71776" lon="1.55465">
        <ele>1280.6135253906</ele>
        <time>2011-05-28T12:52:41Z</time>
      </trkpt>
      <trkpt lat="42.71783" lon="1.55472">
        <ele>1280.1328125</ele>
        <time>2011-05-28T12:52:47Z</time>
      </trkpt>
      <trkpt lat="42.7179" lon="1.55478">
        <ele>1277.7294921875</ele>
        <time>2011-05-28T12:52:54Z</time>
      </trkpt>
      <trkpt lat="42.71795" lon="1.55482">
        <ele>1275.806640625</ele>
        <time>2011-05-28T12:53:00Z</time>
      </trkpt>
      <trkpt lat="42.718" lon="1.55487">
        <ele>1274.3647460938</ele>
        <time>2011-05-28T12:53:08Z</time>
      </trkpt>
      <trkpt lat="42.71803" lon="1.5549">
        <ele>1273.8840332031</ele>
        <time>2011-05-28T12:53:13Z</time>
      </trkpt>
      <trkpt lat="42.71806" lon="1.55492">
        <ele>1273.4035644531</ele>
        <time>2011-05-28T12:53:17Z</time>
      </trkpt>
      <trkpt lat="42.71809" lon="1.55491">
        <ele>1274.3647460938</ele>
        <time>2011-05-28T12:53:21Z</time>
      </trkpt>
      <trkpt lat="42.71813" lon="1.55492">
        <ele>1274.3647460938</ele>
        <time>2011-05-28T12:53:25Z</time>
      </trkpt>
      <trkpt lat="42.71817" lon="1.55494">
        <ele>1273.4035644531</ele>
        <time>2011-05-28T12:53:30Z</time>
      </trkpt>
      <trkpt lat="42.7182" lon="1.55495">
        <ele>1272.9228515625</ele>
        <time>2011-05-28T12:53:32Z</time>
      </trkpt>
      <trkpt lat="42.71835" lon="1.55499">
        <ele>1272.4421386719</ele>
        <time>2011-05-28T12:53:39Z</time>
      </trkpt>
      <trkpt lat="42.71843" lon="1.55499">
        <ele>1270.51953125</ele>
        <time>2011-05-28T12:53:43Z</time>
      </trkpt>
      <trkpt lat="42.71847" lon="1.555">
        <ele>1271.0002441406</ele>
        <time>2011-05-28T12:53:46Z</time>
      </trkpt>
      <trkpt lat="42.71856" lon="1.555">
        <ele>1270.51953125</ele>
        <time>2011-05-28T12:53:53Z</time>
      </trkpt>
      <trkpt lat="42.71865" lon="1.55501">
        <ele>1266.6743164062</ele>
        <time>2011-05-28T12:54:01Z</time>
      </trkpt>
      <trkpt lat="42.71872" lon="1.555">
        <ele>1265.232421875</ele>
        <time>2011-05-28T12:54:07Z</time>
      </trkpt>
      <trkpt lat="42.7188" lon="1.55496">
        <ele>1267.1550292969</ele>
        <time>2011-05-28T12:54:14Z</time>
      </trkpt>
      <trkpt lat="42.71888" lon="1.55496">
        <ele>1264.2709960938</ele>
        <time>2011-05-28T12:54:21Z</time>
      </trkpt>
      <trkpt lat="42.71893" lon="1.55497">
        <ele>1262.3483886719</ele>
        <time>2011-05-28T12:54:25Z</time>
      </trkpt>
      <trkpt lat="42.71899" lon="1.55497">
        <ele>1259.9448242188</ele>
        <time>2011-05-28T12:54:30Z</time>
      </trkpt>
      <trkpt lat="42.71903" lon="1.55495">
        <ele>1258.9836425781</ele>
        <time>2011-05-28T12:54:34Z</time>
      </trkpt>
      <trkpt lat="42.7191" lon="1.55495">
        <ele>1261.3872070312</ele>
        <time>2011-05-28T12:54:38Z</time>
      </trkpt>
      <trkpt lat="42.71912" lon="1.55494">
        <ele>1261.8679199219</ele>
        <time>2011-05-28T12:54:39Z</time>
      </trkpt>
      <trkpt lat="42.71916" lon="1.55492">
        <ele>1262.3483886719</ele>
        <time>2011-05-28T12:54:42Z</time>
      </trkpt>
      <trkpt lat="42.71922" lon="1.55491">
        <ele>1261.8679199219</ele>
        <time>2011-05-28T12:54:47Z</time>
      </trkpt>
      <trkpt lat="42.71924" lon="1.55487">
        <ele>1258.0224609375</ele>
        <time>2011-05-28T12:54:52Z</time>
      </trkpt>
      <trkpt lat="42.71919" lon="1.55486">
        <ele>1255.619140625</ele>
        <time>2011-05-28T12:54:56Z</time>
      </trkpt>
      <trkpt lat="42.71915" lon="1.55482">
        <ele>1254.6577148438</ele>
        <time>2011-05-28T12:54:59Z</time>
      </trkpt>
      <trkpt lat="42.71907" lon="1.55476">
        <ele>1249.8513183594</ele>
        <time>2011-05-28T12:55:04Z</time>
      </trkpt>
      <trkpt lat="42.71903" lon="1.55472">
        <ele>1248.4091796875</ele>
        <time>2011-05-28T12:55:06Z</time>
      </trkpt>
      <trkpt lat="42.71902" lon="1.55468">
        <ele>1244.0834960938</ele>
        <time>2011-05-28T12:55:10Z</time>
      </trkpt>
      <trkpt lat="42.71909" lon="1.55468">
        <ele>1243.6025390625</ele>
        <time>2011-05-28T12:55:19Z</time>
      </trkpt>
      <trkpt lat="42.71915" lon="1.55468">
        <ele>1242.6413574219</ele>
        <time>2011-05-28T12:55:25Z</time>
      </trkpt>
      <trkpt lat="42.71916" lon="1.55469">
        <ele>1242.1606445312</ele>
        <time>2011-05-28T12:55:26Z</time>
      </trkpt>
      <trkpt lat="42.71922" lon="1.55469">
        <ele>1241.6799316406</ele>
        <time>2011-05-28T12:55:31Z</time>
      </trkpt>
      <trkpt lat="42.71931" lon="1.55468">
        <ele>1240.7185058594</ele>
        <time>2011-05-28T12:55:37Z</time>
      </trkpt>
      <trkpt lat="42.71942" lon="1.55466">
        <ele>1240.7185058594</ele>
        <time>2011-05-28T12:55:42Z</time>
      </trkpt>
      <trkpt lat="42.71949" lon="1.55468">
        <ele>1240.2380371094</ele>
        <time>2011-05-28T12:55:46Z</time>
      </trkpt>
      <trkpt lat="42.71954" lon="1.55467">
        <ele>1238.7961425781</ele>
        <time>2011-05-28T12:55:49Z</time>
      </trkpt>
      <trkpt lat="42.71964" lon="1.55467">
        <ele>1236.3928222656</ele>
        <time>2011-05-28T12:55:55Z</time>
      </trkpt>
      <trkpt lat="42.71969" lon="1.55467">
        <ele>1235.4313964844</ele>
        <time>2011-05-28T12:55:58Z</time>
      </trkpt>
      <trkpt lat="42.71976" lon="1.55468">
        <ele>1234.4702148438</ele>
        <time>2011-05-28T12:56:03Z</time>
      </trkpt>
      <trkpt lat="42.71983" lon="1.55466">
        <ele>1232.5476074219</ele>
        <time>2011-05-28T12:56:09Z</time>
      </trkpt>
      <trkpt lat="42.71985" lon="1.55466">
        <ele>1232.5476074219</ele>
        <time>2011-05-28T12:56:10Z</time>
      </trkpt>
      <trkpt lat="42.71995" lon="1.5546">
        <ele>1232.0668945312</ele>
        <time>2011-05-28T12:56:18Z</time>
      </trkpt>
      <trkpt lat="42.72004" lon="1.55456">
        <ele>1231.5861816406</ele>
        <time>2011-05-28T12:56:25Z</time>
      </trkpt>
      <trkpt lat="42.72012" lon="1.5545">
        <ele>1233.0280761719</ele>
        <time>2011-05-28T12:56:31Z</time>
      </trkpt>
      <trkpt lat="42.72014" lon="1.55448">
        <ele>1230.1442871094</ele>
        <time>2011-05-28T12:56:35Z</time>
      </trkpt>
      <trkpt lat="42.72026" lon="1.55449">
        <ele>1230.1442871094</ele>
        <time>2011-05-28T12:56:42Z</time>
      </trkpt>
      <trkpt lat="42.72033" lon="1.5545">
        <ele>1226.7795410156</ele>
        <time>2011-05-28T12:56:49Z</time>
      </trkpt>
      <trkpt lat="42.72036" lon="1.55448">
        <ele>1223.8955078125</ele>
        <time>2011-05-28T12:56:54Z</time>
      </trkpt>
      <trkpt lat="42.72039" lon="1.55444">
        <ele>1222.9343261719</ele>
        <time>2011-05-28T12:56:58Z</time>
      </trkpt>
      <trkpt lat="42.72044" lon="1.55442">
        <ele>1222.9343261719</ele>
        <time>2011-05-28T12:57:04Z</time>
      </trkpt>
      <trkpt lat="42.72049" lon="1.55435">
        <ele>1221.01171875</ele>
        <time>2011-05-28T12:57:11Z</time>
      </trkpt>
      <trkpt lat="42.72055" lon="1.55431">
        <ele>1221.4921875</ele>
        <time>2011-05-28T12:57:17Z</time>
      </trkpt>
      <trkpt lat="42.72057" lon="1.55432">
        <ele>1220.5310058594</ele>
        <time>2011-05-28T12:57:22Z</time>
      </trkpt>
      <trkpt lat="42.72064" lon="1.5543">
        <ele>1219.0891113281</ele>
        <time>2011-05-28T12:57:29Z</time>
      </trkpt>
      <trkpt lat="42.72075" lon="1.55427">
        <ele>1220.0502929688</ele>
        <time>2011-05-28T12:57:37Z</time>
      </trkpt>
      <trkpt lat="42.72083" lon="1.55425">
        <ele>1218.1276855469</ele>
        <time>2011-05-28T12:57:44Z</time>
      </trkpt>
      <trkpt lat="42.72087" lon="1.55423">
        <ele>1216.6857910156</ele>
        <time>2011-05-28T12:57:51Z</time>
      </trkpt>
      <trkpt lat="42.72093" lon="1.55421">
        <ele>1216.205078125</ele>
        <time>2011-05-28T12:57:58Z</time>
      </trkpt>
      <trkpt lat="42.72097" lon="1.5542">
        <ele>1215.724609375</ele>
        <time>2011-05-28T12:58:03Z</time>
      </trkpt>
      <trkpt lat="42.72105" lon="1.55418">
        <ele>1216.205078125</ele>
        <time>2011-05-28T12:58:11Z</time>
      </trkpt>
      <trkpt lat="42.72109" lon="1.55417">
        <ele>1215.2438964844</ele>
        <time>2011-05-28T12:58:15Z</time>
      </trkpt>
      <trkpt lat="42.72112" lon="1.55415">
        <ele>1212.3598632812</ele>
        <time>2011-05-28T12:58:20Z</time>
      </trkpt>
      <trkpt lat="42.72118" lon="1.55411">
        <ele>1208.5144042969</ele>
        <time>2011-05-28T12:58:26Z</time>
      </trkpt>
      <trkpt lat="42.72121" lon="1.55411">
        <ele>1206.591796875</ele>
        <time>2011-05-28T12:58:30Z</time>
      </trkpt>
      <trkpt lat="42.72127" lon="1.55409">
        <ele>1208.0339355469</ele>
        <time>2011-05-28T12:58:34Z</time>
      </trkpt>
      <trkpt lat="42.72133" lon="1.55407">
        <ele>1209.4758300781</ele>
        <time>2011-05-28T12:58:38Z</time>
      </trkpt>
      <trkpt lat="42.72138" lon="1.55405">
        <ele>1210.4370117188</ele>
        <time>2011-05-28T12:58:43Z</time>
      </trkpt>
      <trkpt lat="42.72142" lon="1.55402">
        <ele>1210.4370117188</ele>
        <time>2011-05-28T12:58:47Z</time>
      </trkpt>
      <trkpt lat="42.72144" lon="1.55402">
        <ele>1210.4370117188</ele>
        <time>2011-05-28T12:58:48Z</time>
      </trkpt>
      <trkpt lat="42.72149" lon="1.55402">
        <ele>1211.8791503906</ele>
        <time>2011-05-28T12:58:51Z</time>
      </trkpt>
      <trkpt lat="42.72157" lon="1.55396">
        <ele>1210.4370117188</ele>
        <time>2011-05-28T12:58:57Z</time>
      </trkpt>
      <trkpt lat="42.72159" lon="1.55395">
        <ele>1207.5532226562</ele>
        <time>2011-05-28T12:59:01Z</time>
      </trkpt>
      <trkpt lat="42.72163" lon="1.55388">
        <ele>1200.3435058594</ele>
        <time>2011-05-28T12:59:12Z</time>
      </trkpt>
      <trkpt lat="42.72166" lon="1.55384">
        <ele>1197.9401855469</ele>
        <time>2011-05-28T12:59:17Z</time>
      </trkpt>
      <trkpt lat="42.72166" lon="1.55379">
        <ele>1196.017578125</ele>
        <time>2011-05-28T12:59:20Z</time>
      </trkpt>
      <trkpt lat="42.72169" lon="1.5537">
        <ele>1194.5751953125</ele>
        <time>2011-05-28T12:59:26Z</time>
      </trkpt>
      <trkpt lat="42.72172" lon="1.55365">
        <ele>1194.0947265625</ele>
        <time>2011-05-28T12:59:31Z</time>
      </trkpt>
      <trkpt lat="42.72177" lon="1.55366">
        <ele>1195.5366210938</ele>
        <time>2011-05-28T12:59:36Z</time>
      </trkpt>
      <trkpt lat="42.72176" lon="1.55364">
        <ele>1194.0947265625</ele>
        <time>2011-05-28T12:59:42Z</time>
      </trkpt>
      <trkpt lat="42.72175" lon="1.55358">
        <ele>1193.1333007812</ele>
        <time>2011-05-28T12:59:48Z</time>
      </trkpt>
      <trkpt lat="42.72175" lon="1.55353">
        <ele>1192.6528320312</ele>
        <time>2011-05-28T12:59:53Z</time>
      </trkpt>
      <trkpt lat="42.72178" lon="1.55352">
        <ele>1192.1721191406</ele>
        <time>2011-05-28T13:00:03Z</time>
      </trkpt>
      <trkpt lat="42.72176" lon="1.5535">
        <ele>1192.6528320312</ele>
        <time>2011-05-28T13:00:11Z</time>
      </trkpt>
      <trkpt lat="42.72175" lon="1.55345">
        <ele>1191.69140625</ele>
        <time>2011-05-28T13:00:17Z</time>
      </trkpt>
      <trkpt lat="42.72178" lon="1.55342">
        <ele>1191.2106933594</ele>
        <time>2011-05-28T13:00:22Z</time>
      </trkpt>
      <trkpt lat="42.72183" lon="1.55338">
        <ele>1190.2495117188</ele>
        <time>2011-05-28T13:00:28Z</time>
      </trkpt>
      <trkpt lat="42.72187" lon="1.55337">
        <ele>1188.8076171875</ele>
        <time>2011-05-28T13:00:33Z</time>
      </trkpt>
      <trkpt lat="42.72189" lon="1.55338">
        <ele>1189.7687988281</ele>
        <time>2011-05-28T13:00:34Z</time>
      </trkpt>
      <trkpt lat="42.72194" lon="1.55338">
        <ele>1186.884765625</ele>
        <time>2011-05-28T13:00:42Z</time>
      </trkpt>
      <trkpt lat="42.72195" lon="1.55336">
        <ele>1183.5202636719</ele>
        <time>2011-05-28T13:00:47Z</time>
      </trkpt>
      <trkpt lat="42.72194" lon="1.55331">
        <ele>1181.1171875</ele>
        <time>2011-05-28T13:00:54Z</time>
      </trkpt>
      <trkpt lat="42.72194" lon="1.55327">
        <ele>1178.7136230469</ele>
        <time>2011-05-28T13:00:59Z</time>
      </trkpt>
      <trkpt lat="42.72199" lon="1.55319">
        <ele>1177.7521972656</ele>
        <time>2011-05-28T13:01:08Z</time>
      </trkpt>
      <trkpt lat="42.72203" lon="1.55314">
        <ele>1177.2717285156</ele>
        <time>2011-05-28T13:01:13Z</time>
      </trkpt>
      <trkpt lat="42.72206" lon="1.55308">
        <ele>1177.2717285156</ele>
        <time>2011-05-28T13:01:19Z</time>
      </trkpt>
      <trkpt lat="42.7221" lon="1.55305">
        <ele>1176.791015625</ele>
        <time>2011-05-28T13:01:23Z</time>
      </trkpt>
      <trkpt lat="42.72214" lon="1.553">
        <ele>1173.9069824219</ele>
        <time>2011-05-28T13:01:30Z</time>
      </trkpt>
      <trkpt lat="42.72219" lon="1.55292">
        <ele>1171.0231933594</ele>
        <time>2011-05-28T13:01:37Z</time>
      </trkpt>
      <trkpt lat="42.7222" lon="1.55291">
        <ele>1169.5812988281</ele>
        <time>2011-05-28T13:01:39Z</time>
      </trkpt>
      <trkpt lat="42.72224" lon="1.55282">
        <ele>1165.7360839844</ele>
        <time>2011-05-28T13:01:47Z</time>
      </trkpt>
      <trkpt lat="42.72227" lon="1.55277">
        <ele>1163.8129882812</ele>
        <time>2011-05-28T13:01:53Z</time>
      </trkpt>
      <trkpt lat="42.72231" lon="1.55271">
        <ele>1160.9291992188</ele>
        <time>2011-05-28T13:02:00Z</time>
      </trkpt>
      <trkpt lat="42.72233" lon="1.5527">
        <ele>1159.0065917969</ele>
        <time>2011-05-28T13:02:06Z</time>
      </trkpt>
      <trkpt lat="42.72237" lon="1.55267">
        <ele>1156.6032714844</ele>
        <time>2011-05-28T13:02:13Z</time>
      </trkpt>
      <trkpt lat="42.7224" lon="1.55263">
        <ele>1154.6806640625</ele>
        <time>2011-05-28T13:02:19Z</time>
      </trkpt>
      <trkpt lat="42.72244" lon="1.55261">
        <ele>1152.7580566406</ele>
        <time>2011-05-28T13:02:27Z</time>
      </trkpt>
      <trkpt lat="42.72249" lon="1.55256">
        <ele>1152.7580566406</ele>
        <time>2011-05-28T13:02:33Z</time>
      </trkpt>
      <trkpt lat="42.72253" lon="1.55252">
        <ele>1150.8354492188</ele>
        <time>2011-05-28T13:02:39Z</time>
      </trkpt>
      <trkpt lat="42.72257" lon="1.55249">
        <ele>1149.8742675781</ele>
        <time>2011-05-28T13:02:45Z</time>
      </trkpt>
      <trkpt lat="42.72262" lon="1.55244">
        <ele>1148.4321289062</ele>
        <time>2011-05-28T13:02:51Z</time>
      </trkpt>
      <trkpt lat="42.72266" lon="1.55241">
        <ele>1146.0288085938</ele>
        <time>2011-05-28T13:02:59Z</time>
      </trkpt>
      <trkpt lat="42.7227" lon="1.55239">
        <ele>1145.5480957031</ele>
        <time>2011-05-28T13:03:04Z</time>
      </trkpt>
      <trkpt lat="42.72274" lon="1.55236">
        <ele>1144.5866699219</ele>
        <time>2011-05-28T13:03:09Z</time>
      </trkpt>
      <trkpt lat="42.72278" lon="1.55232">
        <ele>1143.6254882812</ele>
        <time>2011-05-28T13:03:15Z</time>
      </trkpt>
      <trkpt lat="42.72282" lon="1.55228">
        <ele>1142.18359375</ele>
        <time>2011-05-28T13:03:22Z</time>
      </trkpt>
      <trkpt lat="42.72287" lon="1.55224">
        <ele>1140.2609863281</ele>
        <time>2011-05-28T13:03:30Z</time>
      </trkpt>
      <trkpt lat="42.7229" lon="1.55221">
        <ele>1138.8190917969</ele>
        <time>2011-05-28T13:03:36Z</time>
      </trkpt>
      <trkpt lat="42.72293" lon="1.55219">
        <ele>1137.8576660156</ele>
        <time>2011-05-28T13:03:42Z</time>
      </trkpt>
      <trkpt lat="42.72298" lon="1.55215">
        <ele>1137.8576660156</ele>
        <time>2011-05-28T13:03:48Z</time>
      </trkpt>
      <trkpt lat="42.72301" lon="1.55211">
        <ele>1137.8576660156</ele>
        <time>2011-05-28T13:03:53Z</time>
      </trkpt>
      <trkpt lat="42.72305" lon="1.55209">
        <ele>1136.4157714844</ele>
        <time>2011-05-28T13:03:59Z</time>
      </trkpt>
      <trkpt lat="42.72309" lon="1.55206">
        <ele>1136.4157714844</ele>
        <time>2011-05-28T13:04:05Z</time>
      </trkpt>
      <trkpt lat="42.72314" lon="1.55204">
        <ele>1134.9738769531</ele>
        <time>2011-05-28T13:04:10Z</time>
      </trkpt>
      <trkpt lat="42.72322" lon="1.55198">
        <ele>1133.0510253906</ele>
        <time>2011-05-28T13:04:19Z</time>
      </trkpt>
      <trkpt lat="42.72326" lon="1.55195">
        <ele>1132.08984375</ele>
        <time>2011-05-28T13:04:25Z</time>
      </trkpt>
      <trkpt lat="42.72329" lon="1.55191">
        <ele>1130.6477050781</ele>
        <time>2011-05-28T13:04:30Z</time>
      </trkpt>
      <trkpt lat="42.7233" lon="1.55188">
        <ele>1131.6088867188</ele>
        <time>2011-05-28T13:04:34Z</time>
      </trkpt>
      <trkpt lat="42.7233" lon="1.55178">
        <ele>1132.5705566406</ele>
        <time>2011-05-28T13:04:42Z</time>
      </trkpt>
      <trkpt lat="42.72332" lon="1.55173">
        <ele>1131.1284179688</ele>
        <time>2011-05-28T13:04:46Z</time>
      </trkpt>
      <trkpt lat="42.72335" lon="1.55171">
        <ele>1129.2055664062</ele>
        <time>2011-05-28T13:04:49Z</time>
      </trkpt>
      <trkpt lat="42.72345" lon="1.55166">
        <ele>1124.8798828125</ele>
        <time>2011-05-28T13:04:57Z</time>
      </trkpt>
      <trkpt lat="42.72348" lon="1.55165">
        <ele>1122.9572753906</ele>
        <time>2011-05-28T13:05:01Z</time>
      </trkpt>
      <trkpt lat="42.72351" lon="1.55162">
        <ele>1121.9958496094</ele>
        <time>2011-05-28T13:05:04Z</time>
      </trkpt>
      <trkpt lat="42.72354" lon="1.55156">
        <ele>1120.0732421875</ele>
        <time>2011-05-28T13:05:12Z</time>
      </trkpt>
      <trkpt lat="42.72356" lon="1.55152">
        <ele>1117.669921875</ele>
        <time>2011-05-28T13:05:16Z</time>
      </trkpt>
      <trkpt lat="42.72363" lon="1.55144">
        <ele>1112.3825683594</ele>
        <time>2011-05-28T13:05:24Z</time>
      </trkpt>
      <trkpt lat="42.72364" lon="1.55139">
        <ele>1110.4599609375</ele>
        <time>2011-05-28T13:05:28Z</time>
      </trkpt>
      <trkpt lat="42.72366" lon="1.55134">
        <ele>1109.4987792969</ele>
        <time>2011-05-28T13:05:33Z</time>
      </trkpt>
      <trkpt lat="42.72367" lon="1.5513">
        <ele>1108.0568847656</ele>
        <time>2011-05-28T13:05:38Z</time>
      </trkpt>
      <trkpt lat="42.72371" lon="1.55123">
        <ele>1106.1340332031</ele>
        <time>2011-05-28T13:05:44Z</time>
      </trkpt>
      <trkpt lat="42.72374" lon="1.55117">
        <ele>1103.7309570312</ele>
        <time>2011-05-28T13:05:49Z</time>
      </trkpt>
      <trkpt lat="42.72377" lon="1.55109">
        <ele>1101.3276367188</ele>
        <time>2011-05-28T13:05:55Z</time>
      </trkpt>
      <trkpt lat="42.72381" lon="1.55098">
        <ele>1099.4047851562</ele>
        <time>2011-05-28T13:06:02Z</time>
      </trkpt>
      <trkpt lat="42.72382" lon="1.55097">
        <ele>1099.4047851562</ele>
        <time>2011-05-28T13:06:03Z</time>
      </trkpt>
      <trkpt lat="42.72381" lon="1.55086">
        <ele>1104.2116699219</ele>
        <time>2011-05-28T13:06:10Z</time>
      </trkpt>
      <trkpt lat="42.72382" lon="1.55083">
        <ele>1103.2502441406</ele>
        <time>2011-05-28T13:06:12Z</time>
      </trkpt>
      <trkpt lat="42.72384" lon="1.55081">
        <ele>1102.2888183594</ele>
        <time>2011-05-28T13:06:14Z</time>
      </trkpt>
      <trkpt lat="42.72393" lon="1.55068">
        <ele>1098.443359375</ele>
        <time>2011-05-28T13:06:24Z</time>
      </trkpt>
      <trkpt lat="42.72393" lon="1.55068">
        <ele>1097.0014648438</ele>
        <time>2011-05-28T13:06:29Z</time>
      </trkpt>
      <trkpt lat="42.72385" lon="1.55071">
        <ele>1096.5209960938</ele>
        <time>2011-05-28T13:06:34Z</time>
      </trkpt>
      <trkpt lat="42.72382" lon="1.55078">
        <ele>1096.5209960938</ele>
        <time>2011-05-28T13:06:39Z</time>
      </trkpt>
      <trkpt lat="42.72376" lon="1.55082">
        <ele>1096.0402832031</ele>
        <time>2011-05-28T13:06:43Z</time>
      </trkpt>
      <trkpt lat="42.72373" lon="1.55082">
        <ele>1094.5981445312</ele>
        <time>2011-05-28T13:06:47Z</time>
      </trkpt>
      <trkpt lat="42.72372" lon="1.55076">
        <ele>1094.1176757812</ele>
        <time>2011-05-28T13:06:51Z</time>
      </trkpt>
      <trkpt lat="42.72374" lon="1.55069">
        <ele>1092.67578125</ele>
        <time>2011-05-28T13:06:57Z</time>
      </trkpt>
      <trkpt lat="42.72375" lon="1.55063">
        <ele>1094.1176757812</ele>
        <time>2011-05-28T13:07:02Z</time>
      </trkpt>
      <trkpt lat="42.72377" lon="1.55054">
        <ele>1097.962890625</ele>
        <time>2011-05-28T13:07:08Z</time>
      </trkpt>
      <trkpt lat="42.72378" lon="1.55052">
        <ele>1099.4047851562</ele>
        <time>2011-05-28T13:07:10Z</time>
      </trkpt>
      <trkpt lat="42.72378" lon="1.55041">
        <ele>1102.76953125</ele>
        <time>2011-05-28T13:07:15Z</time>
      </trkpt>
      <trkpt lat="42.7238" lon="1.55027">
        <ele>1105.6535644531</ele>
        <time>2011-05-28T13:07:22Z</time>
      </trkpt>
      <trkpt lat="42.7238" lon="1.55023">
        <ele>1106.1340332031</ele>
        <time>2011-05-28T13:07:24Z</time>
      </trkpt>
      <trkpt lat="42.72376" lon="1.55012">
        <ele>1109.4987792969</ele>
        <time>2011-05-28T13:07:28Z</time>
      </trkpt>
      <trkpt lat="42.72372" lon="1.55004">
        <ele>1114.3051757812</ele>
        <time>2011-05-28T13:07:31Z</time>
      </trkpt>
      <trkpt lat="42.72351" lon="1.54982">
        <ele>1139.2995605469</ele>
        <time>2011-05-28T13:07:36Z</time>
      </trkpt>
      <trkpt lat="42.72353" lon="1.54977">
        <ele>1138.3383789062</ele>
        <time>2011-05-28T13:07:39Z</time>
      </trkpt>
      <trkpt lat="42.72359" lon="1.54968">
        <ele>1133.0510253906</ele>
        <time>2011-05-28T13:07:45Z</time>
      </trkpt>
      <trkpt lat="42.72361" lon="1.54954">
        <ele>1136.4157714844</ele>
        <time>2011-05-28T13:07:52Z</time>
      </trkpt>
      <trkpt lat="42.72361" lon="1.54952">
        <ele>1137.376953125</ele>
        <time>2011-05-28T13:07:53Z</time>
      </trkpt>
      <trkpt lat="42.72364" lon="1.54944">
        <ele>1138.3383789062</ele>
        <time>2011-05-28T13:07:58Z</time>
      </trkpt>
      <trkpt lat="42.72377" lon="1.5494">
        <ele>1132.08984375</ele>
        <time>2011-05-28T13:08:05Z</time>
      </trkpt>
      <trkpt lat="42.72389" lon="1.54939">
        <ele>1123.9184570312</ele>
        <time>2011-05-28T13:08:10Z</time>
      </trkpt>
      <trkpt lat="42.72405" lon="1.54935">
        <ele>1113.8244628906</ele>
        <time>2011-05-28T13:08:18Z</time>
      </trkpt>
      <trkpt lat="42.72414" lon="1.54935">
        <ele>1107.576171875</ele>
        <time>2011-05-28T13:08:23Z</time>
      </trkpt>
      <trkpt lat="42.7243" lon="1.54937">
        <ele>1093.6369628906</ele>
        <time>2011-05-28T13:08:28Z</time>
      </trkpt>
      <trkpt lat="42.72451" lon="1.5494">
        <ele>1074.8913574219</ele>
        <time>2011-05-28T13:08:32Z</time>
      </trkpt>
      <trkpt lat="42.72462" lon="1.54941">
        <ele>1065.2780761719</ele>
        <time>2011-05-28T13:08:37Z</time>
      </trkpt>
      <trkpt lat="42.72466" lon="1.54942">
        <ele>1061.9135742188</ele>
        <time>2011-05-28T13:08:39Z</time>
      </trkpt>
      <trkpt lat="42.72472" lon="1.54941">
        <ele>1058.548828125</ele>
        <time>2011-05-28T13:08:44Z</time>
      </trkpt>
      <trkpt lat="42.7248" lon="1.54943">
        <ele>1056.1455078125</ele>
        <time>2011-05-28T13:08:49Z</time>
      </trkpt>
      <trkpt lat="42.72489" lon="1.54942">
        <ele>1051.8195800781</ele>
        <time>2011-05-28T13:08:55Z</time>
      </trkpt>
      <trkpt lat="42.72491" lon="1.54941">
        <ele>1050.3776855469</ele>
        <time>2011-05-28T13:08:58Z</time>
      </trkpt>
      <trkpt lat="42.72498" lon="1.54942">
        <ele>1047.0129394531</ele>
        <time>2011-05-28T13:09:01Z</time>
      </trkpt>
      <trkpt lat="42.72507" lon="1.54943">
        <ele>1045.0903320312</ele>
        <time>2011-05-28T13:09:05Z</time>
      </trkpt>
      <trkpt lat="42.72516" lon="1.5495">
        <ele>1043.1677246094</ele>
        <time>2011-05-28T13:09:10Z</time>
      </trkpt>
      <trkpt lat="42.72524" lon="1.5495">
        <ele>1040.7644042969</ele>
        <time>2011-05-28T13:09:14Z</time>
      </trkpt>
      <trkpt lat="42.72528" lon="1.54953">
        <ele>1039.3225097656</ele>
        <time>2011-05-28T13:09:17Z</time>
      </trkpt>
      <trkpt lat="42.72536" lon="1.54954">
        <ele>1038.8420410156</ele>
        <time>2011-05-28T13:09:21Z</time>
      </trkpt>
      <trkpt lat="42.72544" lon="1.54952">
        <ele>1040.2839355469</ele>
        <time>2011-05-28T13:09:26Z</time>
      </trkpt>
      <trkpt lat="42.72559" lon="1.54951">
        <ele>1035.9577636719</ele>
        <time>2011-05-28T13:09:32Z</time>
      </trkpt>
      <trkpt lat="42.72564" lon="1.54951">
        <ele>1034.5158691406</ele>
        <time>2011-05-28T13:09:35Z</time>
      </trkpt>
      <trkpt lat="42.7257" lon="1.54949">
        <ele>1034.9965820312</ele>
        <time>2011-05-28T13:09:39Z</time>
      </trkpt>
      <trkpt lat="42.72573" lon="1.54946">
        <ele>1035.4770507812</ele>
        <time>2011-05-28T13:09:41Z</time>
      </trkpt>
      <trkpt lat="42.72585" lon="1.54946">
        <ele>1033.5544433594</ele>
        <time>2011-05-28T13:09:47Z</time>
      </trkpt>
      <trkpt lat="42.72589" lon="1.54945">
        <ele>1032.5932617188</ele>
        <time>2011-05-28T13:09:49Z</time>
      </trkpt>
      <trkpt lat="42.72593" lon="1.54944">
        <ele>1031.6318359375</ele>
        <time>2011-05-28T13:09:51Z</time>
      </trkpt>
      <trkpt lat="42.72604" lon="1.54945">
        <ele>1027.7866210938</ele>
        <time>2011-05-28T13:09:57Z</time>
      </trkpt>
      <trkpt lat="42.72609" lon="1.54943">
        <ele>1025.3833007812</ele>
        <time>2011-05-28T13:09:59Z</time>
      </trkpt>
      <trkpt lat="42.72617" lon="1.54943">
        <ele>1022.0187988281</ele>
        <time>2011-05-28T13:10:03Z</time>
      </trkpt>
      <trkpt lat="42.7263" lon="1.54945">
        <ele>1020.0961914062</ele>
        <time>2011-05-28T13:10:08Z</time>
      </trkpt>
      <trkpt lat="42.72643" lon="1.54944">
        <ele>1022.4995117188</ele>
        <time>2011-05-28T13:10:14Z</time>
      </trkpt>
      <trkpt lat="42.72651" lon="1.54945">
        <ele>1021.5380859375</ele>
        <time>2011-05-28T13:10:20Z</time>
      </trkpt>
      <trkpt lat="42.72665" lon="1.54941">
        <ele>1019.134765625</ele>
        <time>2011-05-28T13:10:26Z</time>
      </trkpt>
      <trkpt lat="42.72677" lon="1.5494">
        <ele>1017.6926269531</ele>
        <time>2011-05-28T13:10:32Z</time>
      </trkpt>
      <trkpt lat="42.72681" lon="1.5494">
        <ele>1018.1733398438</ele>
        <time>2011-05-28T13:10:36Z</time>
      </trkpt>
      <trkpt lat="42.72682" lon="1.54938">
        <ele>1019.134765625</ele>
        <time>2011-05-28T13:10:38Z</time>
      </trkpt>
      <trkpt lat="42.72688" lon="1.54933">
        <ele>1018.1733398438</ele>
        <time>2011-05-28T13:10:42Z</time>
      </trkpt>
      <trkpt lat="42.727" lon="1.5493">
        <ele>1013.8474121094</ele>
        <time>2011-05-28T13:10:47Z</time>
      </trkpt>
      <trkpt lat="42.72705" lon="1.54929">
        <ele>1011.4443359375</ele>
        <time>2011-05-28T13:10:52Z</time>
      </trkpt>
      <trkpt lat="42.72715" lon="1.54929">
        <ele>1008.5603027344</ele>
        <time>2011-05-28T13:11:03Z</time>
      </trkpt>
      <trkpt lat="42.72722" lon="1.54928">
        <ele>1006.6376953125</ele>
        <time>2011-05-28T13:11:09Z</time>
      </trkpt>
      <trkpt lat="42.72732" lon="1.54931">
        <ele>1004.2346191406</ele>
        <time>2011-05-28T13:11:16Z</time>
      </trkpt>
      <trkpt lat="42.72735" lon="1.54931">
        <ele>1002.7922363281</ele>
        <time>2011-05-28T13:11:17Z</time>
      </trkpt>
      <trkpt lat="42.72742" lon="1.54933">
        <ele>1000.8696289062</ele>
        <time>2011-05-28T13:11:20Z</time>
      </trkpt>
      <trkpt lat="42.72753" lon="1.54932">
        <ele>1000.3891601562</ele>
        <time>2011-05-28T13:11:25Z</time>
      </trkpt>
      <trkpt lat="42.72766" lon="1.54937">
        <ele>998.94702148438</ele>
        <time>2011-05-28T13:11:29Z</time>
      </trkpt>
      <trkpt lat="42.72771" lon="1.54939">
        <ele>997.50512695312</ele>
        <time>2011-05-28T13:11:31Z</time>
      </trkpt>
      <trkpt lat="42.72775" lon="1.54939">
        <ele>1000.3891601562</ele>
        <time>2011-05-28T13:11:36Z</time>
      </trkpt>
      <trkpt lat="42.72776" lon="1.54939">
        <ele>1000.8696289062</ele>
        <time>2011-05-28T13:11:37Z</time>
      </trkpt>
      <trkpt lat="42.72784" lon="1.54935">
        <ele>1001.3503417969</ele>
        <time>2011-05-28T13:11:40Z</time>
      </trkpt>
      <trkpt lat="42.72794" lon="1.54934">
        <ele>997.98583984375</ele>
        <time>2011-05-28T13:11:45Z</time>
      </trkpt>
      <trkpt lat="42.72804" lon="1.54938">
        <ele>995.10180664062</ele>
        <time>2011-05-28T13:11:49Z</time>
      </trkpt>
      <trkpt lat="42.72816" lon="1.54936">
        <ele>992.21801757812</ele>
        <time>2011-05-28T13:11:54Z</time>
      </trkpt>
      <trkpt lat="42.72818" lon="1.54934">
        <ele>991.7373046875</ele>
        <time>2011-05-28T13:11:56Z</time>
      </trkpt>
      <trkpt lat="42.72826" lon="1.54934">
        <ele>990.77587890625</ele>
        <time>2011-05-28T13:11:59Z</time>
      </trkpt>
      <trkpt lat="42.72836" lon="1.54928">
        <ele>987.4111328125</ele>
        <time>2011-05-28T13:12:04Z</time>
      </trkpt>
      <trkpt lat="42.7284" lon="1.54924">
        <ele>987.4111328125</ele>
        <time>2011-05-28T13:12:08Z</time>
      </trkpt>
      <trkpt lat="42.72845" lon="1.54922">
        <ele>986.93041992188</ele>
        <time>2011-05-28T13:12:12Z</time>
      </trkpt>
      <trkpt lat="42.72848" lon="1.54919">
        <ele>985.96923828125</ele>
        <time>2011-05-28T13:12:15Z</time>
      </trkpt>
      <trkpt lat="42.72853" lon="1.54911">
        <ele>983.56591796875</ele>
        <time>2011-05-28T13:12:20Z</time>
      </trkpt>
      <trkpt lat="42.72869" lon="1.54907">
        <ele>980.20141601562</ele>
        <time>2011-05-28T13:12:26Z</time>
      </trkpt>
      <trkpt lat="42.72881" lon="1.54906">
        <ele>976.35620117188</ele>
        <time>2011-05-28T13:12:30Z</time>
      </trkpt>
      <trkpt lat="42.72891" lon="1.54896">
        <ele>976.35620117188</ele>
        <time>2011-05-28T13:12:34Z</time>
      </trkpt>
      <trkpt lat="42.72905" lon="1.54896">
        <ele>974.43359375</ele>
        <time>2011-05-28T13:12:39Z</time>
      </trkpt>
      <trkpt lat="42.72909" lon="1.54896">
        <ele>972.51098632812</ele>
        <time>2011-05-28T13:12:40Z</time>
      </trkpt>
      <trkpt lat="42.72924" lon="1.54896">
        <ele>967.7041015625</ele>
        <time>2011-05-28T13:12:46Z</time>
      </trkpt>
      <trkpt lat="42.72934" lon="1.54903">
        <ele>965.78173828125</ele>
        <time>2011-05-28T13:12:51Z</time>
      </trkpt>
      <trkpt lat="42.72939" lon="1.54914">
        <ele>961.9365234375</ele>
        <time>2011-05-28T13:12:55Z</time>
      </trkpt>
      <trkpt lat="42.72947" lon="1.54921">
        <ele>961.45581054688</ele>
        <time>2011-05-28T13:12:59Z</time>
      </trkpt>
      <trkpt lat="42.72954" lon="1.54929">
        <ele>961.45581054688</ele>
        <time>2011-05-28T13:13:03Z</time>
      </trkpt>
      <trkpt lat="42.72958" lon="1.54931">
        <ele>961.45581054688</ele>
        <time>2011-05-28T13:13:05Z</time>
      </trkpt>
      <trkpt lat="42.72965" lon="1.54949">
        <ele>960.013671875</ele>
        <time>2011-05-28T13:13:11Z</time>
      </trkpt>
      <trkpt lat="42.72973" lon="1.54953">
        <ele>959.05249023438</ele>
        <time>2011-05-28T13:13:17Z</time>
      </trkpt>
      <trkpt lat="42.72976" lon="1.54954">
        <ele>959.05249023438</ele>
        <time>2011-05-28T13:13:19Z</time>
      </trkpt>
      <trkpt lat="42.72984" lon="1.54971">
        <ele>956.16845703125</ele>
        <time>2011-05-28T13:13:25Z</time>
      </trkpt>
      <trkpt lat="42.72991" lon="1.5499">
        <ele>949.919921875</ele>
        <time>2011-05-28T13:13:31Z</time>
      </trkpt>
      <trkpt lat="42.72997" lon="1.54987">
        <ele>948.95849609375</ele>
        <time>2011-05-28T13:13:37Z</time>
      </trkpt>
      <trkpt lat="42.72999" lon="1.54984">
        <ele>948.95849609375</ele>
        <time>2011-05-28T13:13:40Z</time>
      </trkpt>
      <trkpt lat="42.72999" lon="1.54976">
        <ele>947.5166015625</ele>
        <time>2011-05-28T13:13:44Z</time>
      </trkpt>
      <trkpt lat="42.72997" lon="1.54969">
        <ele>946.55541992188</ele>
        <time>2011-05-28T13:13:51Z</time>
      </trkpt>
      <trkpt lat="42.72999" lon="1.54968">
        <ele>945.11328125</ele>
        <time>2011-05-28T13:13:56Z</time>
      </trkpt>
      <trkpt lat="42.73009" lon="1.54962">
        <ele>942.71020507812</ele>
        <time>2011-05-28T13:14:03Z</time>
      </trkpt>
      <trkpt lat="42.73011" lon="1.5496">
        <ele>942.71020507812</ele>
        <time>2011-05-28T13:14:05Z</time>
      </trkpt>
    </trkseg>
  </trk>
</gpx>